<?xml version="1.0" encoding="UTF-8" standalone="no" ?>
<gpx xmlns="http://www.topografix.com/GPX/1/1" xmlns:xsi="http://www.w3.org/2001/XMLSchema-instance" xsi:schemaLocation="http://www.topografix.com/GPX/1/1 http://www.topografix.com/GPX/1/1/gpx.xsd" version="1.1" creator="VisuGPX - https://www.visugpx.com">
  <metadata>
    <name>12 08 22 Launaguet-Forêt de Buzet  VTTae</name>
  </metadata>
  <trk>
    <name><![CDATA[12 08 22 Launaguet-Forêt de Buzet  VTTae]]></name>
    <extensions>
      <line xmlns="http://www.topografix.com/GPX/gpx_style/0/2">
        <color>0000FF</color>
        <width>4</width>
          <extensions>
            <sens>1</sens>
          </extensions>
      </line>
    </extensions>
    <trkseg>
      <trkpt lat="43.65586" lon="1.44608">
        <ele>186.177907</ele>
        <time>2022-08-12T06:12:11.783Z</time>
      </trkpt>
      <trkpt lat="43.65597" lon="1.44619">
        <ele>186.177907</ele>
        <time>2022-08-12T06:13:06.386Z</time>
      </trkpt>
      <trkpt lat="43.65606" lon="1.44626">
        <ele>186.177907</ele>
        <time>2022-08-12T06:13:10.370Z</time>
      </trkpt>
      <trkpt lat="43.65614" lon="1.44636">
        <ele>186.177907</ele>
        <time>2022-08-12T06:13:14.382Z</time>
      </trkpt>
      <trkpt lat="43.65611" lon="1.44649">
        <ele>186.177907</ele>
        <time>2022-08-12T06:13:17.386Z</time>
      </trkpt>
      <trkpt lat="43.65609" lon="1.44663">
        <ele>186.177907</ele>
        <time>2022-08-12T06:13:20.366Z</time>
      </trkpt>
      <trkpt lat="43.65604" lon="1.44674">
        <ele>186.177907</ele>
        <time>2022-08-12T06:13:23.367Z</time>
      </trkpt>
      <trkpt lat="43.65597" lon="1.44686">
        <ele>186.177907</ele>
        <time>2022-08-12T06:13:27.364Z</time>
      </trkpt>
      <trkpt lat="43.65591" lon="1.44697">
        <ele>186.177907</ele>
        <time>2022-08-12T06:13:30.374Z</time>
      </trkpt>
      <trkpt lat="43.65586" lon="1.44708">
        <ele>186.162835</ele>
        <time>2022-08-12T06:13:33.364Z</time>
      </trkpt>
      <trkpt lat="43.6558" lon="1.44718">
        <ele>186.131676</ele>
        <time>2022-08-12T06:13:36.353Z</time>
      </trkpt>
      <trkpt lat="43.65574" lon="1.44731">
        <ele>186.097324</ele>
        <time>2022-08-12T06:13:39.342Z</time>
      </trkpt>
      <trkpt lat="43.65567" lon="1.44743">
        <ele>186.061275</ele>
        <time>2022-08-12T06:13:42.379Z</time>
      </trkpt>
      <trkpt lat="43.6556" lon="1.44756">
        <ele>186.022228</ele>
        <time>2022-08-12T06:13:45.367Z</time>
      </trkpt>
      <trkpt lat="43.65553" lon="1.4477">
        <ele>185.98337</ele>
        <time>2022-08-12T06:13:48.360Z</time>
      </trkpt>
      <trkpt lat="43.65546" lon="1.44784">
        <ele>185.944123</ele>
        <time>2022-08-12T06:13:51.372Z</time>
      </trkpt>
      <trkpt lat="43.65539" lon="1.44798">
        <ele>185.904139</ele>
        <time>2022-08-12T06:13:54.382Z</time>
      </trkpt>
      <trkpt lat="43.6553" lon="1.4481">
        <ele>185.864675</ele>
        <time>2022-08-12T06:13:57.376Z</time>
      </trkpt>
      <trkpt lat="43.65521" lon="1.44821">
        <ele>185.826902</ele>
        <time>2022-08-12T06:14:00.373Z</time>
      </trkpt>
      <trkpt lat="43.65514" lon="1.44836">
        <ele>185.786529</ele>
        <time>2022-08-12T06:14:03.364Z</time>
      </trkpt>
      <trkpt lat="43.6551" lon="1.4485">
        <ele>185.749975</ele>
        <time>2022-08-12T06:14:06.374Z</time>
      </trkpt>
      <trkpt lat="43.65505" lon="1.44864">
        <ele>185.715035</ele>
        <time>2022-08-12T06:14:09.366Z</time>
      </trkpt>
      <trkpt lat="43.65499" lon="1.44877">
        <ele>185.678987</ele>
        <time>2022-08-12T06:14:12.366Z</time>
      </trkpt>
      <trkpt lat="43.65492" lon="1.4489">
        <ele>185.641439</ele>
        <time>2022-08-12T06:14:15.355Z</time>
      </trkpt>
      <trkpt lat="43.65485" lon="1.44904">
        <ele>185.602192</ele>
        <time>2022-08-12T06:14:18.376Z</time>
      </trkpt>
      <trkpt lat="43.65479" lon="1.44919">
        <ele>185.535174</ele>
        <time>2022-08-12T06:14:21.350Z</time>
      </trkpt>
      <trkpt lat="43.65476" lon="1.44931">
        <ele>185.484652</ele>
        <time>2022-08-12T06:14:23.349Z</time>
      </trkpt>
      <trkpt lat="43.6548" lon="1.44942">
        <ele>185.432339</ele>
        <time>2022-08-12T06:14:25.351Z</time>
      </trkpt>
      <trkpt lat="43.65489" lon="1.44957">
        <ele>185.358152</ele>
        <time>2022-08-12T06:14:28.360Z</time>
      </trkpt>
      <trkpt lat="43.65494" lon="1.44967">
        <ele>185.307618</ele>
        <time>2022-08-12T06:14:30.378Z</time>
      </trkpt>
      <trkpt lat="43.65501" lon="1.44977">
        <ele>185.256259</ele>
        <time>2022-08-12T06:14:32.364Z</time>
      </trkpt>
      <trkpt lat="43.65507" lon="1.44986">
        <ele>185.204866</ele>
        <time>2022-08-12T06:14:34.362Z</time>
      </trkpt>
      <trkpt lat="43.65514" lon="1.44995">
        <ele>185.151798</ele>
        <time>2022-08-12T06:14:36.375Z</time>
      </trkpt>
      <trkpt lat="43.65522" lon="1.45004">
        <ele>185.097989</ele>
        <time>2022-08-12T06:14:38.344Z</time>
      </trkpt>
      <trkpt lat="43.65527" lon="1.45015">
        <ele>185.044233</ele>
        <time>2022-08-12T06:14:40.372Z</time>
      </trkpt>
      <trkpt lat="43.65534" lon="1.45025">
        <ele>184.991166</ele>
        <time>2022-08-12T06:14:42.367Z</time>
      </trkpt>
      <trkpt lat="43.65542" lon="1.45034">
        <ele>184.937282</ele>
        <time>2022-08-12T06:14:44.364Z</time>
      </trkpt>
      <trkpt lat="43.65549" lon="1.45044">
        <ele>184.882847</ele>
        <time>2022-08-12T06:14:46.375Z</time>
      </trkpt>
      <trkpt lat="43.65556" lon="1.45054">
        <ele>184.828518</ele>
        <time>2022-08-12T06:14:48.370Z</time>
      </trkpt>
      <trkpt lat="43.65562" lon="1.45064">
        <ele>184.773799</ele>
        <time>2022-08-12T06:14:50.362Z</time>
      </trkpt>
      <trkpt lat="43.65568" lon="1.45075">
        <ele>184.721373</ele>
        <time>2022-08-12T06:14:52.359Z</time>
      </trkpt>
      <trkpt lat="43.65579" lon="1.45086">
        <ele>184.647986</ele>
        <time>2022-08-12T06:14:55.368Z</time>
      </trkpt>
      <trkpt lat="43.65586" lon="1.45095">
        <ele>184.625564</ele>
        <time>2022-08-12T06:14:57.369Z</time>
      </trkpt>
      <trkpt lat="43.65593" lon="1.45105">
        <ele>184.634761</ele>
        <time>2022-08-12T06:14:59.369Z</time>
      </trkpt>
      <trkpt lat="43.656" lon="1.45116">
        <ele>184.644057</ele>
        <time>2022-08-12T06:15:01.367Z</time>
      </trkpt>
      <trkpt lat="43.65604" lon="1.45129">
        <ele>184.653506</ele>
        <time>2022-08-12T06:15:03.364Z</time>
      </trkpt>
      <trkpt lat="43.65605" lon="1.45144">
        <ele>184.662972</ele>
        <time>2022-08-12T06:15:05.373Z</time>
      </trkpt>
      <trkpt lat="43.65601" lon="1.45157">
        <ele>184.672254</ele>
        <time>2022-08-12T06:15:07.354Z</time>
      </trkpt>
      <trkpt lat="43.65593" lon="1.45165">
        <ele>184.681177</ele>
        <time>2022-08-12T06:15:09.364Z</time>
      </trkpt>
      <trkpt lat="43.65585" lon="1.45174">
        <ele>184.690302</ele>
        <time>2022-08-12T06:15:11.357Z</time>
      </trkpt>
      <trkpt lat="43.65578" lon="1.45184">
        <ele>184.699315</ele>
        <time>2022-08-12T06:15:13.360Z</time>
      </trkpt>
      <trkpt lat="43.6557" lon="1.45193">
        <ele>184.708562</ele>
        <time>2022-08-12T06:15:15.355Z</time>
      </trkpt>
      <trkpt lat="43.65562" lon="1.45201">
        <ele>184.717972</ele>
        <time>2022-08-12T06:15:17.373Z</time>
      </trkpt>
      <trkpt lat="43.65554" lon="1.4521">
        <ele>184.727122</ele>
        <time>2022-08-12T06:15:19.367Z</time>
      </trkpt>
      <trkpt lat="43.65546" lon="1.45219">
        <ele>184.736369</ele>
        <time>2022-08-12T06:15:21.363Z</time>
      </trkpt>
      <trkpt lat="43.65538" lon="1.45228">
        <ele>184.745686</ele>
        <time>2022-08-12T06:15:23.367Z</time>
      </trkpt>
      <trkpt lat="43.6553" lon="1.45236">
        <ele>184.754693</ele>
        <time>2022-08-12T06:15:25.365Z</time>
      </trkpt>
      <trkpt lat="43.65522" lon="1.45245">
        <ele>184.763457</ele>
        <time>2022-08-12T06:15:27.366Z</time>
      </trkpt>
      <trkpt lat="43.65514" lon="1.45253">
        <ele>184.772646</ele>
        <time>2022-08-12T06:15:29.362Z</time>
      </trkpt>
      <trkpt lat="43.65506" lon="1.45261">
        <ele>184.781681</ele>
        <time>2022-08-12T06:15:31.381Z</time>
      </trkpt>
      <trkpt lat="43.65497" lon="1.4527">
        <ele>184.814507</ele>
        <time>2022-08-12T06:15:33.375Z</time>
      </trkpt>
      <trkpt lat="43.6549" lon="1.45279">
        <ele>184.847695</ele>
        <time>2022-08-12T06:15:35.390Z</time>
      </trkpt>
      <trkpt lat="43.65482" lon="1.45287">
        <ele>184.879393</ele>
        <time>2022-08-12T06:15:37.373Z</time>
      </trkpt>
      <trkpt lat="43.65474" lon="1.45295">
        <ele>184.911579</ele>
        <time>2022-08-12T06:15:39.368Z</time>
      </trkpt>
      <trkpt lat="43.65467" lon="1.45304">
        <ele>184.944441</ele>
        <time>2022-08-12T06:15:41.370Z</time>
      </trkpt>
      <trkpt lat="43.65459" lon="1.45313">
        <ele>184.977384</ele>
        <time>2022-08-12T06:15:43.354Z</time>
      </trkpt>
      <trkpt lat="43.65453" lon="1.45325">
        <ele>185.011705</ele>
        <time>2022-08-12T06:15:45.365Z</time>
      </trkpt>
      <trkpt lat="43.65448" lon="1.45336">
        <ele>185.045053</ele>
        <time>2022-08-12T06:15:47.370Z</time>
      </trkpt>
      <trkpt lat="43.65442" lon="1.45346">
        <ele>185.0769</ele>
        <time>2022-08-12T06:15:49.366Z</time>
      </trkpt>
      <trkpt lat="43.65441" lon="1.45364">
        <ele>185.119749</ele>
        <time>2022-08-12T06:15:52.365Z</time>
      </trkpt>
      <trkpt lat="43.6545" lon="1.45371">
        <ele>185.151191</ele>
        <time>2022-08-12T06:15:54.371Z</time>
      </trkpt>
      <trkpt lat="43.65458" lon="1.45373">
        <ele>185.181448</ele>
        <time>2022-08-12T06:15:56.368Z</time>
      </trkpt>
      <trkpt lat="43.65468" lon="1.45376">
        <ele>185.213432</ele>
        <time>2022-08-12T06:15:58.355Z</time>
      </trkpt>
      <trkpt lat="43.65477" lon="1.45379">
        <ele>185.245899</ele>
        <time>2022-08-12T06:16:00.383Z</time>
      </trkpt>
      <trkpt lat="43.65487" lon="1.45382">
        <ele>185.279393</ele>
        <time>2022-08-12T06:16:02.371Z</time>
      </trkpt>
      <trkpt lat="43.65497" lon="1.45386">
        <ele>185.313826</ele>
        <time>2022-08-12T06:16:04.387Z</time>
      </trkpt>
      <trkpt lat="43.65507" lon="1.4539">
        <ele>185.348643</ele>
        <time>2022-08-12T06:16:06.392Z</time>
      </trkpt>
      <trkpt lat="43.65517" lon="1.45393">
        <ele>185.381503</ele>
        <time>2022-08-12T06:16:08.374Z</time>
      </trkpt>
      <trkpt lat="43.65527" lon="1.45396">
        <ele>185.394498</ele>
        <time>2022-08-12T06:16:10.370Z</time>
      </trkpt>
      <trkpt lat="43.65537" lon="1.454">
        <ele>185.407791</ele>
        <time>2022-08-12T06:16:12.387Z</time>
      </trkpt>
      <trkpt lat="43.65547" lon="1.45403">
        <ele>185.421415</ele>
        <time>2022-08-12T06:16:14.368Z</time>
      </trkpt>
      <trkpt lat="43.65557" lon="1.45407">
        <ele>185.435258</ele>
        <time>2022-08-12T06:16:16.394Z</time>
      </trkpt>
      <trkpt lat="43.65568" lon="1.4541">
        <ele>185.448861</ele>
        <time>2022-08-12T06:16:18.365Z</time>
      </trkpt>
      <trkpt lat="43.65578" lon="1.45414">
        <ele>185.462233</ele>
        <time>2022-08-12T06:16:20.372Z</time>
      </trkpt>
      <trkpt lat="43.65588" lon="1.45417">
        <ele>185.476281</ele>
        <time>2022-08-12T06:16:22.373Z</time>
      </trkpt>
      <trkpt lat="43.65598" lon="1.45421">
        <ele>185.490137</ele>
        <time>2022-08-12T06:16:24.373Z</time>
      </trkpt>
      <trkpt lat="43.65609" lon="1.45424">
        <ele>185.504208</ele>
        <time>2022-08-12T06:16:26.385Z</time>
      </trkpt>
      <trkpt lat="43.65619" lon="1.45429">
        <ele>185.517752</ele>
        <time>2022-08-12T06:16:28.369Z</time>
      </trkpt>
      <trkpt lat="43.65629" lon="1.45434">
        <ele>185.531762</ele>
        <time>2022-08-12T06:16:30.371Z</time>
      </trkpt>
      <trkpt lat="43.65639" lon="1.45439">
        <ele>185.545049</ele>
        <time>2022-08-12T06:16:32.372Z</time>
      </trkpt>
      <trkpt lat="43.65648" lon="1.45443">
        <ele>185.558166</ele>
        <time>2022-08-12T06:16:34.386Z</time>
      </trkpt>
      <trkpt lat="43.65658" lon="1.45447">
        <ele>185.571614</ele>
        <time>2022-08-12T06:16:36.390Z</time>
      </trkpt>
      <trkpt lat="43.65668" lon="1.45451">
        <ele>185.584937</ele>
        <time>2022-08-12T06:16:38.374Z</time>
      </trkpt>
      <trkpt lat="43.65678" lon="1.45455">
        <ele>185.59858</ele>
        <time>2022-08-12T06:16:40.366Z</time>
      </trkpt>
      <trkpt lat="43.65688" lon="1.45459">
        <ele>185.612047</ele>
        <time>2022-08-12T06:16:42.382Z</time>
      </trkpt>
      <trkpt lat="43.65698" lon="1.45463">
        <ele>185.651475</ele>
        <time>2022-08-12T06:16:44.376Z</time>
      </trkpt>
      <trkpt lat="43.65708" lon="1.45467">
        <ele>185.697507</ele>
        <time>2022-08-12T06:16:46.368Z</time>
      </trkpt>
      <trkpt lat="43.65717" lon="1.45471">
        <ele>185.74008</ele>
        <time>2022-08-12T06:16:48.391Z</time>
      </trkpt>
      <trkpt lat="43.65727" lon="1.45475">
        <ele>185.78415</ele>
        <time>2022-08-12T06:16:50.435Z</time>
      </trkpt>
      <trkpt lat="43.6574" lon="1.45476">
        <ele>185.841513</ele>
        <time>2022-08-12T06:16:53.369Z</time>
      </trkpt>
      <trkpt lat="43.65749" lon="1.45477">
        <ele>185.882504</ele>
        <time>2022-08-12T06:16:55.382Z</time>
      </trkpt>
      <trkpt lat="43.65758" lon="1.4548">
        <ele>185.924366</ele>
        <time>2022-08-12T06:16:57.388Z</time>
      </trkpt>
      <trkpt lat="43.65767" lon="1.45482">
        <ele>185.965921</ele>
        <time>2022-08-12T06:16:59.368Z</time>
      </trkpt>
      <trkpt lat="43.65777" lon="1.45485">
        <ele>186.009843</ele>
        <time>2022-08-12T06:17:01.375Z</time>
      </trkpt>
      <trkpt lat="43.65787" lon="1.45489">
        <ele>186.056029</ele>
        <time>2022-08-12T06:17:03.385Z</time>
      </trkpt>
      <trkpt lat="43.65797" lon="1.45493">
        <ele>186.102061</ele>
        <time>2022-08-12T06:17:05.386Z</time>
      </trkpt>
      <trkpt lat="43.65808" lon="1.45495">
        <ele>186.148743</ele>
        <time>2022-08-12T06:17:07.382Z</time>
      </trkpt>
      <trkpt lat="43.65819" lon="1.45492">
        <ele>186.197692</ele>
        <time>2022-08-12T06:17:09.367Z</time>
      </trkpt>
      <trkpt lat="43.6583" lon="1.45489">
        <ele>186.249416</ele>
        <time>2022-08-12T06:17:11.379Z</time>
      </trkpt>
      <trkpt lat="43.65842" lon="1.45485">
        <ele>186.301995</ele>
        <time>2022-08-12T06:17:13.387Z</time>
      </trkpt>
      <trkpt lat="43.65854" lon="1.45481">
        <ele>186.355716</ele>
        <time>2022-08-12T06:17:15.382Z</time>
      </trkpt>
      <trkpt lat="43.65865" lon="1.45478">
        <ele>186.399907</ele>
        <time>2022-08-12T06:17:17.373Z</time>
      </trkpt>
      <trkpt lat="43.65877" lon="1.45475">
        <ele>186.256326</ele>
        <time>2022-08-12T06:17:19.394Z</time>
      </trkpt>
      <trkpt lat="43.65889" lon="1.45474">
        <ele>186.111798</ele>
        <time>2022-08-12T06:17:21.380Z</time>
      </trkpt>
      <trkpt lat="43.659" lon="1.45474">
        <ele>185.969859</ele>
        <time>2022-08-12T06:17:23.373Z</time>
      </trkpt>
      <trkpt lat="43.65911" lon="1.4547">
        <ele>185.832234</ele>
        <time>2022-08-12T06:17:25.367Z</time>
      </trkpt>
      <trkpt lat="43.65921" lon="1.4547">
        <ele>185.710078</ele>
        <time>2022-08-12T06:17:27.376Z</time>
      </trkpt>
      <trkpt lat="43.65932" lon="1.45465">
        <ele>185.56989</ele>
        <time>2022-08-12T06:17:30.384Z</time>
      </trkpt>
      <trkpt lat="43.65934" lon="1.45478">
        <ele>185.448678</ele>
        <time>2022-08-12T06:17:35.376Z</time>
      </trkpt>
      <trkpt lat="43.65933" lon="1.45493">
        <ele>185.314693</ele>
        <time>2022-08-12T06:17:38.377Z</time>
      </trkpt>
      <trkpt lat="43.6594" lon="1.45509">
        <ele>185.146448</ele>
        <time>2022-08-12T06:17:41.379Z</time>
      </trkpt>
      <trkpt lat="43.65949" lon="1.45517">
        <ele>185.01543</ele>
        <time>2022-08-12T06:17:43.384Z</time>
      </trkpt>
      <trkpt lat="43.6596" lon="1.45518">
        <ele>184.877004</ele>
        <time>2022-08-12T06:17:45.370Z</time>
      </trkpt>
      <trkpt lat="43.6597" lon="1.45511">
        <ele>184.738049</ele>
        <time>2022-08-12T06:17:47.369Z</time>
      </trkpt>
      <trkpt lat="43.6598" lon="1.45502">
        <ele>184.590928</ele>
        <time>2022-08-12T06:17:49.372Z</time>
      </trkpt>
      <trkpt lat="43.65993" lon="1.45498">
        <ele>184.432055</ele>
        <time>2022-08-12T06:17:51.390Z</time>
      </trkpt>
      <trkpt lat="43.66007" lon="1.45501">
        <ele>184.259894</ele>
        <time>2022-08-12T06:17:53.379Z</time>
      </trkpt>
      <trkpt lat="43.66021" lon="1.45509">
        <ele>184.139143</ele>
        <time>2022-08-12T06:17:55.361Z</time>
      </trkpt>
      <trkpt lat="43.66034" lon="1.45519">
        <ele>184.056337</ele>
        <time>2022-08-12T06:17:57.381Z</time>
      </trkpt>
      <trkpt lat="43.66047" lon="1.45523">
        <ele>183.990026</ele>
        <time>2022-08-12T06:17:59.377Z</time>
      </trkpt>
      <trkpt lat="43.66056" lon="1.45527">
        <ele>183.936561</ele>
        <time>2022-08-12T06:18:02.366Z</time>
      </trkpt>
      <trkpt lat="43.66068" lon="1.45535">
        <ele>183.865826</ele>
        <time>2022-08-12T06:18:05.371Z</time>
      </trkpt>
      <trkpt lat="43.66078" lon="1.45535">
        <ele>183.816235</ele>
        <time>2022-08-12T06:18:07.365Z</time>
      </trkpt>
      <trkpt lat="43.66089" lon="1.45532">
        <ele>183.757979</ele>
        <time>2022-08-12T06:18:09.376Z</time>
      </trkpt>
      <trkpt lat="43.66099" lon="1.45535">
        <ele>183.701061</ele>
        <time>2022-08-12T06:18:11.364Z</time>
      </trkpt>
      <trkpt lat="43.6611" lon="1.45541">
        <ele>183.64069</ele>
        <time>2022-08-12T06:18:13.363Z</time>
      </trkpt>
      <trkpt lat="43.66118" lon="1.45547">
        <ele>183.593092</ele>
        <time>2022-08-12T06:18:15.367Z</time>
      </trkpt>
      <trkpt lat="43.66126" lon="1.45553">
        <ele>183.544658</ele>
        <time>2022-08-12T06:18:17.364Z</time>
      </trkpt>
      <trkpt lat="43.66134" lon="1.45561">
        <ele>183.491937</ele>
        <time>2022-08-12T06:18:19.363Z</time>
      </trkpt>
      <trkpt lat="43.66143" lon="1.45569">
        <ele>183.435501</ele>
        <time>2022-08-12T06:18:21.372Z</time>
      </trkpt>
      <trkpt lat="43.66152" lon="1.45577">
        <ele>183.378439</ele>
        <time>2022-08-12T06:18:23.370Z</time>
      </trkpt>
      <trkpt lat="43.66161" lon="1.45585">
        <ele>183.321843</ele>
        <time>2022-08-12T06:18:25.359Z</time>
      </trkpt>
      <trkpt lat="43.6617" lon="1.45596">
        <ele>183.261461</ele>
        <time>2022-08-12T06:18:27.360Z</time>
      </trkpt>
      <trkpt lat="43.66178" lon="1.45608">
        <ele>183.202771</ele>
        <time>2022-08-12T06:18:29.360Z</time>
      </trkpt>
      <trkpt lat="43.66187" lon="1.45619">
        <ele>183.147198</ele>
        <time>2022-08-12T06:18:31.365Z</time>
      </trkpt>
      <trkpt lat="43.66196" lon="1.45629">
        <ele>183.092781</ele>
        <time>2022-08-12T06:18:33.371Z</time>
      </trkpt>
      <trkpt lat="43.66208" lon="1.45629">
        <ele>183.041628</ele>
        <time>2022-08-12T06:18:35.348Z</time>
      </trkpt>
      <trkpt lat="43.66214" lon="1.45617">
        <ele>182.991397</ele>
        <time>2022-08-12T06:18:37.363Z</time>
      </trkpt>
      <trkpt lat="43.66218" lon="1.45602">
        <ele>182.938063</ele>
        <time>2022-08-12T06:18:39.371Z</time>
      </trkpt>
      <trkpt lat="43.66222" lon="1.45587">
        <ele>182.885403</ele>
        <time>2022-08-12T06:18:41.372Z</time>
      </trkpt>
      <trkpt lat="43.66227" lon="1.45572">
        <ele>182.831562</ele>
        <time>2022-08-12T06:18:43.359Z</time>
      </trkpt>
      <trkpt lat="43.66232" lon="1.45557">
        <ele>182.776951</ele>
        <time>2022-08-12T06:18:45.374Z</time>
      </trkpt>
      <trkpt lat="43.66236" lon="1.45542">
        <ele>182.72326</ele>
        <time>2022-08-12T06:18:47.370Z</time>
      </trkpt>
      <trkpt lat="43.66241" lon="1.45527">
        <ele>182.669026</ele>
        <time>2022-08-12T06:18:49.355Z</time>
      </trkpt>
      <trkpt lat="43.66245" lon="1.45512">
        <ele>182.61417</ele>
        <time>2022-08-12T06:18:51.359Z</time>
      </trkpt>
      <trkpt lat="43.66249" lon="1.45497">
        <ele>182.562138</ele>
        <time>2022-08-12T06:18:53.375Z</time>
      </trkpt>
      <trkpt lat="43.66253" lon="1.45482">
        <ele>182.507468</ele>
        <time>2022-08-12T06:18:55.387Z</time>
      </trkpt>
      <trkpt lat="43.66258" lon="1.45467">
        <ele>182.453899</ele>
        <time>2022-08-12T06:18:57.374Z</time>
      </trkpt>
      <trkpt lat="43.66262" lon="1.45453">
        <ele>182.408478</ele>
        <time>2022-08-12T06:18:59.379Z</time>
      </trkpt>
      <trkpt lat="43.66265" lon="1.45438">
        <ele>182.392498</ele>
        <time>2022-08-12T06:19:01.365Z</time>
      </trkpt>
      <trkpt lat="43.66269" lon="1.45422">
        <ele>182.376315</ele>
        <time>2022-08-12T06:19:03.370Z</time>
      </trkpt>
      <trkpt lat="43.66274" lon="1.45407">
        <ele>182.360077</ele>
        <time>2022-08-12T06:19:05.365Z</time>
      </trkpt>
      <trkpt lat="43.66278" lon="1.45392">
        <ele>182.344112</ele>
        <time>2022-08-12T06:19:07.354Z</time>
      </trkpt>
      <trkpt lat="43.66282" lon="1.45377">
        <ele>182.328761</ele>
        <time>2022-08-12T06:19:09.364Z</time>
      </trkpt>
      <trkpt lat="43.6628" lon="1.45362">
        <ele>182.313736</ele>
        <time>2022-08-12T06:19:11.375Z</time>
      </trkpt>
      <trkpt lat="43.66275" lon="1.45348">
        <ele>182.298474</ele>
        <time>2022-08-12T06:19:13.366Z</time>
      </trkpt>
      <trkpt lat="43.66278" lon="1.45333">
        <ele>182.283399</ele>
        <time>2022-08-12T06:19:15.372Z</time>
      </trkpt>
      <trkpt lat="43.66283" lon="1.45319">
        <ele>182.267754</ele>
        <time>2022-08-12T06:19:17.349Z</time>
      </trkpt>
      <trkpt lat="43.66289" lon="1.45305">
        <ele>182.251739</ele>
        <time>2022-08-12T06:19:19.349Z</time>
      </trkpt>
      <trkpt lat="43.66296" lon="1.45292">
        <ele>182.235862</ele>
        <time>2022-08-12T06:19:21.367Z</time>
      </trkpt>
      <trkpt lat="43.66304" lon="1.45281">
        <ele>182.220069</ele>
        <time>2022-08-12T06:19:23.351Z</time>
      </trkpt>
      <trkpt lat="43.66312" lon="1.45269">
        <ele>182.203675</ele>
        <time>2022-08-12T06:19:25.335Z</time>
      </trkpt>
      <trkpt lat="43.6632" lon="1.45256">
        <ele>182.187578</ele>
        <time>2022-08-12T06:19:27.351Z</time>
      </trkpt>
      <trkpt lat="43.66328" lon="1.45245">
        <ele>182.172178</ele>
        <time>2022-08-12T06:19:29.353Z</time>
      </trkpt>
      <trkpt lat="43.6634" lon="1.45232">
        <ele>182.189925</ele>
        <time>2022-08-12T06:19:32.345Z</time>
      </trkpt>
      <trkpt lat="43.66348" lon="1.45222">
        <ele>182.215019</ele>
        <time>2022-08-12T06:19:34.344Z</time>
      </trkpt>
      <trkpt lat="43.66355" lon="1.4521">
        <ele>182.240823</ele>
        <time>2022-08-12T06:19:36.359Z</time>
      </trkpt>
      <trkpt lat="43.66361" lon="1.45197">
        <ele>182.265586</ele>
        <time>2022-08-12T06:19:38.357Z</time>
      </trkpt>
      <trkpt lat="43.66365" lon="1.45181">
        <ele>182.294043</ele>
        <time>2022-08-12T06:19:40.349Z</time>
      </trkpt>
      <trkpt lat="43.66363" lon="1.45165">
        <ele>182.32038</ele>
        <time>2022-08-12T06:19:43.357Z</time>
      </trkpt>
      <trkpt lat="43.66368" lon="1.45152">
        <ele>182.344217</ele>
        <time>2022-08-12T06:19:46.357Z</time>
      </trkpt>
      <trkpt lat="43.66375" lon="1.45137">
        <ele>182.373623</ele>
        <time>2022-08-12T06:19:49.351Z</time>
      </trkpt>
      <trkpt lat="43.6638" lon="1.45124">
        <ele>182.398483</ele>
        <time>2022-08-12T06:19:51.345Z</time>
      </trkpt>
      <trkpt lat="43.66385" lon="1.4511">
        <ele>182.424787</ele>
        <time>2022-08-12T06:19:53.359Z</time>
      </trkpt>
      <trkpt lat="43.66392" lon="1.45095">
        <ele>182.452493</ele>
        <time>2022-08-12T06:19:55.348Z</time>
      </trkpt>
      <trkpt lat="43.66397" lon="1.45081">
        <ele>182.479373</ele>
        <time>2022-08-12T06:19:57.381Z</time>
      </trkpt>
      <trkpt lat="43.66397" lon="1.45063">
        <ele>182.507911</ele>
        <time>2022-08-12T06:19:59.351Z</time>
      </trkpt>
      <trkpt lat="43.66397" lon="1.45046">
        <ele>182.536943</ele>
        <time>2022-08-12T06:20:01.350Z</time>
      </trkpt>
      <trkpt lat="43.66398" lon="1.45028">
        <ele>182.565835</ele>
        <time>2022-08-12T06:20:03.371Z</time>
      </trkpt>
      <trkpt lat="43.66404" lon="1.45014">
        <ele>182.552533</ele>
        <time>2022-08-12T06:20:05.355Z</time>
      </trkpt>
      <trkpt lat="43.66412" lon="1.45001">
        <ele>182.514753</ele>
        <time>2022-08-12T06:20:07.357Z</time>
      </trkpt>
      <trkpt lat="43.66418" lon="1.44986">
        <ele>182.477751</ele>
        <time>2022-08-12T06:20:09.344Z</time>
      </trkpt>
      <trkpt lat="43.66422" lon="1.4497">
        <ele>182.442081</ele>
        <time>2022-08-12T06:20:11.356Z</time>
      </trkpt>
      <trkpt lat="43.6643" lon="1.44959">
        <ele>182.407731</ele>
        <time>2022-08-12T06:20:13.348Z</time>
      </trkpt>
      <trkpt lat="43.66435" lon="1.44945">
        <ele>182.373367</ele>
        <time>2022-08-12T06:20:15.356Z</time>
      </trkpt>
      <trkpt lat="43.66438" lon="1.44931">
        <ele>182.340387</ele>
        <time>2022-08-12T06:20:17.340Z</time>
      </trkpt>
      <trkpt lat="43.66442" lon="1.44915">
        <ele>182.304397</ele>
        <time>2022-08-12T06:20:19.352Z</time>
      </trkpt>
      <trkpt lat="43.66447" lon="1.449">
        <ele>182.267997</ele>
        <time>2022-08-12T06:20:21.346Z</time>
      </trkpt>
      <trkpt lat="43.66452" lon="1.44886">
        <ele>182.232059</ele>
        <time>2022-08-12T06:20:23.355Z</time>
      </trkpt>
      <trkpt lat="43.66456" lon="1.4487">
        <ele>182.196217</ele>
        <time>2022-08-12T06:20:25.355Z</time>
      </trkpt>
      <trkpt lat="43.66459" lon="1.44854">
        <ele>182.16054</ele>
        <time>2022-08-12T06:20:27.349Z</time>
      </trkpt>
      <trkpt lat="43.66464" lon="1.44839">
        <ele>182.124205</ele>
        <time>2022-08-12T06:20:29.360Z</time>
      </trkpt>
      <trkpt lat="43.66469" lon="1.44824">
        <ele>182.088002</ele>
        <time>2022-08-12T06:20:31.349Z</time>
      </trkpt>
      <trkpt lat="43.66475" lon="1.44811">
        <ele>182.053653</ele>
        <time>2022-08-12T06:20:33.346Z</time>
      </trkpt>
      <trkpt lat="43.66482" lon="1.44799">
        <ele>182.030104</ele>
        <time>2022-08-12T06:20:35.356Z</time>
      </trkpt>
      <trkpt lat="43.66488" lon="1.44785">
        <ele>182.027117</ele>
        <time>2022-08-12T06:20:37.365Z</time>
      </trkpt>
      <trkpt lat="43.66493" lon="1.4477">
        <ele>182.023984</ele>
        <time>2022-08-12T06:20:39.355Z</time>
      </trkpt>
      <trkpt lat="43.66498" lon="1.44755">
        <ele>182.02085</ele>
        <time>2022-08-12T06:20:41.364Z</time>
      </trkpt>
      <trkpt lat="43.66504" lon="1.4474">
        <ele>182.017707</ele>
        <time>2022-08-12T06:20:43.360Z</time>
      </trkpt>
      <trkpt lat="43.66509" lon="1.44725">
        <ele>182.014657</ele>
        <time>2022-08-12T06:20:45.380Z</time>
      </trkpt>
      <trkpt lat="43.66514" lon="1.44712">
        <ele>182.011944</ele>
        <time>2022-08-12T06:20:47.361Z</time>
      </trkpt>
      <trkpt lat="43.66524" lon="1.4471">
        <ele>182.009203</ele>
        <time>2022-08-12T06:20:50.360Z</time>
      </trkpt>
      <trkpt lat="43.66537" lon="1.44719">
        <ele>182.005689</ele>
        <time>2022-08-12T06:20:53.369Z</time>
      </trkpt>
      <trkpt lat="43.66546" lon="1.44726">
        <ele>182.002926</ele>
        <time>2022-08-12T06:20:55.356Z</time>
      </trkpt>
      <trkpt lat="43.66555" lon="1.44734">
        <ele>182.000057</ele>
        <time>2022-08-12T06:20:57.376Z</time>
      </trkpt>
      <trkpt lat="43.66565" lon="1.44745">
        <ele>181.996848</ele>
        <time>2022-08-12T06:20:59.363Z</time>
      </trkpt>
      <trkpt lat="43.66574" lon="1.44758">
        <ele>181.993613</ele>
        <time>2022-08-12T06:21:01.364Z</time>
      </trkpt>
      <trkpt lat="43.66582" lon="1.44771">
        <ele>181.99042</ele>
        <time>2022-08-12T06:21:03.369Z</time>
      </trkpt>
      <trkpt lat="43.6659" lon="1.44784">
        <ele>181.987117</ele>
        <time>2022-08-12T06:21:05.362Z</time>
      </trkpt>
      <trkpt lat="43.66598" lon="1.44797">
        <ele>181.968325</ele>
        <time>2022-08-12T06:21:07.376Z</time>
      </trkpt>
      <trkpt lat="43.66606" lon="1.44809">
        <ele>181.911169</ele>
        <time>2022-08-12T06:21:09.370Z</time>
      </trkpt>
      <trkpt lat="43.66614" lon="1.44822">
        <ele>181.854067</ele>
        <time>2022-08-12T06:21:11.370Z</time>
      </trkpt>
      <trkpt lat="43.66622" lon="1.44834">
        <ele>181.798729</ele>
        <time>2022-08-12T06:21:13.372Z</time>
      </trkpt>
      <trkpt lat="43.66629" lon="1.44845">
        <ele>181.745862</ele>
        <time>2022-08-12T06:21:15.364Z</time>
      </trkpt>
      <trkpt lat="43.66638" lon="1.44854">
        <ele>181.694517</ele>
        <time>2022-08-12T06:21:17.351Z</time>
      </trkpt>
      <trkpt lat="43.66648" lon="1.44859">
        <ele>181.641494</ele>
        <time>2022-08-12T06:21:19.368Z</time>
      </trkpt>
      <trkpt lat="43.6666" lon="1.44861">
        <ele>181.587448</ele>
        <time>2022-08-12T06:21:21.388Z</time>
      </trkpt>
      <trkpt lat="43.66671" lon="1.4486">
        <ele>181.532882</ele>
        <time>2022-08-12T06:21:23.360Z</time>
      </trkpt>
      <trkpt lat="43.66682" lon="1.44858">
        <ele>181.479158</ele>
        <time>2022-08-12T06:21:25.362Z</time>
      </trkpt>
      <trkpt lat="43.66694" lon="1.44854">
        <ele>181.421842</ele>
        <time>2022-08-12T06:21:27.375Z</time>
      </trkpt>
      <trkpt lat="43.66704" lon="1.44846">
        <ele>181.365007</ele>
        <time>2022-08-12T06:21:29.381Z</time>
      </trkpt>
      <trkpt lat="43.66715" lon="1.44836">
        <ele>181.304822</ele>
        <time>2022-08-12T06:21:31.374Z</time>
      </trkpt>
      <trkpt lat="43.66725" lon="1.44827">
        <ele>181.247383</ele>
        <time>2022-08-12T06:21:33.368Z</time>
      </trkpt>
      <trkpt lat="43.66736" lon="1.4482">
        <ele>181.190491</ele>
        <time>2022-08-12T06:21:35.362Z</time>
      </trkpt>
      <trkpt lat="43.66747" lon="1.44822">
        <ele>181.135662</ele>
        <time>2022-08-12T06:21:37.381Z</time>
      </trkpt>
      <trkpt lat="43.66756" lon="1.44829">
        <ele>181.116763</ele>
        <time>2022-08-12T06:21:39.372Z</time>
      </trkpt>
      <trkpt lat="43.66758" lon="1.44844">
        <ele>181.106383</ele>
        <time>2022-08-12T06:21:41.371Z</time>
      </trkpt>
      <trkpt lat="43.6676" lon="1.4486">
        <ele>181.095341</ele>
        <time>2022-08-12T06:21:43.367Z</time>
      </trkpt>
      <trkpt lat="43.66767" lon="1.44874">
        <ele>181.084006</ele>
        <time>2022-08-12T06:21:45.373Z</time>
      </trkpt>
      <trkpt lat="43.66775" lon="1.44886">
        <ele>181.072814</ele>
        <time>2022-08-12T06:21:47.365Z</time>
      </trkpt>
      <trkpt lat="43.66785" lon="1.44895">
        <ele>181.061662</ele>
        <time>2022-08-12T06:21:49.367Z</time>
      </trkpt>
      <trkpt lat="43.66795" lon="1.44903">
        <ele>181.050716</ele>
        <time>2022-08-12T06:21:51.366Z</time>
      </trkpt>
      <trkpt lat="43.66805" lon="1.44907">
        <ele>181.040825</ele>
        <time>2022-08-12T06:21:53.367Z</time>
      </trkpt>
      <trkpt lat="43.66815" lon="1.44913">
        <ele>181.030476</ele>
        <time>2022-08-12T06:21:55.376Z</time>
      </trkpt>
      <trkpt lat="43.66827" lon="1.44918">
        <ele>181.019277</ele>
        <time>2022-08-12T06:21:57.368Z</time>
      </trkpt>
      <trkpt lat="43.66838" lon="1.44922">
        <ele>181.008204</ele>
        <time>2022-08-12T06:21:59.372Z</time>
      </trkpt>
      <trkpt lat="43.66849" lon="1.44925">
        <ele>180.997317</ele>
        <time>2022-08-12T06:22:01.376Z</time>
      </trkpt>
      <trkpt lat="43.66861" lon="1.44928">
        <ele>180.986287</ele>
        <time>2022-08-12T06:22:03.367Z</time>
      </trkpt>
      <trkpt lat="43.66873" lon="1.44931">
        <ele>180.97512</ele>
        <time>2022-08-12T06:22:05.363Z</time>
      </trkpt>
      <trkpt lat="43.66884" lon="1.44934">
        <ele>180.964208</ele>
        <time>2022-08-12T06:22:07.367Z</time>
      </trkpt>
      <trkpt lat="43.66896" lon="1.44936">
        <ele>180.955468</ele>
        <time>2022-08-12T06:22:09.367Z</time>
      </trkpt>
      <trkpt lat="43.66907" lon="1.44939">
        <ele>180.955603</ele>
        <time>2022-08-12T06:22:11.352Z</time>
      </trkpt>
      <trkpt lat="43.66918" lon="1.44944">
        <ele>180.955741</ele>
        <time>2022-08-12T06:22:13.365Z</time>
      </trkpt>
      <trkpt lat="43.66928" lon="1.44953">
        <ele>180.95588</ele>
        <time>2022-08-12T06:22:15.377Z</time>
      </trkpt>
      <trkpt lat="43.66935" lon="1.44967">
        <ele>180.956018</ele>
        <time>2022-08-12T06:22:17.368Z</time>
      </trkpt>
      <trkpt lat="43.66939" lon="1.44982">
        <ele>180.956155</ele>
        <time>2022-08-12T06:22:19.368Z</time>
      </trkpt>
      <trkpt lat="43.66945" lon="1.44997">
        <ele>180.956292</ele>
        <time>2022-08-12T06:22:21.356Z</time>
      </trkpt>
      <trkpt lat="43.6695" lon="1.45011">
        <ele>180.956427</ele>
        <time>2022-08-12T06:22:23.371Z</time>
      </trkpt>
      <trkpt lat="43.66956" lon="1.45024">
        <ele>180.956562</ele>
        <time>2022-08-12T06:22:25.369Z</time>
      </trkpt>
      <trkpt lat="43.66962" lon="1.45038">
        <ele>180.956693</ele>
        <time>2022-08-12T06:22:27.366Z</time>
      </trkpt>
      <trkpt lat="43.66968" lon="1.45052">
        <ele>180.95683</ele>
        <time>2022-08-12T06:22:29.372Z</time>
      </trkpt>
      <trkpt lat="43.66974" lon="1.45066">
        <ele>180.956968</ele>
        <time>2022-08-12T06:22:31.370Z</time>
      </trkpt>
      <trkpt lat="43.66982" lon="1.45078">
        <ele>180.957102</ele>
        <time>2022-08-12T06:22:33.374Z</time>
      </trkpt>
      <trkpt lat="43.66989" lon="1.45091">
        <ele>180.957238</ele>
        <time>2022-08-12T06:22:35.371Z</time>
      </trkpt>
      <trkpt lat="43.66996" lon="1.45104">
        <ele>180.957372</ele>
        <time>2022-08-12T06:22:37.380Z</time>
      </trkpt>
      <trkpt lat="43.67002" lon="1.45117">
        <ele>180.957507</ele>
        <time>2022-08-12T06:22:39.380Z</time>
      </trkpt>
      <trkpt lat="43.67008" lon="1.45131">
        <ele>181.059947</ele>
        <time>2022-08-12T06:22:41.382Z</time>
      </trkpt>
      <trkpt lat="43.67013" lon="1.45145">
        <ele>181.181184</ele>
        <time>2022-08-12T06:22:43.362Z</time>
      </trkpt>
      <trkpt lat="43.67018" lon="1.45159">
        <ele>181.295896</ele>
        <time>2022-08-12T06:22:45.355Z</time>
      </trkpt>
      <trkpt lat="43.67026" lon="1.45165">
        <ele>181.392692</ele>
        <time>2022-08-12T06:22:47.360Z</time>
      </trkpt>
      <trkpt lat="43.67036" lon="1.45158">
        <ele>181.509418</ele>
        <time>2022-08-12T06:22:49.376Z</time>
      </trkpt>
      <trkpt lat="43.67047" lon="1.45151">
        <ele>181.633642</ele>
        <time>2022-08-12T06:22:51.368Z</time>
      </trkpt>
      <trkpt lat="43.67058" lon="1.45143">
        <ele>181.759503</ele>
        <time>2022-08-12T06:22:53.365Z</time>
      </trkpt>
      <trkpt lat="43.67069" lon="1.45142">
        <ele>181.876758</ele>
        <time>2022-08-12T06:22:55.366Z</time>
      </trkpt>
      <trkpt lat="43.67077" lon="1.45152">
        <ele>181.990657</ele>
        <time>2022-08-12T06:22:57.373Z</time>
      </trkpt>
      <trkpt lat="43.67086" lon="1.45162">
        <ele>182.113814</ele>
        <time>2022-08-12T06:22:59.366Z</time>
      </trkpt>
      <trkpt lat="43.67096" lon="1.4516">
        <ele>182.216854</ele>
        <time>2022-08-12T06:23:01.360Z</time>
      </trkpt>
      <trkpt lat="43.67105" lon="1.45154">
        <ele>182.324674</ele>
        <time>2022-08-12T06:23:03.366Z</time>
      </trkpt>
      <trkpt lat="43.67116" lon="1.45149">
        <ele>182.444752</ele>
        <time>2022-08-12T06:23:05.350Z</time>
      </trkpt>
      <trkpt lat="43.67126" lon="1.45143">
        <ele>182.557019</ele>
        <time>2022-08-12T06:23:07.360Z</time>
      </trkpt>
      <trkpt lat="43.67136" lon="1.45137">
        <ele>182.671033</ele>
        <time>2022-08-12T06:23:09.395Z</time>
      </trkpt>
      <trkpt lat="43.67146" lon="1.45138">
        <ele>182.777296</ele>
        <time>2022-08-12T06:23:11.383Z</time>
      </trkpt>
      <trkpt lat="43.67153" lon="1.45149">
        <ele>182.843498</ele>
        <time>2022-08-12T06:23:13.453Z</time>
      </trkpt>
      <trkpt lat="43.67162" lon="1.45154">
        <ele>182.868997</ele>
        <time>2022-08-12T06:23:15.366Z</time>
      </trkpt>
      <trkpt lat="43.67172" lon="1.45148">
        <ele>182.897108</ele>
        <time>2022-08-12T06:23:17.362Z</time>
      </trkpt>
      <trkpt lat="43.67182" lon="1.45139">
        <ele>182.926276</ele>
        <time>2022-08-12T06:23:19.356Z</time>
      </trkpt>
      <trkpt lat="43.67193" lon="1.45132">
        <ele>182.955478</ele>
        <time>2022-08-12T06:23:21.368Z</time>
      </trkpt>
      <trkpt lat="43.67203" lon="1.45123">
        <ele>182.984784</ele>
        <time>2022-08-12T06:23:23.373Z</time>
      </trkpt>
      <trkpt lat="43.67212" lon="1.45123">
        <ele>183.008153</ele>
        <time>2022-08-12T06:23:25.377Z</time>
      </trkpt>
      <trkpt lat="43.67216" lon="1.45135">
        <ele>183.032424</ele>
        <time>2022-08-12T06:23:27.361Z</time>
      </trkpt>
      <trkpt lat="43.6722" lon="1.4515">
        <ele>183.059965</ele>
        <time>2022-08-12T06:23:29.369Z</time>
      </trkpt>
      <trkpt lat="43.67223" lon="1.45165">
        <ele>183.088513</ele>
        <time>2022-08-12T06:23:31.361Z</time>
      </trkpt>
      <trkpt lat="43.67227" lon="1.4518">
        <ele>183.116006</ele>
        <time>2022-08-12T06:23:33.356Z</time>
      </trkpt>
      <trkpt lat="43.6723" lon="1.45195">
        <ele>183.144725</ele>
        <time>2022-08-12T06:23:35.346Z</time>
      </trkpt>
      <trkpt lat="43.67234" lon="1.4521">
        <ele>183.173012</ele>
        <time>2022-08-12T06:23:37.352Z</time>
      </trkpt>
      <trkpt lat="43.67238" lon="1.45225">
        <ele>183.201295</ele>
        <time>2022-08-12T06:23:39.352Z</time>
      </trkpt>
      <trkpt lat="43.67243" lon="1.45238">
        <ele>183.228337</ele>
        <time>2022-08-12T06:23:41.355Z</time>
      </trkpt>
      <trkpt lat="43.6725" lon="1.4525">
        <ele>183.256562</ele>
        <time>2022-08-12T06:23:43.364Z</time>
      </trkpt>
      <trkpt lat="43.67255" lon="1.45265">
        <ele>183.28966</ele>
        <time>2022-08-12T06:23:45.364Z</time>
      </trkpt>
      <trkpt lat="43.67259" lon="1.4528">
        <ele>183.329827</ele>
        <time>2022-08-12T06:23:47.369Z</time>
      </trkpt>
      <trkpt lat="43.67263" lon="1.45295">
        <ele>183.371219</ele>
        <time>2022-08-12T06:23:49.352Z</time>
      </trkpt>
      <trkpt lat="43.67268" lon="1.45309">
        <ele>183.410143</ele>
        <time>2022-08-12T06:23:51.375Z</time>
      </trkpt>
      <trkpt lat="43.67276" lon="1.45315">
        <ele>183.444102</ele>
        <time>2022-08-12T06:23:53.344Z</time>
      </trkpt>
      <trkpt lat="43.67286" lon="1.45313">
        <ele>183.480637</ele>
        <time>2022-08-12T06:23:55.356Z</time>
      </trkpt>
      <trkpt lat="43.67298" lon="1.4531">
        <ele>183.522164</ele>
        <time>2022-08-12T06:23:57.360Z</time>
      </trkpt>
      <trkpt lat="43.67309" lon="1.45306">
        <ele>183.564629</ele>
        <time>2022-08-12T06:23:59.363Z</time>
      </trkpt>
      <trkpt lat="43.67321" lon="1.45302">
        <ele>183.607771</ele>
        <time>2022-08-12T06:24:01.365Z</time>
      </trkpt>
      <trkpt lat="43.67333" lon="1.45302">
        <ele>183.650333</ele>
        <time>2022-08-12T06:24:03.351Z</time>
      </trkpt>
      <trkpt lat="43.67345" lon="1.45305">
        <ele>183.693145</ele>
        <time>2022-08-12T06:24:05.347Z</time>
      </trkpt>
      <trkpt lat="43.67357" lon="1.45308">
        <ele>183.735896</ele>
        <time>2022-08-12T06:24:07.347Z</time>
      </trkpt>
      <trkpt lat="43.67368" lon="1.45311">
        <ele>183.7781</ele>
        <time>2022-08-12T06:24:09.348Z</time>
      </trkpt>
      <trkpt lat="43.6738" lon="1.4531">
        <ele>183.81973</ele>
        <time>2022-08-12T06:24:11.366Z</time>
      </trkpt>
      <trkpt lat="43.67391" lon="1.45304">
        <ele>183.862806</ele>
        <time>2022-08-12T06:24:13.368Z</time>
      </trkpt>
      <trkpt lat="43.67403" lon="1.45297">
        <ele>183.906292</ele>
        <time>2022-08-12T06:24:15.362Z</time>
      </trkpt>
      <trkpt lat="43.67413" lon="1.4529">
        <ele>183.935618</ele>
        <time>2022-08-12T06:24:17.357Z</time>
      </trkpt>
      <trkpt lat="43.67424" lon="1.45283">
        <ele>183.96121</ele>
        <time>2022-08-12T06:24:19.354Z</time>
      </trkpt>
      <trkpt lat="43.67436" lon="1.45284">
        <ele>183.986927</ele>
        <time>2022-08-12T06:24:21.356Z</time>
      </trkpt>
      <trkpt lat="43.67441" lon="1.45297">
        <ele>184.01115</ele>
        <time>2022-08-12T06:24:23.383Z</time>
      </trkpt>
      <trkpt lat="43.67446" lon="1.45312">
        <ele>184.036168</ele>
        <time>2022-08-12T06:24:25.352Z</time>
      </trkpt>
      <trkpt lat="43.67454" lon="1.45324">
        <ele>184.061134</ele>
        <time>2022-08-12T06:24:27.363Z</time>
      </trkpt>
      <trkpt lat="43.6746" lon="1.45337">
        <ele>184.085198</ele>
        <time>2022-08-12T06:24:29.350Z</time>
      </trkpt>
      <trkpt lat="43.67464" lon="1.4535">
        <ele>184.1074</ele>
        <time>2022-08-12T06:24:31.351Z</time>
      </trkpt>
      <trkpt lat="43.6747" lon="1.45364">
        <ele>184.132515</ele>
        <time>2022-08-12T06:24:33.349Z</time>
      </trkpt>
      <trkpt lat="43.67479" lon="1.45375">
        <ele>184.158003</ele>
        <time>2022-08-12T06:24:35.350Z</time>
      </trkpt>
      <trkpt lat="43.67489" lon="1.45384">
        <ele>184.183704</ele>
        <time>2022-08-12T06:24:37.356Z</time>
      </trkpt>
      <trkpt lat="43.675" lon="1.45387">
        <ele>184.208519</ele>
        <time>2022-08-12T06:24:39.361Z</time>
      </trkpt>
      <trkpt lat="43.6751" lon="1.45378">
        <ele>184.234211</ele>
        <time>2022-08-12T06:24:41.378Z</time>
      </trkpt>
      <trkpt lat="43.67519" lon="1.45367">
        <ele>184.260644</ele>
        <time>2022-08-12T06:24:43.359Z</time>
      </trkpt>
      <trkpt lat="43.67527" lon="1.45356">
        <ele>184.286121</ele>
        <time>2022-08-12T06:24:45.360Z</time>
      </trkpt>
      <trkpt lat="43.67537" lon="1.45347">
        <ele>184.308058</ele>
        <time>2022-08-12T06:24:47.370Z</time>
      </trkpt>
      <trkpt lat="43.67548" lon="1.4534">
        <ele>184.322137</ele>
        <time>2022-08-12T06:24:49.365Z</time>
      </trkpt>
      <trkpt lat="43.67559" lon="1.45334">
        <ele>184.336124</ele>
        <time>2022-08-12T06:24:51.364Z</time>
      </trkpt>
      <trkpt lat="43.6757" lon="1.45328">
        <ele>184.350202</ele>
        <time>2022-08-12T06:24:53.349Z</time>
      </trkpt>
      <trkpt lat="43.6758" lon="1.4532">
        <ele>184.363976</ele>
        <time>2022-08-12T06:24:55.355Z</time>
      </trkpt>
      <trkpt lat="43.6759" lon="1.45313">
        <ele>184.377737</ele>
        <time>2022-08-12T06:24:57.357Z</time>
      </trkpt>
      <trkpt lat="43.67601" lon="1.45309">
        <ele>184.391205</ele>
        <time>2022-08-12T06:24:59.336Z</time>
      </trkpt>
      <trkpt lat="43.67611" lon="1.45309">
        <ele>184.403249</ele>
        <time>2022-08-12T06:25:01.358Z</time>
      </trkpt>
      <trkpt lat="43.6762" lon="1.45315">
        <ele>184.415017</ele>
        <time>2022-08-12T06:25:04.364Z</time>
      </trkpt>
      <trkpt lat="43.67633" lon="1.45314">
        <ele>184.430639</ele>
        <time>2022-08-12T06:25:07.356Z</time>
      </trkpt>
      <trkpt lat="43.67643" lon="1.45312">
        <ele>184.442241</ele>
        <time>2022-08-12T06:25:09.335Z</time>
      </trkpt>
      <trkpt lat="43.67653" lon="1.4531">
        <ele>184.454394</ele>
        <time>2022-08-12T06:25:11.365Z</time>
      </trkpt>
      <trkpt lat="43.67663" lon="1.45316">
        <ele>184.467535</ele>
        <time>2022-08-12T06:25:13.348Z</time>
      </trkpt>
      <trkpt lat="43.67674" lon="1.45319">
        <ele>184.480769</ele>
        <time>2022-08-12T06:25:15.354Z</time>
      </trkpt>
      <trkpt lat="43.67685" lon="1.45321">
        <ele>184.493666</ele>
        <time>2022-08-12T06:25:17.355Z</time>
      </trkpt>
      <trkpt lat="43.67695" lon="1.45326">
        <ele>184.506344</ele>
        <time>2022-08-12T06:25:19.367Z</time>
      </trkpt>
      <trkpt lat="43.67705" lon="1.45329">
        <ele>184.519457</ele>
        <time>2022-08-12T06:25:21.355Z</time>
      </trkpt>
      <trkpt lat="43.67714" lon="1.45332">
        <ele>184.59677</ele>
        <time>2022-08-12T06:25:23.364Z</time>
      </trkpt>
      <trkpt lat="43.67724" lon="1.45338">
        <ele>184.676834</ele>
        <time>2022-08-12T06:25:25.356Z</time>
      </trkpt>
      <trkpt lat="43.67733" lon="1.45345">
        <ele>184.756995</ele>
        <time>2022-08-12T06:25:27.356Z</time>
      </trkpt>
      <trkpt lat="43.67742" lon="1.45353">
        <ele>184.839357</ele>
        <time>2022-08-12T06:25:29.357Z</time>
      </trkpt>
      <trkpt lat="43.67751" lon="1.4536">
        <ele>184.921965</ele>
        <time>2022-08-12T06:25:31.370Z</time>
      </trkpt>
      <trkpt lat="43.67761" lon="1.45365">
        <ele>185.00406</ele>
        <time>2022-08-12T06:25:33.349Z</time>
      </trkpt>
      <trkpt lat="43.6777" lon="1.45372">
        <ele>185.085713</ele>
        <time>2022-08-12T06:25:35.350Z</time>
      </trkpt>
      <trkpt lat="43.67779" lon="1.45379">
        <ele>185.170381</ele>
        <time>2022-08-12T06:25:37.356Z</time>
      </trkpt>
      <trkpt lat="43.67789" lon="1.45387">
        <ele>185.25681</ele>
        <time>2022-08-12T06:25:39.351Z</time>
      </trkpt>
      <trkpt lat="43.67799" lon="1.45394">
        <ele>185.342337</ele>
        <time>2022-08-12T06:25:41.370Z</time>
      </trkpt>
      <trkpt lat="43.67809" lon="1.454">
        <ele>185.42769</ele>
        <time>2022-08-12T06:25:43.363Z</time>
      </trkpt>
      <trkpt lat="43.67817" lon="1.45409">
        <ele>185.509828</ele>
        <time>2022-08-12T06:25:45.345Z</time>
      </trkpt>
      <trkpt lat="43.67825" lon="1.45417">
        <ele>185.59137</ele>
        <time>2022-08-12T06:25:47.368Z</time>
      </trkpt>
      <trkpt lat="43.67834" lon="1.45425">
        <ele>185.672208</ele>
        <time>2022-08-12T06:25:49.358Z</time>
      </trkpt>
      <trkpt lat="43.67843" lon="1.45432">
        <ele>185.750351</ele>
        <time>2022-08-12T06:25:51.353Z</time>
      </trkpt>
      <trkpt lat="43.67852" lon="1.45436">
        <ele>185.826673</ele>
        <time>2022-08-12T06:25:53.348Z</time>
      </trkpt>
      <trkpt lat="43.67862" lon="1.45434">
        <ele>185.901051</ele>
        <time>2022-08-12T06:25:55.354Z</time>
      </trkpt>
      <trkpt lat="43.67871" lon="1.4543">
        <ele>185.948054</ele>
        <time>2022-08-12T06:25:57.350Z</time>
      </trkpt>
      <trkpt lat="43.6788" lon="1.45426">
        <ele>185.984562</ele>
        <time>2022-08-12T06:25:59.349Z</time>
      </trkpt>
      <trkpt lat="43.6789" lon="1.45423">
        <ele>186.022649</ele>
        <time>2022-08-12T06:26:01.355Z</time>
      </trkpt>
      <trkpt lat="43.67902" lon="1.45414">
        <ele>186.073692</ele>
        <time>2022-08-12T06:26:04.354Z</time>
      </trkpt>
      <trkpt lat="43.6791" lon="1.45407">
        <ele>186.111513</ele>
        <time>2022-08-12T06:26:06.365Z</time>
      </trkpt>
      <trkpt lat="43.67919" lon="1.45397">
        <ele>186.152568</ele>
        <time>2022-08-12T06:26:08.373Z</time>
      </trkpt>
      <trkpt lat="43.67927" lon="1.45392">
        <ele>186.187564</ele>
        <time>2022-08-12T06:26:10.357Z</time>
      </trkpt>
      <trkpt lat="43.67936" lon="1.45387">
        <ele>186.22452</ele>
        <time>2022-08-12T06:26:12.354Z</time>
      </trkpt>
      <trkpt lat="43.67945" lon="1.4538">
        <ele>186.263065</ele>
        <time>2022-08-12T06:26:14.376Z</time>
      </trkpt>
      <trkpt lat="43.67955" lon="1.45375">
        <ele>186.304175</ele>
        <time>2022-08-12T06:26:16.355Z</time>
      </trkpt>
      <trkpt lat="43.67965" lon="1.4537">
        <ele>186.344522</ele>
        <time>2022-08-12T06:26:18.364Z</time>
      </trkpt>
      <trkpt lat="43.67975" lon="1.45364">
        <ele>186.384901</ele>
        <time>2022-08-12T06:26:20.368Z</time>
      </trkpt>
      <trkpt lat="43.67984" lon="1.45356">
        <ele>186.425321</ele>
        <time>2022-08-12T06:26:22.372Z</time>
      </trkpt>
      <trkpt lat="43.67994" lon="1.45349">
        <ele>186.466051</ele>
        <time>2022-08-12T06:26:24.341Z</time>
      </trkpt>
      <trkpt lat="43.68003" lon="1.45342">
        <ele>186.506978</ele>
        <time>2022-08-12T06:26:26.361Z</time>
      </trkpt>
      <trkpt lat="43.68012" lon="1.45336">
        <ele>186.545864</ele>
        <time>2022-08-12T06:26:28.364Z</time>
      </trkpt>
      <trkpt lat="43.68022" lon="1.45328">
        <ele>186.586026</ele>
        <time>2022-08-12T06:26:30.347Z</time>
      </trkpt>
      <trkpt lat="43.68031" lon="1.45321">
        <ele>186.597869</ele>
        <time>2022-08-12T06:26:32.357Z</time>
      </trkpt>
      <trkpt lat="43.68041" lon="1.45313">
        <ele>186.593006</ele>
        <time>2022-08-12T06:26:34.361Z</time>
      </trkpt>
      <trkpt lat="43.6805" lon="1.45305">
        <ele>186.588148</ele>
        <time>2022-08-12T06:26:36.374Z</time>
      </trkpt>
      <trkpt lat="43.68059" lon="1.45297">
        <ele>186.583273</ele>
        <time>2022-08-12T06:26:38.364Z</time>
      </trkpt>
      <trkpt lat="43.68068" lon="1.45288">
        <ele>186.578251</ele>
        <time>2022-08-12T06:26:40.358Z</time>
      </trkpt>
      <trkpt lat="43.68078" lon="1.4528">
        <ele>186.573189</ele>
        <time>2022-08-12T06:26:42.355Z</time>
      </trkpt>
      <trkpt lat="43.68088" lon="1.45271">
        <ele>186.568095</ele>
        <time>2022-08-12T06:26:44.353Z</time>
      </trkpt>
      <trkpt lat="43.68098" lon="1.45263">
        <ele>186.562889</ele>
        <time>2022-08-12T06:26:46.367Z</time>
      </trkpt>
      <trkpt lat="43.68107" lon="1.45254">
        <ele>186.55774</ele>
        <time>2022-08-12T06:26:48.348Z</time>
      </trkpt>
      <trkpt lat="43.68117" lon="1.45245">
        <ele>186.55261</ele>
        <time>2022-08-12T06:26:50.356Z</time>
      </trkpt>
      <trkpt lat="43.68127" lon="1.45236">
        <ele>186.547499</ele>
        <time>2022-08-12T06:26:52.370Z</time>
      </trkpt>
      <trkpt lat="43.68136" lon="1.45227">
        <ele>186.542242</ele>
        <time>2022-08-12T06:26:54.365Z</time>
      </trkpt>
      <trkpt lat="43.68146" lon="1.45218">
        <ele>186.53702</ele>
        <time>2022-08-12T06:26:56.357Z</time>
      </trkpt>
      <trkpt lat="43.68155" lon="1.45208">
        <ele>186.531866</ele>
        <time>2022-08-12T06:26:58.382Z</time>
      </trkpt>
      <trkpt lat="43.68164" lon="1.45201">
        <ele>186.527299</ele>
        <time>2022-08-12T06:27:00.360Z</time>
      </trkpt>
      <trkpt lat="43.68169" lon="1.45213">
        <ele>186.522942</ele>
        <time>2022-08-12T06:27:02.362Z</time>
      </trkpt>
      <trkpt lat="43.68172" lon="1.45228">
        <ele>186.555898</ele>
        <time>2022-08-12T06:27:04.363Z</time>
      </trkpt>
      <trkpt lat="43.68175" lon="1.45243">
        <ele>186.612592</ele>
        <time>2022-08-12T06:27:06.360Z</time>
      </trkpt>
      <trkpt lat="43.68179" lon="1.45257">
        <ele>186.666447</ele>
        <time>2022-08-12T06:27:08.351Z</time>
      </trkpt>
      <trkpt lat="43.68183" lon="1.45271">
        <ele>186.720649</ele>
        <time>2022-08-12T06:27:10.370Z</time>
      </trkpt>
      <trkpt lat="43.68187" lon="1.45285">
        <ele>186.775535</ele>
        <time>2022-08-12T06:27:12.386Z</time>
      </trkpt>
      <trkpt lat="43.6819" lon="1.45299">
        <ele>186.829903</ele>
        <time>2022-08-12T06:27:14.366Z</time>
      </trkpt>
      <trkpt lat="43.68194" lon="1.45312">
        <ele>186.88292</ele>
        <time>2022-08-12T06:27:16.368Z</time>
      </trkpt>
      <trkpt lat="43.68197" lon="1.45326">
        <ele>186.933543</ele>
        <time>2022-08-12T06:27:18.360Z</time>
      </trkpt>
      <trkpt lat="43.682" lon="1.45339">
        <ele>186.985683</ele>
        <time>2022-08-12T06:27:20.370Z</time>
      </trkpt>
      <trkpt lat="43.68204" lon="1.45353">
        <ele>187.039714</ele>
        <time>2022-08-12T06:27:22.368Z</time>
      </trkpt>
      <trkpt lat="43.68207" lon="1.45367">
        <ele>187.094435</ele>
        <time>2022-08-12T06:27:24.363Z</time>
      </trkpt>
      <trkpt lat="43.68211" lon="1.45381">
        <ele>187.148303</ele>
        <time>2022-08-12T06:27:26.373Z</time>
      </trkpt>
      <trkpt lat="43.68215" lon="1.45396">
        <ele>187.206275</ele>
        <time>2022-08-12T06:27:28.363Z</time>
      </trkpt>
      <trkpt lat="43.68218" lon="1.45411">
        <ele>187.264112</ele>
        <time>2022-08-12T06:27:30.373Z</time>
      </trkpt>
      <trkpt lat="43.68222" lon="1.45425">
        <ele>187.318143</ele>
        <time>2022-08-12T06:27:32.404Z</time>
      </trkpt>
      <trkpt lat="43.68226" lon="1.45441">
        <ele>187.378776</ele>
        <time>2022-08-12T06:27:34.360Z</time>
      </trkpt>
      <trkpt lat="43.68231" lon="1.45455">
        <ele>187.444192</ele>
        <time>2022-08-12T06:27:36.363Z</time>
      </trkpt>
      <trkpt lat="43.68236" lon="1.45469">
        <ele>187.564616</ele>
        <time>2022-08-12T06:27:38.379Z</time>
      </trkpt>
      <trkpt lat="43.6824" lon="1.45483">
        <ele>187.685168</ele>
        <time>2022-08-12T06:27:40.365Z</time>
      </trkpt>
      <trkpt lat="43.68245" lon="1.45497">
        <ele>187.806309</ele>
        <time>2022-08-12T06:27:42.371Z</time>
      </trkpt>
      <trkpt lat="43.68249" lon="1.45512">
        <ele>187.929894</ele>
        <time>2022-08-12T06:27:44.358Z</time>
      </trkpt>
      <trkpt lat="43.68252" lon="1.45527">
        <ele>188.052377</ele>
        <time>2022-08-12T06:27:46.378Z</time>
      </trkpt>
      <trkpt lat="43.68256" lon="1.45542">
        <ele>188.177055</ele>
        <time>2022-08-12T06:27:48.370Z</time>
      </trkpt>
      <trkpt lat="43.6826" lon="1.45557">
        <ele>188.298472</ele>
        <time>2022-08-12T06:27:50.376Z</time>
      </trkpt>
      <trkpt lat="43.68263" lon="1.45572">
        <ele>188.42251</ele>
        <time>2022-08-12T06:27:52.362Z</time>
      </trkpt>
      <trkpt lat="43.68267" lon="1.45587">
        <ele>188.545068</ele>
        <time>2022-08-12T06:27:54.369Z</time>
      </trkpt>
      <trkpt lat="43.6827" lon="1.45603">
        <ele>188.672073</ele>
        <time>2022-08-12T06:27:56.362Z</time>
      </trkpt>
      <trkpt lat="43.68274" lon="1.45618">
        <ele>188.796665</ele>
        <time>2022-08-12T06:27:58.363Z</time>
      </trkpt>
      <trkpt lat="43.68276" lon="1.45634">
        <ele>188.920909</ele>
        <time>2022-08-12T06:28:00.367Z</time>
      </trkpt>
      <trkpt lat="43.68278" lon="1.45649">
        <ele>189.042386</ele>
        <time>2022-08-12T06:28:02.371Z</time>
      </trkpt>
      <trkpt lat="43.68279" lon="1.45665">
        <ele>189.164618</ele>
        <time>2022-08-12T06:28:04.380Z</time>
      </trkpt>
      <trkpt lat="43.6828" lon="1.4568">
        <ele>189.282523</ele>
        <time>2022-08-12T06:28:06.350Z</time>
      </trkpt>
      <trkpt lat="43.6828" lon="1.45696">
        <ele>189.481117</ele>
        <time>2022-08-12T06:28:08.359Z</time>
      </trkpt>
      <trkpt lat="43.6828" lon="1.45712">
        <ele>189.814042</ele>
        <time>2022-08-12T06:28:10.368Z</time>
      </trkpt>
      <trkpt lat="43.68279" lon="1.45727">
        <ele>190.144868</ele>
        <time>2022-08-12T06:28:12.373Z</time>
      </trkpt>
      <trkpt lat="43.68278" lon="1.45743">
        <ele>190.466148</ele>
        <time>2022-08-12T06:28:14.355Z</time>
      </trkpt>
      <trkpt lat="43.68277" lon="1.45757">
        <ele>190.774325</ele>
        <time>2022-08-12T06:28:16.374Z</time>
      </trkpt>
      <trkpt lat="43.68276" lon="1.45771">
        <ele>191.07367</ele>
        <time>2022-08-12T06:28:18.365Z</time>
      </trkpt>
      <trkpt lat="43.68276" lon="1.45786">
        <ele>191.391902</ele>
        <time>2022-08-12T06:28:20.343Z</time>
      </trkpt>
      <trkpt lat="43.68275" lon="1.45802">
        <ele>191.714161</ele>
        <time>2022-08-12T06:28:22.363Z</time>
      </trkpt>
      <trkpt lat="43.68274" lon="1.45816">
        <ele>192.017911</ele>
        <time>2022-08-12T06:28:24.379Z</time>
      </trkpt>
      <trkpt lat="43.68273" lon="1.45831">
        <ele>192.33028</ele>
        <time>2022-08-12T06:28:26.359Z</time>
      </trkpt>
      <trkpt lat="43.68273" lon="1.45845">
        <ele>192.63126</ele>
        <time>2022-08-12T06:28:28.363Z</time>
      </trkpt>
      <trkpt lat="43.68271" lon="1.4586">
        <ele>192.937243</ele>
        <time>2022-08-12T06:28:30.380Z</time>
      </trkpt>
      <trkpt lat="43.68271" lon="1.45874">
        <ele>193.23449</ele>
        <time>2022-08-12T06:28:32.377Z</time>
      </trkpt>
      <trkpt lat="43.6827" lon="1.45887">
        <ele>193.506563</ele>
        <time>2022-08-12T06:28:34.367Z</time>
      </trkpt>
      <trkpt lat="43.68268" lon="1.45902">
        <ele>193.842108</ele>
        <time>2022-08-12T06:28:38.360Z</time>
      </trkpt>
      <trkpt lat="43.68268" lon="1.45919">
        <ele>194.193387</ele>
        <time>2022-08-12T06:28:41.382Z</time>
      </trkpt>
      <trkpt lat="43.68267" lon="1.45938">
        <ele>194.591514</ele>
        <time>2022-08-12T06:28:44.367Z</time>
      </trkpt>
      <trkpt lat="43.68266" lon="1.45951">
        <ele>195.05268</ele>
        <time>2022-08-12T06:28:46.360Z</time>
      </trkpt>
      <trkpt lat="43.68265" lon="1.45965">
        <ele>195.528988</ele>
        <time>2022-08-12T06:28:48.362Z</time>
      </trkpt>
      <trkpt lat="43.68265" lon="1.45979">
        <ele>196.00638</ele>
        <time>2022-08-12T06:28:50.335Z</time>
      </trkpt>
      <trkpt lat="43.68265" lon="1.45993">
        <ele>196.470401</ele>
        <time>2022-08-12T06:28:52.368Z</time>
      </trkpt>
      <trkpt lat="43.68266" lon="1.46005">
        <ele>196.914306</ele>
        <time>2022-08-12T06:28:54.361Z</time>
      </trkpt>
      <trkpt lat="43.68271" lon="1.46022">
        <ele>197.516733</ele>
        <time>2022-08-12T06:28:57.370Z</time>
      </trkpt>
      <trkpt lat="43.68275" lon="1.46036">
        <ele>198.062439</ele>
        <time>2022-08-12T06:29:00.363Z</time>
      </trkpt>
      <trkpt lat="43.68278" lon="1.46051">
        <ele>198.583694</ele>
        <time>2022-08-12T06:29:03.349Z</time>
      </trkpt>
      <trkpt lat="43.6828" lon="1.46066">
        <ele>199.110064</ele>
        <time>2022-08-12T06:29:06.357Z</time>
      </trkpt>
      <trkpt lat="43.68281" lon="1.46082">
        <ele>199.647517</ele>
        <time>2022-08-12T06:29:09.344Z</time>
      </trkpt>
      <trkpt lat="43.68282" lon="1.46097">
        <ele>200.187726</ele>
        <time>2022-08-12T06:29:12.347Z</time>
      </trkpt>
      <trkpt lat="43.68283" lon="1.46113">
        <ele>200.725178</ele>
        <time>2022-08-12T06:29:15.355Z</time>
      </trkpt>
      <trkpt lat="43.68284" lon="1.46129">
        <ele>201.282669</ele>
        <time>2022-08-12T06:29:18.352Z</time>
      </trkpt>
      <trkpt lat="43.68283" lon="1.46147">
        <ele>201.89278</ele>
        <time>2022-08-12T06:29:21.352Z</time>
      </trkpt>
      <trkpt lat="43.68282" lon="1.4616">
        <ele>202.340852</ele>
        <time>2022-08-12T06:29:23.344Z</time>
      </trkpt>
      <trkpt lat="43.6828" lon="1.46173">
        <ele>202.80407</ele>
        <time>2022-08-12T06:29:25.358Z</time>
      </trkpt>
      <trkpt lat="43.68277" lon="1.46186">
        <ele>203.140363</ele>
        <time>2022-08-12T06:29:27.341Z</time>
      </trkpt>
      <trkpt lat="43.68273" lon="1.462">
        <ele>203.159237</ele>
        <time>2022-08-12T06:29:29.350Z</time>
      </trkpt>
      <trkpt lat="43.68269" lon="1.46214">
        <ele>203.17884</ele>
        <time>2022-08-12T06:29:31.377Z</time>
      </trkpt>
      <trkpt lat="43.68264" lon="1.46228">
        <ele>203.198042</ele>
        <time>2022-08-12T06:29:33.351Z</time>
      </trkpt>
      <trkpt lat="43.6826" lon="1.46242">
        <ele>203.217059</ele>
        <time>2022-08-12T06:29:35.352Z</time>
      </trkpt>
      <trkpt lat="43.68256" lon="1.46255">
        <ele>203.235539</ele>
        <time>2022-08-12T06:29:37.352Z</time>
      </trkpt>
      <trkpt lat="43.68252" lon="1.46269">
        <ele>203.253999</ele>
        <time>2022-08-12T06:29:39.350Z</time>
      </trkpt>
      <trkpt lat="43.68247" lon="1.46281">
        <ele>203.272142</ele>
        <time>2022-08-12T06:29:41.360Z</time>
      </trkpt>
      <trkpt lat="43.68241" lon="1.46294">
        <ele>203.291127</ele>
        <time>2022-08-12T06:29:43.344Z</time>
      </trkpt>
      <trkpt lat="43.68234" lon="1.46306">
        <ele>203.310271</ele>
        <time>2022-08-12T06:29:45.351Z</time>
      </trkpt>
      <trkpt lat="43.68228" lon="1.46318">
        <ele>203.329526</ele>
        <time>2022-08-12T06:29:47.362Z</time>
      </trkpt>
      <trkpt lat="43.6822" lon="1.46329">
        <ele>203.348276</ele>
        <time>2022-08-12T06:29:49.352Z</time>
      </trkpt>
      <trkpt lat="43.68213" lon="1.46339">
        <ele>203.367269</ele>
        <time>2022-08-12T06:29:51.366Z</time>
      </trkpt>
      <trkpt lat="43.68205" lon="1.46349">
        <ele>203.386472</ele>
        <time>2022-08-12T06:29:53.357Z</time>
      </trkpt>
      <trkpt lat="43.68197" lon="1.4636">
        <ele>203.405502</ele>
        <time>2022-08-12T06:29:55.347Z</time>
      </trkpt>
      <trkpt lat="43.6819" lon="1.46371">
        <ele>203.424468</ele>
        <time>2022-08-12T06:29:57.365Z</time>
      </trkpt>
      <trkpt lat="43.68192" lon="1.46385">
        <ele>203.44197</ele>
        <time>2022-08-12T06:29:59.356Z</time>
      </trkpt>
      <trkpt lat="43.68202" lon="1.46394">
        <ele>203.994551</ele>
        <time>2022-08-12T06:30:01.365Z</time>
      </trkpt>
      <trkpt lat="43.68214" lon="1.46401">
        <ele>205.004475</ele>
        <time>2022-08-12T06:30:03.350Z</time>
      </trkpt>
      <trkpt lat="43.68227" lon="1.46409">
        <ele>206.086862</ele>
        <time>2022-08-12T06:30:05.362Z</time>
      </trkpt>
      <trkpt lat="43.6824" lon="1.46416">
        <ele>207.152621</ele>
        <time>2022-08-12T06:30:07.353Z</time>
      </trkpt>
      <trkpt lat="43.68252" lon="1.46423">
        <ele>208.151654</ele>
        <time>2022-08-12T06:30:09.359Z</time>
      </trkpt>
      <trkpt lat="43.68262" lon="1.46427">
        <ele>209.006991</ele>
        <time>2022-08-12T06:30:11.348Z</time>
      </trkpt>
      <trkpt lat="43.68272" lon="1.46431">
        <ele>209.816328</ele>
        <time>2022-08-12T06:30:13.349Z</time>
      </trkpt>
      <trkpt lat="43.68284" lon="1.46436">
        <ele>210.740115</ele>
        <time>2022-08-12T06:30:16.340Z</time>
      </trkpt>
      <trkpt lat="43.68293" lon="1.46442">
        <ele>211.498119</ele>
        <time>2022-08-12T06:30:19.349Z</time>
      </trkpt>
      <trkpt lat="43.68302" lon="1.46447">
        <ele>212.218974</ele>
        <time>2022-08-12T06:30:22.358Z</time>
      </trkpt>
      <trkpt lat="43.68312" lon="1.46453">
        <ele>213.103436</ele>
        <time>2022-08-12T06:30:26.374Z</time>
      </trkpt>
      <trkpt lat="43.68322" lon="1.46459">
        <ele>213.924321</ele>
        <time>2022-08-12T06:30:30.344Z</time>
      </trkpt>
      <trkpt lat="43.68331" lon="1.46465">
        <ele>214.729022</ele>
        <time>2022-08-12T06:30:34.346Z</time>
      </trkpt>
      <trkpt lat="43.68341" lon="1.46472">
        <ele>215.550018</ele>
        <time>2022-08-12T06:30:38.342Z</time>
      </trkpt>
      <trkpt lat="43.68351" lon="1.4648">
        <ele>216.439999</ele>
        <time>2022-08-12T06:30:42.343Z</time>
      </trkpt>
      <trkpt lat="43.68356" lon="1.46493">
        <ele>217.273062</ele>
        <time>2022-08-12T06:30:46.348Z</time>
      </trkpt>
      <trkpt lat="43.68351" lon="1.46505">
        <ele>218.022284</ele>
        <time>2022-08-12T06:30:49.345Z</time>
      </trkpt>
      <trkpt lat="43.68345" lon="1.46515">
        <ele>218.733155</ele>
        <time>2022-08-12T06:30:52.348Z</time>
      </trkpt>
      <trkpt lat="43.68337" lon="1.46528">
        <ele>219.646249</ele>
        <time>2022-08-12T06:30:56.346Z</time>
      </trkpt>
      <trkpt lat="43.68332" lon="1.46538">
        <ele>220.36597</ele>
        <time>2022-08-12T06:30:59.341Z</time>
      </trkpt>
      <trkpt lat="43.68326" lon="1.46548">
        <ele>221.072441</ele>
        <time>2022-08-12T06:31:02.352Z</time>
      </trkpt>
      <trkpt lat="43.68321" lon="1.4656">
        <ele>221.797912</ele>
        <time>2022-08-12T06:31:05.342Z</time>
      </trkpt>
      <trkpt lat="43.68316" lon="1.46571">
        <ele>222.524758</ele>
        <time>2022-08-12T06:31:08.341Z</time>
      </trkpt>
      <trkpt lat="43.68312" lon="1.46583">
        <ele>223.2558</ele>
        <time>2022-08-12T06:31:11.355Z</time>
      </trkpt>
      <trkpt lat="43.68307" lon="1.46595">
        <ele>224.024588</ele>
        <time>2022-08-12T06:31:14.358Z</time>
      </trkpt>
      <trkpt lat="43.68303" lon="1.46608">
        <ele>224.810706</ele>
        <time>2022-08-12T06:31:17.354Z</time>
      </trkpt>
      <trkpt lat="43.68299" lon="1.46621">
        <ele>225.574871</ele>
        <time>2022-08-12T06:31:20.354Z</time>
      </trkpt>
      <trkpt lat="43.68296" lon="1.46633">
        <ele>226.316769</ele>
        <time>2022-08-12T06:31:23.360Z</time>
      </trkpt>
      <trkpt lat="43.68293" lon="1.46646">
        <ele>227.059769</ele>
        <time>2022-08-12T06:31:26.359Z</time>
      </trkpt>
      <trkpt lat="43.68289" lon="1.4666">
        <ele>227.864023</ele>
        <time>2022-08-12T06:31:29.359Z</time>
      </trkpt>
      <trkpt lat="43.68288" lon="1.46673">
        <ele>228.622731</ele>
        <time>2022-08-12T06:31:32.362Z</time>
      </trkpt>
      <trkpt lat="43.68291" lon="1.46686">
        <ele>229.346776</ele>
        <time>2022-08-12T06:31:35.356Z</time>
      </trkpt>
      <trkpt lat="43.68298" lon="1.46695">
        <ele>230.089173</ele>
        <time>2022-08-12T06:31:38.363Z</time>
      </trkpt>
      <trkpt lat="43.68307" lon="1.46704">
        <ele>230.904087</ele>
        <time>2022-08-12T06:31:41.368Z</time>
      </trkpt>
      <trkpt lat="43.68315" lon="1.46715">
        <ele>231.486519</ele>
        <time>2022-08-12T06:31:44.377Z</time>
      </trkpt>
      <trkpt lat="43.68324" lon="1.46727">
        <ele>232.055932</ele>
        <time>2022-08-12T06:31:47.357Z</time>
      </trkpt>
      <trkpt lat="43.68332" lon="1.46739">
        <ele>232.626881</ele>
        <time>2022-08-12T06:31:50.378Z</time>
      </trkpt>
      <trkpt lat="43.68341" lon="1.46751">
        <ele>233.185056</ele>
        <time>2022-08-12T06:31:53.372Z</time>
      </trkpt>
      <trkpt lat="43.68349" lon="1.46763">
        <ele>233.742392</ele>
        <time>2022-08-12T06:31:56.364Z</time>
      </trkpt>
      <trkpt lat="43.68357" lon="1.46774">
        <ele>234.265364</ele>
        <time>2022-08-12T06:31:59.360Z</time>
      </trkpt>
      <trkpt lat="43.68365" lon="1.46785">
        <ele>234.787472</ele>
        <time>2022-08-12T06:32:02.381Z</time>
      </trkpt>
      <trkpt lat="43.68373" lon="1.46796">
        <ele>235.296837</ele>
        <time>2022-08-12T06:32:05.384Z</time>
      </trkpt>
      <trkpt lat="43.68381" lon="1.46807">
        <ele>235.811825</ele>
        <time>2022-08-12T06:32:08.369Z</time>
      </trkpt>
      <trkpt lat="43.68389" lon="1.46818">
        <ele>236.339022</ele>
        <time>2022-08-12T06:32:11.354Z</time>
      </trkpt>
      <trkpt lat="43.68397" lon="1.46829">
        <ele>236.857287</ele>
        <time>2022-08-12T06:32:14.371Z</time>
      </trkpt>
      <trkpt lat="43.68405" lon="1.4684">
        <ele>237.385502</ele>
        <time>2022-08-12T06:32:17.351Z</time>
      </trkpt>
      <trkpt lat="43.68414" lon="1.46851">
        <ele>237.923972</ele>
        <time>2022-08-12T06:32:20.357Z</time>
      </trkpt>
      <trkpt lat="43.68422" lon="1.46862">
        <ele>238.443694</ele>
        <time>2022-08-12T06:32:23.372Z</time>
      </trkpt>
      <trkpt lat="43.68431" lon="1.46864">
        <ele>238.862016</ele>
        <time>2022-08-12T06:32:26.371Z</time>
      </trkpt>
      <trkpt lat="43.6844" lon="1.46852">
        <ele>239.357401</ele>
        <time>2022-08-12T06:32:29.356Z</time>
      </trkpt>
      <trkpt lat="43.68448" lon="1.46841">
        <ele>239.47701</ele>
        <time>2022-08-12T06:32:31.356Z</time>
      </trkpt>
      <trkpt lat="43.68455" lon="1.46829">
        <ele>239.60662</ele>
        <time>2022-08-12T06:32:33.377Z</time>
      </trkpt>
      <trkpt lat="43.68464" lon="1.46816">
        <ele>239.7435</ele>
        <time>2022-08-12T06:32:35.358Z</time>
      </trkpt>
      <trkpt lat="43.68474" lon="1.46806">
        <ele>239.879131</ele>
        <time>2022-08-12T06:32:37.377Z</time>
      </trkpt>
      <trkpt lat="43.68486" lon="1.46801">
        <ele>240.011939</ele>
        <time>2022-08-12T06:32:39.365Z</time>
      </trkpt>
      <trkpt lat="43.68497" lon="1.46798">
        <ele>240.14141</ele>
        <time>2022-08-12T06:32:41.354Z</time>
      </trkpt>
      <trkpt lat="43.68509" lon="1.46801">
        <ele>240.267043</ele>
        <time>2022-08-12T06:32:43.354Z</time>
      </trkpt>
      <trkpt lat="43.68519" lon="1.46808">
        <ele>240.393844</ele>
        <time>2022-08-12T06:32:45.354Z</time>
      </trkpt>
      <trkpt lat="43.68528" lon="1.46819">
        <ele>240.520153</ele>
        <time>2022-08-12T06:32:47.350Z</time>
      </trkpt>
      <trkpt lat="43.68535" lon="1.46831">
        <ele>240.649642</ele>
        <time>2022-08-12T06:32:49.348Z</time>
      </trkpt>
      <trkpt lat="43.68543" lon="1.46844">
        <ele>240.781891</ele>
        <time>2022-08-12T06:32:51.358Z</time>
      </trkpt>
      <trkpt lat="43.6855" lon="1.46858">
        <ele>240.912882</ele>
        <time>2022-08-12T06:32:53.363Z</time>
      </trkpt>
      <trkpt lat="43.68555" lon="1.46872">
        <ele>241.037375</ele>
        <time>2022-08-12T06:32:55.365Z</time>
      </trkpt>
      <trkpt lat="43.68556" lon="1.46886">
        <ele>241.151649</ele>
        <time>2022-08-12T06:32:57.376Z</time>
      </trkpt>
      <trkpt lat="43.68553" lon="1.46899">
        <ele>241.25691</ele>
        <time>2022-08-12T06:32:59.360Z</time>
      </trkpt>
      <trkpt lat="43.68553" lon="1.46912">
        <ele>241.17124</ele>
        <time>2022-08-12T06:33:01.369Z</time>
      </trkpt>
      <trkpt lat="43.68557" lon="1.46924">
        <ele>240.956487</ele>
        <time>2022-08-12T06:33:03.371Z</time>
      </trkpt>
      <trkpt lat="43.68564" lon="1.46933">
        <ele>240.724373</ele>
        <time>2022-08-12T06:33:05.361Z</time>
      </trkpt>
      <trkpt lat="43.68573" lon="1.46943">
        <ele>240.471733</ele>
        <time>2022-08-12T06:33:07.363Z</time>
      </trkpt>
      <trkpt lat="43.68582" lon="1.46953">
        <ele>240.204029</ele>
        <time>2022-08-12T06:33:09.359Z</time>
      </trkpt>
      <trkpt lat="43.68591" lon="1.46964">
        <ele>239.929307</ele>
        <time>2022-08-12T06:33:11.363Z</time>
      </trkpt>
      <trkpt lat="43.686" lon="1.46976">
        <ele>239.649114</ele>
        <time>2022-08-12T06:33:13.373Z</time>
      </trkpt>
      <trkpt lat="43.68608" lon="1.46989">
        <ele>239.359376</ele>
        <time>2022-08-12T06:33:15.353Z</time>
      </trkpt>
      <trkpt lat="43.68617" lon="1.47003">
        <ele>239.045798</ele>
        <time>2022-08-12T06:33:17.360Z</time>
      </trkpt>
      <trkpt lat="43.68628" lon="1.47018">
        <ele>238.709333</ele>
        <time>2022-08-12T06:33:19.365Z</time>
      </trkpt>
      <trkpt lat="43.68639" lon="1.47032">
        <ele>238.358805</ele>
        <time>2022-08-12T06:33:21.360Z</time>
      </trkpt>
      <trkpt lat="43.6865" lon="1.47047">
        <ele>238.005499</ele>
        <time>2022-08-12T06:33:23.355Z</time>
      </trkpt>
      <trkpt lat="43.68661" lon="1.47062">
        <ele>237.660705</ele>
        <time>2022-08-12T06:33:25.361Z</time>
      </trkpt>
      <trkpt lat="43.68672" lon="1.47076">
        <ele>237.323717</ele>
        <time>2022-08-12T06:33:27.360Z</time>
      </trkpt>
      <trkpt lat="43.68682" lon="1.4709">
        <ele>236.623859</ele>
        <time>2022-08-12T06:33:29.351Z</time>
      </trkpt>
      <trkpt lat="43.68694" lon="1.47102">
        <ele>235.711825</ele>
        <time>2022-08-12T06:33:31.356Z</time>
      </trkpt>
      <trkpt lat="43.68709" lon="1.47103">
        <ele>234.784752</ele>
        <time>2022-08-12T06:33:33.357Z</time>
      </trkpt>
      <trkpt lat="43.68722" lon="1.47089">
        <ele>233.801946</ele>
        <time>2022-08-12T06:33:35.370Z</time>
      </trkpt>
      <trkpt lat="43.68731" lon="1.47071">
        <ele>232.785059</ele>
        <time>2022-08-12T06:33:37.368Z</time>
      </trkpt>
      <trkpt lat="43.68741" lon="1.47052">
        <ele>231.724751</ele>
        <time>2022-08-12T06:33:39.378Z</time>
      </trkpt>
      <trkpt lat="43.68755" lon="1.47037">
        <ele>230.642724</ele>
        <time>2022-08-12T06:33:41.358Z</time>
      </trkpt>
      <trkpt lat="43.68765" lon="1.47038">
        <ele>230.080668</ele>
        <time>2022-08-12T06:33:42.373Z</time>
      </trkpt>
      <trkpt lat="43.68773" lon="1.47043">
        <ele>229.501106</ele>
        <time>2022-08-12T06:33:43.372Z</time>
      </trkpt>
      <trkpt lat="43.68781" lon="1.4705">
        <ele>228.914157</ele>
        <time>2022-08-12T06:33:44.358Z</time>
      </trkpt>
      <trkpt lat="43.68789" lon="1.47058">
        <ele>228.327425</ele>
        <time>2022-08-12T06:33:45.365Z</time>
      </trkpt>
      <trkpt lat="43.68796" lon="1.47066">
        <ele>227.749517</ele>
        <time>2022-08-12T06:33:46.362Z</time>
      </trkpt>
      <trkpt lat="43.68803" lon="1.47074">
        <ele>227.17725</ele>
        <time>2022-08-12T06:33:47.362Z</time>
      </trkpt>
      <trkpt lat="43.68809" lon="1.47084">
        <ele>226.595097</ele>
        <time>2022-08-12T06:33:48.369Z</time>
      </trkpt>
      <trkpt lat="43.68815" lon="1.47095">
        <ele>226.106419</ele>
        <time>2022-08-12T06:33:49.369Z</time>
      </trkpt>
      <trkpt lat="43.68821" lon="1.47106">
        <ele>226.164443</ele>
        <time>2022-08-12T06:33:50.387Z</time>
      </trkpt>
      <trkpt lat="43.68828" lon="1.47117">
        <ele>226.22526</ele>
        <time>2022-08-12T06:33:51.382Z</time>
      </trkpt>
      <trkpt lat="43.68836" lon="1.47126">
        <ele>226.28929</ele>
        <time>2022-08-12T06:33:52.360Z</time>
      </trkpt>
      <trkpt lat="43.68845" lon="1.47135">
        <ele>226.35556</ele>
        <time>2022-08-12T06:33:53.362Z</time>
      </trkpt>
      <trkpt lat="43.68854" lon="1.47145">
        <ele>226.421757</ele>
        <time>2022-08-12T06:33:54.366Z</time>
      </trkpt>
      <trkpt lat="43.68863" lon="1.47155">
        <ele>226.486703</ele>
        <time>2022-08-12T06:33:55.359Z</time>
      </trkpt>
      <trkpt lat="43.68871" lon="1.47164">
        <ele>226.549758</ele>
        <time>2022-08-12T06:33:56.359Z</time>
      </trkpt>
      <trkpt lat="43.68878" lon="1.47173">
        <ele>226.606186</ele>
        <time>2022-08-12T06:33:57.362Z</time>
      </trkpt>
      <trkpt lat="43.68891" lon="1.47189">
        <ele>226.703267</ele>
        <time>2022-08-12T06:33:59.360Z</time>
      </trkpt>
      <trkpt lat="43.689" lon="1.47201">
        <ele>226.780396</ele>
        <time>2022-08-12T06:34:01.359Z</time>
      </trkpt>
      <trkpt lat="43.68909" lon="1.4721">
        <ele>226.844171</ele>
        <time>2022-08-12T06:34:03.361Z</time>
      </trkpt>
      <trkpt lat="43.68917" lon="1.4722">
        <ele>226.904409</ele>
        <time>2022-08-12T06:34:05.377Z</time>
      </trkpt>
      <trkpt lat="43.68925" lon="1.47229">
        <ele>226.966007</ele>
        <time>2022-08-12T06:34:07.398Z</time>
      </trkpt>
      <trkpt lat="43.68933" lon="1.4724">
        <ele>227.031277</ele>
        <time>2022-08-12T06:34:09.346Z</time>
      </trkpt>
      <trkpt lat="43.68938" lon="1.47254">
        <ele>227.098776</ele>
        <time>2022-08-12T06:34:11.372Z</time>
      </trkpt>
      <trkpt lat="43.68939" lon="1.47269">
        <ele>227.097065</ele>
        <time>2022-08-12T06:34:13.366Z</time>
      </trkpt>
      <trkpt lat="43.68937" lon="1.47284">
        <ele>226.864736</ele>
        <time>2022-08-12T06:34:15.364Z</time>
      </trkpt>
      <trkpt lat="43.68932" lon="1.47298">
        <ele>226.635221</ele>
        <time>2022-08-12T06:34:17.364Z</time>
      </trkpt>
      <trkpt lat="43.68926" lon="1.4731">
        <ele>226.407874</ele>
        <time>2022-08-12T06:34:19.366Z</time>
      </trkpt>
      <trkpt lat="43.6892" lon="1.47323">
        <ele>226.181809</ele>
        <time>2022-08-12T06:34:21.362Z</time>
      </trkpt>
      <trkpt lat="43.68915" lon="1.47336">
        <ele>225.951486</ele>
        <time>2022-08-12T06:34:23.362Z</time>
      </trkpt>
      <trkpt lat="43.68909" lon="1.47348">
        <ele>225.724138</ele>
        <time>2022-08-12T06:34:25.370Z</time>
      </trkpt>
      <trkpt lat="43.68904" lon="1.47361">
        <ele>225.505662</ele>
        <time>2022-08-12T06:34:27.353Z</time>
      </trkpt>
      <trkpt lat="43.68902" lon="1.47376">
        <ele>225.270503</ele>
        <time>2022-08-12T06:34:29.356Z</time>
      </trkpt>
      <trkpt lat="43.68907" lon="1.47391">
        <ele>225.026701</ele>
        <time>2022-08-12T06:34:31.364Z</time>
      </trkpt>
      <trkpt lat="43.68916" lon="1.47403">
        <ele>224.763608</ele>
        <time>2022-08-12T06:34:33.352Z</time>
      </trkpt>
      <trkpt lat="43.68927" lon="1.47413">
        <ele>224.494364</ele>
        <time>2022-08-12T06:34:35.352Z</time>
      </trkpt>
      <trkpt lat="43.68936" lon="1.47421">
        <ele>224.266689</ele>
        <time>2022-08-12T06:34:37.340Z</time>
      </trkpt>
      <trkpt lat="43.68945" lon="1.47434">
        <ele>223.997113</ele>
        <time>2022-08-12T06:34:40.358Z</time>
      </trkpt>
      <trkpt lat="43.68958" lon="1.47432">
        <ele>223.720004</ele>
        <time>2022-08-12T06:34:43.344Z</time>
      </trkpt>
      <trkpt lat="43.68968" lon="1.47424">
        <ele>223.474263</ele>
        <time>2022-08-12T06:34:45.347Z</time>
      </trkpt>
      <trkpt lat="43.6898" lon="1.47417">
        <ele>223.255205</ele>
        <time>2022-08-12T06:34:47.347Z</time>
      </trkpt>
      <trkpt lat="43.68993" lon="1.47409">
        <ele>223.047697</ele>
        <time>2022-08-12T06:34:49.351Z</time>
      </trkpt>
      <trkpt lat="43.69009" lon="1.474">
        <ele>222.806606</ele>
        <time>2022-08-12T06:34:51.357Z</time>
      </trkpt>
      <trkpt lat="43.69017" lon="1.47395">
        <ele>222.669845</ele>
        <time>2022-08-12T06:34:52.348Z</time>
      </trkpt>
      <trkpt lat="43.69026" lon="1.47388">
        <ele>222.521208</ele>
        <time>2022-08-12T06:34:53.338Z</time>
      </trkpt>
      <trkpt lat="43.69035" lon="1.47381">
        <ele>222.374182</ele>
        <time>2022-08-12T06:34:54.356Z</time>
      </trkpt>
      <trkpt lat="43.69047" lon="1.47369">
        <ele>222.165346</ele>
        <time>2022-08-12T06:34:56.355Z</time>
      </trkpt>
      <trkpt lat="43.69056" lon="1.47366">
        <ele>222.03678</ele>
        <time>2022-08-12T06:34:59.359Z</time>
      </trkpt>
      <trkpt lat="43.69064" lon="1.47379">
        <ele>221.857102</ele>
        <time>2022-08-12T06:35:03.359Z</time>
      </trkpt>
      <trkpt lat="43.6907" lon="1.47389">
        <ele>221.714987</ele>
        <time>2022-08-12T06:35:05.365Z</time>
      </trkpt>
      <trkpt lat="43.69076" lon="1.47401">
        <ele>221.563712</ele>
        <time>2022-08-12T06:35:07.361Z</time>
      </trkpt>
      <trkpt lat="43.69083" lon="1.47413">
        <ele>221.407688</ele>
        <time>2022-08-12T06:35:09.351Z</time>
      </trkpt>
      <trkpt lat="43.69089" lon="1.47423">
        <ele>221.269012</ele>
        <time>2022-08-12T06:35:11.353Z</time>
      </trkpt>
      <trkpt lat="43.69095" lon="1.47434">
        <ele>221.133718</ele>
        <time>2022-08-12T06:35:13.333Z</time>
      </trkpt>
      <trkpt lat="43.69101" lon="1.47447">
        <ele>220.968637</ele>
        <time>2022-08-12T06:35:16.340Z</time>
      </trkpt>
      <trkpt lat="43.69106" lon="1.47463">
        <ele>220.789233</ele>
        <time>2022-08-12T06:35:19.342Z</time>
      </trkpt>
      <trkpt lat="43.6911" lon="1.47474">
        <ele>221.663364</ele>
        <time>2022-08-12T06:35:21.356Z</time>
      </trkpt>
      <trkpt lat="43.69113" lon="1.47489">
        <ele>222.799307</ele>
        <time>2022-08-12T06:35:24.339Z</time>
      </trkpt>
      <trkpt lat="43.69116" lon="1.47503">
        <ele>223.815258</ele>
        <time>2022-08-12T06:35:27.345Z</time>
      </trkpt>
      <trkpt lat="43.6912" lon="1.47519">
        <ele>225.098077</ele>
        <time>2022-08-12T06:35:30.363Z</time>
      </trkpt>
      <trkpt lat="43.69124" lon="1.47536">
        <ele>226.336294</ele>
        <time>2022-08-12T06:35:33.348Z</time>
      </trkpt>
      <trkpt lat="43.69127" lon="1.47551">
        <ele>227.519002</ele>
        <time>2022-08-12T06:35:36.363Z</time>
      </trkpt>
      <trkpt lat="43.69131" lon="1.47567">
        <ele>228.738222</ele>
        <time>2022-08-12T06:35:39.354Z</time>
      </trkpt>
      <trkpt lat="43.69137" lon="1.47582">
        <ele>229.947628</ele>
        <time>2022-08-12T06:35:42.354Z</time>
      </trkpt>
      <trkpt lat="43.69142" lon="1.47598">
        <ele>231.197534</ele>
        <time>2022-08-12T06:35:45.348Z</time>
      </trkpt>
      <trkpt lat="43.69148" lon="1.47611">
        <ele>232.388345</ele>
        <time>2022-08-12T06:35:48.356Z</time>
      </trkpt>
      <trkpt lat="43.69156" lon="1.47623">
        <ele>233.548123</ele>
        <time>2022-08-12T06:35:51.357Z</time>
      </trkpt>
      <trkpt lat="43.69163" lon="1.47635">
        <ele>234.697003</ele>
        <time>2022-08-12T06:35:54.355Z</time>
      </trkpt>
      <trkpt lat="43.69172" lon="1.47645">
        <ele>235.843796</ele>
        <time>2022-08-12T06:35:57.339Z</time>
      </trkpt>
      <trkpt lat="43.69182" lon="1.47653">
        <ele>237.02508</ele>
        <time>2022-08-12T06:36:00.371Z</time>
      </trkpt>
      <trkpt lat="43.69192" lon="1.47662">
        <ele>238.238596</ele>
        <time>2022-08-12T06:36:03.347Z</time>
      </trkpt>
      <trkpt lat="43.69202" lon="1.4767">
        <ele>238.972768</ele>
        <time>2022-08-12T06:36:06.348Z</time>
      </trkpt>
      <trkpt lat="43.69212" lon="1.47678">
        <ele>239.208953</ele>
        <time>2022-08-12T06:36:09.340Z</time>
      </trkpt>
      <trkpt lat="43.69222" lon="1.47688">
        <ele>239.444622</ele>
        <time>2022-08-12T06:36:12.349Z</time>
      </trkpt>
      <trkpt lat="43.69232" lon="1.47693">
        <ele>239.681302</ele>
        <time>2022-08-12T06:36:15.348Z</time>
      </trkpt>
      <trkpt lat="43.6924" lon="1.47701">
        <ele>239.879694</ele>
        <time>2022-08-12T06:36:17.350Z</time>
      </trkpt>
      <trkpt lat="43.69249" lon="1.4771">
        <ele>240.100734</ele>
        <time>2022-08-12T06:36:19.363Z</time>
      </trkpt>
      <trkpt lat="43.69259" lon="1.47719">
        <ele>240.351043</ele>
        <time>2022-08-12T06:36:21.349Z</time>
      </trkpt>
      <trkpt lat="43.6927" lon="1.47729">
        <ele>240.617242</ele>
        <time>2022-08-12T06:36:23.352Z</time>
      </trkpt>
      <trkpt lat="43.69281" lon="1.47741">
        <ele>240.895138</ele>
        <time>2022-08-12T06:36:25.342Z</time>
      </trkpt>
      <trkpt lat="43.69291" lon="1.47753">
        <ele>241.158089</ele>
        <time>2022-08-12T06:36:27.346Z</time>
      </trkpt>
      <trkpt lat="43.693" lon="1.47764">
        <ele>241.399316</ele>
        <time>2022-08-12T06:36:29.355Z</time>
      </trkpt>
      <trkpt lat="43.69308" lon="1.47773">
        <ele>241.624272</ele>
        <time>2022-08-12T06:36:31.339Z</time>
      </trkpt>
      <trkpt lat="43.69318" lon="1.4778">
        <ele>241.847338</ele>
        <time>2022-08-12T06:36:33.352Z</time>
      </trkpt>
      <trkpt lat="43.69329" lon="1.4778">
        <ele>242.07543</ele>
        <time>2022-08-12T06:36:35.357Z</time>
      </trkpt>
      <trkpt lat="43.69341" lon="1.4778">
        <ele>242.31155</ele>
        <time>2022-08-12T06:36:37.355Z</time>
      </trkpt>
      <trkpt lat="43.69353" lon="1.4778">
        <ele>242.558157</ele>
        <time>2022-08-12T06:36:39.351Z</time>
      </trkpt>
      <trkpt lat="43.69364" lon="1.47779">
        <ele>242.863477</ele>
        <time>2022-08-12T06:36:41.350Z</time>
      </trkpt>
      <trkpt lat="43.69376" lon="1.47778">
        <ele>243.173231</ele>
        <time>2022-08-12T06:36:43.369Z</time>
      </trkpt>
      <trkpt lat="43.69387" lon="1.47778">
        <ele>243.477355</ele>
        <time>2022-08-12T06:36:45.357Z</time>
      </trkpt>
      <trkpt lat="43.69399" lon="1.47777">
        <ele>243.787301</ele>
        <time>2022-08-12T06:36:47.363Z</time>
      </trkpt>
      <trkpt lat="43.6941" lon="1.47777">
        <ele>244.091523</ele>
        <time>2022-08-12T06:36:49.353Z</time>
      </trkpt>
      <trkpt lat="43.69422" lon="1.47777">
        <ele>244.398321</ele>
        <time>2022-08-12T06:36:51.368Z</time>
      </trkpt>
      <trkpt lat="43.69433" lon="1.4778">
        <ele>244.695108</ele>
        <time>2022-08-12T06:36:53.353Z</time>
      </trkpt>
      <trkpt lat="43.69442" lon="1.47773">
        <ele>244.980475</ele>
        <time>2022-08-12T06:36:55.344Z</time>
      </trkpt>
      <trkpt lat="43.69449" lon="1.4776">
        <ele>245.285354</ele>
        <time>2022-08-12T06:36:57.349Z</time>
      </trkpt>
      <trkpt lat="43.69455" lon="1.47748">
        <ele>245.574758</ele>
        <time>2022-08-12T06:36:59.344Z</time>
      </trkpt>
      <trkpt lat="43.6946" lon="1.47735">
        <ele>245.849023</ele>
        <time>2022-08-12T06:37:01.342Z</time>
      </trkpt>
      <trkpt lat="43.69465" lon="1.47722">
        <ele>246.141563</ele>
        <time>2022-08-12T06:37:03.344Z</time>
      </trkpt>
      <trkpt lat="43.69471" lon="1.4771">
        <ele>246.41775</ele>
        <time>2022-08-12T06:37:05.358Z</time>
      </trkpt>
      <trkpt lat="43.69476" lon="1.47698">
        <ele>246.687339</ele>
        <time>2022-08-12T06:37:07.356Z</time>
      </trkpt>
      <trkpt lat="43.69481" lon="1.47686">
        <ele>246.955076</ele>
        <time>2022-08-12T06:37:09.363Z</time>
      </trkpt>
      <trkpt lat="43.69485" lon="1.47674">
        <ele>247.210038</ele>
        <time>2022-08-12T06:37:11.368Z</time>
      </trkpt>
      <trkpt lat="43.69488" lon="1.47656">
        <ele>247.710203</ele>
        <time>2022-08-12T06:37:14.349Z</time>
      </trkpt>
      <trkpt lat="43.69491" lon="1.47639">
        <ele>248.254088</ele>
        <time>2022-08-12T06:37:17.356Z</time>
      </trkpt>
      <trkpt lat="43.69495" lon="1.47624">
        <ele>248.742508</ele>
        <time>2022-08-12T06:37:20.360Z</time>
      </trkpt>
      <trkpt lat="43.69497" lon="1.47606">
        <ele>249.333116</ele>
        <time>2022-08-12T06:37:23.359Z</time>
      </trkpt>
      <trkpt lat="43.695" lon="1.47593">
        <ele>249.729195</ele>
        <time>2022-08-12T06:37:25.340Z</time>
      </trkpt>
      <trkpt lat="43.69504" lon="1.47578">
        <ele>250.234959</ele>
        <time>2022-08-12T06:37:28.353Z</time>
      </trkpt>
      <trkpt lat="43.69512" lon="1.47564">
        <ele>250.817235</ele>
        <time>2022-08-12T06:37:31.363Z</time>
      </trkpt>
      <trkpt lat="43.69518" lon="1.47553">
        <ele>251.224467</ele>
        <time>2022-08-12T06:37:33.358Z</time>
      </trkpt>
      <trkpt lat="43.69527" lon="1.47539">
        <ele>251.7944</ele>
        <time>2022-08-12T06:37:36.384Z</time>
      </trkpt>
      <trkpt lat="43.69535" lon="1.47527">
        <ele>252.33331</ele>
        <time>2022-08-12T06:37:39.351Z</time>
      </trkpt>
      <trkpt lat="43.69543" lon="1.47514">
        <ele>252.85852</ele>
        <time>2022-08-12T06:37:42.346Z</time>
      </trkpt>
      <trkpt lat="43.69554" lon="1.47524">
        <ele>253.383585</ele>
        <time>2022-08-12T06:37:46.368Z</time>
      </trkpt>
      <trkpt lat="43.69561" lon="1.47531">
        <ele>253.788198</ele>
        <time>2022-08-12T06:37:48.366Z</time>
      </trkpt>
      <trkpt lat="43.6957" lon="1.47539">
        <ele>254.229934</ele>
        <time>2022-08-12T06:37:50.352Z</time>
      </trkpt>
      <trkpt lat="43.69576" lon="1.4755">
        <ele>254.660867</ele>
        <time>2022-08-12T06:37:52.363Z</time>
      </trkpt>
      <trkpt lat="43.69581" lon="1.47564">
        <ele>255.104759</ele>
        <time>2022-08-12T06:37:54.352Z</time>
      </trkpt>
      <trkpt lat="43.69582" lon="1.47579">
        <ele>255.25985</ele>
        <time>2022-08-12T06:37:56.370Z</time>
      </trkpt>
      <trkpt lat="43.69584" lon="1.47594">
        <ele>255.412234</ele>
        <time>2022-08-12T06:37:58.364Z</time>
      </trkpt>
      <trkpt lat="43.69588" lon="1.4761">
        <ele>255.575713</ele>
        <time>2022-08-12T06:38:00.359Z</time>
      </trkpt>
      <trkpt lat="43.69594" lon="1.47624">
        <ele>255.73652</ele>
        <time>2022-08-12T06:38:02.358Z</time>
      </trkpt>
      <trkpt lat="43.69599" lon="1.47638">
        <ele>255.892631</ele>
        <time>2022-08-12T06:38:04.362Z</time>
      </trkpt>
      <trkpt lat="43.69605" lon="1.47652">
        <ele>256.052474</ele>
        <time>2022-08-12T06:38:06.351Z</time>
      </trkpt>
      <trkpt lat="43.69611" lon="1.47666">
        <ele>256.219769</ele>
        <time>2022-08-12T06:38:08.363Z</time>
      </trkpt>
      <trkpt lat="43.69617" lon="1.4768">
        <ele>256.38203</ele>
        <time>2022-08-12T06:38:10.343Z</time>
      </trkpt>
      <trkpt lat="43.69622" lon="1.47694">
        <ele>256.541209</ele>
        <time>2022-08-12T06:38:12.374Z</time>
      </trkpt>
      <trkpt lat="43.69628" lon="1.47708">
        <ele>256.699306</ele>
        <time>2022-08-12T06:38:14.357Z</time>
      </trkpt>
      <trkpt lat="43.69634" lon="1.47721">
        <ele>256.855814</ele>
        <time>2022-08-12T06:38:16.359Z</time>
      </trkpt>
      <trkpt lat="43.69639" lon="1.47734">
        <ele>257.000076</ele>
        <time>2022-08-12T06:38:18.363Z</time>
      </trkpt>
      <trkpt lat="43.69643" lon="1.47745">
        <ele>257.127211</ele>
        <time>2022-08-12T06:38:20.361Z</time>
      </trkpt>
      <trkpt lat="43.69648" lon="1.4776">
        <ele>257.289345</ele>
        <time>2022-08-12T06:38:24.368Z</time>
      </trkpt>
      <trkpt lat="43.69658" lon="1.47773">
        <ele>257.479353</ele>
        <time>2022-08-12T06:38:27.358Z</time>
      </trkpt>
      <trkpt lat="43.69666" lon="1.47783">
        <ele>257.517034</ele>
        <time>2022-08-12T06:38:29.383Z</time>
      </trkpt>
      <trkpt lat="43.69674" lon="1.47793">
        <ele>257.364622</ele>
        <time>2022-08-12T06:38:31.366Z</time>
      </trkpt>
      <trkpt lat="43.69683" lon="1.47803">
        <ele>257.212433</ele>
        <time>2022-08-12T06:38:33.372Z</time>
      </trkpt>
      <trkpt lat="43.69692" lon="1.47814">
        <ele>257.062034</ele>
        <time>2022-08-12T06:38:35.377Z</time>
      </trkpt>
      <trkpt lat="43.697" lon="1.47823">
        <ele>256.910634</ele>
        <time>2022-08-12T06:38:37.360Z</time>
      </trkpt>
      <trkpt lat="43.6971" lon="1.47831">
        <ele>256.761788</ele>
        <time>2022-08-12T06:38:39.360Z</time>
      </trkpt>
      <trkpt lat="43.69721" lon="1.47836">
        <ele>256.61428</ele>
        <time>2022-08-12T06:38:41.379Z</time>
      </trkpt>
      <trkpt lat="43.69732" lon="1.47839">
        <ele>256.462632</ele>
        <time>2022-08-12T06:38:43.370Z</time>
      </trkpt>
      <trkpt lat="43.69744" lon="1.4784">
        <ele>256.305541</ele>
        <time>2022-08-12T06:38:45.357Z</time>
      </trkpt>
      <trkpt lat="43.69756" lon="1.47838">
        <ele>256.142693</ele>
        <time>2022-08-12T06:38:47.357Z</time>
      </trkpt>
      <trkpt lat="43.69768" lon="1.47836">
        <ele>255.974603</ele>
        <time>2022-08-12T06:38:49.374Z</time>
      </trkpt>
      <trkpt lat="43.69781" lon="1.47832">
        <ele>255.800167</ele>
        <time>2022-08-12T06:38:51.355Z</time>
      </trkpt>
      <trkpt lat="43.69794" lon="1.47827">
        <ele>255.623151</ele>
        <time>2022-08-12T06:38:53.353Z</time>
      </trkpt>
      <trkpt lat="43.69807" lon="1.47822">
        <ele>255.440488</ele>
        <time>2022-08-12T06:38:55.344Z</time>
      </trkpt>
      <trkpt lat="43.69821" lon="1.47816">
        <ele>255.250088</ele>
        <time>2022-08-12T06:38:57.372Z</time>
      </trkpt>
      <trkpt lat="43.69835" lon="1.4781">
        <ele>254.706208</ele>
        <time>2022-08-12T06:38:59.356Z</time>
      </trkpt>
      <trkpt lat="43.6985" lon="1.47804">
        <ele>253.91984</ele>
        <time>2022-08-12T06:39:01.367Z</time>
      </trkpt>
      <trkpt lat="43.69866" lon="1.478">
        <ele>253.099585</ele>
        <time>2022-08-12T06:39:03.353Z</time>
      </trkpt>
      <trkpt lat="43.69882" lon="1.47793">
        <ele>252.242347</ele>
        <time>2022-08-12T06:39:05.356Z</time>
      </trkpt>
      <trkpt lat="43.69888" lon="1.47784">
        <ele>251.784127</ele>
        <time>2022-08-12T06:39:06.364Z</time>
      </trkpt>
      <trkpt lat="43.69901" lon="1.47767">
        <ele>250.899842</ele>
        <time>2022-08-12T06:39:08.362Z</time>
      </trkpt>
      <trkpt lat="43.69913" lon="1.47749">
        <ele>250.002846</ele>
        <time>2022-08-12T06:39:10.362Z</time>
      </trkpt>
      <trkpt lat="43.69925" lon="1.47731">
        <ele>249.093591</ele>
        <time>2022-08-12T06:39:12.366Z</time>
      </trkpt>
      <trkpt lat="43.69938" lon="1.47713">
        <ele>248.177412</ele>
        <time>2022-08-12T06:39:14.353Z</time>
      </trkpt>
      <trkpt lat="43.69945" lon="1.47704">
        <ele>247.697372</ele>
        <time>2022-08-12T06:39:15.374Z</time>
      </trkpt>
      <trkpt lat="43.69951" lon="1.47694">
        <ele>247.19975</ele>
        <time>2022-08-12T06:39:16.367Z</time>
      </trkpt>
      <trkpt lat="43.69958" lon="1.47684">
        <ele>246.695975</ele>
        <time>2022-08-12T06:39:17.369Z</time>
      </trkpt>
      <trkpt lat="43.69966" lon="1.47674">
        <ele>246.164447</ele>
        <time>2022-08-12T06:39:18.351Z</time>
      </trkpt>
      <trkpt lat="43.69973" lon="1.47665">
        <ele>245.825441</ele>
        <time>2022-08-12T06:39:19.365Z</time>
      </trkpt>
      <trkpt lat="43.6998" lon="1.47655">
        <ele>245.528536</ele>
        <time>2022-08-12T06:39:20.360Z</time>
      </trkpt>
      <trkpt lat="43.69988" lon="1.47646">
        <ele>245.238458</ele>
        <time>2022-08-12T06:39:21.349Z</time>
      </trkpt>
      <trkpt lat="43.69996" lon="1.47638">
        <ele>244.947039</ele>
        <time>2022-08-12T06:39:22.376Z</time>
      </trkpt>
      <trkpt lat="43.70005" lon="1.47631">
        <ele>244.660865</ele>
        <time>2022-08-12T06:39:23.349Z</time>
      </trkpt>
      <trkpt lat="43.70014" lon="1.47626">
        <ele>244.376499</ele>
        <time>2022-08-12T06:39:24.367Z</time>
      </trkpt>
      <trkpt lat="43.70024" lon="1.47623">
        <ele>244.092087</ele>
        <time>2022-08-12T06:39:25.359Z</time>
      </trkpt>
      <trkpt lat="43.70033" lon="1.47619">
        <ele>243.811622</ele>
        <time>2022-08-12T06:39:26.362Z</time>
      </trkpt>
      <trkpt lat="43.70042" lon="1.47618">
        <ele>243.531686</ele>
        <time>2022-08-12T06:39:27.360Z</time>
      </trkpt>
      <trkpt lat="43.70052" lon="1.47618">
        <ele>243.244165</ele>
        <time>2022-08-12T06:39:28.376Z</time>
      </trkpt>
      <trkpt lat="43.70062" lon="1.47619">
        <ele>242.967305</ele>
        <time>2022-08-12T06:39:29.374Z</time>
      </trkpt>
      <trkpt lat="43.70071" lon="1.47621">
        <ele>242.697748</ele>
        <time>2022-08-12T06:39:30.373Z</time>
      </trkpt>
      <trkpt lat="43.7008" lon="1.47623">
        <ele>242.423739</ele>
        <time>2022-08-12T06:39:31.363Z</time>
      </trkpt>
      <trkpt lat="43.70089" lon="1.47625">
        <ele>242.155807</ele>
        <time>2022-08-12T06:39:32.358Z</time>
      </trkpt>
      <trkpt lat="43.70099" lon="1.47627">
        <ele>241.881436</ele>
        <time>2022-08-12T06:39:33.359Z</time>
      </trkpt>
      <trkpt lat="43.70108" lon="1.47629">
        <ele>241.614757</ele>
        <time>2022-08-12T06:39:34.373Z</time>
      </trkpt>
      <trkpt lat="43.70117" lon="1.4763">
        <ele>241.34137</ele>
        <time>2022-08-12T06:39:35.357Z</time>
      </trkpt>
      <trkpt lat="43.70127" lon="1.47629">
        <ele>241.071209</ele>
        <time>2022-08-12T06:39:36.374Z</time>
      </trkpt>
      <trkpt lat="43.70136" lon="1.47627">
        <ele>240.844028</ele>
        <time>2022-08-12T06:39:37.364Z</time>
      </trkpt>
      <trkpt lat="43.70145" lon="1.47624">
        <ele>240.883121</ele>
        <time>2022-08-12T06:39:38.360Z</time>
      </trkpt>
      <trkpt lat="43.70162" lon="1.47616">
        <ele>240.958371</ele>
        <time>2022-08-12T06:39:40.355Z</time>
      </trkpt>
      <trkpt lat="43.70178" lon="1.47608">
        <ele>241.033032</ele>
        <time>2022-08-12T06:39:42.377Z</time>
      </trkpt>
      <trkpt lat="43.70195" lon="1.47606">
        <ele>241.102316</ele>
        <time>2022-08-12T06:39:44.379Z</time>
      </trkpt>
      <trkpt lat="43.70209" lon="1.47612">
        <ele>241.164672</ele>
        <time>2022-08-12T06:39:46.361Z</time>
      </trkpt>
      <trkpt lat="43.70221" lon="1.4762">
        <ele>241.219957</ele>
        <time>2022-08-12T06:39:48.368Z</time>
      </trkpt>
      <trkpt lat="43.70231" lon="1.47628">
        <ele>241.268102</ele>
        <time>2022-08-12T06:39:50.381Z</time>
      </trkpt>
      <trkpt lat="43.7024" lon="1.47635">
        <ele>241.312052</ele>
        <time>2022-08-12T06:39:52.370Z</time>
      </trkpt>
      <trkpt lat="43.70248" lon="1.47642">
        <ele>241.353723</ele>
        <time>2022-08-12T06:39:54.361Z</time>
      </trkpt>
      <trkpt lat="43.70257" lon="1.47648">
        <ele>241.394803</ele>
        <time>2022-08-12T06:39:56.358Z</time>
      </trkpt>
      <trkpt lat="43.70266" lon="1.47655">
        <ele>241.437871</ele>
        <time>2022-08-12T06:39:58.382Z</time>
      </trkpt>
      <trkpt lat="43.70275" lon="1.47662">
        <ele>241.482636</ele>
        <time>2022-08-12T06:40:00.366Z</time>
      </trkpt>
      <trkpt lat="43.70285" lon="1.47669">
        <ele>241.528477</ele>
        <time>2022-08-12T06:40:02.340Z</time>
      </trkpt>
      <trkpt lat="43.70296" lon="1.47675">
        <ele>241.576933</ele>
        <time>2022-08-12T06:40:04.359Z</time>
      </trkpt>
      <trkpt lat="43.70307" lon="1.47681">
        <ele>241.35571</ele>
        <time>2022-08-12T06:40:06.360Z</time>
      </trkpt>
      <trkpt lat="43.7032" lon="1.47688">
        <ele>240.944502</ele>
        <time>2022-08-12T06:40:08.366Z</time>
      </trkpt>
      <trkpt lat="43.70334" lon="1.47694">
        <ele>240.501796</ele>
        <time>2022-08-12T06:40:10.346Z</time>
      </trkpt>
      <trkpt lat="43.7035" lon="1.47701">
        <ele>240.010447</ele>
        <time>2022-08-12T06:40:12.357Z</time>
      </trkpt>
      <trkpt lat="43.70366" lon="1.4771">
        <ele>239.49914</ele>
        <time>2022-08-12T06:40:14.357Z</time>
      </trkpt>
      <trkpt lat="43.70382" lon="1.47719">
        <ele>238.984927</ele>
        <time>2022-08-12T06:40:16.340Z</time>
      </trkpt>
      <trkpt lat="43.70398" lon="1.47728">
        <ele>238.473882</ele>
        <time>2022-08-12T06:40:18.351Z</time>
      </trkpt>
      <trkpt lat="43.70414" lon="1.47735">
        <ele>237.965703</ele>
        <time>2022-08-12T06:40:20.345Z</time>
      </trkpt>
      <trkpt lat="43.7043" lon="1.47742">
        <ele>237.466684</ele>
        <time>2022-08-12T06:40:22.348Z</time>
      </trkpt>
      <trkpt lat="43.70445" lon="1.4775">
        <ele>236.984595</ele>
        <time>2022-08-12T06:40:24.343Z</time>
      </trkpt>
      <trkpt lat="43.70461" lon="1.47757">
        <ele>236.50884</ele>
        <time>2022-08-12T06:40:26.366Z</time>
      </trkpt>
      <trkpt lat="43.70475" lon="1.47766">
        <ele>236.173215</ele>
        <time>2022-08-12T06:40:28.355Z</time>
      </trkpt>
      <trkpt lat="43.70486" lon="1.4778">
        <ele>236.024821</ele>
        <time>2022-08-12T06:40:30.363Z</time>
      </trkpt>
      <trkpt lat="43.70494" lon="1.47798">
        <ele>235.874397</ele>
        <time>2022-08-12T06:40:32.352Z</time>
      </trkpt>
      <trkpt lat="43.70501" lon="1.47816">
        <ele>235.728969</ele>
        <time>2022-08-12T06:40:34.348Z</time>
      </trkpt>
      <trkpt lat="43.70508" lon="1.47833">
        <ele>235.588502</ele>
        <time>2022-08-12T06:40:36.356Z</time>
      </trkpt>
      <trkpt lat="43.70515" lon="1.4785">
        <ele>235.452097</ele>
        <time>2022-08-12T06:40:38.357Z</time>
      </trkpt>
      <trkpt lat="43.70521" lon="1.47866">
        <ele>235.319766</ele>
        <time>2022-08-12T06:40:40.364Z</time>
      </trkpt>
      <trkpt lat="43.70528" lon="1.47881">
        <ele>235.18998</ele>
        <time>2022-08-12T06:40:42.351Z</time>
      </trkpt>
      <trkpt lat="43.70535" lon="1.47896">
        <ele>235.061407</ele>
        <time>2022-08-12T06:40:44.350Z</time>
      </trkpt>
      <trkpt lat="43.70542" lon="1.47911">
        <ele>234.936298</ele>
        <time>2022-08-12T06:40:46.357Z</time>
      </trkpt>
      <trkpt lat="43.70548" lon="1.47926">
        <ele>234.814455</ele>
        <time>2022-08-12T06:40:48.353Z</time>
      </trkpt>
      <trkpt lat="43.70555" lon="1.4794">
        <ele>234.694541</ele>
        <time>2022-08-12T06:40:50.347Z</time>
      </trkpt>
      <trkpt lat="43.70561" lon="1.47954">
        <ele>234.57644</ele>
        <time>2022-08-12T06:40:52.355Z</time>
      </trkpt>
      <trkpt lat="43.70568" lon="1.47968">
        <ele>234.467994</ele>
        <time>2022-08-12T06:40:54.354Z</time>
      </trkpt>
      <trkpt lat="43.70574" lon="1.47982">
        <ele>234.547966</ele>
        <time>2022-08-12T06:40:56.354Z</time>
      </trkpt>
      <trkpt lat="43.70581" lon="1.47995">
        <ele>234.625003</ele>
        <time>2022-08-12T06:40:58.354Z</time>
      </trkpt>
      <trkpt lat="43.70588" lon="1.48007">
        <ele>234.703281</ele>
        <time>2022-08-12T06:41:00.357Z</time>
      </trkpt>
      <trkpt lat="43.70594" lon="1.48021">
        <ele>234.783501</ele>
        <time>2022-08-12T06:41:02.352Z</time>
      </trkpt>
      <trkpt lat="43.70601" lon="1.48034">
        <ele>234.862546</ele>
        <time>2022-08-12T06:41:04.352Z</time>
      </trkpt>
      <trkpt lat="43.70608" lon="1.48047">
        <ele>234.942013</ele>
        <time>2022-08-12T06:41:06.363Z</time>
      </trkpt>
      <trkpt lat="43.70615" lon="1.48059">
        <ele>235.018803</ele>
        <time>2022-08-12T06:41:08.368Z</time>
      </trkpt>
      <trkpt lat="43.70622" lon="1.48071">
        <ele>235.093512</ele>
        <time>2022-08-12T06:41:10.347Z</time>
      </trkpt>
      <trkpt lat="43.70629" lon="1.48082">
        <ele>235.164653</ele>
        <time>2022-08-12T06:41:12.350Z</time>
      </trkpt>
      <trkpt lat="43.70635" lon="1.48094">
        <ele>235.23541</ele>
        <time>2022-08-12T06:41:14.351Z</time>
      </trkpt>
      <trkpt lat="43.70641" lon="1.48105">
        <ele>235.30371</ele>
        <time>2022-08-12T06:41:16.354Z</time>
      </trkpt>
      <trkpt lat="43.70647" lon="1.48116">
        <ele>235.369259</ele>
        <time>2022-08-12T06:41:18.368Z</time>
      </trkpt>
      <trkpt lat="43.70652" lon="1.48126">
        <ele>235.433199</ele>
        <time>2022-08-12T06:41:20.343Z</time>
      </trkpt>
      <trkpt lat="43.70659" lon="1.48136">
        <ele>235.497647</ele>
        <time>2022-08-12T06:41:22.350Z</time>
      </trkpt>
      <trkpt lat="43.70666" lon="1.48146">
        <ele>235.565382</ele>
        <time>2022-08-12T06:41:24.355Z</time>
      </trkpt>
      <trkpt lat="43.70674" lon="1.48156">
        <ele>235.637679</ele>
        <time>2022-08-12T06:41:26.357Z</time>
      </trkpt>
      <trkpt lat="43.70683" lon="1.48165">
        <ele>235.660416</ele>
        <time>2022-08-12T06:41:28.343Z</time>
      </trkpt>
      <trkpt lat="43.70692" lon="1.48175">
        <ele>235.603848</ele>
        <time>2022-08-12T06:41:30.363Z</time>
      </trkpt>
      <trkpt lat="43.70703" lon="1.48183">
        <ele>235.545139</ele>
        <time>2022-08-12T06:41:32.376Z</time>
      </trkpt>
      <trkpt lat="43.70714" lon="1.4819">
        <ele>235.486264</ele>
        <time>2022-08-12T06:41:34.354Z</time>
      </trkpt>
      <trkpt lat="43.70725" lon="1.48197">
        <ele>235.428366</ele>
        <time>2022-08-12T06:41:36.364Z</time>
      </trkpt>
      <trkpt lat="43.70736" lon="1.48203">
        <ele>235.371086</ele>
        <time>2022-08-12T06:41:38.351Z</time>
      </trkpt>
      <trkpt lat="43.70747" lon="1.4821">
        <ele>235.313634</ele>
        <time>2022-08-12T06:41:40.356Z</time>
      </trkpt>
      <trkpt lat="43.70758" lon="1.48216">
        <ele>235.256215</ele>
        <time>2022-08-12T06:41:42.368Z</time>
      </trkpt>
      <trkpt lat="43.70769" lon="1.48223">
        <ele>235.198369</ele>
        <time>2022-08-12T06:41:44.349Z</time>
      </trkpt>
      <trkpt lat="43.7078" lon="1.4823">
        <ele>235.140363</ele>
        <time>2022-08-12T06:41:46.367Z</time>
      </trkpt>
      <trkpt lat="43.7079" lon="1.48238">
        <ele>235.08177</ele>
        <time>2022-08-12T06:41:48.360Z</time>
      </trkpt>
      <trkpt lat="43.70801" lon="1.48245">
        <ele>235.022278</ele>
        <time>2022-08-12T06:41:50.360Z</time>
      </trkpt>
      <trkpt lat="43.70812" lon="1.48253">
        <ele>234.962786</ele>
        <time>2022-08-12T06:41:52.355Z</time>
      </trkpt>
      <trkpt lat="43.70823" lon="1.48261">
        <ele>234.905058</ele>
        <time>2022-08-12T06:41:54.356Z</time>
      </trkpt>
      <trkpt lat="43.70834" lon="1.48268">
        <ele>234.84733</ele>
        <time>2022-08-12T06:41:56.364Z</time>
      </trkpt>
      <trkpt lat="43.70845" lon="1.48275">
        <ele>234.812539</ele>
        <time>2022-08-12T06:41:58.350Z</time>
      </trkpt>
      <trkpt lat="43.70855" lon="1.48283">
        <ele>234.806979</ele>
        <time>2022-08-12T06:42:00.354Z</time>
      </trkpt>
      <trkpt lat="43.70866" lon="1.4829">
        <ele>234.801486</ele>
        <time>2022-08-12T06:42:02.341Z</time>
      </trkpt>
      <trkpt lat="43.70876" lon="1.48298">
        <ele>234.795952</ele>
        <time>2022-08-12T06:42:04.363Z</time>
      </trkpt>
      <trkpt lat="43.70886" lon="1.48305">
        <ele>234.790491</ele>
        <time>2022-08-12T06:42:06.360Z</time>
      </trkpt>
      <trkpt lat="43.70897" lon="1.48312">
        <ele>234.785003</ele>
        <time>2022-08-12T06:42:08.354Z</time>
      </trkpt>
      <trkpt lat="43.70907" lon="1.48319">
        <ele>234.77953</ele>
        <time>2022-08-12T06:42:10.354Z</time>
      </trkpt>
      <trkpt lat="43.70918" lon="1.48327">
        <ele>234.774</ele>
        <time>2022-08-12T06:42:12.361Z</time>
      </trkpt>
      <trkpt lat="43.70929" lon="1.48334">
        <ele>234.768481</ele>
        <time>2022-08-12T06:42:14.350Z</time>
      </trkpt>
      <trkpt lat="43.70938" lon="1.48342">
        <ele>234.763042</ele>
        <time>2022-08-12T06:42:16.346Z</time>
      </trkpt>
      <trkpt lat="43.70948" lon="1.48352">
        <ele>234.757592</ele>
        <time>2022-08-12T06:42:18.347Z</time>
      </trkpt>
      <trkpt lat="43.70958" lon="1.48361">
        <ele>234.751987</ele>
        <time>2022-08-12T06:42:20.353Z</time>
      </trkpt>
      <trkpt lat="43.70967" lon="1.48371">
        <ele>234.7464</ele>
        <time>2022-08-12T06:42:22.352Z</time>
      </trkpt>
      <trkpt lat="43.70977" lon="1.48381">
        <ele>234.740775</ele>
        <time>2022-08-12T06:42:24.349Z</time>
      </trkpt>
      <trkpt lat="43.70987" lon="1.4839">
        <ele>234.735106</ele>
        <time>2022-08-12T06:42:26.357Z</time>
      </trkpt>
      <trkpt lat="43.70996" lon="1.48401">
        <ele>234.758453</ele>
        <time>2022-08-12T06:42:28.358Z</time>
      </trkpt>
      <trkpt lat="43.71005" lon="1.48411">
        <ele>234.873926</ele>
        <time>2022-08-12T06:42:30.356Z</time>
      </trkpt>
      <trkpt lat="43.71012" lon="1.4842">
        <ele>234.965279</ele>
        <time>2022-08-12T06:42:32.380Z</time>
      </trkpt>
      <trkpt lat="43.71022" lon="1.48429">
        <ele>235.077808</ele>
        <time>2022-08-12T06:42:38.353Z</time>
      </trkpt>
      <trkpt lat="43.71032" lon="1.4844">
        <ele>235.209495</ele>
        <time>2022-08-12T06:42:41.363Z</time>
      </trkpt>
      <trkpt lat="43.7104" lon="1.48448">
        <ele>235.305236</ele>
        <time>2022-08-12T06:42:43.353Z</time>
      </trkpt>
      <trkpt lat="43.71048" lon="1.48458">
        <ele>235.407622</ele>
        <time>2022-08-12T06:42:45.349Z</time>
      </trkpt>
      <trkpt lat="43.71056" lon="1.48468">
        <ele>235.514329</ele>
        <time>2022-08-12T06:42:47.353Z</time>
      </trkpt>
      <trkpt lat="43.71065" lon="1.48479">
        <ele>235.626931</ele>
        <time>2022-08-12T06:42:49.351Z</time>
      </trkpt>
      <trkpt lat="43.71073" lon="1.48489">
        <ele>235.741196</ele>
        <time>2022-08-12T06:42:51.358Z</time>
      </trkpt>
      <trkpt lat="43.71082" lon="1.485">
        <ele>235.85464</ele>
        <time>2022-08-12T06:42:53.371Z</time>
      </trkpt>
      <trkpt lat="43.71091" lon="1.4851">
        <ele>235.968449</ele>
        <time>2022-08-12T06:42:55.363Z</time>
      </trkpt>
      <trkpt lat="43.711" lon="1.48521">
        <ele>236.08588</ele>
        <time>2022-08-12T06:42:57.357Z</time>
      </trkpt>
      <trkpt lat="43.71109" lon="1.48531">
        <ele>236.20165</ele>
        <time>2022-08-12T06:42:59.352Z</time>
      </trkpt>
      <trkpt lat="43.71118" lon="1.48541">
        <ele>236.315168</ele>
        <time>2022-08-12T06:43:01.360Z</time>
      </trkpt>
      <trkpt lat="43.71127" lon="1.48552">
        <ele>236.427315</ele>
        <time>2022-08-12T06:43:03.359Z</time>
      </trkpt>
      <trkpt lat="43.71136" lon="1.48561">
        <ele>236.50946</ele>
        <time>2022-08-12T06:43:05.366Z</time>
      </trkpt>
      <trkpt lat="43.71145" lon="1.48571">
        <ele>236.546023</ele>
        <time>2022-08-12T06:43:07.352Z</time>
      </trkpt>
      <trkpt lat="43.71153" lon="1.48582">
        <ele>236.582882</ele>
        <time>2022-08-12T06:43:09.371Z</time>
      </trkpt>
      <trkpt lat="43.71162" lon="1.48593">
        <ele>236.620092</ele>
        <time>2022-08-12T06:43:11.352Z</time>
      </trkpt>
      <trkpt lat="43.7117" lon="1.48604">
        <ele>236.658655</ele>
        <time>2022-08-12T06:43:13.368Z</time>
      </trkpt>
      <trkpt lat="43.71179" lon="1.48617">
        <ele>236.697614</ele>
        <time>2022-08-12T06:43:15.356Z</time>
      </trkpt>
      <trkpt lat="43.71186" lon="1.4863">
        <ele>236.736198</ele>
        <time>2022-08-12T06:43:17.365Z</time>
      </trkpt>
      <trkpt lat="43.71193" lon="1.48643">
        <ele>236.77401</ele>
        <time>2022-08-12T06:43:19.360Z</time>
      </trkpt>
      <trkpt lat="43.712" lon="1.48655">
        <ele>236.811485</ele>
        <time>2022-08-12T06:43:21.361Z</time>
      </trkpt>
      <trkpt lat="43.71208" lon="1.48668">
        <ele>236.849071</ele>
        <time>2022-08-12T06:43:23.347Z</time>
      </trkpt>
      <trkpt lat="43.71216" lon="1.4868">
        <ele>236.886238</ele>
        <time>2022-08-12T06:43:25.363Z</time>
      </trkpt>
      <trkpt lat="43.71223" lon="1.48692">
        <ele>236.923172</ele>
        <time>2022-08-12T06:43:27.359Z</time>
      </trkpt>
      <trkpt lat="43.7123" lon="1.48705">
        <ele>236.960668</ele>
        <time>2022-08-12T06:43:29.359Z</time>
      </trkpt>
      <trkpt lat="43.71237" lon="1.48717">
        <ele>236.997942</ele>
        <time>2022-08-12T06:43:31.364Z</time>
      </trkpt>
      <trkpt lat="43.71245" lon="1.48729">
        <ele>237.034697</ele>
        <time>2022-08-12T06:43:33.365Z</time>
      </trkpt>
      <trkpt lat="43.71253" lon="1.48742">
        <ele>237.073088</ele>
        <time>2022-08-12T06:43:35.368Z</time>
      </trkpt>
      <trkpt lat="43.7126" lon="1.48755">
        <ele>237.115747</ele>
        <time>2022-08-12T06:43:37.394Z</time>
      </trkpt>
      <trkpt lat="43.71267" lon="1.48768">
        <ele>237.158813</ele>
        <time>2022-08-12T06:43:39.371Z</time>
      </trkpt>
      <trkpt lat="43.71275" lon="1.48781">
        <ele>237.201693</ele>
        <time>2022-08-12T06:43:41.364Z</time>
      </trkpt>
      <trkpt lat="43.71282" lon="1.48794">
        <ele>237.244531</ele>
        <time>2022-08-12T06:43:43.359Z</time>
      </trkpt>
      <trkpt lat="43.71289" lon="1.48807">
        <ele>237.286529</ele>
        <time>2022-08-12T06:43:45.367Z</time>
      </trkpt>
      <trkpt lat="43.71296" lon="1.48821">
        <ele>237.328527</ele>
        <time>2022-08-12T06:43:47.358Z</time>
      </trkpt>
      <trkpt lat="43.71303" lon="1.48834">
        <ele>237.370319</ele>
        <time>2022-08-12T06:43:49.361Z</time>
      </trkpt>
      <trkpt lat="43.7131" lon="1.48847">
        <ele>237.412566</ele>
        <time>2022-08-12T06:43:51.362Z</time>
      </trkpt>
      <trkpt lat="43.71317" lon="1.4886">
        <ele>237.454787</ele>
        <time>2022-08-12T06:43:53.358Z</time>
      </trkpt>
      <trkpt lat="43.71324" lon="1.48873">
        <ele>237.496578</ele>
        <time>2022-08-12T06:43:55.365Z</time>
      </trkpt>
      <trkpt lat="43.71331" lon="1.48886">
        <ele>237.538369</ele>
        <time>2022-08-12T06:43:57.344Z</time>
      </trkpt>
      <trkpt lat="43.71337" lon="1.48899">
        <ele>237.579951</ele>
        <time>2022-08-12T06:43:59.368Z</time>
      </trkpt>
      <trkpt lat="43.71344" lon="1.48912">
        <ele>237.620279</ele>
        <time>2022-08-12T06:44:01.384Z</time>
      </trkpt>
      <trkpt lat="43.7135" lon="1.48925">
        <ele>237.659177</ele>
        <time>2022-08-12T06:44:03.360Z</time>
      </trkpt>
      <trkpt lat="43.71355" lon="1.48938">
        <ele>237.698218</ele>
        <time>2022-08-12T06:44:05.368Z</time>
      </trkpt>
      <trkpt lat="43.7136" lon="1.48952">
        <ele>237.515415</ele>
        <time>2022-08-12T06:44:07.358Z</time>
      </trkpt>
      <trkpt lat="43.71364" lon="1.48966">
        <ele>237.182842</ele>
        <time>2022-08-12T06:44:09.358Z</time>
      </trkpt>
      <trkpt lat="43.71368" lon="1.48981">
        <ele>236.841518</ele>
        <time>2022-08-12T06:44:11.381Z</time>
      </trkpt>
      <trkpt lat="43.71372" lon="1.48995">
        <ele>236.494506</ele>
        <time>2022-08-12T06:44:13.363Z</time>
      </trkpt>
      <trkpt lat="43.71377" lon="1.4901">
        <ele>236.13931</ele>
        <time>2022-08-12T06:44:15.403Z</time>
      </trkpt>
      <trkpt lat="43.71384" lon="1.49025">
        <ele>235.754588</ele>
        <time>2022-08-12T06:44:17.363Z</time>
      </trkpt>
      <trkpt lat="43.71393" lon="1.49039">
        <ele>235.342315</ele>
        <time>2022-08-12T06:44:19.376Z</time>
      </trkpt>
      <trkpt lat="43.71403" lon="1.49054">
        <ele>234.902563</ele>
        <time>2022-08-12T06:44:21.369Z</time>
      </trkpt>
      <trkpt lat="43.71415" lon="1.49069">
        <ele>234.423669</ele>
        <time>2022-08-12T06:44:23.373Z</time>
      </trkpt>
      <trkpt lat="43.71427" lon="1.49085">
        <ele>233.920218</ele>
        <time>2022-08-12T06:44:25.383Z</time>
      </trkpt>
      <trkpt lat="43.71439" lon="1.49101">
        <ele>233.399822</ele>
        <time>2022-08-12T06:44:27.383Z</time>
      </trkpt>
      <trkpt lat="43.71445" lon="1.4911">
        <ele>233.120112</ele>
        <time>2022-08-12T06:44:28.383Z</time>
      </trkpt>
      <trkpt lat="43.71452" lon="1.4912">
        <ele>232.843506</ele>
        <time>2022-08-12T06:44:29.377Z</time>
      </trkpt>
      <trkpt lat="43.71458" lon="1.49129">
        <ele>232.561635</ele>
        <time>2022-08-12T06:44:30.355Z</time>
      </trkpt>
      <trkpt lat="43.71464" lon="1.49139">
        <ele>232.274495</ele>
        <time>2022-08-12T06:44:31.377Z</time>
      </trkpt>
      <trkpt lat="43.71471" lon="1.49149">
        <ele>231.974699</ele>
        <time>2022-08-12T06:44:32.373Z</time>
      </trkpt>
      <trkpt lat="43.71477" lon="1.49158">
        <ele>231.677754</ele>
        <time>2022-08-12T06:44:33.353Z</time>
      </trkpt>
      <trkpt lat="43.71484" lon="1.49168">
        <ele>231.381686</ele>
        <time>2022-08-12T06:44:34.384Z</time>
      </trkpt>
      <trkpt lat="43.7149" lon="1.49178">
        <ele>231.088018</ele>
        <time>2022-08-12T06:44:35.363Z</time>
      </trkpt>
      <trkpt lat="43.71496" lon="1.49188">
        <ele>230.792892</ele>
        <time>2022-08-12T06:44:36.367Z</time>
      </trkpt>
      <trkpt lat="43.71501" lon="1.49199">
        <ele>230.492846</ele>
        <time>2022-08-12T06:44:37.354Z</time>
      </trkpt>
      <trkpt lat="43.71507" lon="1.4921">
        <ele>230.19825</ele>
        <time>2022-08-12T06:44:38.391Z</time>
      </trkpt>
      <trkpt lat="43.71512" lon="1.49221">
        <ele>229.905137</ele>
        <time>2022-08-12T06:44:39.358Z</time>
      </trkpt>
      <trkpt lat="43.71517" lon="1.49232">
        <ele>229.60797</ele>
        <time>2022-08-12T06:44:40.363Z</time>
      </trkpt>
      <trkpt lat="43.71521" lon="1.49243">
        <ele>229.317568</ele>
        <time>2022-08-12T06:44:41.369Z</time>
      </trkpt>
      <trkpt lat="43.71526" lon="1.49254">
        <ele>229.026327</ele>
        <time>2022-08-12T06:44:42.369Z</time>
      </trkpt>
      <trkpt lat="43.7153" lon="1.49265">
        <ele>228.744023</ele>
        <time>2022-08-12T06:44:43.356Z</time>
      </trkpt>
      <trkpt lat="43.71535" lon="1.49276">
        <ele>228.462193</ele>
        <time>2022-08-12T06:44:44.372Z</time>
      </trkpt>
      <trkpt lat="43.71544" lon="1.49296">
        <ele>227.927036</ele>
        <time>2022-08-12T06:44:46.375Z</time>
      </trkpt>
      <trkpt lat="43.71553" lon="1.49315">
        <ele>227.408554</ele>
        <time>2022-08-12T06:44:48.391Z</time>
      </trkpt>
      <trkpt lat="43.71561" lon="1.49334">
        <ele>226.917024</ele>
        <time>2022-08-12T06:44:50.391Z</time>
      </trkpt>
      <trkpt lat="43.71569" lon="1.49352">
        <ele>226.184972</ele>
        <time>2022-08-12T06:44:52.369Z</time>
      </trkpt>
      <trkpt lat="43.71577" lon="1.4937">
        <ele>225.081047</ele>
        <time>2022-08-12T06:44:54.372Z</time>
      </trkpt>
      <trkpt lat="43.71585" lon="1.49388">
        <ele>224.016987</ele>
        <time>2022-08-12T06:44:56.395Z</time>
      </trkpt>
      <trkpt lat="43.71591" lon="1.49405">
        <ele>223.0808</ele>
        <time>2022-08-12T06:44:58.365Z</time>
      </trkpt>
      <trkpt lat="43.71595" lon="1.49421">
        <ele>222.220214</ele>
        <time>2022-08-12T06:45:00.373Z</time>
      </trkpt>
      <trkpt lat="43.71598" lon="1.49438">
        <ele>221.370324</ele>
        <time>2022-08-12T06:45:02.395Z</time>
      </trkpt>
      <trkpt lat="43.71599" lon="1.49457">
        <ele>220.358609</ele>
        <time>2022-08-12T06:45:04.361Z</time>
      </trkpt>
      <trkpt lat="43.71599" lon="1.49479">
        <ele>219.277282</ele>
        <time>2022-08-12T06:45:06.373Z</time>
      </trkpt>
      <trkpt lat="43.71599" lon="1.49503">
        <ele>218.054478</ele>
        <time>2022-08-12T06:45:08.373Z</time>
      </trkpt>
      <trkpt lat="43.71598" lon="1.49528">
        <ele>216.770375</ele>
        <time>2022-08-12T06:45:10.369Z</time>
      </trkpt>
      <trkpt lat="43.71598" lon="1.49542">
        <ele>216.071824</ele>
        <time>2022-08-12T06:45:11.363Z</time>
      </trkpt>
      <trkpt lat="43.71597" lon="1.49557">
        <ele>215.348425</ele>
        <time>2022-08-12T06:45:12.359Z</time>
      </trkpt>
      <trkpt lat="43.71597" lon="1.49572">
        <ele>214.589985</ele>
        <time>2022-08-12T06:45:13.380Z</time>
      </trkpt>
      <trkpt lat="43.71597" lon="1.49587">
        <ele>213.803874</ele>
        <time>2022-08-12T06:45:14.383Z</time>
      </trkpt>
      <trkpt lat="43.71596" lon="1.49604">
        <ele>212.995465</ele>
        <time>2022-08-12T06:45:15.388Z</time>
      </trkpt>
      <trkpt lat="43.71595" lon="1.4962">
        <ele>212.182828</ele>
        <time>2022-08-12T06:45:16.384Z</time>
      </trkpt>
      <trkpt lat="43.71595" lon="1.49636">
        <ele>211.390119</ele>
        <time>2022-08-12T06:45:17.382Z</time>
      </trkpt>
      <trkpt lat="43.71595" lon="1.49652">
        <ele>210.636967</ele>
        <time>2022-08-12T06:45:18.392Z</time>
      </trkpt>
      <trkpt lat="43.71595" lon="1.49667">
        <ele>209.859458</ele>
        <time>2022-08-12T06:45:19.367Z</time>
      </trkpt>
      <trkpt lat="43.71595" lon="1.49682">
        <ele>209.115645</ele>
        <time>2022-08-12T06:45:20.418Z</time>
      </trkpt>
      <trkpt lat="43.71597" lon="1.49697">
        <ele>208.39092</ele>
        <time>2022-08-12T06:45:21.391Z</time>
      </trkpt>
      <trkpt lat="43.716" lon="1.49712">
        <ele>207.605927</ele>
        <time>2022-08-12T06:45:22.382Z</time>
      </trkpt>
      <trkpt lat="43.71603" lon="1.49726">
        <ele>206.883836</ele>
        <time>2022-08-12T06:45:23.389Z</time>
      </trkpt>
      <trkpt lat="43.71606" lon="1.49738">
        <ele>206.265397</ele>
        <time>2022-08-12T06:45:24.372Z</time>
      </trkpt>
      <trkpt lat="43.7161" lon="1.49758">
        <ele>205.27269</ele>
        <time>2022-08-12T06:45:26.395Z</time>
      </trkpt>
      <trkpt lat="43.71614" lon="1.4977">
        <ele>204.596829</ele>
        <time>2022-08-12T06:45:28.394Z</time>
      </trkpt>
      <trkpt lat="43.71614" lon="1.49783">
        <ele>203.952069</ele>
        <time>2022-08-12T06:45:30.374Z</time>
      </trkpt>
      <trkpt lat="43.71616" lon="1.49798">
        <ele>203.218195</ele>
        <time>2022-08-12T06:45:32.396Z</time>
      </trkpt>
      <trkpt lat="43.71618" lon="1.49814">
        <ele>202.437359</ele>
        <time>2022-08-12T06:45:34.374Z</time>
      </trkpt>
      <trkpt lat="43.7162" lon="1.4983">
        <ele>201.762831</ele>
        <time>2022-08-12T06:45:36.378Z</time>
      </trkpt>
      <trkpt lat="43.71622" lon="1.49848">
        <ele>201.494446</ele>
        <time>2022-08-12T06:45:38.370Z</time>
      </trkpt>
      <trkpt lat="43.71625" lon="1.49866">
        <ele>201.213283</ele>
        <time>2022-08-12T06:45:40.367Z</time>
      </trkpt>
      <trkpt lat="43.71627" lon="1.49884">
        <ele>200.932824</ele>
        <time>2022-08-12T06:45:42.372Z</time>
      </trkpt>
      <trkpt lat="43.71629" lon="1.49902">
        <ele>200.652946</ele>
        <time>2022-08-12T06:45:44.376Z</time>
      </trkpt>
      <trkpt lat="43.71632" lon="1.49921">
        <ele>200.361992</ele>
        <time>2022-08-12T06:45:46.379Z</time>
      </trkpt>
      <trkpt lat="43.71634" lon="1.49939">
        <ele>200.075182</ele>
        <time>2022-08-12T06:45:48.376Z</time>
      </trkpt>
      <trkpt lat="43.71636" lon="1.49958">
        <ele>199.782346</ele>
        <time>2022-08-12T06:45:50.387Z</time>
      </trkpt>
      <trkpt lat="43.71639" lon="1.49977">
        <ele>199.488392</ele>
        <time>2022-08-12T06:45:52.370Z</time>
      </trkpt>
      <trkpt lat="43.71644" lon="1.49995">
        <ele>199.195186</ele>
        <time>2022-08-12T06:45:54.367Z</time>
      </trkpt>
      <trkpt lat="43.71652" lon="1.5001">
        <ele>198.902759</ele>
        <time>2022-08-12T06:45:56.372Z</time>
      </trkpt>
      <trkpt lat="43.71663" lon="1.50021">
        <ele>198.614132</ele>
        <time>2022-08-12T06:45:58.368Z</time>
      </trkpt>
      <trkpt lat="43.71676" lon="1.5003">
        <ele>198.320227</ele>
        <time>2022-08-12T06:46:00.382Z</time>
      </trkpt>
      <trkpt lat="43.71689" lon="1.50036">
        <ele>198.026745</ele>
        <time>2022-08-12T06:46:02.375Z</time>
      </trkpt>
      <trkpt lat="43.71702" lon="1.50041">
        <ele>197.811088</ele>
        <time>2022-08-12T06:46:04.360Z</time>
      </trkpt>
      <trkpt lat="43.71716" lon="1.50047">
        <ele>197.59152</ele>
        <time>2022-08-12T06:46:06.370Z</time>
      </trkpt>
      <trkpt lat="43.71729" lon="1.50052">
        <ele>197.37426</ele>
        <time>2022-08-12T06:46:08.371Z</time>
      </trkpt>
      <trkpt lat="43.71742" lon="1.5006">
        <ele>197.160588</ele>
        <time>2022-08-12T06:46:10.369Z</time>
      </trkpt>
      <trkpt lat="43.71754" lon="1.50069">
        <ele>196.94748</ele>
        <time>2022-08-12T06:46:12.377Z</time>
      </trkpt>
      <trkpt lat="43.71765" lon="1.50081">
        <ele>196.735229</ele>
        <time>2022-08-12T06:46:14.373Z</time>
      </trkpt>
      <trkpt lat="43.71775" lon="1.50094">
        <ele>196.524795</ele>
        <time>2022-08-12T06:46:16.362Z</time>
      </trkpt>
      <trkpt lat="43.71784" lon="1.50107">
        <ele>196.315406</ele>
        <time>2022-08-12T06:46:18.366Z</time>
      </trkpt>
      <trkpt lat="43.71793" lon="1.50121">
        <ele>196.105657</ele>
        <time>2022-08-12T06:46:20.374Z</time>
      </trkpt>
      <trkpt lat="43.71802" lon="1.50135">
        <ele>195.900254</ele>
        <time>2022-08-12T06:46:22.364Z</time>
      </trkpt>
      <trkpt lat="43.71811" lon="1.50148">
        <ele>195.697305</ele>
        <time>2022-08-12T06:46:24.368Z</time>
      </trkpt>
      <trkpt lat="43.7182" lon="1.50161">
        <ele>195.495021</ele>
        <time>2022-08-12T06:46:26.370Z</time>
      </trkpt>
      <trkpt lat="43.71829" lon="1.50175">
        <ele>195.289383</ele>
        <time>2022-08-12T06:46:28.368Z</time>
      </trkpt>
      <trkpt lat="43.71838" lon="1.50188">
        <ele>195.053874</ele>
        <time>2022-08-12T06:46:30.386Z</time>
      </trkpt>
      <trkpt lat="43.71847" lon="1.50202">
        <ele>194.809958</ele>
        <time>2022-08-12T06:46:32.380Z</time>
      </trkpt>
      <trkpt lat="43.71856" lon="1.50215">
        <ele>194.563818</ele>
        <time>2022-08-12T06:46:34.364Z</time>
      </trkpt>
      <trkpt lat="43.71866" lon="1.50229">
        <ele>194.317963</ele>
        <time>2022-08-12T06:46:36.384Z</time>
      </trkpt>
      <trkpt lat="43.71875" lon="1.50242">
        <ele>194.068334</ele>
        <time>2022-08-12T06:46:38.377Z</time>
      </trkpt>
      <trkpt lat="43.71885" lon="1.50255">
        <ele>193.818609</ele>
        <time>2022-08-12T06:46:40.384Z</time>
      </trkpt>
      <trkpt lat="43.71897" lon="1.50263">
        <ele>193.568935</ele>
        <time>2022-08-12T06:46:42.362Z</time>
      </trkpt>
      <trkpt lat="43.7191" lon="1.50268">
        <ele>193.320541</ele>
        <time>2022-08-12T06:46:44.368Z</time>
      </trkpt>
      <trkpt lat="43.71925" lon="1.50269">
        <ele>193.061256</ele>
        <time>2022-08-12T06:46:46.352Z</time>
      </trkpt>
      <trkpt lat="43.71939" lon="1.50268">
        <ele>192.803625</ele>
        <time>2022-08-12T06:46:48.364Z</time>
      </trkpt>
      <trkpt lat="43.7195" lon="1.50264">
        <ele>192.590493</ele>
        <time>2022-08-12T06:46:50.372Z</time>
      </trkpt>
      <trkpt lat="43.71959" lon="1.5027">
        <ele>192.412662</ele>
        <time>2022-08-12T06:46:53.370Z</time>
      </trkpt>
      <trkpt lat="43.71956" lon="1.50284">
        <ele>192.224767</ele>
        <time>2022-08-12T06:46:56.374Z</time>
      </trkpt>
      <trkpt lat="43.71954" lon="1.50296">
        <ele>192.054531</ele>
        <time>2022-08-12T06:46:58.395Z</time>
      </trkpt>
      <trkpt lat="43.71951" lon="1.50311">
        <ele>191.854575</ele>
        <time>2022-08-12T06:47:00.377Z</time>
      </trkpt>
      <trkpt lat="43.71948" lon="1.50326">
        <ele>191.640559</ele>
        <time>2022-08-12T06:47:02.372Z</time>
      </trkpt>
      <trkpt lat="43.71945" lon="1.50343">
        <ele>191.418413</ele>
        <time>2022-08-12T06:47:04.375Z</time>
      </trkpt>
      <trkpt lat="43.71942" lon="1.50359">
        <ele>191.194062</ele>
        <time>2022-08-12T06:47:06.380Z</time>
      </trkpt>
      <trkpt lat="43.71939" lon="1.50376">
        <ele>190.965511</ele>
        <time>2022-08-12T06:47:08.377Z</time>
      </trkpt>
      <trkpt lat="43.71936" lon="1.50393">
        <ele>190.731828</ele>
        <time>2022-08-12T06:47:10.390Z</time>
      </trkpt>
      <trkpt lat="43.71933" lon="1.5041">
        <ele>190.496322</ele>
        <time>2022-08-12T06:47:12.387Z</time>
      </trkpt>
      <trkpt lat="43.71929" lon="1.50428">
        <ele>190.259639</ele>
        <time>2022-08-12T06:47:14.372Z</time>
      </trkpt>
      <trkpt lat="43.71927" lon="1.50445">
        <ele>190.025091</ele>
        <time>2022-08-12T06:47:16.388Z</time>
      </trkpt>
      <trkpt lat="43.71924" lon="1.50462">
        <ele>189.798255</ele>
        <time>2022-08-12T06:47:18.366Z</time>
      </trkpt>
      <trkpt lat="43.71923" lon="1.50478">
        <ele>189.581166</ele>
        <time>2022-08-12T06:47:20.364Z</time>
      </trkpt>
      <trkpt lat="43.71923" lon="1.50495">
        <ele>189.363248</ele>
        <time>2022-08-12T06:47:22.367Z</time>
      </trkpt>
      <trkpt lat="43.71926" lon="1.50511">
        <ele>189.135069</ele>
        <time>2022-08-12T06:47:24.367Z</time>
      </trkpt>
      <trkpt lat="43.71933" lon="1.50527">
        <ele>188.887647</ele>
        <time>2022-08-12T06:47:26.371Z</time>
      </trkpt>
      <trkpt lat="43.71941" lon="1.50544">
        <ele>188.620399</ele>
        <time>2022-08-12T06:47:28.370Z</time>
      </trkpt>
      <trkpt lat="43.7195" lon="1.5056">
        <ele>188.354918</ele>
        <time>2022-08-12T06:47:30.371Z</time>
      </trkpt>
      <trkpt lat="43.7196" lon="1.50575">
        <ele>188.087366</ele>
        <time>2022-08-12T06:47:32.371Z</time>
      </trkpt>
      <trkpt lat="43.7197" lon="1.5059">
        <ele>187.823499</ele>
        <time>2022-08-12T06:47:34.368Z</time>
      </trkpt>
      <trkpt lat="43.7198" lon="1.50604">
        <ele>187.559631</ele>
        <time>2022-08-12T06:47:36.386Z</time>
      </trkpt>
      <trkpt lat="43.71991" lon="1.50617">
        <ele>187.296616</ele>
        <time>2022-08-12T06:47:38.378Z</time>
      </trkpt>
      <trkpt lat="43.72003" lon="1.5063">
        <ele>187.034004</ele>
        <time>2022-08-12T06:47:40.369Z</time>
      </trkpt>
      <trkpt lat="43.72014" lon="1.50641">
        <ele>186.776097</ele>
        <time>2022-08-12T06:47:42.375Z</time>
      </trkpt>
      <trkpt lat="43.72026" lon="1.50652">
        <ele>186.518093</ele>
        <time>2022-08-12T06:47:44.384Z</time>
      </trkpt>
      <trkpt lat="43.72038" lon="1.50661">
        <ele>186.269756</ele>
        <time>2022-08-12T06:47:46.375Z</time>
      </trkpt>
      <trkpt lat="43.72051" lon="1.5067">
        <ele>186.014763</ele>
        <time>2022-08-12T06:47:48.378Z</time>
      </trkpt>
      <trkpt lat="43.72062" lon="1.5068">
        <ele>185.767584</ele>
        <time>2022-08-12T06:47:50.384Z</time>
      </trkpt>
      <trkpt lat="43.72074" lon="1.50689">
        <ele>185.520847</ele>
        <time>2022-08-12T06:47:52.380Z</time>
      </trkpt>
      <trkpt lat="43.72086" lon="1.50699">
        <ele>185.36231</ele>
        <time>2022-08-12T06:47:54.366Z</time>
      </trkpt>
      <trkpt lat="43.72097" lon="1.50709">
        <ele>185.282925</ele>
        <time>2022-08-12T06:47:56.376Z</time>
      </trkpt>
      <trkpt lat="43.72108" lon="1.5072">
        <ele>185.204253</ele>
        <time>2022-08-12T06:47:58.370Z</time>
      </trkpt>
      <trkpt lat="43.72118" lon="1.50732">
        <ele>185.125031</ele>
        <time>2022-08-12T06:48:00.368Z</time>
      </trkpt>
      <trkpt lat="43.72128" lon="1.50744">
        <ele>185.044257</ele>
        <time>2022-08-12T06:48:02.380Z</time>
      </trkpt>
      <trkpt lat="43.72137" lon="1.50757">
        <ele>184.968667</ele>
        <time>2022-08-12T06:48:04.373Z</time>
      </trkpt>
      <trkpt lat="43.72147" lon="1.50769">
        <ele>184.894604</ele>
        <time>2022-08-12T06:48:06.368Z</time>
      </trkpt>
      <trkpt lat="43.72155" lon="1.50781">
        <ele>184.82117</ele>
        <time>2022-08-12T06:48:08.370Z</time>
      </trkpt>
      <trkpt lat="43.72164" lon="1.50793">
        <ele>184.74978</ele>
        <time>2022-08-12T06:48:10.367Z</time>
      </trkpt>
      <trkpt lat="43.72173" lon="1.50804">
        <ele>184.678608</ele>
        <time>2022-08-12T06:48:12.374Z</time>
      </trkpt>
      <trkpt lat="43.72181" lon="1.50815">
        <ele>184.607728</ele>
        <time>2022-08-12T06:48:14.370Z</time>
      </trkpt>
      <trkpt lat="43.72191" lon="1.50826">
        <ele>184.537047</ele>
        <time>2022-08-12T06:48:16.377Z</time>
      </trkpt>
      <trkpt lat="43.722" lon="1.50836">
        <ele>184.467043</ele>
        <time>2022-08-12T06:48:18.385Z</time>
      </trkpt>
      <trkpt lat="43.72209" lon="1.50846">
        <ele>184.396828</ele>
        <time>2022-08-12T06:48:20.386Z</time>
      </trkpt>
      <trkpt lat="43.72219" lon="1.50855">
        <ele>184.346667</ele>
        <time>2022-08-12T06:48:22.381Z</time>
      </trkpt>
      <trkpt lat="43.72229" lon="1.50865">
        <ele>184.370765</ele>
        <time>2022-08-12T06:48:24.388Z</time>
      </trkpt>
      <trkpt lat="43.72239" lon="1.50874">
        <ele>184.394864</ele>
        <time>2022-08-12T06:48:26.364Z</time>
      </trkpt>
      <trkpt lat="43.72248" lon="1.50883">
        <ele>184.418963</ele>
        <time>2022-08-12T06:48:28.375Z</time>
      </trkpt>
      <trkpt lat="43.72258" lon="1.50893">
        <ele>184.44323</ele>
        <time>2022-08-12T06:48:30.363Z</time>
      </trkpt>
      <trkpt lat="43.72268" lon="1.50902">
        <ele>184.467498</ele>
        <time>2022-08-12T06:48:32.379Z</time>
      </trkpt>
      <trkpt lat="43.72278" lon="1.50912">
        <ele>184.492452</ele>
        <time>2022-08-12T06:48:34.371Z</time>
      </trkpt>
      <trkpt lat="43.72287" lon="1.50923">
        <ele>184.517592</ele>
        <time>2022-08-12T06:48:36.372Z</time>
      </trkpt>
      <trkpt lat="43.72295" lon="1.50936">
        <ele>184.542397</ele>
        <time>2022-08-12T06:48:38.386Z</time>
      </trkpt>
      <trkpt lat="43.72302" lon="1.50949">
        <ele>184.56692</ele>
        <time>2022-08-12T06:48:40.384Z</time>
      </trkpt>
      <trkpt lat="43.72309" lon="1.50963">
        <ele>184.591119</ele>
        <time>2022-08-12T06:48:42.364Z</time>
      </trkpt>
      <trkpt lat="43.72315" lon="1.50977">
        <ele>184.615405</ele>
        <time>2022-08-12T06:48:44.361Z</time>
      </trkpt>
      <trkpt lat="43.72322" lon="1.5099">
        <ele>184.639714</ele>
        <time>2022-08-12T06:48:46.365Z</time>
      </trkpt>
      <trkpt lat="43.72328" lon="1.51004">
        <ele>184.664148</ele>
        <time>2022-08-12T06:48:48.392Z</time>
      </trkpt>
      <trkpt lat="43.72335" lon="1.51018">
        <ele>184.688192</ele>
        <time>2022-08-12T06:48:50.377Z</time>
      </trkpt>
      <trkpt lat="43.72342" lon="1.51031">
        <ele>184.71941</ele>
        <time>2022-08-12T06:48:52.381Z</time>
      </trkpt>
      <trkpt lat="43.72348" lon="1.51044">
        <ele>184.798494</ele>
        <time>2022-08-12T06:48:54.374Z</time>
      </trkpt>
      <trkpt lat="43.72355" lon="1.51057">
        <ele>184.878336</ele>
        <time>2022-08-12T06:48:56.388Z</time>
      </trkpt>
      <trkpt lat="43.72362" lon="1.5107">
        <ele>184.955759</ele>
        <time>2022-08-12T06:48:58.369Z</time>
      </trkpt>
      <trkpt lat="43.72368" lon="1.51082">
        <ele>185.033185</ele>
        <time>2022-08-12T06:49:00.376Z</time>
      </trkpt>
      <trkpt lat="43.72375" lon="1.51096">
        <ele>185.114254</ele>
        <time>2022-08-12T06:49:02.386Z</time>
      </trkpt>
      <trkpt lat="43.72381" lon="1.51109">
        <ele>185.194206</ele>
        <time>2022-08-12T06:49:04.388Z</time>
      </trkpt>
      <trkpt lat="43.72387" lon="1.51122">
        <ele>185.271255</ele>
        <time>2022-08-12T06:49:06.398Z</time>
      </trkpt>
      <trkpt lat="43.72393" lon="1.51136">
        <ele>185.350173</ele>
        <time>2022-08-12T06:49:08.390Z</time>
      </trkpt>
      <trkpt lat="43.72399" lon="1.51148">
        <ele>185.423409</ele>
        <time>2022-08-12T06:49:10.382Z</time>
      </trkpt>
      <trkpt lat="43.72404" lon="1.51161">
        <ele>185.499215</ele>
        <time>2022-08-12T06:49:12.401Z</time>
      </trkpt>
      <trkpt lat="43.7241" lon="1.51176">
        <ele>185.580707</ele>
        <time>2022-08-12T06:49:14.399Z</time>
      </trkpt>
      <trkpt lat="43.72417" lon="1.51189">
        <ele>185.663776</ele>
        <time>2022-08-12T06:49:16.378Z</time>
      </trkpt>
      <trkpt lat="43.72424" lon="1.51203">
        <ele>185.747251</ele>
        <time>2022-08-12T06:49:18.390Z</time>
      </trkpt>
      <trkpt lat="43.72431" lon="1.51216">
        <ele>185.829517</ele>
        <time>2022-08-12T06:49:20.378Z</time>
      </trkpt>
      <trkpt lat="43.72437" lon="1.51229">
        <ele>185.907583</ele>
        <time>2022-08-12T06:49:22.375Z</time>
      </trkpt>
      <trkpt lat="43.72441" lon="1.51245">
        <ele>185.901063</ele>
        <time>2022-08-12T06:49:25.380Z</time>
      </trkpt>
      <trkpt lat="43.72443" lon="1.51258">
        <ele>185.826604</ele>
        <time>2022-08-12T06:49:30.386Z</time>
      </trkpt>
      <trkpt lat="43.72454" lon="1.51264">
        <ele>185.736307</ele>
        <time>2022-08-12T06:49:33.386Z</time>
      </trkpt>
      <trkpt lat="43.72462" lon="1.51272">
        <ele>185.66464</ele>
        <time>2022-08-12T06:49:35.383Z</time>
      </trkpt>
      <trkpt lat="43.72468" lon="1.51282">
        <ele>185.586317</ele>
        <time>2022-08-12T06:49:37.391Z</time>
      </trkpt>
      <trkpt lat="43.72475" lon="1.51294">
        <ele>185.501807</ele>
        <time>2022-08-12T06:49:39.378Z</time>
      </trkpt>
      <trkpt lat="43.72483" lon="1.51307">
        <ele>185.411707</ele>
        <time>2022-08-12T06:49:41.382Z</time>
      </trkpt>
      <trkpt lat="43.72491" lon="1.5132">
        <ele>185.316343</ele>
        <time>2022-08-12T06:49:43.390Z</time>
      </trkpt>
      <trkpt lat="43.72498" lon="1.51334">
        <ele>185.218871</ele>
        <time>2022-08-12T06:49:45.374Z</time>
      </trkpt>
      <trkpt lat="43.72506" lon="1.51348">
        <ele>185.1168</ele>
        <time>2022-08-12T06:49:47.378Z</time>
      </trkpt>
      <trkpt lat="43.72514" lon="1.51363">
        <ele>185.015232</ele>
        <time>2022-08-12T06:49:49.390Z</time>
      </trkpt>
      <trkpt lat="43.72522" lon="1.51378">
        <ele>184.913193</ele>
        <time>2022-08-12T06:49:51.411Z</time>
      </trkpt>
      <trkpt lat="43.72522" lon="1.51395">
        <ele>184.821326</ele>
        <time>2022-08-12T06:49:53.405Z</time>
      </trkpt>
      <trkpt lat="43.72513" lon="1.51408">
        <ele>184.72372</ele>
        <time>2022-08-12T06:49:55.374Z</time>
      </trkpt>
      <trkpt lat="43.72505" lon="1.51421">
        <ele>184.626519</ele>
        <time>2022-08-12T06:49:57.371Z</time>
      </trkpt>
      <trkpt lat="43.72499" lon="1.51436">
        <ele>184.573541</ele>
        <time>2022-08-12T06:49:59.411Z</time>
      </trkpt>
      <trkpt lat="43.72493" lon="1.51451">
        <ele>184.612256</ele>
        <time>2022-08-12T06:50:01.391Z</time>
      </trkpt>
      <trkpt lat="43.72489" lon="1.51466">
        <ele>184.649571</ele>
        <time>2022-08-12T06:50:03.385Z</time>
      </trkpt>
      <trkpt lat="43.72485" lon="1.51481">
        <ele>184.68678</ele>
        <time>2022-08-12T06:50:05.392Z</time>
      </trkpt>
      <trkpt lat="43.72482" lon="1.51496">
        <ele>184.72389</ele>
        <time>2022-08-12T06:50:07.372Z</time>
      </trkpt>
      <trkpt lat="43.72478" lon="1.51511">
        <ele>184.760872</ele>
        <time>2022-08-12T06:50:09.388Z</time>
      </trkpt>
      <trkpt lat="43.72474" lon="1.51527">
        <ele>184.797965</ele>
        <time>2022-08-12T06:50:11.383Z</time>
      </trkpt>
      <trkpt lat="43.72469" lon="1.51541">
        <ele>184.835038</ele>
        <time>2022-08-12T06:50:13.383Z</time>
      </trkpt>
      <trkpt lat="43.72463" lon="1.51555">
        <ele>184.872017</ele>
        <time>2022-08-12T06:50:15.397Z</time>
      </trkpt>
      <trkpt lat="43.72457" lon="1.51568">
        <ele>184.909218</ele>
        <time>2022-08-12T06:50:17.382Z</time>
      </trkpt>
      <trkpt lat="43.72451" lon="1.51582">
        <ele>184.945914</ele>
        <time>2022-08-12T06:50:19.376Z</time>
      </trkpt>
      <trkpt lat="43.72445" lon="1.51596">
        <ele>184.982773</ele>
        <time>2022-08-12T06:50:21.364Z</time>
      </trkpt>
      <trkpt lat="43.7244" lon="1.5161">
        <ele>185.019681</ele>
        <time>2022-08-12T06:50:23.378Z</time>
      </trkpt>
      <trkpt lat="43.72438" lon="1.51626">
        <ele>185.056052</ele>
        <time>2022-08-12T06:50:25.379Z</time>
      </trkpt>
      <trkpt lat="43.72438" lon="1.51642">
        <ele>185.092081</ele>
        <time>2022-08-12T06:50:27.392Z</time>
      </trkpt>
      <trkpt lat="43.72438" lon="1.51657">
        <ele>185.128295</ele>
        <time>2022-08-12T06:50:29.387Z</time>
      </trkpt>
      <trkpt lat="43.72438" lon="1.51673">
        <ele>185.245996</ele>
        <time>2022-08-12T06:50:31.394Z</time>
      </trkpt>
      <trkpt lat="43.72438" lon="1.51689">
        <ele>185.381183</ele>
        <time>2022-08-12T06:50:33.404Z</time>
      </trkpt>
      <trkpt lat="43.72438" lon="1.51704">
        <ele>185.517208</ele>
        <time>2022-08-12T06:50:35.362Z</time>
      </trkpt>
      <trkpt lat="43.72439" lon="1.5172">
        <ele>185.653297</ele>
        <time>2022-08-12T06:50:37.376Z</time>
      </trkpt>
      <trkpt lat="43.72439" lon="1.51736">
        <ele>185.791118</ele>
        <time>2022-08-12T06:50:39.392Z</time>
      </trkpt>
      <trkpt lat="43.72439" lon="1.51752">
        <ele>185.928939</ele>
        <time>2022-08-12T06:50:41.415Z</time>
      </trkpt>
      <trkpt lat="43.7244" lon="1.51768">
        <ele>186.066759</ele>
        <time>2022-08-12T06:50:43.375Z</time>
      </trkpt>
      <trkpt lat="43.72442" lon="1.51783">
        <ele>186.205445</ele>
        <time>2022-08-12T06:50:45.391Z</time>
      </trkpt>
      <trkpt lat="43.72449" lon="1.51796">
        <ele>186.338183</ele>
        <time>2022-08-12T06:50:47.404Z</time>
      </trkpt>
      <trkpt lat="43.72459" lon="1.51803">
        <ele>186.47163</ele>
        <time>2022-08-12T06:50:49.404Z</time>
      </trkpt>
      <trkpt lat="43.72468" lon="1.51811">
        <ele>186.605076</ele>
        <time>2022-08-12T06:50:51.383Z</time>
      </trkpt>
      <trkpt lat="43.72478" lon="1.51819">
        <ele>186.737051</ele>
        <time>2022-08-12T06:50:53.386Z</time>
      </trkpt>
      <trkpt lat="43.72487" lon="1.51827">
        <ele>186.866385</ele>
        <time>2022-08-12T06:50:55.381Z</time>
      </trkpt>
      <trkpt lat="43.72496" lon="1.51835">
        <ele>186.995028</ele>
        <time>2022-08-12T06:50:57.383Z</time>
      </trkpt>
      <trkpt lat="43.72505" lon="1.51843">
        <ele>187.124939</ele>
        <time>2022-08-12T06:50:59.378Z</time>
      </trkpt>
      <trkpt lat="43.72514" lon="1.5185">
        <ele>187.253377</ele>
        <time>2022-08-12T06:51:01.384Z</time>
      </trkpt>
      <trkpt lat="43.72524" lon="1.51858">
        <ele>187.540658</ele>
        <time>2022-08-12T06:51:03.379Z</time>
      </trkpt>
      <trkpt lat="43.72533" lon="1.51866">
        <ele>187.887906</ele>
        <time>2022-08-12T06:51:05.375Z</time>
      </trkpt>
      <trkpt lat="43.72541" lon="1.51874">
        <ele>188.234819</ele>
        <time>2022-08-12T06:51:07.367Z</time>
      </trkpt>
      <trkpt lat="43.7255" lon="1.51883">
        <ele>188.569841</ele>
        <time>2022-08-12T06:51:09.372Z</time>
      </trkpt>
      <trkpt lat="43.72558" lon="1.51892">
        <ele>188.909521</ele>
        <time>2022-08-12T06:51:11.367Z</time>
      </trkpt>
      <trkpt lat="43.72566" lon="1.51901">
        <ele>189.249658</ele>
        <time>2022-08-12T06:51:13.372Z</time>
      </trkpt>
      <trkpt lat="43.72573" lon="1.51911">
        <ele>189.590961</ele>
        <time>2022-08-12T06:51:15.366Z</time>
      </trkpt>
      <trkpt lat="43.72581" lon="1.51921">
        <ele>189.930833</ele>
        <time>2022-08-12T06:51:17.357Z</time>
      </trkpt>
      <trkpt lat="43.72588" lon="1.51931">
        <ele>190.272873</ele>
        <time>2022-08-12T06:51:19.364Z</time>
      </trkpt>
      <trkpt lat="43.72595" lon="1.51942">
        <ele>190.61707</ele>
        <time>2022-08-12T06:51:21.373Z</time>
      </trkpt>
      <trkpt lat="43.72602" lon="1.51953">
        <ele>190.957711</ele>
        <time>2022-08-12T06:51:23.377Z</time>
      </trkpt>
      <trkpt lat="43.72608" lon="1.51964">
        <ele>191.292647</ele>
        <time>2022-08-12T06:51:25.372Z</time>
      </trkpt>
      <trkpt lat="43.72615" lon="1.51974">
        <ele>191.623645</ele>
        <time>2022-08-12T06:51:27.376Z</time>
      </trkpt>
      <trkpt lat="43.72622" lon="1.51985">
        <ele>191.964705</ele>
        <time>2022-08-12T06:51:29.374Z</time>
      </trkpt>
      <trkpt lat="43.72629" lon="1.51995">
        <ele>192.303332</ele>
        <time>2022-08-12T06:51:31.361Z</time>
      </trkpt>
      <trkpt lat="43.72636" lon="1.52005">
        <ele>192.636289</ele>
        <time>2022-08-12T06:51:33.377Z</time>
      </trkpt>
      <trkpt lat="43.72644" lon="1.52015">
        <ele>192.965875</ele>
        <time>2022-08-12T06:51:35.381Z</time>
      </trkpt>
      <trkpt lat="43.72651" lon="1.52025">
        <ele>193.188708</ele>
        <time>2022-08-12T06:51:37.363Z</time>
      </trkpt>
      <trkpt lat="43.72658" lon="1.52033">
        <ele>193.231478</ele>
        <time>2022-08-12T06:51:39.365Z</time>
      </trkpt>
      <trkpt lat="43.72665" lon="1.52042">
        <ele>193.274037</ele>
        <time>2022-08-12T06:51:41.375Z</time>
      </trkpt>
      <trkpt lat="43.72672" lon="1.5205">
        <ele>193.315211</ele>
        <time>2022-08-12T06:51:43.373Z</time>
      </trkpt>
      <trkpt lat="43.72679" lon="1.52058">
        <ele>193.356529</ele>
        <time>2022-08-12T06:51:45.375Z</time>
      </trkpt>
      <trkpt lat="43.72687" lon="1.52066">
        <ele>193.397797</ele>
        <time>2022-08-12T06:51:47.376Z</time>
      </trkpt>
      <trkpt lat="43.72694" lon="1.52074">
        <ele>193.439066</ele>
        <time>2022-08-12T06:51:49.374Z</time>
      </trkpt>
      <trkpt lat="43.72701" lon="1.52082">
        <ele>193.479981</ele>
        <time>2022-08-12T06:51:51.365Z</time>
      </trkpt>
      <trkpt lat="43.72709" lon="1.52089">
        <ele>193.52125</ele>
        <time>2022-08-12T06:51:53.365Z</time>
      </trkpt>
      <trkpt lat="43.72716" lon="1.52097">
        <ele>193.562219</ele>
        <time>2022-08-12T06:51:55.380Z</time>
      </trkpt>
      <trkpt lat="43.72723" lon="1.52105">
        <ele>193.602583</ele>
        <time>2022-08-12T06:51:57.410Z</time>
      </trkpt>
      <trkpt lat="43.7273" lon="1.52112">
        <ele>193.643433</ele>
        <time>2022-08-12T06:51:59.386Z</time>
      </trkpt>
      <trkpt lat="43.72738" lon="1.5212">
        <ele>193.686004</ele>
        <time>2022-08-12T06:52:01.383Z</time>
      </trkpt>
      <trkpt lat="43.72745" lon="1.5213">
        <ele>193.732285</ele>
        <time>2022-08-12T06:52:03.377Z</time>
      </trkpt>
      <trkpt lat="43.72754" lon="1.52141">
        <ele>193.784489</ele>
        <time>2022-08-12T06:52:05.370Z</time>
      </trkpt>
      <trkpt lat="43.72764" lon="1.52152">
        <ele>193.843456</ele>
        <time>2022-08-12T06:52:07.362Z</time>
      </trkpt>
      <trkpt lat="43.72775" lon="1.52166">
        <ele>193.90946</ele>
        <time>2022-08-12T06:52:09.367Z</time>
      </trkpt>
      <trkpt lat="43.72784" lon="1.52184">
        <ele>193.96952</ele>
        <time>2022-08-12T06:52:11.388Z</time>
      </trkpt>
      <trkpt lat="43.72792" lon="1.52202">
        <ele>193.685995</ele>
        <time>2022-08-12T06:52:13.372Z</time>
      </trkpt>
      <trkpt lat="43.72803" lon="1.52218">
        <ele>193.403311</ele>
        <time>2022-08-12T06:52:15.364Z</time>
      </trkpt>
      <trkpt lat="43.72816" lon="1.5223">
        <ele>193.129041</ele>
        <time>2022-08-12T06:52:17.374Z</time>
      </trkpt>
      <trkpt lat="43.72829" lon="1.52238">
        <ele>192.862203</ele>
        <time>2022-08-12T06:52:19.376Z</time>
      </trkpt>
      <trkpt lat="43.72843" lon="1.52246">
        <ele>192.597543</ele>
        <time>2022-08-12T06:52:21.398Z</time>
      </trkpt>
      <trkpt lat="43.72856" lon="1.52254">
        <ele>192.336476</ele>
        <time>2022-08-12T06:52:23.365Z</time>
      </trkpt>
      <trkpt lat="43.7287" lon="1.52258">
        <ele>192.077263</ele>
        <time>2022-08-12T06:52:25.376Z</time>
      </trkpt>
      <trkpt lat="43.72884" lon="1.52259">
        <ele>191.83187</ele>
        <time>2022-08-12T06:52:27.366Z</time>
      </trkpt>
      <trkpt lat="43.72897" lon="1.52257">
        <ele>191.591087</ele>
        <time>2022-08-12T06:52:29.369Z</time>
      </trkpt>
      <trkpt lat="43.7291" lon="1.52255">
        <ele>191.359149</ele>
        <time>2022-08-12T06:52:31.386Z</time>
      </trkpt>
      <trkpt lat="43.72922" lon="1.52252">
        <ele>191.13799</ele>
        <time>2022-08-12T06:52:33.371Z</time>
      </trkpt>
      <trkpt lat="43.72934" lon="1.5225">
        <ele>190.91763</ele>
        <time>2022-08-12T06:52:35.385Z</time>
      </trkpt>
      <trkpt lat="43.72946" lon="1.52246">
        <ele>190.745951</ele>
        <time>2022-08-12T06:52:37.382Z</time>
      </trkpt>
      <trkpt lat="43.72957" lon="1.52243">
        <ele>190.808378</ele>
        <time>2022-08-12T06:52:39.365Z</time>
      </trkpt>
      <trkpt lat="43.72968" lon="1.5224">
        <ele>190.87323</ele>
        <time>2022-08-12T06:52:41.377Z</time>
      </trkpt>
      <trkpt lat="43.72979" lon="1.52235">
        <ele>190.936189</ele>
        <time>2022-08-12T06:52:43.363Z</time>
      </trkpt>
      <trkpt lat="43.7299" lon="1.5223">
        <ele>191.000305</ele>
        <time>2022-08-12T06:52:45.376Z</time>
      </trkpt>
      <trkpt lat="43.73001" lon="1.52226">
        <ele>191.062717</ele>
        <time>2022-08-12T06:52:47.376Z</time>
      </trkpt>
      <trkpt lat="43.73012" lon="1.52229">
        <ele>191.123749</ele>
        <time>2022-08-12T06:52:49.375Z</time>
      </trkpt>
      <trkpt lat="43.73022" lon="1.52236">
        <ele>191.186537</ele>
        <time>2022-08-12T06:52:51.380Z</time>
      </trkpt>
      <trkpt lat="43.73032" lon="1.52245">
        <ele>191.25239</ele>
        <time>2022-08-12T06:52:53.375Z</time>
      </trkpt>
      <trkpt lat="43.73041" lon="1.52255">
        <ele>191.318278</ele>
        <time>2022-08-12T06:52:55.367Z</time>
      </trkpt>
      <trkpt lat="43.73049" lon="1.52267">
        <ele>191.382811</ele>
        <time>2022-08-12T06:52:57.371Z</time>
      </trkpt>
      <trkpt lat="43.73057" lon="1.52278">
        <ele>191.448238</ele>
        <time>2022-08-12T06:52:59.368Z</time>
      </trkpt>
      <trkpt lat="43.73065" lon="1.5229">
        <ele>191.512</ele>
        <time>2022-08-12T06:53:01.361Z</time>
      </trkpt>
      <trkpt lat="43.73073" lon="1.52301">
        <ele>191.574921</ele>
        <time>2022-08-12T06:53:03.374Z</time>
      </trkpt>
      <trkpt lat="43.73081" lon="1.52312">
        <ele>191.637242</ele>
        <time>2022-08-12T06:53:05.371Z</time>
      </trkpt>
      <trkpt lat="43.73089" lon="1.52323">
        <ele>191.699956</ele>
        <time>2022-08-12T06:53:07.371Z</time>
      </trkpt>
      <trkpt lat="43.73097" lon="1.52334">
        <ele>191.762413</ele>
        <time>2022-08-12T06:53:09.380Z</time>
      </trkpt>
      <trkpt lat="43.73105" lon="1.52345">
        <ele>191.828007</ele>
        <time>2022-08-12T06:53:11.371Z</time>
      </trkpt>
      <trkpt lat="43.73113" lon="1.52356">
        <ele>191.895285</ele>
        <time>2022-08-12T06:53:13.372Z</time>
      </trkpt>
      <trkpt lat="43.73123" lon="1.52366">
        <ele>191.964376</ele>
        <time>2022-08-12T06:53:15.367Z</time>
      </trkpt>
      <trkpt lat="43.73131" lon="1.52376">
        <ele>192.031561</ele>
        <time>2022-08-12T06:53:17.358Z</time>
      </trkpt>
      <trkpt lat="43.7314" lon="1.52386">
        <ele>192.098308</ele>
        <time>2022-08-12T06:53:19.369Z</time>
      </trkpt>
      <trkpt lat="43.7315" lon="1.52396">
        <ele>192.167011</ele>
        <time>2022-08-12T06:53:21.375Z</time>
      </trkpt>
      <trkpt lat="43.73159" lon="1.52406">
        <ele>192.23319</ele>
        <time>2022-08-12T06:53:23.361Z</time>
      </trkpt>
      <trkpt lat="43.73168" lon="1.52415">
        <ele>192.299833</ele>
        <time>2022-08-12T06:53:25.371Z</time>
      </trkpt>
      <trkpt lat="43.73177" lon="1.52426">
        <ele>192.366746</ele>
        <time>2022-08-12T06:53:27.366Z</time>
      </trkpt>
      <trkpt lat="43.73185" lon="1.52438">
        <ele>192.434933</ele>
        <time>2022-08-12T06:53:29.382Z</time>
      </trkpt>
      <trkpt lat="43.73192" lon="1.5245">
        <ele>192.50219</ele>
        <time>2022-08-12T06:53:31.379Z</time>
      </trkpt>
      <trkpt lat="43.73199" lon="1.52463">
        <ele>192.570219</ele>
        <time>2022-08-12T06:53:33.370Z</time>
      </trkpt>
      <trkpt lat="43.73206" lon="1.52476">
        <ele>192.637925</ele>
        <time>2022-08-12T06:53:35.375Z</time>
      </trkpt>
      <trkpt lat="43.73213" lon="1.52489">
        <ele>192.704912</ele>
        <time>2022-08-12T06:53:37.362Z</time>
      </trkpt>
      <trkpt lat="43.7322" lon="1.52501">
        <ele>192.771156</ele>
        <time>2022-08-12T06:53:39.354Z</time>
      </trkpt>
      <trkpt lat="43.73226" lon="1.52513">
        <ele>192.812147</ele>
        <time>2022-08-12T06:53:41.384Z</time>
      </trkpt>
      <trkpt lat="43.73231" lon="1.52528">
        <ele>192.854516</ele>
        <time>2022-08-12T06:53:43.375Z</time>
      </trkpt>
      <trkpt lat="43.73237" lon="1.52542">
        <ele>192.897271</ele>
        <time>2022-08-12T06:53:45.393Z</time>
      </trkpt>
      <trkpt lat="43.73244" lon="1.52556">
        <ele>192.939937</ele>
        <time>2022-08-12T06:53:47.371Z</time>
      </trkpt>
      <trkpt lat="43.7325" lon="1.5257">
        <ele>192.982221</ele>
        <time>2022-08-12T06:53:49.379Z</time>
      </trkpt>
      <trkpt lat="43.73256" lon="1.52584">
        <ele>193.023878</ele>
        <time>2022-08-12T06:53:51.379Z</time>
      </trkpt>
      <trkpt lat="43.73262" lon="1.52598">
        <ele>193.065643</ele>
        <time>2022-08-12T06:53:53.380Z</time>
      </trkpt>
      <trkpt lat="43.73268" lon="1.52612">
        <ele>193.107617</ele>
        <time>2022-08-12T06:53:55.375Z</time>
      </trkpt>
      <trkpt lat="43.73273" lon="1.52626">
        <ele>193.149425</ele>
        <time>2022-08-12T06:53:57.374Z</time>
      </trkpt>
      <trkpt lat="43.73278" lon="1.52641">
        <ele>193.18959</ele>
        <time>2022-08-12T06:53:59.375Z</time>
      </trkpt>
      <trkpt lat="43.73283" lon="1.52655">
        <ele>193.230685</ele>
        <time>2022-08-12T06:54:01.377Z</time>
      </trkpt>
      <trkpt lat="43.73289" lon="1.52669">
        <ele>193.272887</ele>
        <time>2022-08-12T06:54:03.367Z</time>
      </trkpt>
      <trkpt lat="43.73295" lon="1.52683">
        <ele>193.313986</ele>
        <time>2022-08-12T06:54:05.376Z</time>
      </trkpt>
      <trkpt lat="43.733" lon="1.52697">
        <ele>193.355528</ele>
        <time>2022-08-12T06:54:07.388Z</time>
      </trkpt>
      <trkpt lat="43.73306" lon="1.52711">
        <ele>193.397253</ele>
        <time>2022-08-12T06:54:09.370Z</time>
      </trkpt>
      <trkpt lat="43.73312" lon="1.52724">
        <ele>193.458723</ele>
        <time>2022-08-12T06:54:11.392Z</time>
      </trkpt>
      <trkpt lat="43.73319" lon="1.52738">
        <ele>193.548482</ele>
        <time>2022-08-12T06:54:13.388Z</time>
      </trkpt>
      <trkpt lat="43.73325" lon="1.52751">
        <ele>193.638755</ele>
        <time>2022-08-12T06:54:15.376Z</time>
      </trkpt>
      <trkpt lat="43.73331" lon="1.52765">
        <ele>193.728263</ele>
        <time>2022-08-12T06:54:17.385Z</time>
      </trkpt>
      <trkpt lat="43.73337" lon="1.52779">
        <ele>193.820761</ele>
        <time>2022-08-12T06:54:19.385Z</time>
      </trkpt>
      <trkpt lat="43.73342" lon="1.52793">
        <ele>193.911037</ele>
        <time>2022-08-12T06:54:21.387Z</time>
      </trkpt>
      <trkpt lat="43.73347" lon="1.52807">
        <ele>193.996401</ele>
        <time>2022-08-12T06:54:23.373Z</time>
      </trkpt>
      <trkpt lat="43.7335" lon="1.52822">
        <ele>194.083497</ele>
        <time>2022-08-12T06:54:25.374Z</time>
      </trkpt>
      <trkpt lat="43.73353" lon="1.52836">
        <ele>194.166508</ele>
        <time>2022-08-12T06:54:27.381Z</time>
      </trkpt>
      <trkpt lat="43.73362" lon="1.52846">
        <ele>194.257997</ele>
        <time>2022-08-12T06:54:29.374Z</time>
      </trkpt>
      <trkpt lat="43.73372" lon="1.52854">
        <ele>194.345778</ele>
        <time>2022-08-12T06:54:31.363Z</time>
      </trkpt>
      <trkpt lat="43.73382" lon="1.52863">
        <ele>194.436645</ele>
        <time>2022-08-12T06:54:33.377Z</time>
      </trkpt>
      <trkpt lat="43.73391" lon="1.52873">
        <ele>194.528637</ele>
        <time>2022-08-12T06:54:35.382Z</time>
      </trkpt>
      <trkpt lat="43.73398" lon="1.52885">
        <ele>194.617613</ele>
        <time>2022-08-12T06:54:37.375Z</time>
      </trkpt>
      <trkpt lat="43.73404" lon="1.52898">
        <ele>194.705108</ele>
        <time>2022-08-12T06:54:39.371Z</time>
      </trkpt>
      <trkpt lat="43.7341" lon="1.52912">
        <ele>194.793908</ele>
        <time>2022-08-12T06:54:41.377Z</time>
      </trkpt>
      <trkpt lat="43.73416" lon="1.52926">
        <ele>194.880772</ele>
        <time>2022-08-12T06:54:43.370Z</time>
      </trkpt>
      <trkpt lat="43.73424" lon="1.52938">
        <ele>194.967241</ele>
        <time>2022-08-12T06:54:45.376Z</time>
      </trkpt>
      <trkpt lat="43.73434" lon="1.52947">
        <ele>195.052332</ele>
        <time>2022-08-12T06:54:47.389Z</time>
      </trkpt>
      <trkpt lat="43.73445" lon="1.52953">
        <ele>195.139666</ele>
        <time>2022-08-12T06:54:49.390Z</time>
      </trkpt>
      <trkpt lat="43.73457" lon="1.52958">
        <ele>195.229875</ele>
        <time>2022-08-12T06:54:51.367Z</time>
      </trkpt>
      <trkpt lat="43.73467" lon="1.52961">
        <ele>195.307454</ele>
        <time>2022-08-12T06:54:53.362Z</time>
      </trkpt>
      <trkpt lat="43.7348" lon="1.52961">
        <ele>195.399689</ele>
        <time>2022-08-12T06:54:55.372Z</time>
      </trkpt>
      <trkpt lat="43.73492" lon="1.52964">
        <ele>195.486828</ele>
        <time>2022-08-12T06:54:57.382Z</time>
      </trkpt>
      <trkpt lat="43.73503" lon="1.52966">
        <ele>195.573398</ele>
        <time>2022-08-12T06:54:59.394Z</time>
      </trkpt>
      <trkpt lat="43.73515" lon="1.5297">
        <ele>195.664014</ele>
        <time>2022-08-12T06:55:01.378Z</time>
      </trkpt>
      <trkpt lat="43.73527" lon="1.52972">
        <ele>195.751551</ele>
        <time>2022-08-12T06:55:03.382Z</time>
      </trkpt>
      <trkpt lat="43.73539" lon="1.52973">
        <ele>195.838305</ele>
        <time>2022-08-12T06:55:05.378Z</time>
      </trkpt>
      <trkpt lat="43.7355" lon="1.52974">
        <ele>195.921835</ele>
        <time>2022-08-12T06:55:07.372Z</time>
      </trkpt>
      <trkpt lat="43.73562" lon="1.52975">
        <ele>196.008933</ele>
        <time>2022-08-12T06:55:09.383Z</time>
      </trkpt>
      <trkpt lat="43.73574" lon="1.52975">
        <ele>196.094491</ele>
        <time>2022-08-12T06:55:11.399Z</time>
      </trkpt>
      <trkpt lat="43.73585" lon="1.52977">
        <ele>196.196256</ele>
        <time>2022-08-12T06:55:13.369Z</time>
      </trkpt>
      <trkpt lat="43.73595" lon="1.52979">
        <ele>196.323371</ele>
        <time>2022-08-12T06:55:15.389Z</time>
      </trkpt>
      <trkpt lat="43.73606" lon="1.5298">
        <ele>196.45268</ele>
        <time>2022-08-12T06:55:17.375Z</time>
      </trkpt>
      <trkpt lat="43.73617" lon="1.52981">
        <ele>196.582065</ele>
        <time>2022-08-12T06:55:19.381Z</time>
      </trkpt>
      <trkpt lat="43.73628" lon="1.52983">
        <ele>196.708003</ele>
        <time>2022-08-12T06:55:21.369Z</time>
      </trkpt>
      <trkpt lat="43.73638" lon="1.52986">
        <ele>196.83704</ele>
        <time>2022-08-12T06:55:23.371Z</time>
      </trkpt>
      <trkpt lat="43.73649" lon="1.5299">
        <ele>196.965088</ele>
        <time>2022-08-12T06:55:25.369Z</time>
      </trkpt>
      <trkpt lat="43.73659" lon="1.52994">
        <ele>197.09427</ele>
        <time>2022-08-12T06:55:27.380Z</time>
      </trkpt>
      <trkpt lat="43.7367" lon="1.52999">
        <ele>197.223001</ele>
        <time>2022-08-12T06:55:29.383Z</time>
      </trkpt>
      <trkpt lat="43.73679" lon="1.53004">
        <ele>197.342534</ele>
        <time>2022-08-12T06:55:31.387Z</time>
      </trkpt>
      <trkpt lat="43.73689" lon="1.53006">
        <ele>197.461634</ele>
        <time>2022-08-12T06:55:33.394Z</time>
      </trkpt>
      <trkpt lat="43.737" lon="1.53008">
        <ele>197.591281</ele>
        <time>2022-08-12T06:55:35.382Z</time>
      </trkpt>
      <trkpt lat="43.7371" lon="1.53012">
        <ele>197.719343</ele>
        <time>2022-08-12T06:55:37.396Z</time>
      </trkpt>
      <trkpt lat="43.73721" lon="1.53016">
        <ele>197.847264</ele>
        <time>2022-08-12T06:55:39.376Z</time>
      </trkpt>
      <trkpt lat="43.73731" lon="1.53021">
        <ele>197.969036</ele>
        <time>2022-08-12T06:55:41.404Z</time>
      </trkpt>
      <trkpt lat="43.7374" lon="1.53026">
        <ele>198.092169</ele>
        <time>2022-08-12T06:55:43.377Z</time>
      </trkpt>
      <trkpt lat="43.7375" lon="1.53033">
        <ele>198.222415</ele>
        <time>2022-08-12T06:55:45.385Z</time>
      </trkpt>
      <trkpt lat="43.7376" lon="1.53039">
        <ele>198.59923</ele>
        <time>2022-08-12T06:55:47.367Z</time>
      </trkpt>
      <trkpt lat="43.73769" lon="1.53047">
        <ele>199.079784</ele>
        <time>2022-08-12T06:55:49.384Z</time>
      </trkpt>
      <trkpt lat="43.73778" lon="1.53055">
        <ele>199.567425</ele>
        <time>2022-08-12T06:55:51.383Z</time>
      </trkpt>
      <trkpt lat="43.73787" lon="1.53064">
        <ele>200.060866</ele>
        <time>2022-08-12T06:55:53.383Z</time>
      </trkpt>
      <trkpt lat="43.73795" lon="1.53073">
        <ele>200.543936</ele>
        <time>2022-08-12T06:55:55.379Z</time>
      </trkpt>
      <trkpt lat="43.73803" lon="1.53083">
        <ele>201.021427</ele>
        <time>2022-08-12T06:55:57.387Z</time>
      </trkpt>
      <trkpt lat="43.73812" lon="1.53092">
        <ele>201.502481</ele>
        <time>2022-08-12T06:55:59.372Z</time>
      </trkpt>
      <trkpt lat="43.73821" lon="1.531">
        <ele>202.017826</ele>
        <time>2022-08-12T06:56:01.389Z</time>
      </trkpt>
      <trkpt lat="43.73831" lon="1.53106">
        <ele>202.480719</ele>
        <time>2022-08-12T06:56:03.384Z</time>
      </trkpt>
      <trkpt lat="43.7384" lon="1.5311">
        <ele>202.909315</ele>
        <time>2022-08-12T06:56:05.386Z</time>
      </trkpt>
      <trkpt lat="43.7385" lon="1.53113">
        <ele>203.382453</ele>
        <time>2022-08-12T06:56:07.386Z</time>
      </trkpt>
      <trkpt lat="43.73859" lon="1.53116">
        <ele>203.818996</ele>
        <time>2022-08-12T06:56:09.387Z</time>
      </trkpt>
      <trkpt lat="43.73869" lon="1.53117">
        <ele>204.262969</ele>
        <time>2022-08-12T06:56:11.372Z</time>
      </trkpt>
      <trkpt lat="43.73882" lon="1.53121">
        <ele>204.835016</ele>
        <time>2022-08-12T06:56:14.399Z</time>
      </trkpt>
      <trkpt lat="43.73893" lon="1.53125">
        <ele>205.355053</ele>
        <time>2022-08-12T06:56:17.386Z</time>
      </trkpt>
      <trkpt lat="43.73902" lon="1.53129">
        <ele>205.774128</ele>
        <time>2022-08-12T06:56:20.372Z</time>
      </trkpt>
      <trkpt lat="43.73912" lon="1.53133">
        <ele>206.264246</ele>
        <time>2022-08-12T06:56:24.379Z</time>
      </trkpt>
      <trkpt lat="43.73922" lon="1.53138">
        <ele>207.604239</ele>
        <time>2022-08-12T06:56:28.391Z</time>
      </trkpt>
      <trkpt lat="43.73931" lon="1.53142">
        <ele>209.062659</ele>
        <time>2022-08-12T06:56:32.385Z</time>
      </trkpt>
      <trkpt lat="43.73942" lon="1.53145">
        <ele>210.73442</ele>
        <time>2022-08-12T06:56:37.371Z</time>
      </trkpt>
      <trkpt lat="43.73953" lon="1.53149">
        <ele>212.416646</ele>
        <time>2022-08-12T06:56:42.391Z</time>
      </trkpt>
      <trkpt lat="43.73964" lon="1.53153">
        <ele>214.100657</ele>
        <time>2022-08-12T06:56:47.372Z</time>
      </trkpt>
      <trkpt lat="43.73975" lon="1.53156">
        <ele>215.787096</ele>
        <time>2022-08-12T06:56:52.382Z</time>
      </trkpt>
      <trkpt lat="43.73985" lon="1.5316">
        <ele>217.427028</ele>
        <time>2022-08-12T06:56:57.358Z</time>
      </trkpt>
      <trkpt lat="43.73996" lon="1.53162">
        <ele>219.059027</ele>
        <time>2022-08-12T06:57:02.380Z</time>
      </trkpt>
      <trkpt lat="43.74007" lon="1.53164">
        <ele>220.712233</ele>
        <time>2022-08-12T06:57:07.366Z</time>
      </trkpt>
      <trkpt lat="43.74018" lon="1.53165">
        <ele>222.375256</ele>
        <time>2022-08-12T06:57:12.371Z</time>
      </trkpt>
      <trkpt lat="43.74028" lon="1.53166">
        <ele>223.874049</ele>
        <time>2022-08-12T06:57:16.374Z</time>
      </trkpt>
      <trkpt lat="43.74038" lon="1.53169">
        <ele>225.456087</ele>
        <time>2022-08-12T06:57:20.363Z</time>
      </trkpt>
      <trkpt lat="43.74049" lon="1.53172">
        <ele>227.078894</ele>
        <time>2022-08-12T06:57:24.367Z</time>
      </trkpt>
      <trkpt lat="43.74059" lon="1.53176">
        <ele>228.718825</ele>
        <time>2022-08-12T06:57:28.380Z</time>
      </trkpt>
      <trkpt lat="43.7407" lon="1.53179">
        <ele>230.334551</ele>
        <time>2022-08-12T06:57:32.385Z</time>
      </trkpt>
      <trkpt lat="43.7408" lon="1.53184">
        <ele>231.934364</ele>
        <time>2022-08-12T06:57:36.370Z</time>
      </trkpt>
      <trkpt lat="43.74089" lon="1.53192">
        <ele>233.503552</ele>
        <time>2022-08-12T06:57:40.382Z</time>
      </trkpt>
      <trkpt lat="43.74098" lon="1.532">
        <ele>234.422326</ele>
        <time>2022-08-12T06:57:44.377Z</time>
      </trkpt>
      <trkpt lat="43.74107" lon="1.53209">
        <ele>235.351427</ele>
        <time>2022-08-12T06:57:48.368Z</time>
      </trkpt>
      <trkpt lat="43.74116" lon="1.53217">
        <ele>236.264112</ele>
        <time>2022-08-12T06:57:52.366Z</time>
      </trkpt>
      <trkpt lat="43.74126" lon="1.53223">
        <ele>237.159745</ele>
        <time>2022-08-12T06:57:56.365Z</time>
      </trkpt>
      <trkpt lat="43.74136" lon="1.53227">
        <ele>238.038954</ele>
        <time>2022-08-12T06:58:00.370Z</time>
      </trkpt>
      <trkpt lat="43.74146" lon="1.53229">
        <ele>238.949152</ele>
        <time>2022-08-12T06:58:04.375Z</time>
      </trkpt>
      <trkpt lat="43.74157" lon="1.5323">
        <ele>239.820024</ele>
        <time>2022-08-12T06:58:08.372Z</time>
      </trkpt>
      <trkpt lat="43.74167" lon="1.53231">
        <ele>240.674087</ele>
        <time>2022-08-12T06:58:12.376Z</time>
      </trkpt>
      <trkpt lat="43.74177" lon="1.53232">
        <ele>241.571169</ele>
        <time>2022-08-12T06:58:16.399Z</time>
      </trkpt>
      <trkpt lat="43.74188" lon="1.53234">
        <ele>242.456311</ele>
        <time>2022-08-12T06:58:20.361Z</time>
      </trkpt>
      <trkpt lat="43.74198" lon="1.53238">
        <ele>243.324024</ele>
        <time>2022-08-12T06:58:24.385Z</time>
      </trkpt>
      <trkpt lat="43.74206" lon="1.53244">
        <ele>244.091063</ele>
        <time>2022-08-12T06:58:27.392Z</time>
      </trkpt>
      <trkpt lat="43.74216" lon="1.53253">
        <ele>245.117372</ele>
        <time>2022-08-12T06:58:30.392Z</time>
      </trkpt>
      <trkpt lat="43.74224" lon="1.53261">
        <ele>245.935525</ele>
        <time>2022-08-12T06:58:32.389Z</time>
      </trkpt>
      <trkpt lat="43.74233" lon="1.53269">
        <ele>246.847201</ele>
        <time>2022-08-12T06:58:34.372Z</time>
      </trkpt>
      <trkpt lat="43.74243" lon="1.53277">
        <ele>247.815723</ele>
        <time>2022-08-12T06:58:36.375Z</time>
      </trkpt>
      <trkpt lat="43.74253" lon="1.53285">
        <ele>248.666893</ele>
        <time>2022-08-12T06:58:38.367Z</time>
      </trkpt>
      <trkpt lat="43.74263" lon="1.53292">
        <ele>248.815868</ele>
        <time>2022-08-12T06:58:40.384Z</time>
      </trkpt>
      <trkpt lat="43.74273" lon="1.53297">
        <ele>248.958906</ele>
        <time>2022-08-12T06:58:42.370Z</time>
      </trkpt>
      <trkpt lat="43.74284" lon="1.53301">
        <ele>249.100525</ele>
        <time>2022-08-12T06:58:44.365Z</time>
      </trkpt>
      <trkpt lat="43.74293" lon="1.53305">
        <ele>249.235552</ele>
        <time>2022-08-12T06:58:46.375Z</time>
      </trkpt>
      <trkpt lat="43.74302" lon="1.53309">
        <ele>249.358014</ele>
        <time>2022-08-12T06:58:48.369Z</time>
      </trkpt>
      <trkpt lat="43.74314" lon="1.53316">
        <ele>249.527812</ele>
        <time>2022-08-12T06:58:51.374Z</time>
      </trkpt>
      <trkpt lat="43.74325" lon="1.53322">
        <ele>249.678685</ele>
        <time>2022-08-12T06:58:54.376Z</time>
      </trkpt>
      <trkpt lat="43.74335" lon="1.53328">
        <ele>249.829244</ele>
        <time>2022-08-12T06:58:57.359Z</time>
      </trkpt>
      <trkpt lat="43.74346" lon="1.53334">
        <ele>249.984669</ele>
        <time>2022-08-12T06:59:00.365Z</time>
      </trkpt>
      <trkpt lat="43.74357" lon="1.53343">
        <ele>250.153048</ele>
        <time>2022-08-12T06:59:03.374Z</time>
      </trkpt>
      <trkpt lat="43.74366" lon="1.53349">
        <ele>250.278397</ele>
        <time>2022-08-12T06:59:05.371Z</time>
      </trkpt>
      <trkpt lat="43.74375" lon="1.53355">
        <ele>250.420121</ele>
        <time>2022-08-12T06:59:07.365Z</time>
      </trkpt>
      <trkpt lat="43.74386" lon="1.53362">
        <ele>250.57182</ele>
        <time>2022-08-12T06:59:09.371Z</time>
      </trkpt>
      <trkpt lat="43.74397" lon="1.5337">
        <ele>250.730757</ele>
        <time>2022-08-12T06:59:11.373Z</time>
      </trkpt>
      <trkpt lat="43.74407" lon="1.53377">
        <ele>250.887766</ele>
        <time>2022-08-12T06:59:13.371Z</time>
      </trkpt>
      <trkpt lat="43.74418" lon="1.53384">
        <ele>251.047817</ele>
        <time>2022-08-12T06:59:15.384Z</time>
      </trkpt>
      <trkpt lat="43.74427" lon="1.53392">
        <ele>251.234112</ele>
        <time>2022-08-12T06:59:17.372Z</time>
      </trkpt>
      <trkpt lat="43.74436" lon="1.53401">
        <ele>251.416696</ele>
        <time>2022-08-12T06:59:19.367Z</time>
      </trkpt>
      <trkpt lat="43.74445" lon="1.5341">
        <ele>251.599281</ele>
        <time>2022-08-12T06:59:21.372Z</time>
      </trkpt>
      <trkpt lat="43.74455" lon="1.53418">
        <ele>251.784163</ele>
        <time>2022-08-12T06:59:23.361Z</time>
      </trkpt>
      <trkpt lat="43.74464" lon="1.53426">
        <ele>251.968614</ele>
        <time>2022-08-12T06:59:25.371Z</time>
      </trkpt>
      <trkpt lat="43.74473" lon="1.53436">
        <ele>252.157057</ele>
        <time>2022-08-12T06:59:27.364Z</time>
      </trkpt>
      <trkpt lat="43.74482" lon="1.53445">
        <ele>252.345202</ele>
        <time>2022-08-12T06:59:29.381Z</time>
      </trkpt>
      <trkpt lat="43.74491" lon="1.53454">
        <ele>252.526775</ele>
        <time>2022-08-12T06:59:31.383Z</time>
      </trkpt>
      <trkpt lat="43.745" lon="1.53463">
        <ele>252.706047</ele>
        <time>2022-08-12T06:59:33.381Z</time>
      </trkpt>
      <trkpt lat="43.74509" lon="1.53471">
        <ele>252.883172</ele>
        <time>2022-08-12T06:59:35.375Z</time>
      </trkpt>
      <trkpt lat="43.74517" lon="1.5348">
        <ele>253.057729</ele>
        <time>2022-08-12T06:59:37.382Z</time>
      </trkpt>
      <trkpt lat="43.74526" lon="1.53489">
        <ele>253.23361</ele>
        <time>2022-08-12T06:59:39.380Z</time>
      </trkpt>
      <trkpt lat="43.74534" lon="1.53498">
        <ele>253.409802</ele>
        <time>2022-08-12T06:59:41.376Z</time>
      </trkpt>
      <trkpt lat="43.74542" lon="1.53507">
        <ele>253.580421</ele>
        <time>2022-08-12T06:59:43.370Z</time>
      </trkpt>
      <trkpt lat="43.7455" lon="1.53514">
        <ele>253.742566</ele>
        <time>2022-08-12T06:59:45.377Z</time>
      </trkpt>
      <trkpt lat="43.74558" lon="1.5352">
        <ele>253.893907</ele>
        <time>2022-08-12T06:59:47.362Z</time>
      </trkpt>
      <trkpt lat="43.74569" lon="1.53527">
        <ele>254.095586</ele>
        <time>2022-08-12T06:59:50.375Z</time>
      </trkpt>
      <trkpt lat="43.74579" lon="1.53533">
        <ele>254.288588</ele>
        <time>2022-08-12T06:59:53.373Z</time>
      </trkpt>
      <trkpt lat="43.74588" lon="1.53537">
        <ele>254.465212</ele>
        <time>2022-08-12T06:59:56.375Z</time>
      </trkpt>
      <trkpt lat="43.74598" lon="1.53542">
        <ele>254.646057</ele>
        <time>2022-08-12T06:59:59.369Z</time>
      </trkpt>
      <trkpt lat="43.74608" lon="1.53548">
        <ele>254.827814</ele>
        <time>2022-08-12T07:00:02.364Z</time>
      </trkpt>
      <trkpt lat="43.74617" lon="1.53553">
        <ele>255.008403</ele>
        <time>2022-08-12T07:00:05.367Z</time>
      </trkpt>
      <trkpt lat="43.74627" lon="1.53558">
        <ele>255.187842</ele>
        <time>2022-08-12T07:00:08.383Z</time>
      </trkpt>
      <trkpt lat="43.74636" lon="1.53564">
        <ele>255.365166</ele>
        <time>2022-08-12T07:00:11.372Z</time>
      </trkpt>
      <trkpt lat="43.74644" lon="1.53569">
        <ele>255.534395</ele>
        <time>2022-08-12T07:00:14.378Z</time>
      </trkpt>
      <trkpt lat="43.74653" lon="1.53576">
        <ele>255.708389</ele>
        <time>2022-08-12T07:00:17.380Z</time>
      </trkpt>
      <trkpt lat="43.74664" lon="1.53586">
        <ele>255.94282</ele>
        <time>2022-08-12T07:00:20.375Z</time>
      </trkpt>
      <trkpt lat="43.74676" lon="1.53592">
        <ele>256.158773</ele>
        <time>2022-08-12T07:00:22.371Z</time>
      </trkpt>
      <trkpt lat="43.7469" lon="1.53594">
        <ele>256.41933</ele>
        <time>2022-08-12T07:00:24.371Z</time>
      </trkpt>
      <trkpt lat="43.74707" lon="1.53594">
        <ele>256.704956</ele>
        <time>2022-08-12T07:00:26.361Z</time>
      </trkpt>
      <trkpt lat="43.74723" lon="1.53596">
        <ele>256.999098</ele>
        <time>2022-08-12T07:00:28.374Z</time>
      </trkpt>
      <trkpt lat="43.74739" lon="1.53604">
        <ele>257.59428</ele>
        <time>2022-08-12T07:00:30.382Z</time>
      </trkpt>
      <trkpt lat="43.74751" lon="1.53618">
        <ele>258.544055</ele>
        <time>2022-08-12T07:00:32.379Z</time>
      </trkpt>
      <trkpt lat="43.74761" lon="1.53633">
        <ele>259.415755</ele>
        <time>2022-08-12T07:00:34.376Z</time>
      </trkpt>
      <trkpt lat="43.74769" lon="1.53648">
        <ele>260.180202</ele>
        <time>2022-08-12T07:00:36.393Z</time>
      </trkpt>
      <trkpt lat="43.74776" lon="1.53659">
        <ele>260.81121</ele>
        <time>2022-08-12T07:00:38.367Z</time>
      </trkpt>
      <trkpt lat="43.74782" lon="1.53667">
        <ele>261.373175</ele>
        <time>2022-08-12T07:00:40.374Z</time>
      </trkpt>
      <trkpt lat="43.74791" lon="1.53678">
        <ele>262.04914</ele>
        <time>2022-08-12T07:00:43.381Z</time>
      </trkpt>
      <trkpt lat="43.74799" lon="1.53686">
        <ele>262.639552</ele>
        <time>2022-08-12T07:00:46.397Z</time>
      </trkpt>
      <trkpt lat="43.74806" lon="1.53694">
        <ele>263.207063</ele>
        <time>2022-08-12T07:00:49.395Z</time>
      </trkpt>
      <trkpt lat="43.74814" lon="1.53702">
        <ele>263.754507</ele>
        <time>2022-08-12T07:00:52.371Z</time>
      </trkpt>
      <trkpt lat="43.74821" lon="1.5371">
        <ele>264.346014</ele>
        <time>2022-08-12T07:00:55.371Z</time>
      </trkpt>
      <trkpt lat="43.74829" lon="1.53718">
        <ele>264.898139</ele>
        <time>2022-08-12T07:00:58.381Z</time>
      </trkpt>
      <trkpt lat="43.74837" lon="1.53727">
        <ele>265.486993</ele>
        <time>2022-08-12T07:01:01.389Z</time>
      </trkpt>
      <trkpt lat="43.74844" lon="1.53735">
        <ele>266.051172</ele>
        <time>2022-08-12T07:01:04.387Z</time>
      </trkpt>
      <trkpt lat="43.74853" lon="1.53744">
        <ele>266.688826</ele>
        <time>2022-08-12T07:01:08.392Z</time>
      </trkpt>
      <trkpt lat="43.74861" lon="1.53737">
        <ele>267.297926</ele>
        <time>2022-08-12T07:01:12.404Z</time>
      </trkpt>
      <trkpt lat="43.74865" lon="1.53718">
        <ele>267.860453</ele>
        <time>2022-08-12T07:01:15.392Z</time>
      </trkpt>
      <trkpt lat="43.74868" lon="1.53705">
        <ele>267.79591</ele>
        <time>2022-08-12T07:01:17.395Z</time>
      </trkpt>
      <trkpt lat="43.74871" lon="1.5369">
        <ele>267.726531</ele>
        <time>2022-08-12T07:01:19.381Z</time>
      </trkpt>
      <trkpt lat="43.74874" lon="1.53674">
        <ele>267.654303</ele>
        <time>2022-08-12T07:01:21.377Z</time>
      </trkpt>
      <trkpt lat="43.74878" lon="1.53659">
        <ele>267.580776</ele>
        <time>2022-08-12T07:01:23.380Z</time>
      </trkpt>
      <trkpt lat="43.74881" lon="1.53643">
        <ele>267.507169</ele>
        <time>2022-08-12T07:01:25.390Z</time>
      </trkpt>
      <trkpt lat="43.74884" lon="1.53627">
        <ele>267.434341</ele>
        <time>2022-08-12T07:01:27.368Z</time>
      </trkpt>
      <trkpt lat="43.74887" lon="1.53611">
        <ele>267.360048</ele>
        <time>2022-08-12T07:01:29.394Z</time>
      </trkpt>
      <trkpt lat="43.74891" lon="1.53595">
        <ele>267.285754</ele>
        <time>2022-08-12T07:01:31.387Z</time>
      </trkpt>
      <trkpt lat="43.74894" lon="1.5358">
        <ele>267.211891</ele>
        <time>2022-08-12T07:01:33.396Z</time>
      </trkpt>
      <trkpt lat="43.74898" lon="1.53564">
        <ele>267.136385</ele>
        <time>2022-08-12T07:01:35.378Z</time>
      </trkpt>
      <trkpt lat="43.74901" lon="1.53547">
        <ele>267.059273</ele>
        <time>2022-08-12T07:01:37.382Z</time>
      </trkpt>
      <trkpt lat="43.74906" lon="1.53531">
        <ele>266.981969</ele>
        <time>2022-08-12T07:01:39.392Z</time>
      </trkpt>
      <trkpt lat="43.74911" lon="1.53515">
        <ele>266.904404</ele>
        <time>2022-08-12T07:01:41.390Z</time>
      </trkpt>
      <trkpt lat="43.74917" lon="1.53501">
        <ele>266.82866</ele>
        <time>2022-08-12T07:01:43.393Z</time>
      </trkpt>
      <trkpt lat="43.74924" lon="1.53487">
        <ele>266.714717</ele>
        <time>2022-08-12T07:01:45.377Z</time>
      </trkpt>
      <trkpt lat="43.7493" lon="1.53473">
        <ele>266.416803</ele>
        <time>2022-08-12T07:01:47.387Z</time>
      </trkpt>
      <trkpt lat="43.74936" lon="1.53461">
        <ele>266.156891</ele>
        <time>2022-08-12T07:01:49.379Z</time>
      </trkpt>
      <trkpt lat="43.74947" lon="1.53469">
        <ele>265.854121</ele>
        <time>2022-08-12T07:01:52.384Z</time>
      </trkpt>
      <trkpt lat="43.74951" lon="1.53482">
        <ele>265.60254</ele>
        <time>2022-08-12T07:01:54.378Z</time>
      </trkpt>
      <trkpt lat="43.74955" lon="1.53496">
        <ele>265.334478</ele>
        <time>2022-08-12T07:01:56.382Z</time>
      </trkpt>
      <trkpt lat="43.74961" lon="1.53511">
        <ele>265.039664</ele>
        <time>2022-08-12T07:01:58.369Z</time>
      </trkpt>
      <trkpt lat="43.74966" lon="1.53526">
        <ele>264.729157</ele>
        <time>2022-08-12T07:02:00.376Z</time>
      </trkpt>
      <trkpt lat="43.74972" lon="1.53542">
        <ele>264.406721</ele>
        <time>2022-08-12T07:02:02.388Z</time>
      </trkpt>
      <trkpt lat="43.74978" lon="1.53557">
        <ele>264.103228</ele>
        <time>2022-08-12T07:02:04.434Z</time>
      </trkpt>
      <trkpt lat="43.74982" lon="1.53569">
        <ele>263.855961</ele>
        <time>2022-08-12T07:02:08.390Z</time>
      </trkpt>
      <trkpt lat="43.74986" lon="1.53581">
        <ele>263.612541</ele>
        <time>2022-08-12T07:02:17.389Z</time>
      </trkpt>
      <trkpt lat="43.74997" lon="1.53613">
        <ele>262.984514</ele>
        <time>2022-08-12T07:02:38.387Z</time>
      </trkpt>
      <trkpt lat="43.75002" lon="1.53625">
        <ele>262.728337</ele>
        <time>2022-08-12T07:02:40.378Z</time>
      </trkpt>
      <trkpt lat="43.75009" lon="1.53636">
        <ele>262.462049</ele>
        <time>2022-08-12T07:02:42.390Z</time>
      </trkpt>
      <trkpt lat="43.75017" lon="1.53648">
        <ele>261.815201</ele>
        <time>2022-08-12T07:02:44.372Z</time>
      </trkpt>
      <trkpt lat="43.75026" lon="1.53659">
        <ele>260.513094</ele>
        <time>2022-08-12T07:02:46.382Z</time>
      </trkpt>
      <trkpt lat="43.75034" lon="1.53672">
        <ele>259.100156</ele>
        <time>2022-08-12T07:02:48.371Z</time>
      </trkpt>
      <trkpt lat="43.75045" lon="1.53685">
        <ele>257.519359</ele>
        <time>2022-08-12T07:02:50.360Z</time>
      </trkpt>
      <trkpt lat="43.75057" lon="1.537">
        <ele>255.748602</ele>
        <time>2022-08-12T07:02:52.361Z</time>
      </trkpt>
      <trkpt lat="43.75064" lon="1.53709">
        <ele>254.734447</ele>
        <time>2022-08-12T07:02:53.369Z</time>
      </trkpt>
      <trkpt lat="43.75072" lon="1.53718">
        <ele>253.588308</ele>
        <time>2022-08-12T07:02:54.371Z</time>
      </trkpt>
      <trkpt lat="43.7508" lon="1.53727">
        <ele>252.431951</ele>
        <time>2022-08-12T07:02:55.360Z</time>
      </trkpt>
      <trkpt lat="43.75088" lon="1.53737">
        <ele>251.234734</ele>
        <time>2022-08-12T07:02:56.377Z</time>
      </trkpt>
      <trkpt lat="43.75096" lon="1.53747">
        <ele>250.008393</ele>
        <time>2022-08-12T07:02:57.364Z</time>
      </trkpt>
      <trkpt lat="43.75105" lon="1.53757">
        <ele>248.732796</ele>
        <time>2022-08-12T07:02:58.377Z</time>
      </trkpt>
      <trkpt lat="43.75113" lon="1.53768">
        <ele>247.471909</ele>
        <time>2022-08-12T07:02:59.363Z</time>
      </trkpt>
      <trkpt lat="43.75122" lon="1.53779">
        <ele>246.186625</ele>
        <time>2022-08-12T07:03:00.368Z</time>
      </trkpt>
      <trkpt lat="43.7513" lon="1.53788">
        <ele>245.004166</ele>
        <time>2022-08-12T07:03:01.367Z</time>
      </trkpt>
      <trkpt lat="43.75137" lon="1.53797">
        <ele>243.93269</ele>
        <time>2022-08-12T07:03:02.375Z</time>
      </trkpt>
      <trkpt lat="43.75144" lon="1.53806">
        <ele>242.885258</ele>
        <time>2022-08-12T07:03:03.381Z</time>
      </trkpt>
      <trkpt lat="43.75153" lon="1.53814">
        <ele>241.763152</ele>
        <time>2022-08-12T07:03:04.377Z</time>
      </trkpt>
      <trkpt lat="43.7516" lon="1.53821">
        <ele>240.718991</ele>
        <time>2022-08-12T07:03:05.385Z</time>
      </trkpt>
      <trkpt lat="43.75174" lon="1.53833">
        <ele>238.832882</ele>
        <time>2022-08-12T07:03:07.374Z</time>
      </trkpt>
      <trkpt lat="43.75189" lon="1.53848">
        <ele>236.814174</ele>
        <time>2022-08-12T07:03:09.373Z</time>
      </trkpt>
      <trkpt lat="43.75197" lon="1.53854">
        <ele>235.722184</ele>
        <time>2022-08-12T07:03:10.376Z</time>
      </trkpt>
      <trkpt lat="43.75207" lon="1.5386">
        <ele>234.56741</ele>
        <time>2022-08-12T07:03:11.373Z</time>
      </trkpt>
      <trkpt lat="43.75216" lon="1.53866">
        <ele>233.446621</ele>
        <time>2022-08-12T07:03:12.368Z</time>
      </trkpt>
      <trkpt lat="43.75224" lon="1.53874">
        <ele>232.360264</ele>
        <time>2022-08-12T07:03:13.374Z</time>
      </trkpt>
      <trkpt lat="43.75231" lon="1.53882">
        <ele>231.294166</ele>
        <time>2022-08-12T07:03:14.375Z</time>
      </trkpt>
      <trkpt lat="43.75237" lon="1.53892">
        <ele>230.227161</ele>
        <time>2022-08-12T07:03:15.360Z</time>
      </trkpt>
      <trkpt lat="43.75243" lon="1.53903">
        <ele>229.129847</ele>
        <time>2022-08-12T07:03:16.374Z</time>
      </trkpt>
      <trkpt lat="43.75248" lon="1.53914">
        <ele>228.08411</ele>
        <time>2022-08-12T07:03:17.369Z</time>
      </trkpt>
      <trkpt lat="43.75253" lon="1.53926">
        <ele>226.887238</ele>
        <time>2022-08-12T07:03:18.379Z</time>
      </trkpt>
      <trkpt lat="43.75259" lon="1.53938">
        <ele>225.754493</ele>
        <time>2022-08-12T07:03:19.379Z</time>
      </trkpt>
      <trkpt lat="43.75264" lon="1.53949">
        <ele>224.661358</ele>
        <time>2022-08-12T07:03:20.364Z</time>
      </trkpt>
      <trkpt lat="43.75269" lon="1.53961">
        <ele>223.537006</ele>
        <time>2022-08-12T07:03:21.379Z</time>
      </trkpt>
      <trkpt lat="43.75275" lon="1.53973">
        <ele>222.404264</ele>
        <time>2022-08-12T07:03:22.362Z</time>
      </trkpt>
      <trkpt lat="43.75279" lon="1.53984">
        <ele>221.891035</ele>
        <time>2022-08-12T07:03:23.355Z</time>
      </trkpt>
      <trkpt lat="43.75282" lon="1.53997">
        <ele>221.621401</ele>
        <time>2022-08-12T07:03:24.375Z</time>
      </trkpt>
      <trkpt lat="43.75285" lon="1.5401">
        <ele>221.348792</ele>
        <time>2022-08-12T07:03:25.371Z</time>
      </trkpt>
      <trkpt lat="43.75287" lon="1.54024">
        <ele>221.070123</ele>
        <time>2022-08-12T07:03:26.364Z</time>
      </trkpt>
      <trkpt lat="43.75288" lon="1.54039">
        <ele>220.783637</ele>
        <time>2022-08-12T07:03:27.379Z</time>
      </trkpt>
      <trkpt lat="43.75288" lon="1.54053">
        <ele>220.501908</ele>
        <time>2022-08-12T07:03:28.374Z</time>
      </trkpt>
      <trkpt lat="43.75287" lon="1.54067">
        <ele>220.220871</ele>
        <time>2022-08-12T07:03:29.369Z</time>
      </trkpt>
      <trkpt lat="43.75285" lon="1.5408">
        <ele>219.949042</ele>
        <time>2022-08-12T07:03:30.361Z</time>
      </trkpt>
      <trkpt lat="43.75283" lon="1.54093">
        <ele>219.688423</ele>
        <time>2022-08-12T07:03:31.370Z</time>
      </trkpt>
      <trkpt lat="43.75283" lon="1.54107">
        <ele>219.422603</ele>
        <time>2022-08-12T07:03:32.368Z</time>
      </trkpt>
      <trkpt lat="43.75288" lon="1.5413">
        <ele>218.945571</ele>
        <time>2022-08-12T07:03:34.368Z</time>
      </trkpt>
      <trkpt lat="43.75293" lon="1.54151">
        <ele>218.508963</ele>
        <time>2022-08-12T07:03:36.370Z</time>
      </trkpt>
      <trkpt lat="43.75299" lon="1.54168">
        <ele>218.139467</ele>
        <time>2022-08-12T07:03:38.372Z</time>
      </trkpt>
      <trkpt lat="43.75304" lon="1.54182">
        <ele>217.815058</ele>
        <time>2022-08-12T07:03:40.365Z</time>
      </trkpt>
      <trkpt lat="43.7531" lon="1.54195">
        <ele>217.509999</ele>
        <time>2022-08-12T07:03:42.371Z</time>
      </trkpt>
      <trkpt lat="43.75316" lon="1.54207">
        <ele>217.220285</ele>
        <time>2022-08-12T07:03:44.369Z</time>
      </trkpt>
      <trkpt lat="43.75323" lon="1.54219">
        <ele>217.543838</ele>
        <time>2022-08-12T07:03:46.372Z</time>
      </trkpt>
      <trkpt lat="43.7533" lon="1.54229">
        <ele>218.123002</ele>
        <time>2022-08-12T07:03:48.373Z</time>
      </trkpt>
      <trkpt lat="43.75338" lon="1.54239">
        <ele>218.682991</ele>
        <time>2022-08-12T07:03:50.366Z</time>
      </trkpt>
      <trkpt lat="43.75345" lon="1.54247">
        <ele>219.225377</ele>
        <time>2022-08-12T07:03:52.361Z</time>
      </trkpt>
      <trkpt lat="43.75354" lon="1.5426">
        <ele>219.929304</ele>
        <time>2022-08-12T07:03:55.375Z</time>
      </trkpt>
      <trkpt lat="43.75355" lon="1.54275">
        <ele>220.531249</ele>
        <time>2022-08-12T07:03:58.369Z</time>
      </trkpt>
      <trkpt lat="43.75352" lon="1.54291">
        <ele>221.178184</ele>
        <time>2022-08-12T07:04:01.379Z</time>
      </trkpt>
      <trkpt lat="43.75348" lon="1.54305">
        <ele>221.777008</ele>
        <time>2022-08-12T07:04:04.364Z</time>
      </trkpt>
      <trkpt lat="43.75344" lon="1.54319">
        <ele>222.347518</ele>
        <time>2022-08-12T07:04:07.377Z</time>
      </trkpt>
      <trkpt lat="43.7534" lon="1.54331">
        <ele>222.902057</ele>
        <time>2022-08-12T07:04:10.372Z</time>
      </trkpt>
      <trkpt lat="43.75335" lon="1.54344">
        <ele>223.46266</ele>
        <time>2022-08-12T07:04:13.381Z</time>
      </trkpt>
      <trkpt lat="43.75329" lon="1.54356">
        <ele>224.049046</ele>
        <time>2022-08-12T07:04:16.385Z</time>
      </trkpt>
      <trkpt lat="43.75324" lon="1.54368">
        <ele>224.604516</ele>
        <time>2022-08-12T07:04:19.380Z</time>
      </trkpt>
      <trkpt lat="43.75319" lon="1.54381">
        <ele>225.166143</ele>
        <time>2022-08-12T07:04:22.369Z</time>
      </trkpt>
      <trkpt lat="43.75314" lon="1.54394">
        <ele>225.747694</ele>
        <time>2022-08-12T07:04:25.382Z</time>
      </trkpt>
      <trkpt lat="43.75309" lon="1.54406">
        <ele>226.313835</ele>
        <time>2022-08-12T07:04:28.360Z</time>
      </trkpt>
      <trkpt lat="43.75304" lon="1.54418">
        <ele>226.883137</ele>
        <time>2022-08-12T07:04:31.368Z</time>
      </trkpt>
      <trkpt lat="43.75299" lon="1.54431">
        <ele>227.133504</ele>
        <time>2022-08-12T07:04:34.367Z</time>
      </trkpt>
      <trkpt lat="43.75294" lon="1.54443">
        <ele>227.306875</ele>
        <time>2022-08-12T07:04:37.377Z</time>
      </trkpt>
      <trkpt lat="43.75291" lon="1.54456">
        <ele>227.473974</ele>
        <time>2022-08-12T07:04:40.371Z</time>
      </trkpt>
      <trkpt lat="43.75291" lon="1.54471">
        <ele>227.64868</ele>
        <time>2022-08-12T07:04:43.373Z</time>
      </trkpt>
      <trkpt lat="43.75291" lon="1.54485">
        <ele>227.823527</ele>
        <time>2022-08-12T07:04:46.368Z</time>
      </trkpt>
      <trkpt lat="43.75293" lon="1.54499">
        <ele>228.001023</ele>
        <time>2022-08-12T07:04:49.362Z</time>
      </trkpt>
      <trkpt lat="43.75295" lon="1.54513">
        <ele>228.178787</ele>
        <time>2022-08-12T07:04:52.368Z</time>
      </trkpt>
      <trkpt lat="43.75297" lon="1.54528">
        <ele>228.356245</ele>
        <time>2022-08-12T07:04:55.376Z</time>
      </trkpt>
      <trkpt lat="43.75298" lon="1.54542">
        <ele>228.538591</ele>
        <time>2022-08-12T07:04:58.373Z</time>
      </trkpt>
      <trkpt lat="43.753" lon="1.54557">
        <ele>228.722683</ele>
        <time>2022-08-12T07:05:01.379Z</time>
      </trkpt>
      <trkpt lat="43.75302" lon="1.54573">
        <ele>228.920383</ele>
        <time>2022-08-12T07:05:04.363Z</time>
      </trkpt>
      <trkpt lat="43.75305" lon="1.5459">
        <ele>229.133447</ele>
        <time>2022-08-12T07:05:07.388Z</time>
      </trkpt>
      <trkpt lat="43.75309" lon="1.54606">
        <ele>229.348213</ele>
        <time>2022-08-12T07:05:10.371Z</time>
      </trkpt>
      <trkpt lat="43.75314" lon="1.54623">
        <ele>229.56463</ele>
        <time>2022-08-12T07:05:13.369Z</time>
      </trkpt>
      <trkpt lat="43.75318" lon="1.54634">
        <ele>229.722379</ele>
        <time>2022-08-12T07:05:15.378Z</time>
      </trkpt>
      <trkpt lat="43.75323" lon="1.54646">
        <ele>229.890881</ele>
        <time>2022-08-12T07:05:17.362Z</time>
      </trkpt>
      <trkpt lat="43.75329" lon="1.54658">
        <ele>229.932664</ele>
        <time>2022-08-12T07:05:19.371Z</time>
      </trkpt>
      <trkpt lat="43.75336" lon="1.54671">
        <ele>228.840414</ele>
        <time>2022-08-12T07:05:21.367Z</time>
      </trkpt>
      <trkpt lat="43.75343" lon="1.54686">
        <ele>227.57537</ele>
        <time>2022-08-12T07:05:23.369Z</time>
      </trkpt>
      <trkpt lat="43.75352" lon="1.54704">
        <ele>226.142286</ele>
        <time>2022-08-12T07:05:25.382Z</time>
      </trkpt>
      <trkpt lat="43.7536" lon="1.54722">
        <ele>224.643355</ele>
        <time>2022-08-12T07:05:27.370Z</time>
      </trkpt>
      <trkpt lat="43.75369" lon="1.54739">
        <ele>223.212326</ele>
        <time>2022-08-12T07:05:29.374Z</time>
      </trkpt>
      <trkpt lat="43.75382" lon="1.5475">
        <ele>221.774167</ele>
        <time>2022-08-12T07:05:31.374Z</time>
      </trkpt>
      <trkpt lat="43.75398" lon="1.5476">
        <ele>220.137802</ele>
        <time>2022-08-12T07:05:33.369Z</time>
      </trkpt>
      <trkpt lat="43.75406" lon="1.54765">
        <ele>219.263728</ele>
        <time>2022-08-12T07:05:34.373Z</time>
      </trkpt>
      <trkpt lat="43.75414" lon="1.54773">
        <ele>218.356497</ele>
        <time>2022-08-12T07:05:35.351Z</time>
      </trkpt>
      <trkpt lat="43.75421" lon="1.54782">
        <ele>217.431011</ele>
        <time>2022-08-12T07:05:36.376Z</time>
      </trkpt>
      <trkpt lat="43.75428" lon="1.54792">
        <ele>216.507921</ele>
        <time>2022-08-12T07:05:37.378Z</time>
      </trkpt>
      <trkpt lat="43.75434" lon="1.54803">
        <ele>215.565359</ele>
        <time>2022-08-12T07:05:38.373Z</time>
      </trkpt>
      <trkpt lat="43.75439" lon="1.54815">
        <ele>214.611679</ele>
        <time>2022-08-12T07:05:39.385Z</time>
      </trkpt>
      <trkpt lat="43.75446" lon="1.54826">
        <ele>213.635859</ele>
        <time>2022-08-12T07:05:40.387Z</time>
      </trkpt>
      <trkpt lat="43.75452" lon="1.54837">
        <ele>212.833701</ele>
        <time>2022-08-12T07:05:41.376Z</time>
      </trkpt>
      <trkpt lat="43.75458" lon="1.54849">
        <ele>212.324931</ele>
        <time>2022-08-12T07:05:42.377Z</time>
      </trkpt>
      <trkpt lat="43.75464" lon="1.5486">
        <ele>211.824867</ele>
        <time>2022-08-12T07:05:43.368Z</time>
      </trkpt>
      <trkpt lat="43.75469" lon="1.54872">
        <ele>211.326431</ele>
        <time>2022-08-12T07:05:44.372Z</time>
      </trkpt>
      <trkpt lat="43.75473" lon="1.54885">
        <ele>210.827218</ele>
        <time>2022-08-12T07:05:45.381Z</time>
      </trkpt>
      <trkpt lat="43.75476" lon="1.54898">
        <ele>210.338726</ele>
        <time>2022-08-12T07:05:46.371Z</time>
      </trkpt>
      <trkpt lat="43.75479" lon="1.54911">
        <ele>209.855651</ele>
        <time>2022-08-12T07:05:47.395Z</time>
      </trkpt>
      <trkpt lat="43.75481" lon="1.54924">
        <ele>209.38224</ele>
        <time>2022-08-12T07:05:48.382Z</time>
      </trkpt>
      <trkpt lat="43.75484" lon="1.54936">
        <ele>208.924331</ele>
        <time>2022-08-12T07:05:49.376Z</time>
      </trkpt>
      <trkpt lat="43.75488" lon="1.54948">
        <ele>208.47461</ele>
        <time>2022-08-12T07:05:50.382Z</time>
      </trkpt>
      <trkpt lat="43.75493" lon="1.54959">
        <ele>208.012927</ele>
        <time>2022-08-12T07:05:51.376Z</time>
      </trkpt>
      <trkpt lat="43.75497" lon="1.5497">
        <ele>207.549129</ele>
        <time>2022-08-12T07:05:52.386Z</time>
      </trkpt>
      <trkpt lat="43.75503" lon="1.54981">
        <ele>207.095237</ele>
        <time>2022-08-12T07:05:53.380Z</time>
      </trkpt>
      <trkpt lat="43.7551" lon="1.54995">
        <ele>206.476732</ele>
        <time>2022-08-12T07:05:55.381Z</time>
      </trkpt>
      <trkpt lat="43.7551" lon="1.55008">
        <ele>206.016711</ele>
        <time>2022-08-12T07:05:58.373Z</time>
      </trkpt>
      <trkpt lat="43.75501" lon="1.5502">
        <ele>205.374695</ele>
        <time>2022-08-12T07:06:01.376Z</time>
      </trkpt>
      <trkpt lat="43.75495" lon="1.5503">
        <ele>204.915067</ele>
        <time>2022-08-12T07:06:03.379Z</time>
      </trkpt>
      <trkpt lat="43.75496" lon="1.55043">
        <ele>204.449461</ele>
        <time>2022-08-12T07:06:05.366Z</time>
      </trkpt>
      <trkpt lat="43.75501" lon="1.55057">
        <ele>204.543594</ele>
        <time>2022-08-12T07:06:07.383Z</time>
      </trkpt>
      <trkpt lat="43.75509" lon="1.55069">
        <ele>205.551869</ele>
        <time>2022-08-12T07:06:09.404Z</time>
      </trkpt>
      <trkpt lat="43.75516" lon="1.55081">
        <ele>206.552307</ele>
        <time>2022-08-12T07:06:11.401Z</time>
      </trkpt>
      <trkpt lat="43.75524" lon="1.55092">
        <ele>207.519836</ele>
        <time>2022-08-12T07:06:13.381Z</time>
      </trkpt>
      <trkpt lat="43.75531" lon="1.55104">
        <ele>208.461602</ele>
        <time>2022-08-12T07:06:15.394Z</time>
      </trkpt>
      <trkpt lat="43.75537" lon="1.55115">
        <ele>209.311238</ele>
        <time>2022-08-12T07:06:17.396Z</time>
      </trkpt>
      <trkpt lat="43.75544" lon="1.5513">
        <ele>210.425222</ele>
        <time>2022-08-12T07:06:20.392Z</time>
      </trkpt>
      <trkpt lat="43.7555" lon="1.55143">
        <ele>211.429692</ele>
        <time>2022-08-12T07:06:23.388Z</time>
      </trkpt>
      <trkpt lat="43.75554" lon="1.55156">
        <ele>212.304078</ele>
        <time>2022-08-12T07:06:26.381Z</time>
      </trkpt>
      <trkpt lat="43.75556" lon="1.55169">
        <ele>213.128449</ele>
        <time>2022-08-12T07:06:29.381Z</time>
      </trkpt>
      <trkpt lat="43.75556" lon="1.55182">
        <ele>213.981821</ele>
        <time>2022-08-12T07:06:32.378Z</time>
      </trkpt>
      <trkpt lat="43.75556" lon="1.55195">
        <ele>214.791273</ele>
        <time>2022-08-12T07:06:35.378Z</time>
      </trkpt>
      <trkpt lat="43.75559" lon="1.5521">
        <ele>215.772636</ele>
        <time>2022-08-12T07:06:39.393Z</time>
      </trkpt>
      <trkpt lat="43.75564" lon="1.55223">
        <ele>216.701662</ele>
        <time>2022-08-12T07:06:43.409Z</time>
      </trkpt>
      <trkpt lat="43.75569" lon="1.55237">
        <ele>217.676794</ele>
        <time>2022-08-12T07:06:47.385Z</time>
      </trkpt>
      <trkpt lat="43.75575" lon="1.5525">
        <ele>218.622099</ele>
        <time>2022-08-12T07:06:51.373Z</time>
      </trkpt>
      <trkpt lat="43.75581" lon="1.55263">
        <ele>219.594786</ele>
        <time>2022-08-12T07:06:55.405Z</time>
      </trkpt>
      <trkpt lat="43.75587" lon="1.55276">
        <ele>220.548021</ele>
        <time>2022-08-12T07:06:59.395Z</time>
      </trkpt>
      <trkpt lat="43.75593" lon="1.55288">
        <ele>221.486475</ele>
        <time>2022-08-12T07:07:03.373Z</time>
      </trkpt>
      <trkpt lat="43.756" lon="1.553">
        <ele>222.445847</ele>
        <time>2022-08-12T07:07:07.386Z</time>
      </trkpt>
      <trkpt lat="43.75607" lon="1.55309">
        <ele>223.323208</ele>
        <time>2022-08-12T07:07:11.393Z</time>
      </trkpt>
      <trkpt lat="43.75614" lon="1.55319">
        <ele>224.199513</ele>
        <time>2022-08-12T07:07:14.379Z</time>
      </trkpt>
      <trkpt lat="43.7562" lon="1.5533">
        <ele>225.066708</ele>
        <time>2022-08-12T07:07:18.386Z</time>
      </trkpt>
      <trkpt lat="43.75627" lon="1.5534">
        <ele>225.94714</ele>
        <time>2022-08-12T07:07:22.402Z</time>
      </trkpt>
      <trkpt lat="43.75634" lon="1.55351">
        <ele>226.852308</ele>
        <time>2022-08-12T07:07:26.386Z</time>
      </trkpt>
      <trkpt lat="43.75642" lon="1.55362">
        <ele>227.856169</ele>
        <time>2022-08-12T07:07:30.382Z</time>
      </trkpt>
      <trkpt lat="43.75648" lon="1.55372">
        <ele>228.64387</ele>
        <time>2022-08-12T07:07:33.385Z</time>
      </trkpt>
      <trkpt lat="43.75654" lon="1.55383">
        <ele>229.510433</ele>
        <time>2022-08-12T07:07:36.389Z</time>
      </trkpt>
      <trkpt lat="43.75662" lon="1.55393">
        <ele>230.465047</ele>
        <time>2022-08-12T07:07:39.392Z</time>
      </trkpt>
      <trkpt lat="43.75671" lon="1.55404">
        <ele>231.507558</ele>
        <time>2022-08-12T07:07:42.389Z</time>
      </trkpt>
      <trkpt lat="43.75679" lon="1.55415">
        <ele>232.53515</ele>
        <time>2022-08-12T07:07:45.391Z</time>
      </trkpt>
      <trkpt lat="43.75686" lon="1.55429">
        <ele>233.632748</ele>
        <time>2022-08-12T07:07:48.382Z</time>
      </trkpt>
      <trkpt lat="43.75688" lon="1.55448">
        <ele>234.792431</ele>
        <time>2022-08-12T07:07:51.372Z</time>
      </trkpt>
      <trkpt lat="43.75679" lon="1.55458">
        <ele>235.361097</ele>
        <time>2022-08-12T07:07:54.393Z</time>
      </trkpt>
      <trkpt lat="43.75667" lon="1.55465">
        <ele>234.804944</ele>
        <time>2022-08-12T07:07:57.395Z</time>
      </trkpt>
      <trkpt lat="43.75655" lon="1.55474">
        <ele>234.239998</ele>
        <time>2022-08-12T07:08:00.394Z</time>
      </trkpt>
      <trkpt lat="43.75645" lon="1.55485">
        <ele>233.69688</ele>
        <time>2022-08-12T07:08:03.385Z</time>
      </trkpt>
      <trkpt lat="43.75639" lon="1.55501">
        <ele>233.154287</ele>
        <time>2022-08-12T07:08:06.378Z</time>
      </trkpt>
      <trkpt lat="43.75633" lon="1.55516">
        <ele>232.609082</ele>
        <time>2022-08-12T07:08:09.373Z</time>
      </trkpt>
      <trkpt lat="43.7563" lon="1.55531">
        <ele>232.148041</ele>
        <time>2022-08-12T07:08:12.369Z</time>
      </trkpt>
      <trkpt lat="43.75635" lon="1.55541">
        <ele>231.753977</ele>
        <time>2022-08-12T07:08:14.362Z</time>
      </trkpt>
      <trkpt lat="43.75641" lon="1.55556">
        <ele>231.244951</ele>
        <time>2022-08-12T07:08:16.383Z</time>
      </trkpt>
      <trkpt lat="43.75651" lon="1.55573">
        <ele>230.587953</ele>
        <time>2022-08-12T07:08:18.385Z</time>
      </trkpt>
      <trkpt lat="43.75661" lon="1.55592">
        <ele>229.854268</ele>
        <time>2022-08-12T07:08:20.381Z</time>
      </trkpt>
      <trkpt lat="43.75675" lon="1.55609">
        <ele>229.058171</ele>
        <time>2022-08-12T07:08:22.386Z</time>
      </trkpt>
      <trkpt lat="43.75685" lon="1.55615">
        <ele>228.628991</ele>
        <time>2022-08-12T07:08:23.385Z</time>
      </trkpt>
      <trkpt lat="43.75695" lon="1.55619">
        <ele>228.176281</ele>
        <time>2022-08-12T07:08:24.389Z</time>
      </trkpt>
      <trkpt lat="43.75705" lon="1.55622">
        <ele>227.727476</ele>
        <time>2022-08-12T07:08:25.386Z</time>
      </trkpt>
      <trkpt lat="43.75716" lon="1.55624">
        <ele>227.25302</ele>
        <time>2022-08-12T07:08:26.387Z</time>
      </trkpt>
      <trkpt lat="43.75727" lon="1.55628">
        <ele>226.782442</ele>
        <time>2022-08-12T07:08:27.388Z</time>
      </trkpt>
      <trkpt lat="43.75738" lon="1.55632">
        <ele>226.294365</ele>
        <time>2022-08-12T07:08:28.387Z</time>
      </trkpt>
      <trkpt lat="43.75748" lon="1.55638">
        <ele>225.802628</ele>
        <time>2022-08-12T07:08:29.371Z</time>
      </trkpt>
      <trkpt lat="43.75759" lon="1.55644">
        <ele>225.314635</ele>
        <time>2022-08-12T07:08:30.377Z</time>
      </trkpt>
      <trkpt lat="43.75769" lon="1.55651">
        <ele>224.834528</ele>
        <time>2022-08-12T07:08:31.375Z</time>
      </trkpt>
      <trkpt lat="43.75779" lon="1.55657">
        <ele>224.36352</ele>
        <time>2022-08-12T07:08:32.375Z</time>
      </trkpt>
      <trkpt lat="43.75788" lon="1.55663">
        <ele>223.90161</ele>
        <time>2022-08-12T07:08:33.367Z</time>
      </trkpt>
      <trkpt lat="43.75798" lon="1.5567">
        <ele>223.447541</ele>
        <time>2022-08-12T07:08:34.380Z</time>
      </trkpt>
      <trkpt lat="43.75807" lon="1.55676">
        <ele>223.011552</ele>
        <time>2022-08-12T07:08:35.363Z</time>
      </trkpt>
      <trkpt lat="43.75816" lon="1.55682">
        <ele>222.582147</ele>
        <time>2022-08-12T07:08:36.379Z</time>
      </trkpt>
      <trkpt lat="43.75825" lon="1.55688">
        <ele>222.163178</ele>
        <time>2022-08-12T07:08:37.365Z</time>
      </trkpt>
      <trkpt lat="43.75833" lon="1.55694">
        <ele>221.756278</ele>
        <time>2022-08-12T07:08:38.378Z</time>
      </trkpt>
      <trkpt lat="43.75841" lon="1.557">
        <ele>221.364266</ele>
        <time>2022-08-12T07:08:39.376Z</time>
      </trkpt>
      <trkpt lat="43.75857" lon="1.55711">
        <ele>220.597709</ele>
        <time>2022-08-12T07:08:41.373Z</time>
      </trkpt>
      <trkpt lat="43.75872" lon="1.5572">
        <ele>220.119929</ele>
        <time>2022-08-12T07:08:43.370Z</time>
      </trkpt>
      <trkpt lat="43.75886" lon="1.5573">
        <ele>220.000582</ele>
        <time>2022-08-12T07:08:45.362Z</time>
      </trkpt>
      <trkpt lat="43.75899" lon="1.55739">
        <ele>219.8892</ele>
        <time>2022-08-12T07:08:47.365Z</time>
      </trkpt>
      <trkpt lat="43.7591" lon="1.55748">
        <ele>219.784633</ele>
        <time>2022-08-12T07:08:49.356Z</time>
      </trkpt>
      <trkpt lat="43.75921" lon="1.55757">
        <ele>219.686597</ele>
        <time>2022-08-12T07:08:51.373Z</time>
      </trkpt>
      <trkpt lat="43.75932" lon="1.55766">
        <ele>219.591624</ele>
        <time>2022-08-12T07:08:53.367Z</time>
      </trkpt>
      <trkpt lat="43.75942" lon="1.55775">
        <ele>219.498274</ele>
        <time>2022-08-12T07:08:55.372Z</time>
      </trkpt>
      <trkpt lat="43.75952" lon="1.55783">
        <ele>219.405412</ele>
        <time>2022-08-12T07:08:57.358Z</time>
      </trkpt>
      <trkpt lat="43.75962" lon="1.55792">
        <ele>219.310206</ele>
        <time>2022-08-12T07:08:59.377Z</time>
      </trkpt>
      <trkpt lat="43.75973" lon="1.55801">
        <ele>219.210504</ele>
        <time>2022-08-12T07:09:01.369Z</time>
      </trkpt>
      <trkpt lat="43.75984" lon="1.55812">
        <ele>219.107657</ele>
        <time>2022-08-12T07:09:03.368Z</time>
      </trkpt>
      <trkpt lat="43.75994" lon="1.55825">
        <ele>219.000345</ele>
        <time>2022-08-12T07:09:05.374Z</time>
      </trkpt>
      <trkpt lat="43.76004" lon="1.55839">
        <ele>218.89163</ele>
        <time>2022-08-12T07:09:07.378Z</time>
      </trkpt>
      <trkpt lat="43.76011" lon="1.55856">
        <ele>218.780649</ele>
        <time>2022-08-12T07:09:09.362Z</time>
      </trkpt>
      <trkpt lat="43.76018" lon="1.55873">
        <ele>218.554934</ele>
        <time>2022-08-12T07:09:11.373Z</time>
      </trkpt>
      <trkpt lat="43.76025" lon="1.5589">
        <ele>218.317716</ele>
        <time>2022-08-12T07:09:13.374Z</time>
      </trkpt>
      <trkpt lat="43.76032" lon="1.55907">
        <ele>218.083972</ele>
        <time>2022-08-12T07:09:15.369Z</time>
      </trkpt>
      <trkpt lat="43.76039" lon="1.55923">
        <ele>217.854377</ele>
        <time>2022-08-12T07:09:17.357Z</time>
      </trkpt>
      <trkpt lat="43.76047" lon="1.55938">
        <ele>217.629292</ele>
        <time>2022-08-12T07:09:19.369Z</time>
      </trkpt>
      <trkpt lat="43.76056" lon="1.55952">
        <ele>217.400586</ele>
        <time>2022-08-12T07:09:21.392Z</time>
      </trkpt>
      <trkpt lat="43.76065" lon="1.55966">
        <ele>217.171416</ele>
        <time>2022-08-12T07:09:23.376Z</time>
      </trkpt>
      <trkpt lat="43.76075" lon="1.55978">
        <ele>216.941134</ele>
        <time>2022-08-12T07:09:25.370Z</time>
      </trkpt>
      <trkpt lat="43.76085" lon="1.55991">
        <ele>216.711692</ele>
        <time>2022-08-12T07:09:27.358Z</time>
      </trkpt>
      <trkpt lat="43.76096" lon="1.56004">
        <ele>216.477641</ele>
        <time>2022-08-12T07:09:29.366Z</time>
      </trkpt>
      <trkpt lat="43.76107" lon="1.56017">
        <ele>216.24073</ele>
        <time>2022-08-12T07:09:31.373Z</time>
      </trkpt>
      <trkpt lat="43.76117" lon="1.5603">
        <ele>216.00552</ele>
        <time>2022-08-12T07:09:33.369Z</time>
      </trkpt>
      <trkpt lat="43.76127" lon="1.56043">
        <ele>215.773988</ele>
        <time>2022-08-12T07:09:35.382Z</time>
      </trkpt>
      <trkpt lat="43.76138" lon="1.56055">
        <ele>215.689168</ele>
        <time>2022-08-12T07:09:37.379Z</time>
      </trkpt>
      <trkpt lat="43.76148" lon="1.56067">
        <ele>215.621736</ele>
        <time>2022-08-12T07:09:39.366Z</time>
      </trkpt>
      <trkpt lat="43.76157" lon="1.56079">
        <ele>215.555798</ele>
        <time>2022-08-12T07:09:41.378Z</time>
      </trkpt>
      <trkpt lat="43.76167" lon="1.56092">
        <ele>215.490961</ele>
        <time>2022-08-12T07:09:43.370Z</time>
      </trkpt>
      <trkpt lat="43.76176" lon="1.56104">
        <ele>215.427665</ele>
        <time>2022-08-12T07:09:45.369Z</time>
      </trkpt>
      <trkpt lat="43.76184" lon="1.56117">
        <ele>215.365504</ele>
        <time>2022-08-12T07:09:47.383Z</time>
      </trkpt>
      <trkpt lat="43.76193" lon="1.56129">
        <ele>215.304129</ele>
        <time>2022-08-12T07:09:49.368Z</time>
      </trkpt>
      <trkpt lat="43.76202" lon="1.5614">
        <ele>215.242663</ele>
        <time>2022-08-12T07:09:51.369Z</time>
      </trkpt>
      <trkpt lat="43.76213" lon="1.56148">
        <ele>215.180821</ele>
        <time>2022-08-12T07:09:53.352Z</time>
      </trkpt>
      <trkpt lat="43.76219" lon="1.56162">
        <ele>215.121568</ele>
        <time>2022-08-12T07:09:55.369Z</time>
      </trkpt>
      <trkpt lat="43.76221" lon="1.56178">
        <ele>215.062299</ele>
        <time>2022-08-12T07:09:57.370Z</time>
      </trkpt>
      <trkpt lat="43.76221" lon="1.56195">
        <ele>215.002484</ele>
        <time>2022-08-12T07:09:59.366Z</time>
      </trkpt>
      <trkpt lat="43.7622" lon="1.56211">
        <ele>214.942971</ele>
        <time>2022-08-12T07:10:01.365Z</time>
      </trkpt>
      <trkpt lat="43.7622" lon="1.56228">
        <ele>214.884317</ele>
        <time>2022-08-12T07:10:03.373Z</time>
      </trkpt>
      <trkpt lat="43.7622" lon="1.56244">
        <ele>214.859029</ele>
        <time>2022-08-12T07:10:05.371Z</time>
      </trkpt>
      <trkpt lat="43.76221" lon="1.56259">
        <ele>214.884695</ele>
        <time>2022-08-12T07:10:07.384Z</time>
      </trkpt>
      <trkpt lat="43.76221" lon="1.56275">
        <ele>214.910352</ele>
        <time>2022-08-12T07:10:09.369Z</time>
      </trkpt>
      <trkpt lat="43.76222" lon="1.5629">
        <ele>214.935505</ele>
        <time>2022-08-12T07:10:11.362Z</time>
      </trkpt>
      <trkpt lat="43.76222" lon="1.56305">
        <ele>214.960815</ele>
        <time>2022-08-12T07:10:13.369Z</time>
      </trkpt>
      <trkpt lat="43.76221" lon="1.5632">
        <ele>214.98548</ele>
        <time>2022-08-12T07:10:15.355Z</time>
      </trkpt>
      <trkpt lat="43.76221" lon="1.56334">
        <ele>215.00952</ele>
        <time>2022-08-12T07:10:17.362Z</time>
      </trkpt>
      <trkpt lat="43.7622" lon="1.5635">
        <ele>215.035078</ele>
        <time>2022-08-12T07:10:19.401Z</time>
      </trkpt>
      <trkpt lat="43.7622" lon="1.56365">
        <ele>215.060569</ele>
        <time>2022-08-12T07:10:21.385Z</time>
      </trkpt>
      <trkpt lat="43.7622" lon="1.56381">
        <ele>215.086235</ele>
        <time>2022-08-12T07:10:23.369Z</time>
      </trkpt>
      <trkpt lat="43.7622" lon="1.56396">
        <ele>215.112056</ele>
        <time>2022-08-12T07:10:25.364Z</time>
      </trkpt>
      <trkpt lat="43.7622" lon="1.56412">
        <ele>215.138209</ele>
        <time>2022-08-12T07:10:27.370Z</time>
      </trkpt>
      <trkpt lat="43.76221" lon="1.56428">
        <ele>215.163866</ele>
        <time>2022-08-12T07:10:29.372Z</time>
      </trkpt>
      <trkpt lat="43.76221" lon="1.56443">
        <ele>215.189191</ele>
        <time>2022-08-12T07:10:31.369Z</time>
      </trkpt>
      <trkpt lat="43.76222" lon="1.56458">
        <ele>215.214373</ele>
        <time>2022-08-12T07:10:33.378Z</time>
      </trkpt>
      <trkpt lat="43.76222" lon="1.56473">
        <ele>215.239356</ele>
        <time>2022-08-12T07:10:35.365Z</time>
      </trkpt>
      <trkpt lat="43.76222" lon="1.56488">
        <ele>215.249432</ele>
        <time>2022-08-12T07:10:37.365Z</time>
      </trkpt>
      <trkpt lat="43.76223" lon="1.56503">
        <ele>215.168119</ele>
        <time>2022-08-12T07:10:39.356Z</time>
      </trkpt>
      <trkpt lat="43.76224" lon="1.56518">
        <ele>215.087998</ele>
        <time>2022-08-12T07:10:41.382Z</time>
      </trkpt>
      <trkpt lat="43.76224" lon="1.56532">
        <ele>215.010017</ele>
        <time>2022-08-12T07:10:43.358Z</time>
      </trkpt>
      <trkpt lat="43.76225" lon="1.56545">
        <ele>214.936597</ele>
        <time>2022-08-12T07:10:45.381Z</time>
      </trkpt>
      <trkpt lat="43.76224" lon="1.56558">
        <ele>214.864022</ele>
        <time>2022-08-12T07:10:47.374Z</time>
      </trkpt>
      <trkpt lat="43.76222" lon="1.56571">
        <ele>214.793634</ele>
        <time>2022-08-12T07:10:49.384Z</time>
      </trkpt>
      <trkpt lat="43.76218" lon="1.56588">
        <ele>214.69643</ele>
        <time>2022-08-12T07:10:52.376Z</time>
      </trkpt>
      <trkpt lat="43.76214" lon="1.56601">
        <ele>214.616623</ele>
        <time>2022-08-12T07:10:55.373Z</time>
      </trkpt>
      <trkpt lat="43.76214" lon="1.56618">
        <ele>214.524018</ele>
        <time>2022-08-12T07:11:03.365Z</time>
      </trkpt>
      <trkpt lat="43.76205" lon="1.56626">
        <ele>214.443521</ele>
        <time>2022-08-12T07:11:08.375Z</time>
      </trkpt>
      <trkpt lat="43.76206" lon="1.56639">
        <ele>214.371138</ele>
        <time>2022-08-12T07:11:12.389Z</time>
      </trkpt>
      <trkpt lat="43.76213" lon="1.5665">
        <ele>214.291036</ele>
        <time>2022-08-12T07:11:15.368Z</time>
      </trkpt>
      <trkpt lat="43.76209" lon="1.56664">
        <ele>214.21231</ele>
        <time>2022-08-12T07:11:18.367Z</time>
      </trkpt>
      <trkpt lat="43.76207" lon="1.5668">
        <ele>214.118764</ele>
        <time>2022-08-12T07:11:21.374Z</time>
      </trkpt>
      <trkpt lat="43.76205" lon="1.56694">
        <ele>214.044174</ele>
        <time>2022-08-12T07:11:23.360Z</time>
      </trkpt>
      <trkpt lat="43.76202" lon="1.56706">
        <ele>213.974368</ele>
        <time>2022-08-12T07:11:25.367Z</time>
      </trkpt>
      <trkpt lat="43.762" lon="1.5672">
        <ele>213.895396</ele>
        <time>2022-08-12T07:11:27.378Z</time>
      </trkpt>
      <trkpt lat="43.76199" lon="1.56736">
        <ele>213.708415</ele>
        <time>2022-08-12T07:11:29.372Z</time>
      </trkpt>
      <trkpt lat="43.76196" lon="1.56752">
        <ele>213.51639</ele>
        <time>2022-08-12T07:11:31.384Z</time>
      </trkpt>
      <trkpt lat="43.76192" lon="1.56767">
        <ele>213.327729</ele>
        <time>2022-08-12T07:11:33.370Z</time>
      </trkpt>
      <trkpt lat="43.76189" lon="1.56783">
        <ele>213.13121</ele>
        <time>2022-08-12T07:11:36.376Z</time>
      </trkpt>
      <trkpt lat="43.76188" lon="1.56801">
        <ele>212.923617</ele>
        <time>2022-08-12T07:11:40.389Z</time>
      </trkpt>
      <trkpt lat="43.76191" lon="1.56811">
        <ele>211.731589</ele>
        <time>2022-08-12T07:12:07.378Z</time>
      </trkpt>
      <trkpt lat="43.76183" lon="1.56822">
        <ele>211.551545</ele>
        <time>2022-08-12T07:12:12.368Z</time>
      </trkpt>
      <trkpt lat="43.76182" lon="1.56838">
        <ele>211.362523</ele>
        <time>2022-08-12T07:12:15.377Z</time>
      </trkpt>
      <trkpt lat="43.76179" lon="1.56854">
        <ele>211.177239</ele>
        <time>2022-08-12T07:12:18.380Z</time>
      </trkpt>
      <trkpt lat="43.76175" lon="1.56868">
        <ele>210.995298</ele>
        <time>2022-08-12T07:12:21.384Z</time>
      </trkpt>
      <trkpt lat="43.76167" lon="1.56876">
        <ele>211.122602</ele>
        <time>2022-08-12T07:12:24.381Z</time>
      </trkpt>
      <trkpt lat="43.76158" lon="1.56881">
        <ele>211.269866</ele>
        <time>2022-08-12T07:12:27.392Z</time>
      </trkpt>
      <trkpt lat="43.76148" lon="1.56884">
        <ele>211.443511</ele>
        <time>2022-08-12T07:12:30.393Z</time>
      </trkpt>
      <trkpt lat="43.76139" lon="1.56888">
        <ele>211.592666</ele>
        <time>2022-08-12T07:12:33.372Z</time>
      </trkpt>
      <trkpt lat="43.76129" lon="1.56893">
        <ele>211.769682</ele>
        <time>2022-08-12T07:12:36.387Z</time>
      </trkpt>
      <trkpt lat="43.76117" lon="1.56901">
        <ele>211.984516</ele>
        <time>2022-08-12T07:12:39.388Z</time>
      </trkpt>
      <trkpt lat="43.76108" lon="1.56908">
        <ele>212.144845</ele>
        <time>2022-08-12T07:12:43.381Z</time>
      </trkpt>
      <trkpt lat="43.76101" lon="1.56918">
        <ele>212.309656</ele>
        <time>2022-08-12T07:12:46.389Z</time>
      </trkpt>
      <trkpt lat="43.76091" lon="1.56923">
        <ele>212.486761</ele>
        <time>2022-08-12T07:12:49.381Z</time>
      </trkpt>
      <trkpt lat="43.7608" lon="1.56932">
        <ele>212.695038</ele>
        <time>2022-08-12T07:12:52.370Z</time>
      </trkpt>
      <trkpt lat="43.7607" lon="1.5694">
        <ele>212.88516</ele>
        <time>2022-08-12T07:12:56.400Z</time>
      </trkpt>
      <trkpt lat="43.76063" lon="1.56948">
        <ele>213.031891</ele>
        <time>2022-08-12T07:12:59.370Z</time>
      </trkpt>
      <trkpt lat="43.76054" lon="1.56954">
        <ele>213.19193</ele>
        <time>2022-08-12T07:13:02.368Z</time>
      </trkpt>
      <trkpt lat="43.76048" lon="1.56964">
        <ele>213.343074</ele>
        <time>2022-08-12T07:13:03.376Z</time>
      </trkpt>
      <trkpt lat="43.76041" lon="1.56973">
        <ele>213.492044</ele>
        <time>2022-08-12T07:13:05.373Z</time>
      </trkpt>
      <trkpt lat="43.76035" lon="1.56983">
        <ele>213.64094</ele>
        <time>2022-08-12T07:13:07.388Z</time>
      </trkpt>
      <trkpt lat="43.76023" lon="1.56995">
        <ele>213.885783</ele>
        <time>2022-08-12T07:13:13.367Z</time>
      </trkpt>
      <trkpt lat="43.76013" lon="1.57018">
        <ele>214.483618</ele>
        <time>2022-08-12T07:13:37.401Z</time>
      </trkpt>
      <trkpt lat="43.76013" lon="1.57013">
        <ele>217.450908</ele>
        <time>2022-08-12T07:17:17.377Z</time>
      </trkpt>
      <trkpt lat="43.76027" lon="1.57032">
        <ele>217.32102</ele>
        <time>2022-08-12T07:17:56.386Z</time>
      </trkpt>
      <trkpt lat="43.76033" lon="1.57044">
        <ele>217.252449</ele>
        <time>2022-08-12T07:17:58.395Z</time>
      </trkpt>
      <trkpt lat="43.76038" lon="1.57056">
        <ele>217.183462</ele>
        <time>2022-08-12T07:18:00.379Z</time>
      </trkpt>
      <trkpt lat="43.76043" lon="1.57067">
        <ele>217.119867</ele>
        <time>2022-08-12T07:18:02.384Z</time>
      </trkpt>
      <trkpt lat="43.76048" lon="1.57078">
        <ele>217.059356</ele>
        <time>2022-08-12T07:18:04.375Z</time>
      </trkpt>
      <trkpt lat="43.76054" lon="1.5709">
        <ele>216.99174</ele>
        <time>2022-08-12T07:18:06.376Z</time>
      </trkpt>
      <trkpt lat="43.76059" lon="1.57103">
        <ele>216.813498</ele>
        <time>2022-08-12T07:18:08.375Z</time>
      </trkpt>
      <trkpt lat="43.76065" lon="1.57115">
        <ele>216.641241</ele>
        <time>2022-08-12T07:18:10.376Z</time>
      </trkpt>
      <trkpt lat="43.7607" lon="1.57128">
        <ele>216.454202</ele>
        <time>2022-08-12T07:18:12.370Z</time>
      </trkpt>
      <trkpt lat="43.76075" lon="1.5714">
        <ele>216.287385</ele>
        <time>2022-08-12T07:18:14.359Z</time>
      </trkpt>
      <trkpt lat="43.76084" lon="1.57134">
        <ele>216.132777</ele>
        <time>2022-08-12T07:18:20.376Z</time>
      </trkpt>
      <trkpt lat="43.76091" lon="1.5712">
        <ele>215.928064</ele>
        <time>2022-08-12T07:18:24.388Z</time>
      </trkpt>
      <trkpt lat="43.761" lon="1.57107">
        <ele>215.711048</ele>
        <time>2022-08-12T07:18:27.378Z</time>
      </trkpt>
      <trkpt lat="43.76107" lon="1.57099">
        <ele>215.557115</ele>
        <time>2022-08-12T07:18:29.370Z</time>
      </trkpt>
      <trkpt lat="43.76116" lon="1.57092">
        <ele>215.391579</ele>
        <time>2022-08-12T07:18:31.375Z</time>
      </trkpt>
      <trkpt lat="43.76124" lon="1.57083">
        <ele>215.22615</ele>
        <time>2022-08-12T07:18:33.398Z</time>
      </trkpt>
      <trkpt lat="43.76132" lon="1.57075">
        <ele>215.053205</ele>
        <time>2022-08-12T07:18:35.368Z</time>
      </trkpt>
      <trkpt lat="43.7614" lon="1.57064">
        <ele>214.869946</ele>
        <time>2022-08-12T07:18:37.372Z</time>
      </trkpt>
      <trkpt lat="43.76149" lon="1.57052">
        <ele>214.665008</ele>
        <time>2022-08-12T07:18:39.375Z</time>
      </trkpt>
      <trkpt lat="43.76159" lon="1.57043">
        <ele>214.466425</ele>
        <time>2022-08-12T07:18:41.380Z</time>
      </trkpt>
      <trkpt lat="43.76171" lon="1.57034">
        <ele>214.240857</ele>
        <time>2022-08-12T07:18:43.375Z</time>
      </trkpt>
      <trkpt lat="43.76182" lon="1.57027">
        <ele>214.051233</ele>
        <time>2022-08-12T07:18:45.381Z</time>
      </trkpt>
      <trkpt lat="43.7619" lon="1.57029">
        <ele>214.157233</ele>
        <time>2022-08-12T07:19:48.377Z</time>
      </trkpt>
      <trkpt lat="43.76196" lon="1.57044">
        <ele>214.170406</ele>
        <time>2022-08-12T07:20:01.383Z</time>
      </trkpt>
      <trkpt lat="43.76203" lon="1.57055">
        <ele>214.181386</ele>
        <time>2022-08-12T07:20:04.393Z</time>
      </trkpt>
      <trkpt lat="43.7621" lon="1.57067">
        <ele>214.193155</ele>
        <time>2022-08-12T07:20:07.370Z</time>
      </trkpt>
      <trkpt lat="43.76216" lon="1.57077">
        <ele>214.203551</ele>
        <time>2022-08-12T07:20:10.375Z</time>
      </trkpt>
      <trkpt lat="43.76228" lon="1.57101">
        <ele>214.36594</ele>
        <time>2022-08-12T07:20:26.375Z</time>
      </trkpt>
      <trkpt lat="43.76239" lon="1.5711">
        <ele>214.555335</ele>
        <time>2022-08-12T07:20:29.383Z</time>
      </trkpt>
      <trkpt lat="43.76249" lon="1.57121">
        <ele>214.747432</ele>
        <time>2022-08-12T07:20:32.359Z</time>
      </trkpt>
      <trkpt lat="43.76257" lon="1.57137">
        <ele>214.957379</ele>
        <time>2022-08-12T07:20:35.370Z</time>
      </trkpt>
      <trkpt lat="43.7626" lon="1.5715">
        <ele>215.105454</ele>
        <time>2022-08-12T07:20:37.361Z</time>
      </trkpt>
      <trkpt lat="43.76259" lon="1.57166">
        <ele>215.283433</ele>
        <time>2022-08-12T07:20:39.372Z</time>
      </trkpt>
      <trkpt lat="43.76257" lon="1.57179">
        <ele>215.424928</ele>
        <time>2022-08-12T07:20:41.376Z</time>
      </trkpt>
      <trkpt lat="43.76258" lon="1.57194">
        <ele>215.596018</ele>
        <time>2022-08-12T07:20:44.379Z</time>
      </trkpt>
      <trkpt lat="43.7627" lon="1.57198">
        <ele>215.779444</ele>
        <time>2022-08-12T07:20:49.378Z</time>
      </trkpt>
      <trkpt lat="43.76279" lon="1.57193">
        <ele>215.918697</ele>
        <time>2022-08-12T07:20:51.361Z</time>
      </trkpt>
      <trkpt lat="43.76289" lon="1.57187">
        <ele>216.089774</ele>
        <time>2022-08-12T07:20:54.363Z</time>
      </trkpt>
      <trkpt lat="43.76301" lon="1.57185">
        <ele>216.266731</ele>
        <time>2022-08-12T07:20:57.370Z</time>
      </trkpt>
      <trkpt lat="43.76311" lon="1.57183">
        <ele>216.430892</ele>
        <time>2022-08-12T07:21:00.369Z</time>
      </trkpt>
      <trkpt lat="43.76325" lon="1.57183">
        <ele>216.633491</ele>
        <time>2022-08-12T07:21:03.379Z</time>
      </trkpt>
      <trkpt lat="43.76334" lon="1.57183">
        <ele>216.774201</ele>
        <time>2022-08-12T07:21:05.376Z</time>
      </trkpt>
      <trkpt lat="43.76343" lon="1.57183">
        <ele>216.911737</ele>
        <time>2022-08-12T07:21:07.349Z</time>
      </trkpt>
      <trkpt lat="43.76352" lon="1.57182">
        <ele>216.791014</ele>
        <time>2022-08-12T07:21:09.381Z</time>
      </trkpt>
      <trkpt lat="43.76362" lon="1.5718">
        <ele>216.619365</ele>
        <time>2022-08-12T07:21:11.364Z</time>
      </trkpt>
      <trkpt lat="43.76371" lon="1.57179">
        <ele>216.447855</ele>
        <time>2022-08-12T07:21:13.372Z</time>
      </trkpt>
      <trkpt lat="43.76384" lon="1.57177">
        <ele>216.20826</ele>
        <time>2022-08-12T07:21:16.376Z</time>
      </trkpt>
      <trkpt lat="43.76397" lon="1.57176">
        <ele>215.965445</ele>
        <time>2022-08-12T07:21:19.374Z</time>
      </trkpt>
      <trkpt lat="43.76406" lon="1.57175">
        <ele>215.798388</ele>
        <time>2022-08-12T07:21:21.382Z</time>
      </trkpt>
      <trkpt lat="43.76418" lon="1.57191">
        <ele>212.437767</ele>
        <time>2022-08-12T07:23:56.402Z</time>
      </trkpt>
      <trkpt lat="43.76424" lon="1.57202">
        <ele>212.413685</ele>
        <time>2022-08-12T07:23:58.394Z</time>
      </trkpt>
      <trkpt lat="43.7643" lon="1.57215">
        <ele>212.387954</ele>
        <time>2022-08-12T07:24:00.375Z</time>
      </trkpt>
      <trkpt lat="43.76436" lon="1.57229">
        <ele>212.36071</ele>
        <time>2022-08-12T07:24:02.379Z</time>
      </trkpt>
      <trkpt lat="43.76444" lon="1.57241">
        <ele>212.333395</ele>
        <time>2022-08-12T07:24:04.362Z</time>
      </trkpt>
      <trkpt lat="43.76452" lon="1.57256">
        <ele>212.302246</ele>
        <time>2022-08-12T07:24:06.365Z</time>
      </trkpt>
      <trkpt lat="43.7646" lon="1.57271">
        <ele>212.271263</ele>
        <time>2022-08-12T07:24:08.383Z</time>
      </trkpt>
      <trkpt lat="43.76467" lon="1.57284">
        <ele>212.243395</ele>
        <time>2022-08-12T07:24:10.393Z</time>
      </trkpt>
      <trkpt lat="43.76474" lon="1.57297">
        <ele>212.21715</ele>
        <time>2022-08-12T07:24:12.377Z</time>
      </trkpt>
      <trkpt lat="43.7648" lon="1.57307">
        <ele>212.195197</ele>
        <time>2022-08-12T07:24:14.374Z</time>
      </trkpt>
      <trkpt lat="43.76478" lon="1.5732">
        <ele>212.173764</ele>
        <time>2022-08-12T07:24:19.381Z</time>
      </trkpt>
      <trkpt lat="43.7647" lon="1.5733">
        <ele>212.14824</ele>
        <time>2022-08-12T07:24:25.382Z</time>
      </trkpt>
      <trkpt lat="43.76462" lon="1.57339">
        <ele>212.123733</ele>
        <time>2022-08-12T07:24:28.376Z</time>
      </trkpt>
      <trkpt lat="43.76453" lon="1.57344">
        <ele>212.105104</ele>
        <time>2022-08-12T07:24:30.363Z</time>
      </trkpt>
      <trkpt lat="43.76451" lon="1.57361">
        <ele>212.154183</ele>
        <time>2022-08-12T07:24:33.386Z</time>
      </trkpt>
      <trkpt lat="43.76449" lon="1.57374">
        <ele>212.192637</ele>
        <time>2022-08-12T07:24:35.381Z</time>
      </trkpt>
      <trkpt lat="43.76445" lon="1.57392">
        <ele>212.24473</ele>
        <time>2022-08-12T07:24:37.381Z</time>
      </trkpt>
      <trkpt lat="43.76442" lon="1.57408">
        <ele>212.292343</ele>
        <time>2022-08-12T07:24:39.364Z</time>
      </trkpt>
      <trkpt lat="43.76439" lon="1.57422">
        <ele>212.335697</ele>
        <time>2022-08-12T07:24:41.385Z</time>
      </trkpt>
      <trkpt lat="43.76436" lon="1.57437">
        <ele>212.378782</ele>
        <time>2022-08-12T07:24:43.376Z</time>
      </trkpt>
      <trkpt lat="43.76433" lon="1.57451">
        <ele>212.420833</ele>
        <time>2022-08-12T07:24:45.396Z</time>
      </trkpt>
      <trkpt lat="43.76432" lon="1.57466">
        <ele>212.4649</ele>
        <time>2022-08-12T07:24:47.379Z</time>
      </trkpt>
      <trkpt lat="43.76432" lon="1.57482">
        <ele>212.508742</ele>
        <time>2022-08-12T07:24:49.381Z</time>
      </trkpt>
      <trkpt lat="43.76431" lon="1.57497">
        <ele>212.552384</ele>
        <time>2022-08-12T07:24:51.385Z</time>
      </trkpt>
      <trkpt lat="43.76426" lon="1.57509">
        <ele>212.590617</ele>
        <time>2022-08-12T07:24:53.378Z</time>
      </trkpt>
      <trkpt lat="43.76419" lon="1.57523">
        <ele>212.641372</ele>
        <time>2022-08-12T07:24:56.383Z</time>
      </trkpt>
      <trkpt lat="43.76417" lon="1.57536">
        <ele>212.678716</ele>
        <time>2022-08-12T07:24:58.390Z</time>
      </trkpt>
      <trkpt lat="43.76413" lon="1.57553">
        <ele>212.728572</ele>
        <time>2022-08-12T07:25:00.362Z</time>
      </trkpt>
      <trkpt lat="43.7641" lon="1.57568">
        <ele>212.773528</ele>
        <time>2022-08-12T07:25:02.381Z</time>
      </trkpt>
      <trkpt lat="43.76407" lon="1.57583">
        <ele>212.815789</ele>
        <time>2022-08-12T07:25:04.372Z</time>
      </trkpt>
      <trkpt lat="43.76405" lon="1.57597">
        <ele>212.846239</ele>
        <time>2022-08-12T07:25:06.379Z</time>
      </trkpt>
      <trkpt lat="43.76403" lon="1.57613">
        <ele>212.880394</ele>
        <time>2022-08-12T07:25:08.373Z</time>
      </trkpt>
      <trkpt lat="43.76401" lon="1.5763">
        <ele>212.916679</ele>
        <time>2022-08-12T07:25:10.387Z</time>
      </trkpt>
      <trkpt lat="43.76399" lon="1.57644">
        <ele>212.947061</ele>
        <time>2022-08-12T07:25:12.403Z</time>
      </trkpt>
      <trkpt lat="43.76398" lon="1.57659">
        <ele>212.978159</ele>
        <time>2022-08-12T07:25:14.388Z</time>
      </trkpt>
      <trkpt lat="43.76397" lon="1.57676">
        <ele>213.013095</ele>
        <time>2022-08-12T07:25:16.380Z</time>
      </trkpt>
      <trkpt lat="43.76396" lon="1.57692">
        <ele>213.048406</ele>
        <time>2022-08-12T07:25:18.368Z</time>
      </trkpt>
      <trkpt lat="43.76395" lon="1.57708">
        <ele>213.081437</ele>
        <time>2022-08-12T07:25:20.380Z</time>
      </trkpt>
      <trkpt lat="43.76392" lon="1.57723">
        <ele>213.113928</ele>
        <time>2022-08-12T07:25:22.364Z</time>
      </trkpt>
      <trkpt lat="43.76388" lon="1.57736">
        <ele>213.142966</ele>
        <time>2022-08-12T07:25:24.388Z</time>
      </trkpt>
      <trkpt lat="43.76386" lon="1.57754">
        <ele>213.182494</ele>
        <time>2022-08-12T07:25:27.387Z</time>
      </trkpt>
      <trkpt lat="43.7638" lon="1.57774">
        <ele>213.22642</ele>
        <time>2022-08-12T07:25:30.367Z</time>
      </trkpt>
      <trkpt lat="43.76379" lon="1.57787">
        <ele>213.255271</ele>
        <time>2022-08-12T07:25:32.385Z</time>
      </trkpt>
      <trkpt lat="43.76385" lon="1.57801">
        <ele>213.288069</ele>
        <time>2022-08-12T07:25:34.385Z</time>
      </trkpt>
      <trkpt lat="43.76391" lon="1.57814">
        <ele>213.320805</ele>
        <time>2022-08-12T07:25:36.396Z</time>
      </trkpt>
      <trkpt lat="43.76398" lon="1.5783">
        <ele>213.457497</ele>
        <time>2022-08-12T07:25:38.384Z</time>
      </trkpt>
      <trkpt lat="43.76405" lon="1.57844">
        <ele>213.616643</ele>
        <time>2022-08-12T07:25:40.371Z</time>
      </trkpt>
      <trkpt lat="43.76411" lon="1.57858">
        <ele>213.768594</ele>
        <time>2022-08-12T07:25:42.364Z</time>
      </trkpt>
      <trkpt lat="43.76417" lon="1.57871">
        <ele>213.912658</ele>
        <time>2022-08-12T07:25:44.363Z</time>
      </trkpt>
      <trkpt lat="43.76423" lon="1.57884">
        <ele>214.070332</ele>
        <time>2022-08-12T07:25:46.372Z</time>
      </trkpt>
      <trkpt lat="43.7643" lon="1.57898">
        <ele>214.230979</ele>
        <time>2022-08-12T07:25:48.380Z</time>
      </trkpt>
      <trkpt lat="43.76437" lon="1.5791">
        <ele>214.372311</ele>
        <time>2022-08-12T07:25:50.369Z</time>
      </trkpt>
      <trkpt lat="43.76443" lon="1.57923">
        <ele>214.51688</ele>
        <time>2022-08-12T07:25:52.367Z</time>
      </trkpt>
      <trkpt lat="43.76449" lon="1.57935">
        <ele>214.658222</ele>
        <time>2022-08-12T07:25:54.372Z</time>
      </trkpt>
      <trkpt lat="43.76458" lon="1.57945">
        <ele>214.806588</ele>
        <time>2022-08-12T07:25:57.351Z</time>
      </trkpt>
      <trkpt lat="43.7647" lon="1.57937">
        <ele>214.982276</ele>
        <time>2022-08-12T07:26:00.369Z</time>
      </trkpt>
      <trkpt lat="43.76478" lon="1.5793">
        <ele>215.1136</ele>
        <time>2022-08-12T07:26:02.379Z</time>
      </trkpt>
      <trkpt lat="43.76487" lon="1.57923">
        <ele>215.242614</ele>
        <time>2022-08-12T07:26:05.376Z</time>
      </trkpt>
      <trkpt lat="43.76496" lon="1.57926">
        <ele>215.370529</ele>
        <time>2022-08-12T07:26:09.372Z</time>
      </trkpt>
      <trkpt lat="43.76504" lon="1.57934">
        <ele>215.499135</ele>
        <time>2022-08-12T07:26:12.359Z</time>
      </trkpt>
      <trkpt lat="43.76513" lon="1.57946">
        <ele>215.663261</ele>
        <time>2022-08-12T07:26:15.375Z</time>
      </trkpt>
      <trkpt lat="43.76519" lon="1.57957">
        <ele>215.577626</ele>
        <time>2022-08-12T07:26:17.366Z</time>
      </trkpt>
      <trkpt lat="43.76525" lon="1.57967">
        <ele>215.390335</ele>
        <time>2022-08-12T07:26:19.372Z</time>
      </trkpt>
      <trkpt lat="43.76529" lon="1.57979">
        <ele>215.19328</ele>
        <time>2022-08-12T07:26:21.379Z</time>
      </trkpt>
      <trkpt lat="43.76529" lon="1.57994">
        <ele>214.962115</ele>
        <time>2022-08-12T07:26:23.372Z</time>
      </trkpt>
      <trkpt lat="43.76532" lon="1.5801">
        <ele>214.720231</ele>
        <time>2022-08-12T07:26:25.375Z</time>
      </trkpt>
      <trkpt lat="43.76534" lon="1.58025">
        <ele>214.494157</ele>
        <time>2022-08-12T07:26:27.365Z</time>
      </trkpt>
      <trkpt lat="43.76538" lon="1.58039">
        <ele>214.273251</ele>
        <time>2022-08-12T07:26:29.368Z</time>
      </trkpt>
      <trkpt lat="43.76542" lon="1.58052">
        <ele>214.06399</ele>
        <time>2022-08-12T07:26:31.366Z</time>
      </trkpt>
      <trkpt lat="43.76546" lon="1.58067">
        <ele>213.832991</ele>
        <time>2022-08-12T07:26:33.384Z</time>
      </trkpt>
      <trkpt lat="43.76552" lon="1.58077">
        <ele>213.638498</ele>
        <time>2022-08-12T07:26:35.384Z</time>
      </trkpt>
      <trkpt lat="43.76562" lon="1.58085">
        <ele>213.398843</ele>
        <time>2022-08-12T07:26:37.363Z</time>
      </trkpt>
      <trkpt lat="43.76572" lon="1.58089">
        <ele>213.184985</ele>
        <time>2022-08-12T07:26:39.370Z</time>
      </trkpt>
      <trkpt lat="43.76581" lon="1.58095">
        <ele>212.987981</ele>
        <time>2022-08-12T07:26:41.367Z</time>
      </trkpt>
      <trkpt lat="43.76592" lon="1.58102">
        <ele>212.732711</ele>
        <time>2022-08-12T07:26:43.376Z</time>
      </trkpt>
      <trkpt lat="43.76603" lon="1.58109">
        <ele>212.476991</ele>
        <time>2022-08-12T07:26:45.370Z</time>
      </trkpt>
      <trkpt lat="43.76617" lon="1.58116">
        <ele>212.175979</ele>
        <time>2022-08-12T07:26:47.378Z</time>
      </trkpt>
      <trkpt lat="43.76631" lon="1.58115">
        <ele>211.927711</ele>
        <time>2022-08-12T07:26:49.347Z</time>
      </trkpt>
      <trkpt lat="43.76644" lon="1.58113">
        <ele>211.727463</ele>
        <time>2022-08-12T07:26:51.364Z</time>
      </trkpt>
      <trkpt lat="43.76657" lon="1.58116">
        <ele>211.533995</ele>
        <time>2022-08-12T07:26:53.366Z</time>
      </trkpt>
      <trkpt lat="43.76671" lon="1.58115">
        <ele>211.340452</ele>
        <time>2022-08-12T07:26:55.373Z</time>
      </trkpt>
      <trkpt lat="43.7668" lon="1.58105">
        <ele>211.165858</ele>
        <time>2022-08-12T07:26:57.379Z</time>
      </trkpt>
      <trkpt lat="43.76686" lon="1.58094">
        <ele>211.02043</ele>
        <time>2022-08-12T07:26:59.377Z</time>
      </trkpt>
      <trkpt lat="43.76696" lon="1.5808">
        <ele>210.814476</ele>
        <time>2022-08-12T07:27:01.370Z</time>
      </trkpt>
      <trkpt lat="43.76703" lon="1.58069">
        <ele>210.656292</ele>
        <time>2022-08-12T07:27:03.373Z</time>
      </trkpt>
      <trkpt lat="43.76711" lon="1.5806">
        <ele>210.498508</ele>
        <time>2022-08-12T07:27:05.384Z</time>
      </trkpt>
      <trkpt lat="43.76719" lon="1.58047">
        <ele>210.312217</ele>
        <time>2022-08-12T07:27:07.362Z</time>
      </trkpt>
      <trkpt lat="43.76727" lon="1.58036">
        <ele>210.147171</ele>
        <time>2022-08-12T07:27:09.372Z</time>
      </trkpt>
      <trkpt lat="43.76734" lon="1.58025">
        <ele>209.991153</ele>
        <time>2022-08-12T07:27:11.369Z</time>
      </trkpt>
      <trkpt lat="43.76742" lon="1.58016">
        <ele>209.843199</ele>
        <time>2022-08-12T07:27:13.379Z</time>
      </trkpt>
      <trkpt lat="43.7675" lon="1.58008">
        <ele>209.688127</ele>
        <time>2022-08-12T07:27:15.375Z</time>
      </trkpt>
      <trkpt lat="43.76757" lon="1.57998">
        <ele>209.544164</ele>
        <time>2022-08-12T07:27:17.380Z</time>
      </trkpt>
      <trkpt lat="43.7676" lon="1.57981">
        <ele>209.360869</ele>
        <time>2022-08-12T07:27:20.391Z</time>
      </trkpt>
      <trkpt lat="43.76766" lon="1.57965">
        <ele>209.331575</ele>
        <time>2022-08-12T07:27:23.369Z</time>
      </trkpt>
      <trkpt lat="43.76772" lon="1.57948">
        <ele>209.299107</ele>
        <time>2022-08-12T07:27:25.380Z</time>
      </trkpt>
      <trkpt lat="43.76776" lon="1.57937">
        <ele>209.277182</ele>
        <time>2022-08-12T07:27:27.374Z</time>
      </trkpt>
      <trkpt lat="43.76785" lon="1.57925">
        <ele>209.247325</ele>
        <time>2022-08-12T07:27:30.371Z</time>
      </trkpt>
      <trkpt lat="43.76792" lon="1.57916">
        <ele>209.2245</ele>
        <time>2022-08-12T07:27:33.367Z</time>
      </trkpt>
      <trkpt lat="43.768" lon="1.57907">
        <ele>209.199487</ele>
        <time>2022-08-12T07:27:36.380Z</time>
      </trkpt>
      <trkpt lat="43.76809" lon="1.57901">
        <ele>209.17687</ele>
        <time>2022-08-12T07:27:40.375Z</time>
      </trkpt>
      <trkpt lat="43.76819" lon="1.57891">
        <ele>209.147834</ele>
        <time>2022-08-12T07:27:45.366Z</time>
      </trkpt>
      <trkpt lat="43.76826" lon="1.5788">
        <ele>209.123234</ele>
        <time>2022-08-12T07:27:48.367Z</time>
      </trkpt>
      <trkpt lat="43.76833" lon="1.57873">
        <ele>209.101944</ele>
        <time>2022-08-12T07:27:50.367Z</time>
      </trkpt>
      <trkpt lat="43.76841" lon="1.57865">
        <ele>209.078507</ele>
        <time>2022-08-12T07:27:53.374Z</time>
      </trkpt>
      <trkpt lat="43.7685" lon="1.57853">
        <ele>209.049181</ele>
        <time>2022-08-12T07:28:02.373Z</time>
      </trkpt>
      <trkpt lat="43.76857" lon="1.57843">
        <ele>209.024711</ele>
        <time>2022-08-12T07:28:04.373Z</time>
      </trkpt>
      <trkpt lat="43.76864" lon="1.57831">
        <ele>208.999308</ele>
        <time>2022-08-12T07:28:06.376Z</time>
      </trkpt>
      <trkpt lat="43.7687" lon="1.57822">
        <ele>208.97791</ele>
        <time>2022-08-12T07:28:08.373Z</time>
      </trkpt>
      <trkpt lat="43.7688" lon="1.57812">
        <ele>208.948064</ele>
        <time>2022-08-12T07:28:12.386Z</time>
      </trkpt>
      <trkpt lat="43.76891" lon="1.57804">
        <ele>208.896449</ele>
        <time>2022-08-12T07:28:14.374Z</time>
      </trkpt>
      <trkpt lat="43.76899" lon="1.57796">
        <ele>208.842277</ele>
        <time>2022-08-12T07:28:16.373Z</time>
      </trkpt>
      <trkpt lat="43.76909" lon="1.57786">
        <ele>208.779422</ele>
        <time>2022-08-12T07:28:19.394Z</time>
      </trkpt>
      <trkpt lat="43.76914" lon="1.57774">
        <ele>208.722954</ele>
        <time>2022-08-12T07:28:24.377Z</time>
      </trkpt>
      <trkpt lat="43.7692" lon="1.57761">
        <ele>208.664302</ele>
        <time>2022-08-12T07:28:26.374Z</time>
      </trkpt>
      <trkpt lat="43.76926" lon="1.57748">
        <ele>208.601892</ele>
        <time>2022-08-12T07:28:28.380Z</time>
      </trkpt>
      <trkpt lat="43.76934" lon="1.57737">
        <ele>208.5411</ele>
        <time>2022-08-12T07:28:30.363Z</time>
      </trkpt>
      <trkpt lat="43.7694" lon="1.57723">
        <ele>208.479123</ele>
        <time>2022-08-12T07:28:32.365Z</time>
      </trkpt>
      <trkpt lat="43.76947" lon="1.57711">
        <ele>208.41447</ele>
        <time>2022-08-12T07:28:34.384Z</time>
      </trkpt>
      <trkpt lat="43.76956" lon="1.57702">
        <ele>208.354531</ele>
        <time>2022-08-12T07:28:36.371Z</time>
      </trkpt>
      <trkpt lat="43.76965" lon="1.57693">
        <ele>208.293922</ele>
        <time>2022-08-12T07:28:38.366Z</time>
      </trkpt>
      <trkpt lat="43.76973" lon="1.57686">
        <ele>208.241143</ele>
        <time>2022-08-12T07:28:41.356Z</time>
      </trkpt>
      <trkpt lat="43.76985" lon="1.57683">
        <ele>208.175254</ele>
        <time>2022-08-12T07:28:44.385Z</time>
      </trkpt>
      <trkpt lat="43.76995" lon="1.57683">
        <ele>208.121939</ele>
        <time>2022-08-12T07:28:46.352Z</time>
      </trkpt>
      <trkpt lat="43.77003" lon="1.57675">
        <ele>208.069621</ele>
        <time>2022-08-12T07:28:48.386Z</time>
      </trkpt>
      <trkpt lat="43.77008" lon="1.5766">
        <ele>208.002722</ele>
        <time>2022-08-12T07:28:51.366Z</time>
      </trkpt>
      <trkpt lat="43.7702" lon="1.57654">
        <ele>207.898388</ele>
        <time>2022-08-12T07:28:54.365Z</time>
      </trkpt>
      <trkpt lat="43.77028" lon="1.57649">
        <ele>207.757362</ele>
        <time>2022-08-12T07:28:57.355Z</time>
      </trkpt>
      <trkpt lat="43.77036" lon="1.57645">
        <ele>206.090811</ele>
        <time>2022-08-12T07:29:32.390Z</time>
      </trkpt>
      <trkpt lat="43.77046" lon="1.57644">
        <ele>205.936341</ele>
        <time>2022-08-12T07:29:34.370Z</time>
      </trkpt>
      <trkpt lat="43.77057" lon="1.57642">
        <ele>205.769288</ele>
        <time>2022-08-12T07:29:36.373Z</time>
      </trkpt>
      <trkpt lat="43.7707" lon="1.57633">
        <ele>205.561443</ele>
        <time>2022-08-12T07:29:38.355Z</time>
      </trkpt>
      <trkpt lat="43.77082" lon="1.57625">
        <ele>205.355039</ele>
        <time>2022-08-12T07:29:40.370Z</time>
      </trkpt>
      <trkpt lat="43.77091" lon="1.57613">
        <ele>205.266339</ele>
        <time>2022-08-12T07:29:42.392Z</time>
      </trkpt>
      <trkpt lat="43.77099" lon="1.57601">
        <ele>205.331537</ele>
        <time>2022-08-12T07:29:44.389Z</time>
      </trkpt>
      <trkpt lat="43.77109" lon="1.5759">
        <ele>205.400015</ele>
        <time>2022-08-12T07:29:46.380Z</time>
      </trkpt>
      <trkpt lat="43.7712" lon="1.57581">
        <ele>205.467016</ele>
        <time>2022-08-12T07:29:48.376Z</time>
      </trkpt>
      <trkpt lat="43.7713" lon="1.57574">
        <ele>205.528139</ele>
        <time>2022-08-12T07:29:50.376Z</time>
      </trkpt>
      <trkpt lat="43.77141" lon="1.57569">
        <ele>205.589446</ele>
        <time>2022-08-12T07:29:52.381Z</time>
      </trkpt>
      <trkpt lat="43.77148" lon="1.57557">
        <ele>205.651391</ele>
        <time>2022-08-12T07:29:54.363Z</time>
      </trkpt>
      <trkpt lat="43.7715" lon="1.57542">
        <ele>205.712787</ele>
        <time>2022-08-12T07:29:56.370Z</time>
      </trkpt>
      <trkpt lat="43.77158" lon="1.57527">
        <ele>205.780455</ele>
        <time>2022-08-12T07:29:59.381Z</time>
      </trkpt>
      <trkpt lat="43.77168" lon="1.57516">
        <ele>205.852061</ele>
        <time>2022-08-12T07:30:02.379Z</time>
      </trkpt>
      <trkpt lat="43.77178" lon="1.57512">
        <ele>205.907571</ele>
        <time>2022-08-12T07:30:04.373Z</time>
      </trkpt>
      <trkpt lat="43.77186" lon="1.57504">
        <ele>205.962626</ele>
        <time>2022-08-12T07:30:06.359Z</time>
      </trkpt>
      <trkpt lat="43.77191" lon="1.57493">
        <ele>206.013847</ele>
        <time>2022-08-12T07:30:08.379Z</time>
      </trkpt>
      <trkpt lat="43.772" lon="1.57486">
        <ele>206.068646</ele>
        <time>2022-08-12T07:30:10.364Z</time>
      </trkpt>
      <trkpt lat="43.77209" lon="1.57481">
        <ele>206.118017</ele>
        <time>2022-08-12T07:30:12.389Z</time>
      </trkpt>
      <trkpt lat="43.77216" lon="1.57471">
        <ele>206.177028</ele>
        <time>2022-08-12T07:30:14.368Z</time>
      </trkpt>
      <trkpt lat="43.77225" lon="1.5746">
        <ele>206.257823</ele>
        <time>2022-08-12T07:30:17.365Z</time>
      </trkpt>
      <trkpt lat="43.77234" lon="1.57456">
        <ele>206.339764</ele>
        <time>2022-08-12T07:30:20.384Z</time>
      </trkpt>
      <trkpt lat="43.77246" lon="1.57447">
        <ele>206.450232</ele>
        <time>2022-08-12T07:30:23.383Z</time>
      </trkpt>
      <trkpt lat="43.77256" lon="1.57439">
        <ele>206.54672</ele>
        <time>2022-08-12T07:30:25.369Z</time>
      </trkpt>
      <trkpt lat="43.77266" lon="1.57433">
        <ele>206.642403</ele>
        <time>2022-08-12T07:30:27.369Z</time>
      </trkpt>
      <trkpt lat="43.77278" lon="1.57424">
        <ele>206.760805</ele>
        <time>2022-08-12T07:30:29.383Z</time>
      </trkpt>
      <trkpt lat="43.77289" lon="1.57419">
        <ele>206.853154</ele>
        <time>2022-08-12T07:30:31.382Z</time>
      </trkpt>
      <trkpt lat="43.77299" lon="1.57416">
        <ele>206.945346</ele>
        <time>2022-08-12T07:30:33.363Z</time>
      </trkpt>
      <trkpt lat="43.77309" lon="1.57412">
        <ele>207.033889</ele>
        <time>2022-08-12T07:30:35.378Z</time>
      </trkpt>
      <trkpt lat="43.77319" lon="1.57409">
        <ele>207.123805</ele>
        <time>2022-08-12T07:30:37.373Z</time>
      </trkpt>
      <trkpt lat="43.77332" lon="1.57403">
        <ele>207.234237</ele>
        <time>2022-08-12T07:30:39.377Z</time>
      </trkpt>
      <trkpt lat="43.77342" lon="1.57393">
        <ele>207.343291</ele>
        <time>2022-08-12T07:30:41.368Z</time>
      </trkpt>
      <trkpt lat="43.77352" lon="1.57383">
        <ele>207.44829</ele>
        <time>2022-08-12T07:30:43.386Z</time>
      </trkpt>
      <trkpt lat="43.77364" lon="1.57375">
        <ele>207.554763</ele>
        <time>2022-08-12T07:30:46.380Z</time>
      </trkpt>
      <trkpt lat="43.77374" lon="1.57371">
        <ele>207.649532</ele>
        <time>2022-08-12T07:30:49.370Z</time>
      </trkpt>
      <trkpt lat="43.77383" lon="1.57367">
        <ele>207.729468</ele>
        <time>2022-08-12T07:30:51.386Z</time>
      </trkpt>
      <trkpt lat="43.77394" lon="1.57369">
        <ele>207.574268</ele>
        <time>2022-08-12T07:30:53.371Z</time>
      </trkpt>
      <trkpt lat="43.77403" lon="1.57376">
        <ele>207.399751</ele>
        <time>2022-08-12T07:30:55.382Z</time>
      </trkpt>
      <trkpt lat="43.77414" lon="1.57369">
        <ele>207.193928</ele>
        <time>2022-08-12T07:30:57.390Z</time>
      </trkpt>
      <trkpt lat="43.77425" lon="1.57361">
        <ele>206.971494</ele>
        <time>2022-08-12T07:30:59.383Z</time>
      </trkpt>
      <trkpt lat="43.77437" lon="1.57352">
        <ele>206.735624</ele>
        <time>2022-08-12T07:31:01.386Z</time>
      </trkpt>
      <trkpt lat="43.77449" lon="1.57354">
        <ele>206.524886</ele>
        <time>2022-08-12T07:31:03.376Z</time>
      </trkpt>
      <trkpt lat="43.77462" lon="1.57351">
        <ele>206.297807</ele>
        <time>2022-08-12T07:31:05.370Z</time>
      </trkpt>
      <trkpt lat="43.77475" lon="1.57359">
        <ele>206.066585</ele>
        <time>2022-08-12T07:31:08.375Z</time>
      </trkpt>
      <trkpt lat="43.77486" lon="1.57361">
        <ele>205.878679</ele>
        <time>2022-08-12T07:31:10.365Z</time>
      </trkpt>
      <trkpt lat="43.77497" lon="1.57359">
        <ele>205.67833</ele>
        <time>2022-08-12T07:31:12.371Z</time>
      </trkpt>
      <trkpt lat="43.77507" lon="1.57353">
        <ele>205.485747</ele>
        <time>2022-08-12T07:31:14.367Z</time>
      </trkpt>
      <trkpt lat="43.77516" lon="1.57342">
        <ele>205.284971</ele>
        <time>2022-08-12T07:31:16.369Z</time>
      </trkpt>
      <trkpt lat="43.7752" lon="1.57329">
        <ele>205.104997</ele>
        <time>2022-08-12T07:31:18.380Z</time>
      </trkpt>
      <trkpt lat="43.77523" lon="1.57315">
        <ele>204.933822</ele>
        <time>2022-08-12T07:31:20.375Z</time>
      </trkpt>
      <trkpt lat="43.77526" lon="1.57303">
        <ele>204.773816</ele>
        <time>2022-08-12T07:31:22.391Z</time>
      </trkpt>
      <trkpt lat="43.77531" lon="1.57288">
        <ele>204.702003</ele>
        <time>2022-08-12T07:31:24.414Z</time>
      </trkpt>
      <trkpt lat="43.77537" lon="1.57277">
        <ele>204.825817</ele>
        <time>2022-08-12T07:31:26.378Z</time>
      </trkpt>
      <trkpt lat="43.77553" lon="1.57264">
        <ele>153</ele>
      </trkpt>
      <trkpt lat="43.77601" lon="1.57319">
        <ele>152</ele>
      </trkpt>
      <trkpt lat="43.77635" lon="1.5738">
        <ele>151.9</ele>
      </trkpt>
      <trkpt lat="43.77646" lon="1.57409">
        <ele>151.4</ele>
      </trkpt>
      <trkpt lat="43.77655" lon="1.57426">
        <ele>151.6</ele>
      </trkpt>
      <trkpt lat="43.77676" lon="1.57432">
        <ele>151.8</ele>
      </trkpt>
      <trkpt lat="43.7769" lon="1.5743">
        <ele>151.6</ele>
      </trkpt>
      <trkpt lat="43.77719" lon="1.57433">
        <ele>151.4</ele>
      </trkpt>
      <trkpt lat="43.7783" lon="1.57498">
        <ele>196.570041</ele>
        <time>2022-08-12T07:33:32.379Z</time>
      </trkpt>
      <trkpt lat="43.77838" lon="1.57514">
        <ele>196.51519</ele>
        <time>2022-08-12T07:33:34.378Z</time>
      </trkpt>
      <trkpt lat="43.77837" lon="1.5753">
        <ele>196.467922</ele>
        <time>2022-08-12T07:33:36.380Z</time>
      </trkpt>
      <trkpt lat="43.77825" lon="1.57543">
        <ele>196.409113</ele>
        <time>2022-08-12T07:33:38.372Z</time>
      </trkpt>
      <trkpt lat="43.77813" lon="1.57556">
        <ele>196.349722</ele>
        <time>2022-08-12T07:33:40.370Z</time>
      </trkpt>
      <trkpt lat="43.77805" lon="1.57575">
        <ele>196.284869</ele>
        <time>2022-08-12T07:33:42.370Z</time>
      </trkpt>
      <trkpt lat="43.77794" lon="1.57591">
        <ele>196.221779</ele>
        <time>2022-08-12T07:33:44.367Z</time>
      </trkpt>
      <trkpt lat="43.77785" lon="1.57601">
        <ele>196.176174</ele>
        <time>2022-08-12T07:33:46.377Z</time>
      </trkpt>
      <trkpt lat="43.77778" lon="1.5761">
        <ele>196.140208</ele>
        <time>2022-08-12T07:33:48.366Z</time>
      </trkpt>
      <trkpt lat="43.77779" lon="1.57622">
        <ele>196.103814</ele>
        <time>2022-08-12T07:33:50.381Z</time>
      </trkpt>
      <trkpt lat="43.77782" lon="1.57634">
        <ele>196.065588</ele>
        <time>2022-08-12T07:33:53.393Z</time>
      </trkpt>
      <trkpt lat="43.77784" lon="1.57648">
        <ele>196.02708</ele>
        <time>2022-08-12T07:33:56.377Z</time>
      </trkpt>
      <trkpt lat="43.7779" lon="1.57661">
        <ele>195.983015</ele>
        <time>2022-08-12T07:34:00.378Z</time>
      </trkpt>
      <trkpt lat="43.77793" lon="1.57676">
        <ele>195.939414</ele>
        <time>2022-08-12T07:34:04.366Z</time>
      </trkpt>
      <trkpt lat="43.77795" lon="1.5769">
        <ele>195.895054</ele>
        <time>2022-08-12T07:34:07.386Z</time>
      </trkpt>
      <trkpt lat="43.778" lon="1.57702">
        <ele>195.834386</ele>
        <time>2022-08-12T07:34:10.377Z</time>
      </trkpt>
      <trkpt lat="43.77809" lon="1.57708">
        <ele>195.772241</ele>
        <time>2022-08-12T07:34:13.379Z</time>
      </trkpt>
      <trkpt lat="43.77816" lon="1.57718">
        <ele>195.712865</ele>
        <time>2022-08-12T07:34:16.379Z</time>
      </trkpt>
      <trkpt lat="43.77816" lon="1.57731">
        <ele>195.655442</ele>
        <time>2022-08-12T07:34:19.390Z</time>
      </trkpt>
      <trkpt lat="43.77806" lon="1.57742">
        <ele>195.578108</ele>
        <time>2022-08-12T07:34:22.382Z</time>
      </trkpt>
      <trkpt lat="43.77797" lon="1.57748">
        <ele>195.522543</ele>
        <time>2022-08-12T07:34:24.392Z</time>
      </trkpt>
      <trkpt lat="43.77788" lon="1.57754">
        <ele>195.461835</ele>
        <time>2022-08-12T07:34:26.381Z</time>
      </trkpt>
      <trkpt lat="43.77779" lon="1.57756">
        <ele>195.40818</ele>
        <time>2022-08-12T07:34:29.375Z</time>
      </trkpt>
      <trkpt lat="43.77773" lon="1.57744">
        <ele>195.345638</ele>
        <time>2022-08-12T07:34:32.375Z</time>
      </trkpt>
      <trkpt lat="43.77766" lon="1.57733">
        <ele>195.284947</ele>
        <time>2022-08-12T07:34:34.380Z</time>
      </trkpt>
      <trkpt lat="43.77758" lon="1.57723">
        <ele>195.216778</ele>
        <time>2022-08-12T07:34:37.392Z</time>
      </trkpt>
      <trkpt lat="43.77759" lon="1.57703">
        <ele>195.133107</ele>
        <time>2022-08-12T07:34:39.391Z</time>
      </trkpt>
      <trkpt lat="43.77755" lon="1.57688">
        <ele>195.064779</ele>
        <time>2022-08-12T07:34:41.369Z</time>
      </trkpt>
      <trkpt lat="43.77745" lon="1.57681">
        <ele>194.997183</ele>
        <time>2022-08-12T07:34:43.369Z</time>
      </trkpt>
      <trkpt lat="43.77734" lon="1.57683">
        <ele>194.928683</ele>
        <time>2022-08-12T07:34:45.384Z</time>
      </trkpt>
      <trkpt lat="43.77723" lon="1.57686">
        <ele>194.859735</ele>
        <time>2022-08-12T07:34:47.361Z</time>
      </trkpt>
      <trkpt lat="43.77712" lon="1.57678">
        <ele>194.656793</ele>
        <time>2022-08-12T07:34:49.354Z</time>
      </trkpt>
      <trkpt lat="43.77697" lon="1.57673">
        <ele>194.338132</ele>
        <time>2022-08-12T07:34:51.379Z</time>
      </trkpt>
      <trkpt lat="43.77685" lon="1.57665">
        <ele>194.068399</ele>
        <time>2022-08-12T07:34:53.368Z</time>
      </trkpt>
      <trkpt lat="43.77672" lon="1.57664">
        <ele>193.800136</ele>
        <time>2022-08-12T07:34:55.377Z</time>
      </trkpt>
      <trkpt lat="43.77661" lon="1.57662">
        <ele>193.562833</ele>
        <time>2022-08-12T07:34:57.370Z</time>
      </trkpt>
      <trkpt lat="43.7765" lon="1.57663">
        <ele>193.33433</ele>
        <time>2022-08-12T07:34:59.375Z</time>
      </trkpt>
      <trkpt lat="43.77639" lon="1.57662">
        <ele>193.087495</ele>
        <time>2022-08-12T07:35:01.380Z</time>
      </trkpt>
      <trkpt lat="43.77628" lon="1.57661">
        <ele>192.8568</ele>
        <time>2022-08-12T07:35:03.375Z</time>
      </trkpt>
      <trkpt lat="43.77615" lon="1.57663">
        <ele>192.595487</ele>
        <time>2022-08-12T07:35:05.371Z</time>
      </trkpt>
      <trkpt lat="43.77604" lon="1.57666">
        <ele>192.351987</ele>
        <time>2022-08-12T07:35:07.359Z</time>
      </trkpt>
      <trkpt lat="43.77592" lon="1.57669">
        <ele>192.113921</ele>
        <time>2022-08-12T07:35:09.370Z</time>
      </trkpt>
      <trkpt lat="43.77582" lon="1.57674">
        <ele>191.875721</ele>
        <time>2022-08-12T07:35:11.361Z</time>
      </trkpt>
      <trkpt lat="43.77571" lon="1.57681">
        <ele>191.632722</ele>
        <time>2022-08-12T07:35:13.377Z</time>
      </trkpt>
      <trkpt lat="43.77561" lon="1.57688">
        <ele>191.400388</ele>
        <time>2022-08-12T07:35:15.372Z</time>
      </trkpt>
      <trkpt lat="43.77551" lon="1.57693">
        <ele>191.172816</ele>
        <time>2022-08-12T07:35:17.385Z</time>
      </trkpt>
      <trkpt lat="43.77541" lon="1.57699">
        <ele>191.535795</ele>
        <time>2022-08-12T07:35:19.388Z</time>
      </trkpt>
      <trkpt lat="43.77531" lon="1.57703">
        <ele>192.363276</ele>
        <time>2022-08-12T07:35:21.389Z</time>
      </trkpt>
      <trkpt lat="43.77521" lon="1.57708">
        <ele>193.20745</ele>
        <time>2022-08-12T07:35:23.368Z</time>
      </trkpt>
      <trkpt lat="43.77511" lon="1.57712">
        <ele>194.061151</ele>
        <time>2022-08-12T07:35:25.381Z</time>
      </trkpt>
      <trkpt lat="43.77501" lon="1.57717">
        <ele>194.907335</ele>
        <time>2022-08-12T07:35:27.379Z</time>
      </trkpt>
      <trkpt lat="43.77492" lon="1.57726">
        <ele>195.727663</ele>
        <time>2022-08-12T07:35:29.392Z</time>
      </trkpt>
      <trkpt lat="43.77485" lon="1.57735">
        <ele>196.523916</ele>
        <time>2022-08-12T07:35:31.392Z</time>
      </trkpt>
      <trkpt lat="43.77474" lon="1.57745">
        <ele>197.547547</ele>
        <time>2022-08-12T07:35:34.394Z</time>
      </trkpt>
      <trkpt lat="43.77464" lon="1.57752">
        <ele>198.387332</ele>
        <time>2022-08-12T07:35:37.384Z</time>
      </trkpt>
      <trkpt lat="43.77458" lon="1.57761">
        <ele>199.110737</ele>
        <time>2022-08-12T07:35:40.391Z</time>
      </trkpt>
      <trkpt lat="43.77459" lon="1.57774">
        <ele>199.848259</ele>
        <time>2022-08-12T07:35:44.369Z</time>
      </trkpt>
      <trkpt lat="43.77461" lon="1.57786">
        <ele>200.554338</ele>
        <time>2022-08-12T07:35:48.368Z</time>
      </trkpt>
      <trkpt lat="43.77468" lon="1.57795">
        <ele>201.346727</ele>
        <time>2022-08-12T07:35:51.373Z</time>
      </trkpt>
      <trkpt lat="43.77477" lon="1.57802">
        <ele>202.111984</ele>
        <time>2022-08-12T07:35:55.406Z</time>
      </trkpt>
      <trkpt lat="43.77482" lon="1.57812">
        <ele>202.848172</ele>
        <time>2022-08-12T07:36:01.392Z</time>
      </trkpt>
      <trkpt lat="43.77473" lon="1.57817">
        <ele>203.677658</ele>
        <time>2022-08-12T07:36:05.395Z</time>
      </trkpt>
      <trkpt lat="43.77475" lon="1.5783">
        <ele>204.442446</ele>
        <time>2022-08-12T07:36:11.388Z</time>
      </trkpt>
      <trkpt lat="43.7748" lon="1.57844">
        <ele>205.230548</ele>
        <time>2022-08-12T07:36:15.377Z</time>
      </trkpt>
      <trkpt lat="43.77486" lon="1.57853">
        <ele>205.418225</ele>
        <time>2022-08-12T07:36:19.396Z</time>
      </trkpt>
      <trkpt lat="43.77486" lon="1.57867">
        <ele>205.614185</ele>
        <time>2022-08-12T07:36:24.410Z</time>
      </trkpt>
      <trkpt lat="43.77487" lon="1.57884">
        <ele>205.856324</ele>
        <time>2022-08-12T07:36:42.411Z</time>
      </trkpt>
      <trkpt lat="43.77491" lon="1.57896">
        <ele>206.04742</ele>
        <time>2022-08-12T07:36:52.388Z</time>
      </trkpt>
      <trkpt lat="43.77494" lon="1.57912">
        <ele>206.288073</ele>
        <time>2022-08-12T07:36:59.388Z</time>
      </trkpt>
      <trkpt lat="43.77491" lon="1.57926">
        <ele>206.495857</ele>
        <time>2022-08-12T07:37:13.369Z</time>
      </trkpt>
      <trkpt lat="43.77483" lon="1.57937">
        <ele>206.721484</ele>
        <time>2022-08-12T07:37:17.392Z</time>
      </trkpt>
      <trkpt lat="43.77475" lon="1.57947">
        <ele>206.930495</ele>
        <time>2022-08-12T07:37:20.425Z</time>
      </trkpt>
      <trkpt lat="43.77475" lon="1.57961">
        <ele>207.132434</ele>
        <time>2022-08-12T07:37:23.387Z</time>
      </trkpt>
      <trkpt lat="43.77476" lon="1.57979">
        <ele>207.385687</ele>
        <time>2022-08-12T07:37:27.400Z</time>
      </trkpt>
      <trkpt lat="43.77475" lon="1.57996">
        <ele>207.633534</ele>
        <time>2022-08-12T07:37:30.386Z</time>
      </trkpt>
      <trkpt lat="43.77473" lon="1.58012">
        <ele>207.870613</ele>
        <time>2022-08-12T07:37:33.382Z</time>
      </trkpt>
      <trkpt lat="43.77464" lon="1.5802">
        <ele>208.073383</ele>
        <time>2022-08-12T07:37:35.382Z</time>
      </trkpt>
      <trkpt lat="43.77455" lon="1.58025">
        <ele>208.272762</ele>
        <time>2022-08-12T07:37:37.393Z</time>
      </trkpt>
      <trkpt lat="43.77444" lon="1.5803">
        <ele>208.490393</ele>
        <time>2022-08-12T07:37:39.385Z</time>
      </trkpt>
      <trkpt lat="43.77436" lon="1.58037">
        <ele>208.687514</ele>
        <time>2022-08-12T07:37:41.403Z</time>
      </trkpt>
      <trkpt lat="43.77427" lon="1.58049">
        <ele>208.511652</ele>
        <time>2022-08-12T07:37:44.377Z</time>
      </trkpt>
      <trkpt lat="43.77417" lon="1.58061">
        <ele>208.111903</ele>
        <time>2022-08-12T07:37:47.373Z</time>
      </trkpt>
      <trkpt lat="43.7741" lon="1.58069">
        <ele>207.828272</ele>
        <time>2022-08-12T07:37:49.385Z</time>
      </trkpt>
      <trkpt lat="43.77397" lon="1.58078">
        <ele>207.409413</ele>
        <time>2022-08-12T07:37:52.370Z</time>
      </trkpt>
      <trkpt lat="43.77388" lon="1.58071">
        <ele>207.104437</ele>
        <time>2022-08-12T07:37:55.376Z</time>
      </trkpt>
      <trkpt lat="43.7738" lon="1.58061">
        <ele>206.780643</ele>
        <time>2022-08-12T07:37:57.366Z</time>
      </trkpt>
      <trkpt lat="43.77369" lon="1.58055">
        <ele>206.423823</ele>
        <time>2022-08-12T07:37:59.373Z</time>
      </trkpt>
      <trkpt lat="43.77357" lon="1.5805">
        <ele>206.041703</ele>
        <time>2022-08-12T07:38:01.357Z</time>
      </trkpt>
      <trkpt lat="43.77351" lon="1.5804">
        <ele>205.765871</ele>
        <time>2022-08-12T07:38:03.370Z</time>
      </trkpt>
      <trkpt lat="43.77344" lon="1.58028">
        <ele>205.456065</ele>
        <time>2022-08-12T07:38:06.371Z</time>
      </trkpt>
      <trkpt lat="43.77335" lon="1.58016">
        <ele>205.063499</ele>
        <time>2022-08-12T07:38:08.372Z</time>
      </trkpt>
      <trkpt lat="43.77325" lon="1.58004">
        <ele>204.679649</ele>
        <time>2022-08-12T07:38:10.373Z</time>
      </trkpt>
      <trkpt lat="43.77313" lon="1.58004">
        <ele>204.319804</ele>
        <time>2022-08-12T07:38:12.385Z</time>
      </trkpt>
      <trkpt lat="43.77305" lon="1.58014">
        <ele>204.008886</ele>
        <time>2022-08-12T07:38:14.370Z</time>
      </trkpt>
      <trkpt lat="43.77299" lon="1.58029">
        <ele>203.633681</ele>
        <time>2022-08-12T07:38:16.360Z</time>
      </trkpt>
      <trkpt lat="43.77294" lon="1.58044">
        <ele>203.494731</ele>
        <time>2022-08-12T07:38:18.363Z</time>
      </trkpt>
      <trkpt lat="43.77289" lon="1.58057">
        <ele>203.709865</ele>
        <time>2022-08-12T07:38:20.370Z</time>
      </trkpt>
      <trkpt lat="43.77283" lon="1.58068">
        <ele>203.903331</ele>
        <time>2022-08-12T07:38:22.375Z</time>
      </trkpt>
      <trkpt lat="43.77269" lon="1.5807">
        <ele>204.175454</ele>
        <time>2022-08-12T07:38:25.339Z</time>
      </trkpt>
      <trkpt lat="43.77259" lon="1.58074">
        <ele>204.380048</ele>
        <time>2022-08-12T07:38:27.381Z</time>
      </trkpt>
      <trkpt lat="43.77249" lon="1.58076">
        <ele>204.567846</ele>
        <time>2022-08-12T07:38:29.379Z</time>
      </trkpt>
      <trkpt lat="43.77239" lon="1.58071">
        <ele>204.782352</ele>
        <time>2022-08-12T07:38:31.355Z</time>
      </trkpt>
      <trkpt lat="43.77229" lon="1.5807">
        <ele>204.963917</ele>
        <time>2022-08-12T07:38:33.372Z</time>
      </trkpt>
      <trkpt lat="43.7722" lon="1.58064">
        <ele>205.16106</ele>
        <time>2022-08-12T07:38:35.368Z</time>
      </trkpt>
      <trkpt lat="43.7721" lon="1.58057">
        <ele>205.375256</ele>
        <time>2022-08-12T07:38:37.372Z</time>
      </trkpt>
      <trkpt lat="43.77198" lon="1.58055">
        <ele>205.612672</ele>
        <time>2022-08-12T07:38:39.366Z</time>
      </trkpt>
      <trkpt lat="43.77187" lon="1.58059">
        <ele>205.844067</ele>
        <time>2022-08-12T07:38:41.372Z</time>
      </trkpt>
      <trkpt lat="43.77176" lon="1.58059">
        <ele>206.056026</ele>
        <time>2022-08-12T07:38:43.377Z</time>
      </trkpt>
      <trkpt lat="43.77165" lon="1.58057">
        <ele>206.267481</ele>
        <time>2022-08-12T07:38:45.367Z</time>
      </trkpt>
      <trkpt lat="43.77162" lon="1.58056">
        <ele>207.71715</ele>
        <time>2022-08-12T07:45:43.380Z</time>
      </trkpt>
      <trkpt lat="43.7715" lon="1.58056">
        <ele>207.75573</ele>
        <time>2022-08-12T07:45:46.376Z</time>
      </trkpt>
      <trkpt lat="43.77139" lon="1.58061">
        <ele>207.793486</ele>
        <time>2022-08-12T07:45:49.370Z</time>
      </trkpt>
      <trkpt lat="43.77127" lon="1.58068">
        <ele>207.835046</ele>
        <time>2022-08-12T07:45:52.372Z</time>
      </trkpt>
      <trkpt lat="43.77117" lon="1.58073">
        <ele>207.868182</ele>
        <time>2022-08-12T07:45:54.372Z</time>
      </trkpt>
      <trkpt lat="43.77101" lon="1.58088">
        <ele>207.930583</ele>
        <time>2022-08-12T07:45:58.381Z</time>
      </trkpt>
      <trkpt lat="43.77084" lon="1.58112">
        <ele>208.007454</ele>
        <time>2022-08-12T07:46:03.366Z</time>
      </trkpt>
      <trkpt lat="43.77076" lon="1.5812">
        <ele>208.041021</ele>
        <time>2022-08-12T07:46:05.385Z</time>
      </trkpt>
      <trkpt lat="43.77067" lon="1.58128">
        <ele>208.073814</ele>
        <time>2022-08-12T07:46:07.378Z</time>
      </trkpt>
      <trkpt lat="43.77056" lon="1.58133">
        <ele>208.11224</ele>
        <time>2022-08-12T07:46:09.384Z</time>
      </trkpt>
      <trkpt lat="43.77046" lon="1.58138">
        <ele>208.147022</ele>
        <time>2022-08-12T07:46:11.375Z</time>
      </trkpt>
      <trkpt lat="43.77036" lon="1.58144">
        <ele>208.182378</ele>
        <time>2022-08-12T07:46:13.366Z</time>
      </trkpt>
      <trkpt lat="43.77025" lon="1.58148">
        <ele>208.217884</ele>
        <time>2022-08-12T07:46:15.375Z</time>
      </trkpt>
      <trkpt lat="43.77016" lon="1.58153">
        <ele>208.250894</ele>
        <time>2022-08-12T07:46:17.370Z</time>
      </trkpt>
      <trkpt lat="43.77007" lon="1.5816">
        <ele>208.2825</ele>
        <time>2022-08-12T07:46:19.379Z</time>
      </trkpt>
      <trkpt lat="43.76998" lon="1.58172">
        <ele>208.318552</ele>
        <time>2022-08-12T07:46:22.368Z</time>
      </trkpt>
      <trkpt lat="43.76991" lon="1.58183">
        <ele>208.346545</ele>
        <time>2022-08-12T07:46:24.374Z</time>
      </trkpt>
      <trkpt lat="43.76984" lon="1.58193">
        <ele>208.373591</ele>
        <time>2022-08-12T07:46:26.374Z</time>
      </trkpt>
      <trkpt lat="43.76974" lon="1.58195">
        <ele>208.400034</ele>
        <time>2022-08-12T07:46:28.370Z</time>
      </trkpt>
      <trkpt lat="43.76963" lon="1.58198">
        <ele>208.430893</ele>
        <time>2022-08-12T07:46:30.377Z</time>
      </trkpt>
      <trkpt lat="43.76951" lon="1.58204">
        <ele>208.465819</ele>
        <time>2022-08-12T07:46:32.379Z</time>
      </trkpt>
      <trkpt lat="43.7694" lon="1.58212">
        <ele>208.497847</ele>
        <time>2022-08-12T07:46:34.371Z</time>
      </trkpt>
      <trkpt lat="43.76931" lon="1.58218">
        <ele>208.526089</ele>
        <time>2022-08-12T07:46:36.381Z</time>
      </trkpt>
      <trkpt lat="43.76906" lon="1.58234">
        <ele>208.600677</ele>
        <time>2022-08-12T07:46:55.393Z</time>
      </trkpt>
      <trkpt lat="43.76897" lon="1.58239">
        <ele>208.627284</ele>
        <time>2022-08-12T07:46:57.382Z</time>
      </trkpt>
      <trkpt lat="43.76888" lon="1.58245">
        <ele>208.653021</ele>
        <time>2022-08-12T07:46:59.381Z</time>
      </trkpt>
      <trkpt lat="43.76881" lon="1.58253">
        <ele>208.677577</ele>
        <time>2022-08-12T07:47:01.394Z</time>
      </trkpt>
      <trkpt lat="43.76873" lon="1.58266">
        <ele>208.710333</ele>
        <time>2022-08-12T07:47:03.376Z</time>
      </trkpt>
      <trkpt lat="43.76864" lon="1.58274">
        <ele>208.740296</ele>
        <time>2022-08-12T07:47:05.410Z</time>
      </trkpt>
      <trkpt lat="43.76856" lon="1.58281">
        <ele>208.76584</ele>
        <time>2022-08-12T07:47:07.378Z</time>
      </trkpt>
      <trkpt lat="43.76847" lon="1.58285">
        <ele>208.763318</ele>
        <time>2022-08-12T07:47:09.380Z</time>
      </trkpt>
      <trkpt lat="43.76835" lon="1.58283">
        <ele>208.7135</ele>
        <time>2022-08-12T07:47:11.369Z</time>
      </trkpt>
      <trkpt lat="43.76826" lon="1.58288">
        <ele>208.674323</ele>
        <time>2022-08-12T07:47:13.386Z</time>
      </trkpt>
      <trkpt lat="43.76819" lon="1.58301">
        <ele>208.628473</ele>
        <time>2022-08-12T07:47:15.380Z</time>
      </trkpt>
      <trkpt lat="43.76812" lon="1.58312">
        <ele>208.584155</ele>
        <time>2022-08-12T07:47:17.398Z</time>
      </trkpt>
      <trkpt lat="43.76803" lon="1.58322">
        <ele>208.540198</ele>
        <time>2022-08-12T07:47:19.382Z</time>
      </trkpt>
      <trkpt lat="43.76791" lon="1.58326">
        <ele>208.489452</ele>
        <time>2022-08-12T07:47:21.396Z</time>
      </trkpt>
      <trkpt lat="43.7678" lon="1.58331">
        <ele>208.442421</ele>
        <time>2022-08-12T07:47:23.383Z</time>
      </trkpt>
      <trkpt lat="43.76769" lon="1.5833">
        <ele>208.400368</ele>
        <time>2022-08-12T07:47:25.400Z</time>
      </trkpt>
      <trkpt lat="43.76759" lon="1.58334">
        <ele>208.357281</ele>
        <time>2022-08-12T07:47:27.381Z</time>
      </trkpt>
      <trkpt lat="43.7675" lon="1.58344">
        <ele>208.311667</ele>
        <time>2022-08-12T07:47:29.385Z</time>
      </trkpt>
      <trkpt lat="43.76742" lon="1.58357">
        <ele>208.261424</ele>
        <time>2022-08-12T07:47:31.381Z</time>
      </trkpt>
      <trkpt lat="43.76732" lon="1.58365">
        <ele>208.214932</ele>
        <time>2022-08-12T07:47:33.385Z</time>
      </trkpt>
      <trkpt lat="43.76723" lon="1.58374">
        <ele>208.170234</ele>
        <time>2022-08-12T07:47:35.387Z</time>
      </trkpt>
      <trkpt lat="43.76715" lon="1.5839">
        <ele>208.116636</ele>
        <time>2022-08-12T07:47:38.383Z</time>
      </trkpt>
      <trkpt lat="43.76717" lon="1.58405">
        <ele>208.072054</ele>
        <time>2022-08-12T07:47:40.390Z</time>
      </trkpt>
      <trkpt lat="43.76725" lon="1.58416">
        <ele>208.044073</ele>
        <time>2022-08-12T07:47:42.389Z</time>
      </trkpt>
      <trkpt lat="43.76733" lon="1.58423">
        <ele>208.025429</ele>
        <time>2022-08-12T07:47:44.384Z</time>
      </trkpt>
      <trkpt lat="43.76738" lon="1.58435">
        <ele>208.00469</ele>
        <time>2022-08-12T07:47:46.387Z</time>
      </trkpt>
      <trkpt lat="43.7674" lon="1.58451">
        <ele>207.981121</ele>
        <time>2022-08-12T07:47:48.396Z</time>
      </trkpt>
      <trkpt lat="43.76746" lon="1.58464">
        <ele>207.958774</ele>
        <time>2022-08-12T07:47:50.380Z</time>
      </trkpt>
      <trkpt lat="43.76751" lon="1.58478">
        <ele>207.936301</ele>
        <time>2022-08-12T07:47:52.383Z</time>
      </trkpt>
      <trkpt lat="43.76757" lon="1.58495">
        <ele>207.9087</ele>
        <time>2022-08-12T07:47:54.383Z</time>
      </trkpt>
      <trkpt lat="43.76765" lon="1.58505">
        <ele>207.887403</ele>
        <time>2022-08-12T07:47:56.403Z</time>
      </trkpt>
      <trkpt lat="43.76767" lon="1.5852">
        <ele>207.865003</ele>
        <time>2022-08-12T07:47:59.405Z</time>
      </trkpt>
      <trkpt lat="43.76772" lon="1.58532">
        <ele>207.845443</ele>
        <time>2022-08-12T07:48:01.396Z</time>
      </trkpt>
      <trkpt lat="43.7678" lon="1.58542">
        <ele>207.824165</ele>
        <time>2022-08-12T07:48:03.386Z</time>
      </trkpt>
      <trkpt lat="43.76787" lon="1.58555">
        <ele>207.799917</ele>
        <time>2022-08-12T07:48:05.385Z</time>
      </trkpt>
      <trkpt lat="43.76795" lon="1.58565">
        <ele>207.777612</ele>
        <time>2022-08-12T07:48:07.405Z</time>
      </trkpt>
      <trkpt lat="43.76799" lon="1.5858">
        <ele>207.755424</ele>
        <time>2022-08-12T07:48:09.394Z</time>
      </trkpt>
      <trkpt lat="43.76808" lon="1.58588">
        <ele>207.734352</ele>
        <time>2022-08-12T07:48:11.396Z</time>
      </trkpt>
      <trkpt lat="43.76814" lon="1.58603">
        <ele>207.708938</ele>
        <time>2022-08-12T07:48:13.377Z</time>
      </trkpt>
      <trkpt lat="43.76819" lon="1.58616">
        <ele>207.430427</ele>
        <time>2022-08-12T07:48:15.395Z</time>
      </trkpt>
      <trkpt lat="43.7683" lon="1.58638">
        <ele>206.549604</ele>
        <time>2022-08-12T07:51:36.380Z</time>
      </trkpt>
      <trkpt lat="43.76836" lon="1.58649">
        <ele>206.118111</ele>
        <time>2022-08-12T07:51:39.382Z</time>
      </trkpt>
      <trkpt lat="43.76842" lon="1.58661">
        <ele>205.617521</ele>
        <time>2022-08-12T07:51:42.379Z</time>
      </trkpt>
      <trkpt lat="43.76848" lon="1.58673">
        <ele>205.127668</ele>
        <time>2022-08-12T07:51:45.378Z</time>
      </trkpt>
      <trkpt lat="43.76853" lon="1.58687">
        <ele>204.616067</ele>
        <time>2022-08-12T07:51:48.384Z</time>
      </trkpt>
      <trkpt lat="43.76856" lon="1.58701">
        <ele>204.151932</ele>
        <time>2022-08-12T07:51:50.371Z</time>
      </trkpt>
      <trkpt lat="43.76858" lon="1.58714">
        <ele>203.698702</ele>
        <time>2022-08-12T07:51:52.382Z</time>
      </trkpt>
      <trkpt lat="43.76864" lon="1.58732">
        <ele>203.063902</ele>
        <time>2022-08-12T07:51:55.413Z</time>
      </trkpt>
      <trkpt lat="43.76868" lon="1.58744">
        <ele>202.615403</ele>
        <time>2022-08-12T07:51:57.381Z</time>
      </trkpt>
      <trkpt lat="43.76873" lon="1.58758">
        <ele>202.10677</ele>
        <time>2022-08-12T07:51:59.360Z</time>
      </trkpt>
      <trkpt lat="43.76877" lon="1.58771">
        <ele>201.630357</ele>
        <time>2022-08-12T07:52:01.378Z</time>
      </trkpt>
      <trkpt lat="43.76883" lon="1.58781">
        <ele>201.214126</ele>
        <time>2022-08-12T07:52:03.404Z</time>
      </trkpt>
      <trkpt lat="43.76892" lon="1.58793">
        <ele>200.654137</ele>
        <time>2022-08-12T07:52:05.362Z</time>
      </trkpt>
      <trkpt lat="43.76898" lon="1.58802">
        <ele>200.231447</ele>
        <time>2022-08-12T07:52:07.361Z</time>
      </trkpt>
      <trkpt lat="43.76893" lon="1.58814">
        <ele>199.778162</ele>
        <time>2022-08-12T07:52:10.394Z</time>
      </trkpt>
      <trkpt lat="43.76899" lon="1.58825">
        <ele>199.053821</ele>
        <time>2022-08-12T07:52:16.394Z</time>
      </trkpt>
      <trkpt lat="43.7691" lon="1.58828">
        <ele>197.857677</ele>
        <time>2022-08-12T07:52:20.374Z</time>
      </trkpt>
      <trkpt lat="43.76905" lon="1.58839">
        <ele>196.837004</ele>
        <time>2022-08-12T07:52:22.379Z</time>
      </trkpt>
      <trkpt lat="43.76897" lon="1.58852">
        <ele>195.46247</ele>
        <time>2022-08-12T07:52:24.396Z</time>
      </trkpt>
      <trkpt lat="43.76886" lon="1.58862">
        <ele>194.000201</ele>
        <time>2022-08-12T07:52:26.378Z</time>
      </trkpt>
      <trkpt lat="43.76874" lon="1.58872">
        <ele>192.491622</ele>
        <time>2022-08-12T07:52:28.384Z</time>
      </trkpt>
      <trkpt lat="43.76865" lon="1.58883">
        <ele>191.167609</ele>
        <time>2022-08-12T07:52:31.383Z</time>
      </trkpt>
      <trkpt lat="43.76859" lon="1.58893">
        <ele>190.106531</ele>
        <time>2022-08-12T07:52:32.397Z</time>
      </trkpt>
      <trkpt lat="43.76848" lon="1.58909">
        <ele>188.368486</ele>
        <time>2022-08-12T07:52:34.393Z</time>
      </trkpt>
      <trkpt lat="43.76838" lon="1.58922">
        <ele>186.901597</ele>
        <time>2022-08-12T07:52:35.387Z</time>
      </trkpt>
      <trkpt lat="43.76829" lon="1.58933">
        <ele>185.558408</ele>
        <time>2022-08-12T07:52:37.408Z</time>
      </trkpt>
      <trkpt lat="43.76823" lon="1.58949">
        <ele>184.094512</ele>
        <time>2022-08-12T07:52:39.385Z</time>
      </trkpt>
      <trkpt lat="43.76821" lon="1.58972">
        <ele>182.265688</ele>
        <time>2022-08-12T07:52:45.391Z</time>
      </trkpt>
      <trkpt lat="43.76833" lon="1.58979">
        <ele>180.82366</ele>
        <time>2022-08-12T07:52:50.380Z</time>
      </trkpt>
      <trkpt lat="43.76845" lon="1.58977">
        <ele>179.68259</ele>
        <time>2022-08-12T07:52:53.372Z</time>
      </trkpt>
      <trkpt lat="43.76854" lon="1.58978">
        <ele>179.469155</ele>
        <time>2022-08-12T07:52:54.368Z</time>
      </trkpt>
      <trkpt lat="43.76866" lon="1.58979">
        <ele>179.202767</ele>
        <time>2022-08-12T07:52:56.372Z</time>
      </trkpt>
      <trkpt lat="43.76878" lon="1.58979">
        <ele>178.92502</ele>
        <time>2022-08-12T07:52:58.391Z</time>
      </trkpt>
      <trkpt lat="43.76887" lon="1.58977">
        <ele>178.706405</ele>
        <time>2022-08-12T07:53:00.396Z</time>
      </trkpt>
      <trkpt lat="43.76896" lon="1.58974">
        <ele>178.486886</ele>
        <time>2022-08-12T07:53:02.405Z</time>
      </trkpt>
      <trkpt lat="43.76907" lon="1.58972">
        <ele>178.22608</ele>
        <time>2022-08-12T07:53:03.396Z</time>
      </trkpt>
      <trkpt lat="43.76916" lon="1.58966">
        <ele>177.999094</ele>
        <time>2022-08-12T07:53:05.383Z</time>
      </trkpt>
      <trkpt lat="43.76926" lon="1.58962">
        <ele>177.769308</ele>
        <time>2022-08-12T07:53:07.380Z</time>
      </trkpt>
      <trkpt lat="43.76939" lon="1.58962">
        <ele>177.477645</ele>
        <time>2022-08-12T07:53:09.376Z</time>
      </trkpt>
      <trkpt lat="43.76948" lon="1.58964">
        <ele>177.248643</ele>
        <time>2022-08-12T07:53:10.382Z</time>
      </trkpt>
      <trkpt lat="43.76964" lon="1.58967">
        <ele>176.877811</ele>
        <time>2022-08-12T07:53:12.382Z</time>
      </trkpt>
      <trkpt lat="43.76976" lon="1.58973">
        <ele>176.580385</ele>
        <time>2022-08-12T07:53:14.413Z</time>
      </trkpt>
      <trkpt lat="43.76988" lon="1.58979">
        <ele>176.287311</ele>
        <time>2022-08-12T07:53:16.404Z</time>
      </trkpt>
      <trkpt lat="43.77" lon="1.58981">
        <ele>176.010286</ele>
        <time>2022-08-12T07:53:18.388Z</time>
      </trkpt>
      <trkpt lat="43.77011" lon="1.58984">
        <ele>175.759572</ele>
        <time>2022-08-12T07:53:20.397Z</time>
      </trkpt>
      <trkpt lat="43.77023" lon="1.58987">
        <ele>175.624568</ele>
        <time>2022-08-12T07:53:22.410Z</time>
      </trkpt>
      <trkpt lat="43.77041" lon="1.58992">
        <ele>175.966879</ele>
        <time>2022-08-12T07:53:24.373Z</time>
      </trkpt>
      <trkpt lat="43.7705" lon="1.58994">
        <ele>176.147753</ele>
        <time>2022-08-12T07:53:26.396Z</time>
      </trkpt>
      <trkpt lat="43.77062" lon="1.58997">
        <ele>176.376991</ele>
        <time>2022-08-12T07:53:28.386Z</time>
      </trkpt>
      <trkpt lat="43.77068" lon="1.58982">
        <ele>176.603558</ele>
        <time>2022-08-12T07:53:31.399Z</time>
      </trkpt>
      <trkpt lat="43.77068" lon="1.58967">
        <ele>176.8049</ele>
        <time>2022-08-12T07:53:33.376Z</time>
      </trkpt>
      <trkpt lat="43.77068" lon="1.58954">
        <ele>176.986261</ele>
        <time>2022-08-12T07:53:35.384Z</time>
      </trkpt>
      <trkpt lat="43.7707" lon="1.5894">
        <ele>177.172558</ele>
        <time>2022-08-12T07:53:37.395Z</time>
      </trkpt>
      <trkpt lat="43.77073" lon="1.58926">
        <ele>177.369667</ele>
        <time>2022-08-12T07:53:39.383Z</time>
      </trkpt>
      <trkpt lat="43.77076" lon="1.58912">
        <ele>177.566456</ele>
        <time>2022-08-12T07:53:41.379Z</time>
      </trkpt>
      <trkpt lat="43.7708" lon="1.58899">
        <ele>177.75209</ele>
        <time>2022-08-12T07:53:43.390Z</time>
      </trkpt>
      <trkpt lat="43.77085" lon="1.58884">
        <ele>177.972316</ele>
        <time>2022-08-12T07:53:46.373Z</time>
      </trkpt>
      <trkpt lat="43.77088" lon="1.58872">
        <ele>178.144096</ele>
        <time>2022-08-12T07:53:48.381Z</time>
      </trkpt>
      <trkpt lat="43.77092" lon="1.58859">
        <ele>178.331103</ele>
        <time>2022-08-12T07:53:50.394Z</time>
      </trkpt>
      <trkpt lat="43.77098" lon="1.58844">
        <ele>178.570534</ele>
        <time>2022-08-12T07:53:53.384Z</time>
      </trkpt>
      <trkpt lat="43.77104" lon="1.58825">
        <ele>178.84643</ele>
        <time>2022-08-12T07:53:55.398Z</time>
      </trkpt>
      <trkpt lat="43.77108" lon="1.58813">
        <ele>179.586303</ele>
        <time>2022-08-12T07:53:57.392Z</time>
      </trkpt>
      <trkpt lat="43.77113" lon="1.58799">
        <ele>180.810979</ele>
        <time>2022-08-12T07:54:00.379Z</time>
      </trkpt>
      <trkpt lat="43.77118" lon="1.58785">
        <ele>182.053492</ele>
        <time>2022-08-12T07:54:04.385Z</time>
      </trkpt>
      <trkpt lat="43.77124" lon="1.58773">
        <ele>183.176765</ele>
        <time>2022-08-12T07:54:08.378Z</time>
      </trkpt>
      <trkpt lat="43.7713" lon="1.58761">
        <ele>184.30169</ele>
        <time>2022-08-12T07:54:11.399Z</time>
      </trkpt>
      <trkpt lat="43.77135" lon="1.5875">
        <ele>185.294221</ele>
        <time>2022-08-12T07:54:13.378Z</time>
      </trkpt>
      <trkpt lat="43.77143" lon="1.58735">
        <ele>186.739055</ele>
        <time>2022-08-12T07:54:16.392Z</time>
      </trkpt>
      <trkpt lat="43.77148" lon="1.58724">
        <ele>187.737359</ele>
        <time>2022-08-12T07:54:18.384Z</time>
      </trkpt>
      <trkpt lat="43.77154" lon="1.5871">
        <ele>189.044917</ele>
        <time>2022-08-12T07:54:21.393Z</time>
      </trkpt>
      <trkpt lat="43.7716" lon="1.58696">
        <ele>190.303056</ele>
        <time>2022-08-12T07:54:23.398Z</time>
      </trkpt>
      <trkpt lat="43.77164" lon="1.58681">
        <ele>191.572974</ele>
        <time>2022-08-12T07:54:25.400Z</time>
      </trkpt>
      <trkpt lat="43.77168" lon="1.58667">
        <ele>192.689336</ele>
        <time>2022-08-12T07:54:28.401Z</time>
      </trkpt>
      <trkpt lat="43.77172" lon="1.58653">
        <ele>193.92285</ele>
        <time>2022-08-12T07:54:31.386Z</time>
      </trkpt>
      <trkpt lat="43.77177" lon="1.58639">
        <ele>195.129172</ele>
        <time>2022-08-12T07:54:34.398Z</time>
      </trkpt>
      <trkpt lat="43.77181" lon="1.58627">
        <ele>196.148801</ele>
        <time>2022-08-12T07:54:37.396Z</time>
      </trkpt>
      <trkpt lat="43.77188" lon="1.58618">
        <ele>197.188773</ele>
        <time>2022-08-12T07:54:40.396Z</time>
      </trkpt>
      <trkpt lat="43.77191" lon="1.58604">
        <ele>198.310574</ele>
        <time>2022-08-12T07:54:43.386Z</time>
      </trkpt>
      <trkpt lat="43.77198" lon="1.58592">
        <ele>198.903005</ele>
        <time>2022-08-12T07:54:46.391Z</time>
      </trkpt>
      <trkpt lat="43.77202" lon="1.58577">
        <ele>199.547811</ele>
        <time>2022-08-12T07:54:50.407Z</time>
      </trkpt>
      <trkpt lat="43.77205" lon="1.58562">
        <ele>200.185045</ele>
        <time>2022-08-12T07:54:54.397Z</time>
      </trkpt>
      <trkpt lat="43.77209" lon="1.58548">
        <ele>200.809579</ele>
        <time>2022-08-12T07:54:58.390Z</time>
      </trkpt>
      <trkpt lat="43.77211" lon="1.58529">
        <ele>201.59187</ele>
        <time>2022-08-12T07:55:02.376Z</time>
      </trkpt>
      <trkpt lat="43.77211" lon="1.58513">
        <ele>202.270714</ele>
        <time>2022-08-12T07:55:05.376Z</time>
      </trkpt>
      <trkpt lat="43.77215" lon="1.585">
        <ele>202.811926</ele>
        <time>2022-08-12T07:55:07.375Z</time>
      </trkpt>
      <trkpt lat="43.77221" lon="1.58485">
        <ele>203.536726</ele>
        <time>2022-08-12T07:55:10.363Z</time>
      </trkpt>
      <trkpt lat="43.77223" lon="1.58472">
        <ele>204.0617</ele>
        <time>2022-08-12T07:55:12.380Z</time>
      </trkpt>
      <trkpt lat="43.77225" lon="1.58459">
        <ele>204.590908</ele>
        <time>2022-08-12T07:55:14.388Z</time>
      </trkpt>
      <trkpt lat="43.77228" lon="1.58442">
        <ele>205.326422</ele>
        <time>2022-08-12T07:55:17.385Z</time>
      </trkpt>
      <trkpt lat="43.77232" lon="1.58428">
        <ele>205.932875</ele>
        <time>2022-08-12T07:55:19.381Z</time>
      </trkpt>
      <trkpt lat="43.77237" lon="1.58414">
        <ele>206.56189</ele>
        <time>2022-08-12T07:55:21.401Z</time>
      </trkpt>
      <trkpt lat="43.77241" lon="1.584">
        <ele>207.188642</ele>
        <time>2022-08-12T07:55:23.386Z</time>
      </trkpt>
      <trkpt lat="43.77248" lon="1.58389">
        <ele>207.81109</ele>
        <time>2022-08-12T07:55:25.392Z</time>
      </trkpt>
      <trkpt lat="43.77258" lon="1.58379">
        <ele>208.442318</ele>
        <time>2022-08-12T07:55:27.364Z</time>
      </trkpt>
      <trkpt lat="43.77266" lon="1.58371">
        <ele>208.346232</ele>
        <time>2022-08-12T07:55:29.372Z</time>
      </trkpt>
      <trkpt lat="43.77274" lon="1.5836">
        <ele>208.243768</ele>
        <time>2022-08-12T07:55:31.374Z</time>
      </trkpt>
      <trkpt lat="43.77281" lon="1.58349">
        <ele>208.142192</ele>
        <time>2022-08-12T07:55:33.373Z</time>
      </trkpt>
      <trkpt lat="43.77288" lon="1.58336">
        <ele>208.029157</ele>
        <time>2022-08-12T07:55:35.376Z</time>
      </trkpt>
      <trkpt lat="43.77294" lon="1.58325">
        <ele>207.925059</ele>
        <time>2022-08-12T07:55:37.361Z</time>
      </trkpt>
      <trkpt lat="43.77302" lon="1.58313">
        <ele>207.81988</ele>
        <time>2022-08-12T07:55:39.384Z</time>
      </trkpt>
      <trkpt lat="43.77308" lon="1.58301">
        <ele>207.711363</ele>
        <time>2022-08-12T07:55:41.372Z</time>
      </trkpt>
      <trkpt lat="43.77316" lon="1.58291">
        <ele>207.605418</ele>
        <time>2022-08-12T07:55:43.376Z</time>
      </trkpt>
      <trkpt lat="43.77324" lon="1.58283">
        <ele>207.512127</ele>
        <time>2022-08-12T07:55:45.374Z</time>
      </trkpt>
      <trkpt lat="43.77336" lon="1.5827">
        <ele>207.369124</ele>
        <time>2022-08-12T07:55:48.376Z</time>
      </trkpt>
      <trkpt lat="43.77344" lon="1.58261">
        <ele>207.267658</ele>
        <time>2022-08-12T07:55:50.382Z</time>
      </trkpt>
      <trkpt lat="43.77346" lon="1.58248">
        <ele>207.173876</ele>
        <time>2022-08-12T07:55:53.371Z</time>
      </trkpt>
      <trkpt lat="43.7734" lon="1.58237">
        <ele>207.075865</ele>
        <time>2022-08-12T07:55:55.379Z</time>
      </trkpt>
      <trkpt lat="43.77335" lon="1.58225">
        <ele>206.98314</ele>
        <time>2022-08-12T07:55:57.376Z</time>
      </trkpt>
      <trkpt lat="43.77333" lon="1.58207">
        <ele>206.854948</ele>
        <time>2022-08-12T07:56:00.358Z</time>
      </trkpt>
      <trkpt lat="43.7733" lon="1.58193">
        <ele>206.754571</ele>
        <time>2022-08-12T07:56:02.378Z</time>
      </trkpt>
      <trkpt lat="43.77324" lon="1.58181">
        <ele>206.63424</ele>
        <time>2022-08-12T07:56:04.372Z</time>
      </trkpt>
      <trkpt lat="43.77316" lon="1.5817">
        <ele>206.50706</ele>
        <time>2022-08-12T07:56:06.373Z</time>
      </trkpt>
      <trkpt lat="43.77315" lon="1.58155">
        <ele>206.38477</ele>
        <time>2022-08-12T07:56:09.376Z</time>
      </trkpt>
      <trkpt lat="43.77326" lon="1.5816">
        <ele>206.24466</ele>
        <time>2022-08-12T07:56:13.379Z</time>
      </trkpt>
      <trkpt lat="43.77335" lon="1.58172">
        <ele>206.101172</ele>
        <time>2022-08-12T07:56:16.371Z</time>
      </trkpt>
      <trkpt lat="43.77345" lon="1.58186">
        <ele>205.939478</ele>
        <time>2022-08-12T07:56:19.381Z</time>
      </trkpt>
      <trkpt lat="43.77351" lon="1.58196">
        <ele>205.829125</ele>
        <time>2022-08-12T07:56:21.383Z</time>
      </trkpt>
      <trkpt lat="43.77363" lon="1.58196">
        <ele>205.689512</ele>
        <time>2022-08-12T07:56:24.378Z</time>
      </trkpt>
      <trkpt lat="43.77374" lon="1.58195">
        <ele>205.556616</ele>
        <time>2022-08-12T07:56:27.383Z</time>
      </trkpt>
      <trkpt lat="43.77379" lon="1.5821">
        <ele>205.410903</ele>
        <time>2022-08-12T07:56:30.376Z</time>
      </trkpt>
      <trkpt lat="43.77385" lon="1.58222">
        <ele>205.294479</ele>
        <time>2022-08-12T07:56:32.376Z</time>
      </trkpt>
      <trkpt lat="43.77392" lon="1.58232">
        <ele>205.179184</ele>
        <time>2022-08-12T07:56:34.384Z</time>
      </trkpt>
      <trkpt lat="43.77419" lon="1.58239">
        <ele>204.861851</ele>
        <time>2022-08-12T07:57:03.396Z</time>
      </trkpt>
      <trkpt lat="43.7743" lon="1.58246">
        <ele>204.720422</ele>
        <time>2022-08-12T07:57:07.386Z</time>
      </trkpt>
      <trkpt lat="43.77437" lon="1.58255">
        <ele>204.349721</ele>
        <time>2022-08-12T07:57:10.379Z</time>
      </trkpt>
      <trkpt lat="43.77434" lon="1.58273">
        <ele>202.532645</ele>
        <time>2022-08-12T07:57:19.372Z</time>
      </trkpt>
      <trkpt lat="43.77443" lon="1.5827">
        <ele>201.223936</ele>
        <time>2022-08-12T07:57:25.385Z</time>
      </trkpt>
      <trkpt lat="43.77455" lon="1.58273">
        <ele>199.476622</ele>
        <time>2022-08-12T07:57:28.387Z</time>
      </trkpt>
      <trkpt lat="43.77467" lon="1.58279">
        <ele>197.729683</ele>
        <time>2022-08-12T07:57:31.383Z</time>
      </trkpt>
      <trkpt lat="43.77477" lon="1.58277">
        <ele>196.331388</ele>
        <time>2022-08-12T07:57:34.389Z</time>
      </trkpt>
      <trkpt lat="43.77486" lon="1.58283">
        <ele>194.883325</ele>
        <time>2022-08-12T07:57:37.378Z</time>
      </trkpt>
      <trkpt lat="43.77494" lon="1.58291">
        <ele>193.490886</ele>
        <time>2022-08-12T07:57:39.384Z</time>
      </trkpt>
      <trkpt lat="43.77504" lon="1.5829">
        <ele>192.073484</ele>
        <time>2022-08-12T07:57:41.393Z</time>
      </trkpt>
      <trkpt lat="43.77516" lon="1.58284">
        <ele>190.258871</ele>
        <time>2022-08-12T07:57:43.370Z</time>
      </trkpt>
      <trkpt lat="43.7753" lon="1.58287">
        <ele>188.362927</ele>
        <time>2022-08-12T07:57:45.398Z</time>
      </trkpt>
      <trkpt lat="43.7754" lon="1.58296">
        <ele>186.666453</ele>
        <time>2022-08-12T07:57:47.388Z</time>
      </trkpt>
      <trkpt lat="43.77547" lon="1.58307">
        <ele>185.1917</ele>
        <time>2022-08-12T07:57:49.376Z</time>
      </trkpt>
      <trkpt lat="43.77556" lon="1.5831">
        <ele>183.875993</ele>
        <time>2022-08-12T07:57:51.369Z</time>
      </trkpt>
      <trkpt lat="43.77566" lon="1.58307">
        <ele>182.364342</ele>
        <time>2022-08-12T07:57:54.381Z</time>
      </trkpt>
      <trkpt lat="43.77615" lon="1.58276">
        <ele>178.485082</ele>
        <time>2022-08-12T07:58:13.380Z</time>
      </trkpt>
      <trkpt lat="43.77621" lon="1.58263">
        <ele>178.166026</ele>
        <time>2022-08-12T07:58:15.377Z</time>
      </trkpt>
      <trkpt lat="43.77632" lon="1.58256">
        <ele>177.788571</ele>
        <time>2022-08-12T07:58:17.382Z</time>
      </trkpt>
      <trkpt lat="43.77646" lon="1.58247">
        <ele>177.357398</ele>
        <time>2022-08-12T07:58:19.374Z</time>
      </trkpt>
      <trkpt lat="43.77656" lon="1.58237">
        <ele>176.986918</ele>
        <time>2022-08-12T07:58:21.381Z</time>
      </trkpt>
      <trkpt lat="43.77666" lon="1.58225">
        <ele>176.591917</ele>
        <time>2022-08-12T07:58:23.400Z</time>
      </trkpt>
      <trkpt lat="43.77674" lon="1.58215">
        <ele>176.278531</ele>
        <time>2022-08-12T07:58:25.386Z</time>
      </trkpt>
      <trkpt lat="43.77681" lon="1.58204">
        <ele>175.965689</ele>
        <time>2022-08-12T07:58:27.398Z</time>
      </trkpt>
      <trkpt lat="43.77685" lon="1.58192">
        <ele>175.672032</ele>
        <time>2022-08-12T07:58:29.395Z</time>
      </trkpt>
      <trkpt lat="43.77692" lon="1.5818">
        <ele>175.361705</ele>
        <time>2022-08-12T07:58:31.391Z</time>
      </trkpt>
      <trkpt lat="43.77703" lon="1.58173">
        <ele>175.002994</ele>
        <time>2022-08-12T07:58:33.391Z</time>
      </trkpt>
      <trkpt lat="43.77714" lon="1.58176">
        <ele>174.665902</ele>
        <time>2022-08-12T07:58:35.402Z</time>
      </trkpt>
      <trkpt lat="43.77725" lon="1.5818">
        <ele>174.324642</ele>
        <time>2022-08-12T07:58:37.395Z</time>
      </trkpt>
      <trkpt lat="43.77737" lon="1.58179">
        <ele>174.254666</ele>
        <time>2022-08-12T07:58:39.382Z</time>
      </trkpt>
      <trkpt lat="43.77749" lon="1.5818">
        <ele>174.504099</ele>
        <time>2022-08-12T07:58:41.400Z</time>
      </trkpt>
      <trkpt lat="43.7776" lon="1.58179">
        <ele>174.732939</ele>
        <time>2022-08-12T07:58:43.383Z</time>
      </trkpt>
      <trkpt lat="43.77768" lon="1.5817">
        <ele>174.950176</ele>
        <time>2022-08-12T07:58:45.381Z</time>
      </trkpt>
      <trkpt lat="43.77775" lon="1.58158">
        <ele>175.180287</ele>
        <time>2022-08-12T07:58:47.430Z</time>
      </trkpt>
      <trkpt lat="43.77785" lon="1.58143">
        <ele>175.495398</ele>
        <time>2022-08-12T07:58:50.377Z</time>
      </trkpt>
      <trkpt lat="43.77793" lon="1.58133">
        <ele>175.718149</ele>
        <time>2022-08-12T07:58:52.393Z</time>
      </trkpt>
      <trkpt lat="43.77801" lon="1.58123">
        <ele>175.944193</ele>
        <time>2022-08-12T07:58:54.405Z</time>
      </trkpt>
      <trkpt lat="43.77807" lon="1.58108">
        <ele>176.203562</ele>
        <time>2022-08-12T07:58:57.401Z</time>
      </trkpt>
      <trkpt lat="43.778" lon="1.58093">
        <ele>176.471568</ele>
        <time>2022-08-12T07:59:00.407Z</time>
      </trkpt>
      <trkpt lat="43.77802" lon="1.58077">
        <ele>176.721083</ele>
        <time>2022-08-12T07:59:03.390Z</time>
      </trkpt>
      <trkpt lat="43.77801" lon="1.58059">
        <ele>176.99275</ele>
        <time>2022-08-12T07:59:06.390Z</time>
      </trkpt>
      <trkpt lat="43.77801" lon="1.58044">
        <ele>177.216738</ele>
        <time>2022-08-12T07:59:08.392Z</time>
      </trkpt>
      <trkpt lat="43.77806" lon="1.5803">
        <ele>177.461312</ele>
        <time>2022-08-12T07:59:10.403Z</time>
      </trkpt>
      <trkpt lat="43.77813" lon="1.58018">
        <ele>177.688734</ele>
        <time>2022-08-12T07:59:12.401Z</time>
      </trkpt>
      <trkpt lat="43.77818" lon="1.58006">
        <ele>177.896885</ele>
        <time>2022-08-12T07:59:14.388Z</time>
      </trkpt>
      <trkpt lat="43.77821" lon="1.57991">
        <ele>178.939779</ele>
        <time>2022-08-12T07:59:17.383Z</time>
      </trkpt>
      <trkpt lat="43.77824" lon="1.57976">
        <ele>180.119287</ele>
        <time>2022-08-12T07:59:19.449Z</time>
      </trkpt>
      <trkpt lat="43.7782" lon="1.57961">
        <ele>181.30455</ele>
        <time>2022-08-12T07:59:22.407Z</time>
      </trkpt>
      <trkpt lat="43.77826" lon="1.57948">
        <ele>182.475349</ele>
        <time>2022-08-12T07:59:25.416Z</time>
      </trkpt>
      <trkpt lat="43.7783" lon="1.57936">
        <ele>183.404254</ele>
        <time>2022-08-12T07:59:27.403Z</time>
      </trkpt>
      <trkpt lat="43.77833" lon="1.5792">
        <ele>184.692133</ele>
        <time>2022-08-12T07:59:29.408Z</time>
      </trkpt>
      <trkpt lat="43.77837" lon="1.57906">
        <ele>185.730959</ele>
        <time>2022-08-12T07:59:31.411Z</time>
      </trkpt>
      <trkpt lat="43.77836" lon="1.57889">
        <ele>187.013952</ele>
        <time>2022-08-12T07:59:34.406Z</time>
      </trkpt>
      <trkpt lat="43.77843" lon="1.57872">
        <ele>188.475648</ele>
        <time>2022-08-12T07:59:37.400Z</time>
      </trkpt>
      <trkpt lat="43.77848" lon="1.57859">
        <ele>189.521932</ele>
        <time>2022-08-12T07:59:39.399Z</time>
      </trkpt>
      <trkpt lat="43.77846" lon="1.57846">
        <ele>190.516592</ele>
        <time>2022-08-12T07:59:41.402Z</time>
      </trkpt>
      <trkpt lat="43.77841" lon="1.57835">
        <ele>191.491163</ele>
        <time>2022-08-12T07:59:44.420Z</time>
      </trkpt>
      <trkpt lat="43.77839" lon="1.57819">
        <ele>192.718459</ele>
        <time>2022-08-12T07:59:47.407Z</time>
      </trkpt>
      <trkpt lat="43.77838" lon="1.57805">
        <ele>193.734416</ele>
        <time>2022-08-12T07:59:50.421Z</time>
      </trkpt>
      <trkpt lat="43.77837" lon="1.57792">
        <ele>194.745352</ele>
        <time>2022-08-12T07:59:52.410Z</time>
      </trkpt>
      <trkpt lat="43.77827" lon="1.57775">
        <ele>196.364967</ele>
        <time>2022-08-12T07:59:56.420Z</time>
      </trkpt>
      <trkpt lat="43.7783" lon="1.57757">
        <ele>195.512327</ele>
        <time>2022-08-12T08:00:00.418Z</time>
      </trkpt>
      <trkpt lat="43.77838" lon="1.57747">
        <ele>194.837575</ele>
        <time>2022-08-12T08:00:02.421Z</time>
      </trkpt>
      <trkpt lat="43.77849" lon="1.57742">
        <ele>194.104522</ele>
        <time>2022-08-12T08:00:05.436Z</time>
      </trkpt>
      <trkpt lat="43.77859" lon="1.57732">
        <ele>193.306203</ele>
        <time>2022-08-12T08:00:07.390Z</time>
      </trkpt>
      <trkpt lat="43.77867" lon="1.57717">
        <ele>192.452846</ele>
        <time>2022-08-12T08:00:09.412Z</time>
      </trkpt>
      <trkpt lat="43.77877" lon="1.57714">
        <ele>191.734147</ele>
        <time>2022-08-12T08:00:11.398Z</time>
      </trkpt>
      <trkpt lat="43.77891" lon="1.57705">
        <ele>190.74626</ele>
        <time>2022-08-12T08:00:13.399Z</time>
      </trkpt>
      <trkpt lat="43.77911" lon="1.57693">
        <ele>189.381</ele>
        <time>2022-08-12T08:00:16.394Z</time>
      </trkpt>
      <trkpt lat="43.77923" lon="1.57678">
        <ele>188.306259</ele>
        <time>2022-08-12T08:00:19.404Z</time>
      </trkpt>
      <trkpt lat="43.77934" lon="1.5767">
        <ele>187.490377</ele>
        <time>2022-08-12T08:00:21.447Z</time>
      </trkpt>
      <trkpt lat="43.77946" lon="1.57662">
        <ele>186.672268</ele>
        <time>2022-08-12T08:00:23.414Z</time>
      </trkpt>
      <trkpt lat="43.77959" lon="1.57658">
        <ele>185.837026</ele>
        <time>2022-08-12T08:00:25.398Z</time>
      </trkpt>
      <trkpt lat="43.77973" lon="1.5766">
        <ele>184.893896</ele>
        <time>2022-08-12T08:00:27.387Z</time>
      </trkpt>
      <trkpt lat="43.77984" lon="1.57663">
        <ele>184.271343</ele>
        <time>2022-08-12T08:00:29.399Z</time>
      </trkpt>
      <trkpt lat="43.77998" lon="1.57669">
        <ele>183.517831</ele>
        <time>2022-08-12T08:00:31.402Z</time>
      </trkpt>
      <trkpt lat="43.78011" lon="1.57675">
        <ele>182.812748</ele>
        <time>2022-08-12T08:00:33.389Z</time>
      </trkpt>
      <trkpt lat="43.7802" lon="1.57679">
        <ele>182.296351</ele>
        <time>2022-08-12T08:00:35.391Z</time>
      </trkpt>
      <trkpt lat="43.78028" lon="1.57693">
        <ele>181.633769</ele>
        <time>2022-08-12T08:00:39.403Z</time>
      </trkpt>
      <trkpt lat="43.78035" lon="1.57684">
        <ele>181.117705</ele>
        <time>2022-08-12T08:00:44.412Z</time>
      </trkpt>
      <trkpt lat="43.78038" lon="1.5767">
        <ele>180.597218</ele>
        <time>2022-08-12T08:00:47.390Z</time>
      </trkpt>
      <trkpt lat="43.78042" lon="1.57659">
        <ele>180.121691</ele>
        <time>2022-08-12T08:00:50.400Z</time>
      </trkpt>
      <trkpt lat="43.7805" lon="1.57649">
        <ele>179.534698</ele>
        <time>2022-08-12T08:00:53.391Z</time>
      </trkpt>
      <trkpt lat="43.78056" lon="1.57638">
        <ele>179.017871</ele>
        <time>2022-08-12T08:00:55.387Z</time>
      </trkpt>
      <trkpt lat="43.78061" lon="1.57628">
        <ele>178.540957</ele>
        <time>2022-08-12T08:00:57.389Z</time>
      </trkpt>
      <trkpt lat="43.78066" lon="1.57616">
        <ele>178.03816</ele>
        <time>2022-08-12T08:00:59.385Z</time>
      </trkpt>
      <trkpt lat="43.78074" lon="1.57602">
        <ele>177.343008</ele>
        <time>2022-08-12T08:01:02.392Z</time>
      </trkpt>
      <trkpt lat="43.78079" lon="1.5759">
        <ele>176.836973</ele>
        <time>2022-08-12T08:01:04.383Z</time>
      </trkpt>
      <trkpt lat="43.78081" lon="1.57576">
        <ele>176.274161</ele>
        <time>2022-08-12T08:01:06.392Z</time>
      </trkpt>
      <trkpt lat="43.78079" lon="1.5756">
        <ele>175.665606</ele>
        <time>2022-08-12T08:01:09.394Z</time>
      </trkpt>
      <trkpt lat="43.78077" lon="1.57542">
        <ele>175.651658</ele>
        <time>2022-08-12T08:01:12.390Z</time>
      </trkpt>
      <trkpt lat="43.78072" lon="1.5753">
        <ele>176.205051</ele>
        <time>2022-08-12T08:01:14.391Z</time>
      </trkpt>
      <trkpt lat="43.78037" lon="1.57507">
        <ele>178.21088</ele>
        <time>2022-08-12T08:01:22.396Z</time>
      </trkpt>
      <trkpt lat="43.7802" lon="1.57493">
        <ele>179.25134</ele>
        <time>2022-08-12T08:01:25.399Z</time>
      </trkpt>
      <trkpt lat="43.78009" lon="1.5749">
        <ele>179.811088</ele>
        <time>2022-08-12T08:01:27.388Z</time>
      </trkpt>
      <trkpt lat="43.77945" lon="1.57498">
        <ele>129.1</ele>
        <time>2022-08-12T08:01:36.392Z</time>
      </trkpt>
      <trkpt lat="43.77907" lon="1.57474">
        <ele>133.3</ele>
      </trkpt>
      <trkpt lat="43.77864" lon="1.57477">
        <ele>139.1</ele>
      </trkpt>
      <trkpt lat="43.77831" lon="1.57488">
        <ele>142</ele>
      </trkpt>
      <trkpt lat="43.77818" lon="1.5746">
        <ele>145</ele>
      </trkpt>
      <trkpt lat="43.77818" lon="1.57454">
        <ele>145.4</ele>
      </trkpt>
      <trkpt lat="43.77812" lon="1.57446">
        <ele>146.4</ele>
      </trkpt>
      <trkpt lat="43.77809" lon="1.57436">
        <ele>147.3</ele>
        <time>2022-08-12T08:02:41.400Z</time>
      </trkpt>
      <trkpt lat="43.77775" lon="1.57398">
        <ele>150.8</ele>
        <time>2022-08-12T08:02:51.410Z</time>
      </trkpt>
      <trkpt lat="43.77772" lon="1.57385">
        <ele>151.3</ele>
        <time>2022-08-12T08:02:53.413Z</time>
      </trkpt>
      <trkpt lat="43.77762" lon="1.57383">
        <ele>151.6</ele>
      </trkpt>
      <trkpt lat="43.77737" lon="1.57352">
        <ele>152</ele>
        <time>2022-08-12T08:02:58.406Z</time>
      </trkpt>
      <trkpt lat="43.77716" lon="1.57341">
        <ele>152</ele>
      </trkpt>
      <trkpt lat="43.77699" lon="1.57325">
        <ele>152</ele>
        <time>2022-08-12T08:03:01.404Z</time>
      </trkpt>
      <trkpt lat="43.77677" lon="1.57315">
        <ele>152</ele>
        <time>2022-08-12T08:03:03.406Z</time>
      </trkpt>
      <trkpt lat="43.77674" lon="1.57313">
        <ele>152</ele>
        <time>2022-08-12T08:03:05.404Z</time>
      </trkpt>
      <trkpt lat="43.77665" lon="1.57294">
        <ele>151.6</ele>
        <time>2022-08-12T08:03:08.395Z</time>
      </trkpt>
      <trkpt lat="43.77655" lon="1.57289">
        <ele>151.6</ele>
        <time>2022-08-12T08:03:10.410Z</time>
      </trkpt>
      <trkpt lat="43.77636" lon="1.57259">
        <ele>152</ele>
        <time>2022-08-12T08:03:12.411Z</time>
      </trkpt>
      <trkpt lat="43.77618" lon="1.57249">
        <ele>152</ele>
      </trkpt>
      <trkpt lat="43.7759" lon="1.57213">
        <ele>153</ele>
      </trkpt>
      <trkpt lat="43.77546" lon="1.57193">
        <ele>154</ele>
      </trkpt>
      <trkpt lat="43.77515" lon="1.57152">
        <ele>154</ele>
      </trkpt>
      <trkpt lat="43.77498" lon="1.57137">
        <ele>154</ele>
      </trkpt>
      <trkpt lat="43.77471" lon="1.5709">
        <ele>154</ele>
      </trkpt>
      <trkpt lat="43.7747" lon="1.57074">
        <ele>205.375091</ele>
        <time>2022-08-12T08:03:55.415Z</time>
      </trkpt>
      <trkpt lat="43.77468" lon="1.57062">
        <ele>205.35991</ele>
        <time>2022-08-12T08:05:34.420Z</time>
      </trkpt>
      <trkpt lat="43.77477" lon="1.57059">
        <ele>205.357978</ele>
        <time>2022-08-12T08:05:38.415Z</time>
      </trkpt>
      <trkpt lat="43.77485" lon="1.57053">
        <ele>205.355939</ele>
        <time>2022-08-12T08:05:44.427Z</time>
      </trkpt>
      <trkpt lat="43.77494" lon="1.57044">
        <ele>205.353577</ele>
        <time>2022-08-12T08:05:47.407Z</time>
      </trkpt>
      <trkpt lat="43.77504" lon="1.57035">
        <ele>205.351127</ele>
        <time>2022-08-12T08:05:51.405Z</time>
      </trkpt>
      <trkpt lat="43.77512" lon="1.57031">
        <ele>205.349197</ele>
        <time>2022-08-12T08:05:55.407Z</time>
      </trkpt>
      <trkpt lat="43.77517" lon="1.57032">
        <ele>202.656363</ele>
        <time>2022-08-12T08:09:37.420Z</time>
      </trkpt>
      <trkpt lat="43.77524" lon="1.57023">
        <ele>202.238639</ele>
        <time>2022-08-12T08:09:42.418Z</time>
      </trkpt>
      <trkpt lat="43.77534" lon="1.57012">
        <ele>201.677278</ele>
        <time>2022-08-12T08:09:46.406Z</time>
      </trkpt>
      <trkpt lat="43.77542" lon="1.57005">
        <ele>201.226174</ele>
        <time>2022-08-12T08:09:49.427Z</time>
      </trkpt>
      <trkpt lat="43.77554" lon="1.57001">
        <ele>200.698884</ele>
        <time>2022-08-12T08:09:52.426Z</time>
      </trkpt>
      <trkpt lat="43.77566" lon="1.56995">
        <ele>200.12906</ele>
        <time>2022-08-12T08:09:55.412Z</time>
      </trkpt>
      <trkpt lat="43.77574" lon="1.56988">
        <ele>199.669166</ele>
        <time>2022-08-12T08:09:57.427Z</time>
      </trkpt>
      <trkpt lat="43.77584" lon="1.56979">
        <ele>199.162354</ele>
        <time>2022-08-12T08:09:59.404Z</time>
      </trkpt>
      <trkpt lat="43.77592" lon="1.56966">
        <ele>198.611257</ele>
        <time>2022-08-12T08:10:01.410Z</time>
      </trkpt>
      <trkpt lat="43.77602" lon="1.56957">
        <ele>198.085429</ele>
        <time>2022-08-12T08:10:03.404Z</time>
      </trkpt>
      <trkpt lat="43.77611" lon="1.56949">
        <ele>197.561661</ele>
        <time>2022-08-12T08:10:05.401Z</time>
      </trkpt>
      <trkpt lat="43.77621" lon="1.56937">
        <ele>196.996285</ele>
        <time>2022-08-12T08:10:07.408Z</time>
      </trkpt>
      <trkpt lat="43.7763" lon="1.56924">
        <ele>196.414409</ele>
        <time>2022-08-12T08:10:09.430Z</time>
      </trkpt>
      <trkpt lat="43.77637" lon="1.56913">
        <ele>195.93937</ele>
        <time>2022-08-12T08:10:11.426Z</time>
      </trkpt>
      <trkpt lat="43.77648" lon="1.56906">
        <ele>195.277802</ele>
        <time>2022-08-12T08:10:14.414Z</time>
      </trkpt>
      <trkpt lat="43.77671" lon="1.56888">
        <ele>193.787799</ele>
        <time>2022-08-12T08:10:58.409Z</time>
      </trkpt>
      <trkpt lat="43.77707" lon="1.56859">
        <ele>191.475354</ele>
        <time>2022-08-12T08:11:28.420Z</time>
      </trkpt>
      <trkpt lat="43.77715" lon="1.56847">
        <ele>190.816755</ele>
        <time>2022-08-12T08:11:31.410Z</time>
      </trkpt>
      <trkpt lat="43.77722" lon="1.56836">
        <ele>190.238269</ele>
        <time>2022-08-12T08:11:33.395Z</time>
      </trkpt>
      <trkpt lat="43.77728" lon="1.56823">
        <ele>189.600737</ele>
        <time>2022-08-12T08:11:35.400Z</time>
      </trkpt>
      <trkpt lat="43.77737" lon="1.56817">
        <ele>189.087553</ele>
        <time>2022-08-12T08:11:37.417Z</time>
      </trkpt>
      <trkpt lat="43.77747" lon="1.56817">
        <ele>188.506818</ele>
        <time>2022-08-12T08:11:40.405Z</time>
      </trkpt>
      <trkpt lat="43.77758" lon="1.56814">
        <ele>187.887764</ele>
        <time>2022-08-12T08:11:45.414Z</time>
      </trkpt>
      <trkpt lat="43.77765" lon="1.56806">
        <ele>187.382315</ele>
        <time>2022-08-12T08:11:48.415Z</time>
      </trkpt>
      <trkpt lat="43.77775" lon="1.56799">
        <ele>186.781309</ele>
        <time>2022-08-12T08:11:50.419Z</time>
      </trkpt>
      <trkpt lat="43.77788" lon="1.56795">
        <ele>186.001435</ele>
        <time>2022-08-12T08:11:53.412Z</time>
      </trkpt>
      <trkpt lat="43.77797" lon="1.56783">
        <ele>185.718366</ele>
        <time>2022-08-12T08:11:56.410Z</time>
      </trkpt>
      <trkpt lat="43.77807" lon="1.56776">
        <ele>185.662907</ele>
        <time>2022-08-12T08:11:59.429Z</time>
      </trkpt>
      <trkpt lat="43.77812" lon="1.56763">
        <ele>185.607614</ele>
        <time>2022-08-12T08:12:03.405Z</time>
      </trkpt>
      <trkpt lat="43.77814" lon="1.5675">
        <ele>185.558524</ele>
        <time>2022-08-12T08:12:07.420Z</time>
      </trkpt>
      <trkpt lat="43.77827" lon="1.56788">
        <ele>185.402173</ele>
        <time>2022-08-12T08:13:35.391Z</time>
      </trkpt>
      <trkpt lat="43.7781" lon="1.56818">
        <ele>185.260536</ele>
        <time>2022-08-12T08:13:45.400Z</time>
      </trkpt>
      <trkpt lat="43.778" lon="1.56824">
        <ele>185.202285</ele>
        <time>2022-08-12T08:13:51.423Z</time>
      </trkpt>
      <trkpt lat="43.7781" lon="1.56889">
        <ele>184.955883</ele>
        <time>2022-08-12T08:14:15.404Z</time>
      </trkpt>
      <trkpt lat="43.77826" lon="1.56932">
        <ele>185.151127</ele>
        <time>2022-08-12T08:14:24.391Z</time>
      </trkpt>
      <trkpt lat="43.77876" lon="1.57016">
        <ele>187.377894</ele>
        <time>2022-08-12T08:15:47.406Z</time>
      </trkpt>
      <trkpt lat="43.77874" lon="1.57031">
        <ele>187.687753</ele>
        <time>2022-08-12T08:15:51.388Z</time>
      </trkpt>
      <trkpt lat="43.77869" lon="1.5706">
        <ele>188.303502</ele>
        <time>2022-08-12T08:15:58.405Z</time>
      </trkpt>
      <trkpt lat="43.77868" lon="1.57073">
        <ele>188.578768</ele>
        <time>2022-08-12T08:16:00.412Z</time>
      </trkpt>
      <trkpt lat="43.77864" lon="1.57086">
        <ele>188.865752</ele>
        <time>2022-08-12T08:16:03.404Z</time>
      </trkpt>
      <trkpt lat="43.77855" lon="1.57093">
        <ele>189.153743</ele>
        <time>2022-08-12T08:16:11.410Z</time>
      </trkpt>
      <trkpt lat="43.77845" lon="1.57096">
        <ele>189.427543</ele>
        <time>2022-08-12T08:16:18.432Z</time>
      </trkpt>
      <trkpt lat="43.77834" lon="1.57102">
        <ele>189.753868</ele>
        <time>2022-08-12T08:16:23.395Z</time>
      </trkpt>
      <trkpt lat="43.77814" lon="1.57112">
        <ele>190.956255</ele>
        <time>2022-08-12T08:16:33.382Z</time>
      </trkpt>
      <trkpt lat="43.77804" lon="1.57111">
        <ele>191.603402</ele>
        <time>2022-08-12T08:16:36.412Z</time>
      </trkpt>
      <trkpt lat="43.77793" lon="1.57105">
        <ele>192.377346</ele>
        <time>2022-08-12T08:16:39.396Z</time>
      </trkpt>
      <trkpt lat="43.77784" lon="1.57096">
        <ele>193.100029</ele>
        <time>2022-08-12T08:16:42.427Z</time>
      </trkpt>
      <trkpt lat="43.77775" lon="1.57092">
        <ele>193.736067</ele>
        <time>2022-08-12T08:16:45.410Z</time>
      </trkpt>
      <trkpt lat="43.77766" lon="1.57089">
        <ele>194.345131</ele>
        <time>2022-08-12T08:16:48.413Z</time>
      </trkpt>
      <trkpt lat="43.77756" lon="1.57088">
        <ele>194.945048</ele>
        <time>2022-08-12T08:16:51.394Z</time>
      </trkpt>
      <trkpt lat="43.77745" lon="1.5709">
        <ele>195.697529</ele>
        <time>2022-08-12T08:16:55.409Z</time>
      </trkpt>
      <trkpt lat="43.77734" lon="1.5709">
        <ele>196.41118</ele>
        <time>2022-08-12T08:16:58.410Z</time>
      </trkpt>
      <trkpt lat="43.77724" lon="1.57089">
        <ele>197.066986</ele>
        <time>2022-08-12T08:17:01.401Z</time>
      </trkpt>
      <trkpt lat="43.77712" lon="1.57087">
        <ele>197.838766</ele>
        <time>2022-08-12T08:17:05.408Z</time>
      </trkpt>
      <trkpt lat="43.77702" lon="1.57085">
        <ele>198.474957</ele>
        <time>2022-08-12T08:17:08.468Z</time>
      </trkpt>
      <trkpt lat="43.77533" lon="1.57036">
        <ele>203.689648</ele>
        <time>2022-08-12T08:17:48.390Z</time>
      </trkpt>
      <trkpt lat="43.77523" lon="1.57043">
        <ele>203.866027</ele>
        <time>2022-08-12T08:17:52.420Z</time>
      </trkpt>
      <trkpt lat="43.77517" lon="1.57055">
        <ele>204.035982</ele>
        <time>2022-08-12T08:17:56.410Z</time>
      </trkpt>
      <trkpt lat="43.7751" lon="1.57063">
        <ele>204.184916</ele>
        <time>2022-08-12T08:18:00.428Z</time>
      </trkpt>
      <trkpt lat="43.77503" lon="1.57075">
        <ele>204.369971</ele>
        <time>2022-08-12T08:18:04.407Z</time>
      </trkpt>
      <trkpt lat="43.77514" lon="1.57104">
        <ele>204.524291</ele>
        <time>2022-08-12T08:18:47.401Z</time>
      </trkpt>
      <trkpt lat="43.77525" lon="1.57113">
        <ele>204.502133</ele>
        <time>2022-08-12T08:18:50.399Z</time>
      </trkpt>
      <trkpt lat="43.77531" lon="1.57123">
        <ele>204.485766</ele>
        <time>2022-08-12T08:18:52.406Z</time>
      </trkpt>
      <trkpt lat="43.77541" lon="1.57129">
        <ele>204.467705</ele>
        <time>2022-08-12T08:18:54.427Z</time>
      </trkpt>
      <trkpt lat="43.7755" lon="1.57132">
        <ele>204.451201</ele>
        <time>2022-08-12T08:18:56.416Z</time>
      </trkpt>
      <trkpt lat="43.77561" lon="1.57137">
        <ele>204.432113</ele>
        <time>2022-08-12T08:18:58.428Z</time>
      </trkpt>
      <trkpt lat="43.77572" lon="1.57146">
        <ele>204.410329</ele>
        <time>2022-08-12T08:19:01.398Z</time>
      </trkpt>
      <trkpt lat="43.77583" lon="1.57155">
        <ele>204.389199</ele>
        <time>2022-08-12T08:19:04.407Z</time>
      </trkpt>
      <trkpt lat="43.7759" lon="1.57164">
        <ele>204.372251</ele>
        <time>2022-08-12T08:19:07.417Z</time>
      </trkpt>
      <trkpt lat="43.77606" lon="1.57179">
        <ele>204.3366</ele>
        <time>2022-08-12T08:19:13.408Z</time>
      </trkpt>
      <trkpt lat="43.77615" lon="1.57188">
        <ele>204.316658</ele>
        <time>2022-08-12T08:19:16.415Z</time>
      </trkpt>
      <trkpt lat="43.77621" lon="1.57198">
        <ele>204.301228</ele>
        <time>2022-08-12T08:19:18.419Z</time>
      </trkpt>
      <trkpt lat="43.77631" lon="1.57204">
        <ele>204.282867</ele>
        <time>2022-08-12T08:19:22.430Z</time>
      </trkpt>
      <trkpt lat="43.77642" lon="1.57209">
        <ele>204.26351</ele>
        <time>2022-08-12T08:19:26.402Z</time>
      </trkpt>
      <trkpt lat="43.77649" lon="1.5722">
        <ele>204.244943</ele>
        <time>2022-08-12T08:19:29.384Z</time>
      </trkpt>
      <trkpt lat="43.77656" lon="1.5723">
        <ele>204.124064</ele>
        <time>2022-08-12T08:19:32.401Z</time>
      </trkpt>
      <trkpt lat="43.77666" lon="1.57237">
        <ele>203.956611</ele>
        <time>2022-08-12T08:19:34.410Z</time>
      </trkpt>
      <trkpt lat="43.77684" lon="1.57257">
        <ele>203.590731</ele>
        <time>2022-08-12T08:19:39.421Z</time>
      </trkpt>
      <trkpt lat="43.7769" lon="1.57267">
        <ele>203.444414</ele>
        <time>2022-08-12T08:19:42.471Z</time>
      </trkpt>
      <trkpt lat="43.77699" lon="1.57279">
        <ele>203.25111</ele>
        <time>2022-08-12T08:19:46.418Z</time>
      </trkpt>
      <trkpt lat="43.77706" lon="1.57285">
        <ele>203.107615</ele>
        <time>2022-08-12T08:19:48.432Z</time>
      </trkpt>
      <trkpt lat="43.77715" lon="1.57291">
        <ele>202.950793</ele>
        <time>2022-08-12T08:19:50.389Z</time>
      </trkpt>
      <trkpt lat="43.77729" lon="1.57295">
        <ele>202.734369</ele>
        <time>2022-08-12T08:19:53.414Z</time>
      </trkpt>
      <trkpt lat="43.77738" lon="1.57297">
        <ele>202.57686</ele>
        <time>2022-08-12T08:19:55.402Z</time>
      </trkpt>
      <trkpt lat="43.77745" lon="1.5731">
        <ele>202.39872</ele>
        <time>2022-08-12T08:19:58.402Z</time>
      </trkpt>
      <trkpt lat="43.77749" lon="1.57326">
        <ele>202.210369</ele>
        <time>2022-08-12T08:20:01.418Z</time>
      </trkpt>
      <trkpt lat="43.77758" lon="1.57334">
        <ele>202.044188</ele>
        <time>2022-08-12T08:20:03.471Z</time>
      </trkpt>
      <trkpt lat="43.77811" lon="1.5739">
        <ele>149.5</ele>
        <time>2022-08-12T08:22:03.412Z</time>
      </trkpt>
      <trkpt lat="43.77824" lon="1.574">
        <ele>197.318056</ele>
        <time>2022-08-12T08:22:31.441Z</time>
      </trkpt>
      <trkpt lat="43.77833" lon="1.57398">
        <ele>196.317326</ele>
        <time>2022-08-12T08:22:33.420Z</time>
      </trkpt>
      <trkpt lat="43.77843" lon="1.57391">
        <ele>195.2193</ele>
        <time>2022-08-12T08:22:35.452Z</time>
      </trkpt>
      <trkpt lat="43.77853" lon="1.5739">
        <ele>194.218757</ele>
        <time>2022-08-12T08:22:37.471Z</time>
      </trkpt>
      <trkpt lat="43.77861" lon="1.57398">
        <ele>193.214061</ele>
        <time>2022-08-12T08:22:39.431Z</time>
      </trkpt>
      <trkpt lat="43.77872" lon="1.57402">
        <ele>192.09041</ele>
        <time>2022-08-12T08:22:42.439Z</time>
      </trkpt>
      <trkpt lat="43.77884" lon="1.57404">
        <ele>190.898854</ele>
        <time>2022-08-12T08:22:45.416Z</time>
      </trkpt>
      <trkpt lat="43.77888" lon="1.57416">
        <ele>189.923913</ele>
        <time>2022-08-12T08:22:48.394Z</time>
      </trkpt>
      <trkpt lat="43.77901" lon="1.57429">
        <ele>188.341401</ele>
        <time>2022-08-12T08:22:52.423Z</time>
      </trkpt>
      <trkpt lat="43.77911" lon="1.57442">
        <ele>186.953792</ele>
        <time>2022-08-12T08:22:54.389Z</time>
      </trkpt>
      <trkpt lat="43.77922" lon="1.57448">
        <ele>185.740948</ele>
        <time>2022-08-12T08:22:56.408Z</time>
      </trkpt>
      <trkpt lat="43.77949" lon="1.5745">
        <ele>183.110931</ele>
        <time>2022-08-12T08:23:00.395Z</time>
      </trkpt>
      <trkpt lat="43.77958" lon="1.57449">
        <ele>182.670803</ele>
        <time>2022-08-12T08:23:02.395Z</time>
      </trkpt>
      <trkpt lat="43.77967" lon="1.57454">
        <ele>182.229726</ele>
        <time>2022-08-12T08:23:04.410Z</time>
      </trkpt>
      <trkpt lat="43.77978" lon="1.57454">
        <ele>181.712151</ele>
        <time>2022-08-12T08:23:07.421Z</time>
      </trkpt>
      <trkpt lat="43.77989" lon="1.57452">
        <ele>181.154367</ele>
        <time>2022-08-12T08:23:10.437Z</time>
      </trkpt>
      <trkpt lat="43.78" lon="1.57452">
        <ele>180.636691</ele>
        <time>2022-08-12T08:23:13.404Z</time>
      </trkpt>
      <trkpt lat="43.7801" lon="1.5745">
        <ele>180.185772</ele>
        <time>2022-08-12T08:23:16.417Z</time>
      </trkpt>
      <trkpt lat="43.78018" lon="1.57457">
        <ele>179.733964</ele>
        <time>2022-08-12T08:23:18.434Z</time>
      </trkpt>
      <trkpt lat="43.78027" lon="1.57461">
        <ele>179.26164</ele>
        <time>2022-08-12T08:23:20.386Z</time>
      </trkpt>
      <trkpt lat="43.7804" lon="1.57462">
        <ele>178.652669</ele>
        <time>2022-08-12T08:23:23.421Z</time>
      </trkpt>
      <trkpt lat="43.7805" lon="1.57469">
        <ele>178.131914</ele>
        <time>2022-08-12T08:23:25.421Z</time>
      </trkpt>
      <trkpt lat="43.78123" lon="1.57443">
        <ele>174.643302</ele>
        <time>2022-08-12T08:23:58.412Z</time>
      </trkpt>
      <trkpt lat="43.7813" lon="1.57435">
        <ele>174.501274</ele>
        <time>2022-08-12T08:24:00.402Z</time>
      </trkpt>
      <trkpt lat="43.78137" lon="1.57426">
        <ele>174.365619</ele>
        <time>2022-08-12T08:24:02.420Z</time>
      </trkpt>
      <trkpt lat="43.78147" lon="1.57414">
        <ele>174.169333</ele>
        <time>2022-08-12T08:24:05.410Z</time>
      </trkpt>
      <trkpt lat="43.78155" lon="1.57403">
        <ele>173.997923</ele>
        <time>2022-08-12T08:24:08.402Z</time>
      </trkpt>
      <trkpt lat="43.78159" lon="1.5739">
        <ele>173.850343</ele>
        <time>2022-08-12T08:24:13.413Z</time>
      </trkpt>
      <trkpt lat="43.78159" lon="1.57375">
        <ele>173.688032</ele>
        <time>2022-08-12T08:24:17.406Z</time>
      </trkpt>
      <trkpt lat="43.78162" lon="1.5736">
        <ele>173.516285</ele>
        <time>2022-08-12T08:24:20.427Z</time>
      </trkpt>
      <trkpt lat="43.78166" lon="1.57346">
        <ele>173.359847</ele>
        <time>2022-08-12T08:24:23.412Z</time>
      </trkpt>
      <trkpt lat="43.7817" lon="1.57334">
        <ele>173.218178</ele>
        <time>2022-08-12T08:24:25.422Z</time>
      </trkpt>
      <trkpt lat="43.78173" lon="1.57322">
        <ele>173.07239</ele>
        <time>2022-08-12T08:24:27.408Z</time>
      </trkpt>
      <trkpt lat="43.7818" lon="1.57307">
        <ele>172.89154</ele>
        <time>2022-08-12T08:24:30.395Z</time>
      </trkpt>
      <trkpt lat="43.78194" lon="1.57286">
        <ele>172.585303</ele>
        <time>2022-08-12T08:24:32.388Z</time>
      </trkpt>
      <trkpt lat="43.782" lon="1.57275">
        <ele>172.429275</ele>
        <time>2022-08-12T08:24:34.381Z</time>
      </trkpt>
      <trkpt lat="43.78202" lon="1.5726">
        <ele>172.271604</ele>
        <time>2022-08-12T08:24:36.386Z</time>
      </trkpt>
      <trkpt lat="43.78205" lon="1.57247">
        <ele>172.116363</ele>
        <time>2022-08-12T08:24:39.396Z</time>
      </trkpt>
      <trkpt lat="43.78209" lon="1.57232">
        <ele>171.989532</ele>
        <time>2022-08-12T08:24:42.389Z</time>
      </trkpt>
      <trkpt lat="43.78213" lon="1.57214">
        <ele>171.929864</ele>
        <time>2022-08-12T08:24:44.412Z</time>
      </trkpt>
      <trkpt lat="43.78218" lon="1.57202">
        <ele>171.886659</ele>
        <time>2022-08-12T08:24:46.420Z</time>
      </trkpt>
      <trkpt lat="43.78226" lon="1.57188">
        <ele>171.828655</ele>
        <time>2022-08-12T08:24:48.398Z</time>
      </trkpt>
      <trkpt lat="43.78233" lon="1.57178">
        <ele>171.785114</ele>
        <time>2022-08-12T08:24:50.402Z</time>
      </trkpt>
      <trkpt lat="43.7824" lon="1.57168">
        <ele>171.742372</ele>
        <time>2022-08-12T08:24:52.400Z</time>
      </trkpt>
      <trkpt lat="43.78245" lon="1.57157">
        <ele>171.699707</ele>
        <time>2022-08-12T08:24:54.383Z</time>
      </trkpt>
      <trkpt lat="43.78254" lon="1.57146">
        <ele>171.6492</ele>
        <time>2022-08-12T08:24:56.414Z</time>
      </trkpt>
      <trkpt lat="43.7826" lon="1.57136">
        <ele>171.608338</ele>
        <time>2022-08-12T08:24:58.395Z</time>
      </trkpt>
      <trkpt lat="43.78266" lon="1.57125">
        <ele>171.565278</ele>
        <time>2022-08-12T08:25:00.400Z</time>
      </trkpt>
      <trkpt lat="43.78272" lon="1.57114">
        <ele>171.521696</ele>
        <time>2022-08-12T08:25:02.395Z</time>
      </trkpt>
      <trkpt lat="43.78278" lon="1.57102">
        <ele>171.475811</ele>
        <time>2022-08-12T08:25:06.416Z</time>
      </trkpt>
      <trkpt lat="43.78294" lon="1.57031">
        <ele>171.239986</ele>
        <time>2022-08-12T08:25:35.398Z</time>
      </trkpt>
      <trkpt lat="43.78293" lon="1.57015">
        <ele>171.204686</ele>
        <time>2022-08-12T08:25:41.397Z</time>
      </trkpt>
      <trkpt lat="43.78298" lon="1.56999">
        <ele>171.177186</ele>
        <time>2022-08-12T08:25:45.399Z</time>
      </trkpt>
      <trkpt lat="43.78297" lon="1.56977">
        <ele>171.144676</ele>
        <time>2022-08-12T08:25:54.411Z</time>
      </trkpt>
      <trkpt lat="43.7829" lon="1.56966">
        <ele>171.122491</ele>
        <time>2022-08-12T08:25:59.412Z</time>
      </trkpt>
      <trkpt lat="43.78282" lon="1.56956">
        <ele>171.099862</ele>
        <time>2022-08-12T08:26:04.400Z</time>
      </trkpt>
      <trkpt lat="43.78305" lon="1.56915">
        <ele>171.020148</ele>
        <time>2022-08-12T08:26:45.435Z</time>
      </trkpt>
      <trkpt lat="43.78316" lon="1.56911">
        <ele>170.996569</ele>
        <time>2022-08-12T08:26:49.417Z</time>
      </trkpt>
      <trkpt lat="43.78327" lon="1.56908">
        <ele>170.973288</ele>
        <time>2022-08-12T08:26:53.404Z</time>
      </trkpt>
      <trkpt lat="43.78383" lon="1.5687">
        <ele>170.840764</ele>
        <time>2022-08-12T08:27:46.424Z</time>
      </trkpt>
      <trkpt lat="43.78391" lon="1.56861">
        <ele>170.877868</ele>
        <time>2022-08-12T08:27:49.404Z</time>
      </trkpt>
      <trkpt lat="43.78396" lon="1.56848">
        <ele>170.924762</ele>
        <time>2022-08-12T08:27:51.395Z</time>
      </trkpt>
      <trkpt lat="43.78402" lon="1.56839">
        <ele>170.965291</ele>
        <time>2022-08-12T08:27:53.385Z</time>
      </trkpt>
      <trkpt lat="43.78409" lon="1.56829">
        <ele>171.009329</ele>
        <time>2022-08-12T08:27:55.411Z</time>
      </trkpt>
      <trkpt lat="43.78417" lon="1.56817">
        <ele>171.059346</ele>
        <time>2022-08-12T08:27:57.389Z</time>
      </trkpt>
      <trkpt lat="43.78421" lon="1.56804">
        <ele>171.104898</ele>
        <time>2022-08-12T08:28:03.403Z</time>
      </trkpt>
      <trkpt lat="43.78417" lon="1.56793">
        <ele>171.145572</ele>
        <time>2022-08-12T08:28:06.421Z</time>
      </trkpt>
      <trkpt lat="43.78412" lon="1.56782">
        <ele>171.187357</ele>
        <time>2022-08-12T08:28:08.418Z</time>
      </trkpt>
      <trkpt lat="43.78404" lon="1.56774">
        <ele>171.22996</ele>
        <time>2022-08-12T08:28:11.392Z</time>
      </trkpt>
      <trkpt lat="43.78396" lon="1.56763">
        <ele>171.277524</ele>
        <time>2022-08-12T08:28:15.403Z</time>
      </trkpt>
      <trkpt lat="43.78383" lon="1.56766">
        <ele>171.337131</ele>
        <time>2022-08-12T08:28:20.386Z</time>
      </trkpt>
      <trkpt lat="43.78375" lon="1.56774">
        <ele>171.380672</ele>
        <time>2022-08-12T08:28:23.425Z</time>
      </trkpt>
      <trkpt lat="43.78366" lon="1.56779">
        <ele>171.423477</ele>
        <time>2022-08-12T08:28:28.422Z</time>
      </trkpt>
      <trkpt lat="43.78356" lon="1.56783">
        <ele>171.472263</ele>
        <time>2022-08-12T08:28:31.403Z</time>
      </trkpt>
      <trkpt lat="43.78346" lon="1.56789">
        <ele>171.517587</ele>
        <time>2022-08-12T08:28:34.390Z</time>
      </trkpt>
      <trkpt lat="43.78299" lon="1.56815">
        <ele>172.249437</ele>
        <time>2022-08-12T08:29:54.429Z</time>
      </trkpt>
      <trkpt lat="43.78291" lon="1.56827">
        <ele>172.528543</ele>
        <time>2022-08-12T08:30:00.394Z</time>
      </trkpt>
      <trkpt lat="43.78285" lon="1.56836">
        <ele>172.754016</ele>
        <time>2022-08-12T08:30:03.457Z</time>
      </trkpt>
      <trkpt lat="43.78243" lon="1.56805">
        <ele>173.900315</ele>
        <time>2022-08-12T08:30:40.420Z</time>
      </trkpt>
      <trkpt lat="43.78229" lon="1.56805">
        <ele>174.246224</ele>
        <time>2022-08-12T08:30:44.424Z</time>
      </trkpt>
      <trkpt lat="43.78219" lon="1.56798">
        <ele>174.50422</ele>
        <time>2022-08-12T08:30:46.417Z</time>
      </trkpt>
      <trkpt lat="43.78208" lon="1.568">
        <ele>174.780715</ele>
        <time>2022-08-12T08:30:49.395Z</time>
      </trkpt>
      <trkpt lat="43.78195" lon="1.56808">
        <ele>175.134749</ele>
        <time>2022-08-12T08:30:53.393Z</time>
      </trkpt>
      <trkpt lat="43.78181" lon="1.56813">
        <ele>175.490605</ele>
        <time>2022-08-12T08:30:58.426Z</time>
      </trkpt>
      <trkpt lat="43.78167" lon="1.56811">
        <ele>175.83291</ele>
        <time>2022-08-12T08:31:01.392Z</time>
      </trkpt>
      <trkpt lat="43.78157" lon="1.56808">
        <ele>176.091152</ele>
        <time>2022-08-12T08:31:03.403Z</time>
      </trkpt>
      <trkpt lat="43.78148" lon="1.56806">
        <ele>176.374442</ele>
        <time>2022-08-12T08:31:05.403Z</time>
      </trkpt>
      <trkpt lat="43.78137" lon="1.56802">
        <ele>176.72608</ele>
        <time>2022-08-12T08:31:08.427Z</time>
      </trkpt>
      <trkpt lat="43.78126" lon="1.56795">
        <ele>177.083209</ele>
        <time>2022-08-12T08:31:11.420Z</time>
      </trkpt>
      <trkpt lat="43.78116" lon="1.56793">
        <ele>177.405042</ele>
        <time>2022-08-12T08:31:13.427Z</time>
      </trkpt>
      <trkpt lat="43.78105" lon="1.56788">
        <ele>177.736598</ele>
        <time>2022-08-12T08:31:15.393Z</time>
      </trkpt>
      <trkpt lat="43.78096" lon="1.56784">
        <ele>178.042721</ele>
        <time>2022-08-12T08:31:17.408Z</time>
      </trkpt>
      <trkpt lat="43.78087" lon="1.56777">
        <ele>178.336743</ele>
        <time>2022-08-12T08:31:19.401Z</time>
      </trkpt>
      <trkpt lat="43.78076" lon="1.56771">
        <ele>178.698837</ele>
        <time>2022-08-12T08:31:22.392Z</time>
      </trkpt>
      <trkpt lat="43.78065" lon="1.56765">
        <ele>179.059702</ele>
        <time>2022-08-12T08:31:25.408Z</time>
      </trkpt>
      <trkpt lat="43.78056" lon="1.56762">
        <ele>179.336548</ele>
        <time>2022-08-12T08:31:29.417Z</time>
      </trkpt>
      <trkpt lat="43.78045" lon="1.56759">
        <ele>179.700166</ele>
        <time>2022-08-12T08:31:32.392Z</time>
      </trkpt>
      <trkpt lat="43.78035" lon="1.56756">
        <ele>180.008886</ele>
        <time>2022-08-12T08:31:35.384Z</time>
      </trkpt>
      <trkpt lat="43.78023" lon="1.56757">
        <ele>180.360208</ele>
        <time>2022-08-12T08:31:38.415Z</time>
      </trkpt>
      <trkpt lat="43.78013" lon="1.56757">
        <ele>180.674375</ele>
        <time>2022-08-12T08:31:41.385Z</time>
      </trkpt>
      <trkpt lat="43.78004" lon="1.56758">
        <ele>180.95239</ele>
        <time>2022-08-12T08:31:44.374Z</time>
      </trkpt>
      <trkpt lat="43.77994" lon="1.56751">
        <ele>181.282572</ele>
        <time>2022-08-12T08:32:12.428Z</time>
      </trkpt>
      <trkpt lat="43.77985" lon="1.5674">
        <ele>181.60537</ele>
        <time>2022-08-12T08:32:16.414Z</time>
      </trkpt>
      <trkpt lat="43.77976" lon="1.56733">
        <ele>181.852868</ele>
        <time>2022-08-12T08:32:20.396Z</time>
      </trkpt>
      <trkpt lat="43.77965" lon="1.56726">
        <ele>182.115765</ele>
        <time>2022-08-12T08:32:24.414Z</time>
      </trkpt>
      <trkpt lat="43.77957" lon="1.56723">
        <ele>182.325617</ele>
        <time>2022-08-12T08:32:28.419Z</time>
      </trkpt>
      <trkpt lat="43.77941" lon="1.56717">
        <ele>182.690771</ele>
        <time>2022-08-12T08:32:36.406Z</time>
      </trkpt>
      <trkpt lat="43.77918" lon="1.56713">
        <ele>183.229321</ele>
        <time>2022-08-12T08:33:04.400Z</time>
      </trkpt>
      <trkpt lat="43.77909" lon="1.5671">
        <ele>183.437442</ele>
        <time>2022-08-12T08:33:08.430Z</time>
      </trkpt>
      <trkpt lat="43.77899" lon="1.56706">
        <ele>183.683312</ele>
        <time>2022-08-12T08:33:11.423Z</time>
      </trkpt>
      <trkpt lat="43.77889" lon="1.56701">
        <ele>183.926747</ele>
        <time>2022-08-12T08:33:13.393Z</time>
      </trkpt>
      <trkpt lat="43.7788" lon="1.56696">
        <ele>184.151493</ele>
        <time>2022-08-12T08:33:15.420Z</time>
      </trkpt>
      <trkpt lat="43.7787" lon="1.56694">
        <ele>184.371265</ele>
        <time>2022-08-12T08:33:17.406Z</time>
      </trkpt>
      <trkpt lat="43.77858" lon="1.56694">
        <ele>184.657847</ele>
        <time>2022-08-12T08:33:20.406Z</time>
      </trkpt>
      <trkpt lat="43.77845" lon="1.56685">
        <ele>185.599278</ele>
        <time>2022-08-12T08:33:44.467Z</time>
      </trkpt>
      <trkpt lat="43.77836" lon="1.56679">
        <ele>185.762225</ele>
        <time>2022-08-12T08:33:47.384Z</time>
      </trkpt>
      <trkpt lat="43.77825" lon="1.56672">
        <ele>185.94734</ele>
        <time>2022-08-12T08:33:50.396Z</time>
      </trkpt>
      <trkpt lat="43.77817" lon="1.56665">
        <ele>186.098186</ele>
        <time>2022-08-12T08:33:53.388Z</time>
      </trkpt>
      <trkpt lat="43.77808" lon="1.56663">
        <ele>186.255626</ele>
        <time>2022-08-12T08:33:56.399Z</time>
      </trkpt>
      <trkpt lat="43.77798" lon="1.56658">
        <ele>186.408675</ele>
        <time>2022-08-12T08:33:59.396Z</time>
      </trkpt>
      <trkpt lat="43.77787" lon="1.56652">
        <ele>186.598534</ele>
        <time>2022-08-12T08:34:02.404Z</time>
      </trkpt>
      <trkpt lat="43.77779" lon="1.56648">
        <ele>186.742577</ele>
        <time>2022-08-12T08:34:04.458Z</time>
      </trkpt>
      <trkpt lat="43.77769" lon="1.56646">
        <ele>186.888527</ele>
        <time>2022-08-12T08:34:06.430Z</time>
      </trkpt>
      <trkpt lat="43.77757" lon="1.56648">
        <ele>187.088905</ele>
        <time>2022-08-12T08:34:09.397Z</time>
      </trkpt>
      <trkpt lat="43.77747" lon="1.56647">
        <ele>187.243113</ele>
        <time>2022-08-12T08:34:12.397Z</time>
      </trkpt>
      <trkpt lat="43.7774" lon="1.56637">
        <ele>187.397639</ele>
        <time>2022-08-12T08:34:30.426Z</time>
      </trkpt>
      <trkpt lat="43.77731" lon="1.56633">
        <ele>187.552546</ele>
        <time>2022-08-12T08:34:35.402Z</time>
      </trkpt>
      <trkpt lat="43.7772" lon="1.56629">
        <ele>187.728575</ele>
        <time>2022-08-12T08:34:38.415Z</time>
      </trkpt>
      <trkpt lat="43.77708" lon="1.56622">
        <ele>187.941011</ele>
        <time>2022-08-12T08:34:41.400Z</time>
      </trkpt>
      <trkpt lat="43.77696" lon="1.56617">
        <ele>188.139332</ele>
        <time>2022-08-12T08:34:44.401Z</time>
      </trkpt>
      <trkpt lat="43.77685" lon="1.56611">
        <ele>188.321137</ele>
        <time>2022-08-12T08:34:47.398Z</time>
      </trkpt>
      <trkpt lat="43.77674" lon="1.56605">
        <ele>188.557039</ele>
        <time>2022-08-12T08:34:50.404Z</time>
      </trkpt>
      <trkpt lat="43.77664" lon="1.56611">
        <ele>188.913096</ele>
        <time>2022-08-12T08:34:53.395Z</time>
      </trkpt>
      <trkpt lat="43.77656" lon="1.56615">
        <ele>189.216776</ele>
        <time>2022-08-12T08:34:55.415Z</time>
      </trkpt>
      <trkpt lat="43.77644" lon="1.56617">
        <ele>189.592172</ele>
        <time>2022-08-12T08:34:58.409Z</time>
      </trkpt>
      <trkpt lat="43.77633" lon="1.56613">
        <ele>189.963104</ele>
        <time>2022-08-12T08:35:01.391Z</time>
      </trkpt>
      <trkpt lat="43.77625" lon="1.56609">
        <ele>190.263868</ele>
        <time>2022-08-12T08:35:05.401Z</time>
      </trkpt>
      <trkpt lat="43.77615" lon="1.56608">
        <ele>190.592663</ele>
        <time>2022-08-12T08:35:07.414Z</time>
      </trkpt>
      <trkpt lat="43.77601" lon="1.56605">
        <ele>191.061912</ele>
        <time>2022-08-12T08:35:10.398Z</time>
      </trkpt>
      <trkpt lat="43.7759" lon="1.56601">
        <ele>191.436674</ele>
        <time>2022-08-12T08:35:13.423Z</time>
      </trkpt>
      <trkpt lat="43.77579" lon="1.56599">
        <ele>191.806858</ele>
        <time>2022-08-12T08:35:17.411Z</time>
      </trkpt>
      <trkpt lat="43.7757" lon="1.56596">
        <ele>192.103101</ele>
        <time>2022-08-12T08:35:19.415Z</time>
      </trkpt>
      <trkpt lat="43.7756" lon="1.56593">
        <ele>192.442539</ele>
        <time>2022-08-12T08:35:22.435Z</time>
      </trkpt>
      <trkpt lat="43.77549" lon="1.5659">
        <ele>192.818093</ele>
        <time>2022-08-12T08:35:27.400Z</time>
      </trkpt>
      <trkpt lat="43.77538" lon="1.56586">
        <ele>193.186477</ele>
        <time>2022-08-12T08:35:30.389Z</time>
      </trkpt>
      <trkpt lat="43.77528" lon="1.56583">
        <ele>193.522159</ele>
        <time>2022-08-12T08:35:32.426Z</time>
      </trkpt>
      <trkpt lat="43.77519" lon="1.56581">
        <ele>193.826643</ele>
        <time>2022-08-12T08:35:34.407Z</time>
      </trkpt>
      <trkpt lat="43.77507" lon="1.56576">
        <ele>194.244222</ele>
        <time>2022-08-12T08:35:37.410Z</time>
      </trkpt>
      <trkpt lat="43.77499" lon="1.56571">
        <ele>194.606463</ele>
        <time>2022-08-12T08:35:39.417Z</time>
      </trkpt>
      <trkpt lat="43.7749" lon="1.56565">
        <ele>195.044686</ele>
        <time>2022-08-12T08:35:41.399Z</time>
      </trkpt>
      <trkpt lat="43.7748" lon="1.56559">
        <ele>195.560777</ele>
        <time>2022-08-12T08:35:44.392Z</time>
      </trkpt>
      <trkpt lat="43.77473" lon="1.56552">
        <ele>195.984094</ele>
        <time>2022-08-12T08:36:04.417Z</time>
      </trkpt>
      <trkpt lat="43.77462" lon="1.56548">
        <ele>196.52632</ele>
        <time>2022-08-12T08:36:08.390Z</time>
      </trkpt>
      <trkpt lat="43.77449" lon="1.5654">
        <ele>197.162379</ele>
        <time>2022-08-12T08:36:11.419Z</time>
      </trkpt>
      <trkpt lat="43.77439" lon="1.56534">
        <ele>197.707748</ele>
        <time>2022-08-12T08:36:13.418Z</time>
      </trkpt>
      <trkpt lat="43.77429" lon="1.56527">
        <ele>198.214882</ele>
        <time>2022-08-12T08:36:15.420Z</time>
      </trkpt>
      <trkpt lat="43.77419" lon="1.56521">
        <ele>198.703997</ele>
        <time>2022-08-12T08:36:17.404Z</time>
      </trkpt>
      <trkpt lat="43.77411" lon="1.56516">
        <ele>199.145187</ele>
        <time>2022-08-12T08:36:19.405Z</time>
      </trkpt>
      <trkpt lat="43.77387" lon="1.56544">
        <ele>200.605318</ele>
        <time>2022-08-12T08:36:41.475Z</time>
      </trkpt>
      <trkpt lat="43.77376" lon="1.56553">
        <ele>201.190518</ele>
        <time>2022-08-12T08:36:44.410Z</time>
      </trkpt>
      <trkpt lat="43.77368" lon="1.56566">
        <ele>201.751435</ele>
        <time>2022-08-12T08:36:47.414Z</time>
      </trkpt>
      <trkpt lat="43.77361" lon="1.56575">
        <ele>202.215696</ele>
        <time>2022-08-12T08:36:49.424Z</time>
      </trkpt>
      <trkpt lat="43.77351" lon="1.56583">
        <ele>202.753094</ele>
        <time>2022-08-12T08:36:52.390Z</time>
      </trkpt>
      <trkpt lat="43.77339" lon="1.56589">
        <ele>203.397342</ele>
        <time>2022-08-12T08:36:55.413Z</time>
      </trkpt>
      <trkpt lat="43.77329" lon="1.56592">
        <ele>203.952857</ele>
        <time>2022-08-12T08:36:57.415Z</time>
      </trkpt>
      <trkpt lat="43.7732" lon="1.56595">
        <ele>204.439069</ele>
        <time>2022-08-12T08:36:59.412Z</time>
      </trkpt>
      <trkpt lat="43.77311" lon="1.566">
        <ele>204.933871</ele>
        <time>2022-08-12T08:37:01.422Z</time>
      </trkpt>
      <trkpt lat="43.77299" lon="1.56606">
        <ele>205.630446</ele>
        <time>2022-08-12T08:37:04.423Z</time>
      </trkpt>
      <trkpt lat="43.77288" lon="1.56615">
        <ele>206.319263</ele>
        <time>2022-08-12T08:37:07.409Z</time>
      </trkpt>
      <trkpt lat="43.77276" lon="1.56622">
        <ele>206.992618</ele>
        <time>2022-08-12T08:37:10.397Z</time>
      </trkpt>
      <trkpt lat="43.77267" lon="1.56626">
        <ele>207.469072</ele>
        <time>2022-08-12T08:37:12.416Z</time>
      </trkpt>
      <trkpt lat="43.77257" lon="1.5663">
        <ele>208.046616</ele>
        <time>2022-08-12T08:37:14.426Z</time>
      </trkpt>
      <trkpt lat="43.77247" lon="1.56634">
        <ele>208.599678</ele>
        <time>2022-08-12T08:37:16.424Z</time>
      </trkpt>
      <trkpt lat="43.77235" lon="1.56641">
        <ele>209.275</ele>
        <time>2022-08-12T08:37:19.381Z</time>
      </trkpt>
      <trkpt lat="43.77227" lon="1.56657">
        <ele>210.006976</ele>
        <time>2022-08-12T08:37:22.375Z</time>
      </trkpt>
      <trkpt lat="43.77215" lon="1.56662">
        <ele>210.66984</ele>
        <time>2022-08-12T08:37:25.404Z</time>
      </trkpt>
      <trkpt lat="43.77206" lon="1.56661">
        <ele>211.156064</ele>
        <time>2022-08-12T08:37:27.401Z</time>
      </trkpt>
      <trkpt lat="43.77198" lon="1.56668">
        <ele>211.655686</ele>
        <time>2022-08-12T08:37:29.410Z</time>
      </trkpt>
      <trkpt lat="43.77187" lon="1.56666">
        <ele>212.205848</ele>
        <time>2022-08-12T08:37:31.403Z</time>
      </trkpt>
      <trkpt lat="43.77177" lon="1.56669">
        <ele>212.162497</ele>
        <time>2022-08-12T08:37:33.399Z</time>
      </trkpt>
      <trkpt lat="43.77167" lon="1.56667">
        <ele>211.974641</ele>
        <time>2022-08-12T08:37:35.383Z</time>
      </trkpt>
      <trkpt lat="43.77156" lon="1.56664">
        <ele>211.760078</ele>
        <time>2022-08-12T08:37:37.410Z</time>
      </trkpt>
      <trkpt lat="43.77145" lon="1.56667">
        <ele>211.552023</ele>
        <time>2022-08-12T08:37:39.406Z</time>
      </trkpt>
      <trkpt lat="43.77134" lon="1.5667">
        <ele>211.34116</ele>
        <time>2022-08-12T08:37:41.406Z</time>
      </trkpt>
      <trkpt lat="43.77124" lon="1.56674">
        <ele>211.15337</ele>
        <time>2022-08-12T08:37:43.382Z</time>
      </trkpt>
      <trkpt lat="43.77114" lon="1.56676">
        <ele>210.968489</ele>
        <time>2022-08-12T08:37:46.384Z</time>
      </trkpt>
      <trkpt lat="43.77104" lon="1.56679">
        <ele>210.761135</ele>
        <time>2022-08-12T08:37:56.387Z</time>
      </trkpt>
      <trkpt lat="43.77094" lon="1.56673">
        <ele>210.561595</ele>
        <time>2022-08-12T08:38:00.397Z</time>
      </trkpt>
      <trkpt lat="43.77085" lon="1.56665">
        <ele>210.360294</ele>
        <time>2022-08-12T08:38:03.370Z</time>
      </trkpt>
      <trkpt lat="43.77078" lon="1.56657">
        <ele>210.190833</ele>
        <time>2022-08-12T08:38:06.373Z</time>
      </trkpt>
      <trkpt lat="43.77072" lon="1.56648">
        <ele>210.02169</ele>
        <time>2022-08-12T08:38:08.387Z</time>
      </trkpt>
      <trkpt lat="43.77065" lon="1.56638">
        <ele>209.827729</ele>
        <time>2022-08-12T08:38:11.375Z</time>
      </trkpt>
      <trkpt lat="43.77058" lon="1.56629">
        <ele>209.650992</ele>
        <time>2022-08-12T08:38:14.445Z</time>
      </trkpt>
      <trkpt lat="43.77048" lon="1.56625">
        <ele>209.45699</ele>
        <time>2022-08-12T08:38:22.394Z</time>
      </trkpt>
      <trkpt lat="43.77038" lon="1.5663">
        <ele>209.259013</ele>
        <time>2022-08-12T08:38:25.365Z</time>
      </trkpt>
      <trkpt lat="43.77027" lon="1.56627">
        <ele>209.038533</ele>
        <time>2022-08-12T08:38:29.386Z</time>
      </trkpt>
      <trkpt lat="43.77017" lon="1.56624">
        <ele>208.635074</ele>
        <time>2022-08-12T08:38:32.395Z</time>
      </trkpt>
      <trkpt lat="43.77008" lon="1.56619">
        <ele>208.011335</ele>
        <time>2022-08-12T08:38:34.410Z</time>
      </trkpt>
      <trkpt lat="43.76997" lon="1.56616">
        <ele>207.336297</ele>
        <time>2022-08-12T08:38:36.391Z</time>
      </trkpt>
      <trkpt lat="43.76985" lon="1.56607">
        <ele>206.427694</ele>
        <time>2022-08-12T08:38:38.458Z</time>
      </trkpt>
      <trkpt lat="43.7697" lon="1.56601">
        <ele>205.416116</ele>
        <time>2022-08-12T08:38:40.385Z</time>
      </trkpt>
      <trkpt lat="43.76961" lon="1.56596">
        <ele>204.821213</ele>
        <time>2022-08-12T08:38:41.382Z</time>
      </trkpt>
      <trkpt lat="43.76946" lon="1.56586">
        <ele>203.7674</ele>
        <time>2022-08-12T08:38:43.387Z</time>
      </trkpt>
      <trkpt lat="43.76933" lon="1.56577">
        <ele>202.829582</ele>
        <time>2022-08-12T08:38:45.393Z</time>
      </trkpt>
      <trkpt lat="43.76923" lon="1.5657">
        <ele>202.094582</ele>
        <time>2022-08-12T08:38:47.376Z</time>
      </trkpt>
      <trkpt lat="43.76915" lon="1.56562">
        <ele>201.429001</ele>
        <time>2022-08-12T08:38:50.428Z</time>
      </trkpt>
      <trkpt lat="43.76907" lon="1.56552">
        <ele>200.744578</ele>
        <time>2022-08-12T08:38:53.381Z</time>
      </trkpt>
      <trkpt lat="43.769" lon="1.56544">
        <ele>200.158592</ele>
        <time>2022-08-12T08:38:55.377Z</time>
      </trkpt>
      <trkpt lat="43.76893" lon="1.56536">
        <ele>199.569115</ele>
        <time>2022-08-12T08:38:57.384Z</time>
      </trkpt>
      <trkpt lat="43.76884" lon="1.56527">
        <ele>198.868738</ele>
        <time>2022-08-12T08:38:59.392Z</time>
      </trkpt>
      <trkpt lat="43.76875" lon="1.56519">
        <ele>198.174126</ele>
        <time>2022-08-12T08:39:01.386Z</time>
      </trkpt>
      <trkpt lat="43.76865" lon="1.56506">
        <ele>197.458857</ele>
        <time>2022-08-12T08:39:04.386Z</time>
      </trkpt>
      <trkpt lat="43.76857" lon="1.56494">
        <ele>198.150283</ele>
        <time>2022-08-12T08:39:06.413Z</time>
      </trkpt>
      <trkpt lat="43.76851" lon="1.56485">
        <ele>198.687803</ele>
        <time>2022-08-12T08:39:08.371Z</time>
      </trkpt>
      <trkpt lat="43.76844" lon="1.56475">
        <ele>199.293995</ele>
        <time>2022-08-12T08:39:10.380Z</time>
      </trkpt>
      <trkpt lat="43.76836" lon="1.56465">
        <ele>199.917719</ele>
        <time>2022-08-12T08:39:12.381Z</time>
      </trkpt>
      <trkpt lat="43.76828" lon="1.56457">
        <ele>200.527954</ele>
        <time>2022-08-12T08:39:14.387Z</time>
      </trkpt>
      <trkpt lat="43.7682" lon="1.56449">
        <ele>201.11818</ele>
        <time>2022-08-12T08:39:16.385Z</time>
      </trkpt>
      <trkpt lat="43.76811" lon="1.56444">
        <ele>201.698847</ele>
        <time>2022-08-12T08:39:18.388Z</time>
      </trkpt>
      <trkpt lat="43.76802" lon="1.5644">
        <ele>202.277845</ele>
        <time>2022-08-12T08:39:20.391Z</time>
      </trkpt>
      <trkpt lat="43.76793" lon="1.56435">
        <ele>202.865161</ele>
        <time>2022-08-12T08:39:22.410Z</time>
      </trkpt>
      <trkpt lat="43.76783" lon="1.56431">
        <ele>203.458233</ele>
        <time>2022-08-12T08:39:24.416Z</time>
      </trkpt>
      <trkpt lat="43.76773" lon="1.56427">
        <ele>204.101736</ele>
        <time>2022-08-12T08:39:26.397Z</time>
      </trkpt>
      <trkpt lat="43.76764" lon="1.56424">
        <ele>204.642237</ele>
        <time>2022-08-12T08:39:28.396Z</time>
      </trkpt>
      <trkpt lat="43.76753" lon="1.56419">
        <ele>205.323963</ele>
        <time>2022-08-12T08:39:30.400Z</time>
      </trkpt>
      <trkpt lat="43.76744" lon="1.56417">
        <ele>205.883694</ele>
        <time>2022-08-12T08:39:32.406Z</time>
      </trkpt>
      <trkpt lat="43.76736" lon="1.56413">
        <ele>206.431451</ele>
        <time>2022-08-12T08:39:35.393Z</time>
      </trkpt>
      <trkpt lat="43.76727" lon="1.5641">
        <ele>206.981781</ele>
        <time>2022-08-12T08:39:39.389Z</time>
      </trkpt>
      <trkpt lat="43.76716" lon="1.5641">
        <ele>207.649176</ele>
        <time>2022-08-12T08:39:41.386Z</time>
      </trkpt>
      <trkpt lat="43.76705" lon="1.56409">
        <ele>208.221427</ele>
        <time>2022-08-12T08:39:43.402Z</time>
      </trkpt>
      <trkpt lat="43.76694" lon="1.56412">
        <ele>208.531085</ele>
        <time>2022-08-12T08:39:45.405Z</time>
      </trkpt>
      <trkpt lat="43.76684" lon="1.56417">
        <ele>208.835998</ele>
        <time>2022-08-12T08:39:47.408Z</time>
      </trkpt>
      <trkpt lat="43.76672" lon="1.56422">
        <ele>209.170237</ele>
        <time>2022-08-12T08:39:49.400Z</time>
      </trkpt>
      <trkpt lat="43.7666" lon="1.56422">
        <ele>209.505301</ele>
        <time>2022-08-12T08:39:51.386Z</time>
      </trkpt>
      <trkpt lat="43.7665" lon="1.56415">
        <ele>209.814526</ele>
        <time>2022-08-12T08:39:53.390Z</time>
      </trkpt>
      <trkpt lat="43.76642" lon="1.56408">
        <ele>210.083593</ele>
        <time>2022-08-12T08:39:55.392Z</time>
      </trkpt>
      <trkpt lat="43.76632" lon="1.56399">
        <ele>210.40687</ele>
        <time>2022-08-12T08:39:57.387Z</time>
      </trkpt>
      <trkpt lat="43.76625" lon="1.5639">
        <ele>210.688293</ele>
        <time>2022-08-12T08:39:59.400Z</time>
      </trkpt>
      <trkpt lat="43.76616" lon="1.5638">
        <ele>211.003117</ele>
        <time>2022-08-12T08:40:01.393Z</time>
      </trkpt>
      <trkpt lat="43.76606" lon="1.56372">
        <ele>211.306244</ele>
        <time>2022-08-12T08:40:03.401Z</time>
      </trkpt>
      <trkpt lat="43.76598" lon="1.56364">
        <ele>211.595393</ele>
        <time>2022-08-12T08:40:05.404Z</time>
      </trkpt>
      <trkpt lat="43.76589" lon="1.56356">
        <ele>211.887013</ele>
        <time>2022-08-12T08:40:07.403Z</time>
      </trkpt>
      <trkpt lat="43.7658" lon="1.56349">
        <ele>212.171394</ele>
        <time>2022-08-12T08:40:09.381Z</time>
      </trkpt>
      <trkpt lat="43.7657" lon="1.56343">
        <ele>212.469039</ele>
        <time>2022-08-12T08:40:11.413Z</time>
      </trkpt>
      <trkpt lat="43.76561" lon="1.56334">
        <ele>212.770734</ele>
        <time>2022-08-12T08:40:13.398Z</time>
      </trkpt>
      <trkpt lat="43.76551" lon="1.56327">
        <ele>213.083443</ele>
        <time>2022-08-12T08:40:15.407Z</time>
      </trkpt>
      <trkpt lat="43.76541" lon="1.5632">
        <ele>213.176539</ele>
        <time>2022-08-12T08:40:17.414Z</time>
      </trkpt>
      <trkpt lat="43.76531" lon="1.56313">
        <ele>213.197957</ele>
        <time>2022-08-12T08:40:19.404Z</time>
      </trkpt>
      <trkpt lat="43.76521" lon="1.56306">
        <ele>213.219916</ele>
        <time>2022-08-12T08:40:21.429Z</time>
      </trkpt>
      <trkpt lat="43.7651" lon="1.56298">
        <ele>213.241589</ele>
        <time>2022-08-12T08:40:23.417Z</time>
      </trkpt>
      <trkpt lat="43.76501" lon="1.56289">
        <ele>213.262922</ele>
        <time>2022-08-12T08:40:25.411Z</time>
      </trkpt>
      <trkpt lat="43.76492" lon="1.56281">
        <ele>213.283419</ele>
        <time>2022-08-12T08:40:27.405Z</time>
      </trkpt>
      <trkpt lat="43.76482" lon="1.56273">
        <ele>213.303987</ele>
        <time>2022-08-12T08:40:29.423Z</time>
      </trkpt>
      <trkpt lat="43.76472" lon="1.56266">
        <ele>213.324828</ele>
        <time>2022-08-12T08:40:31.393Z</time>
      </trkpt>
      <trkpt lat="43.76463" lon="1.56256">
        <ele>213.346254</ele>
        <time>2022-08-12T08:40:33.380Z</time>
      </trkpt>
      <trkpt lat="43.76453" lon="1.56248">
        <ele>213.368307</ele>
        <time>2022-08-12T08:40:35.400Z</time>
      </trkpt>
      <trkpt lat="43.76442" lon="1.5624">
        <ele>213.390242</ele>
        <time>2022-08-12T08:40:37.394Z</time>
      </trkpt>
      <trkpt lat="43.76432" lon="1.56233">
        <ele>213.411763</ele>
        <time>2022-08-12T08:40:39.394Z</time>
      </trkpt>
      <trkpt lat="43.76421" lon="1.56228">
        <ele>213.433473</ele>
        <time>2022-08-12T08:40:41.410Z</time>
      </trkpt>
      <trkpt lat="43.76409" lon="1.56224">
        <ele>213.455676</ele>
        <time>2022-08-12T08:40:43.408Z</time>
      </trkpt>
      <trkpt lat="43.76398" lon="1.56219">
        <ele>213.477866</ele>
        <time>2022-08-12T08:40:45.408Z</time>
      </trkpt>
      <trkpt lat="43.76387" lon="1.56212">
        <ele>213.517775</ele>
        <time>2022-08-12T08:40:47.406Z</time>
      </trkpt>
      <trkpt lat="43.76376" lon="1.56208">
        <ele>213.638815</ele>
        <time>2022-08-12T08:40:49.408Z</time>
      </trkpt>
      <trkpt lat="43.76366" lon="1.56203">
        <ele>213.755998</ele>
        <time>2022-08-12T08:40:51.408Z</time>
      </trkpt>
      <trkpt lat="43.76355" lon="1.56199">
        <ele>213.879243</ele>
        <time>2022-08-12T08:40:53.404Z</time>
      </trkpt>
      <trkpt lat="43.76344" lon="1.56194">
        <ele>214.002341</ele>
        <time>2022-08-12T08:40:55.423Z</time>
      </trkpt>
      <trkpt lat="43.76334" lon="1.5619">
        <ele>214.120406</ele>
        <time>2022-08-12T08:40:57.393Z</time>
      </trkpt>
      <trkpt lat="43.76323" lon="1.56185">
        <ele>214.238923</ele>
        <time>2022-08-12T08:40:59.406Z</time>
      </trkpt>
      <trkpt lat="43.76313" lon="1.56181">
        <ele>214.356181</ele>
        <time>2022-08-12T08:41:01.397Z</time>
      </trkpt>
      <trkpt lat="43.76302" lon="1.56177">
        <ele>214.474028</ele>
        <time>2022-08-12T08:41:03.409Z</time>
      </trkpt>
      <trkpt lat="43.76292" lon="1.56172">
        <ele>214.592911</ele>
        <time>2022-08-12T08:41:05.402Z</time>
      </trkpt>
      <trkpt lat="43.76281" lon="1.56168">
        <ele>214.711376</ele>
        <time>2022-08-12T08:41:07.410Z</time>
      </trkpt>
      <trkpt lat="43.76271" lon="1.56165">
        <ele>214.826422</ele>
        <time>2022-08-12T08:41:09.387Z</time>
      </trkpt>
      <trkpt lat="43.7626" lon="1.56161">
        <ele>214.9424</ele>
        <time>2022-08-12T08:41:11.418Z</time>
      </trkpt>
      <trkpt lat="43.7625" lon="1.56158">
        <ele>215.06095</ele>
        <time>2022-08-12T08:41:13.400Z</time>
      </trkpt>
      <trkpt lat="43.76239" lon="1.56154">
        <ele>215.179868</ele>
        <time>2022-08-12T08:41:15.401Z</time>
      </trkpt>
      <trkpt lat="43.76228" lon="1.5615">
        <ele>215.297552</ele>
        <time>2022-08-12T08:41:17.419Z</time>
      </trkpt>
      <trkpt lat="43.76218" lon="1.56146">
        <ele>215.418723</ele>
        <time>2022-08-12T08:41:19.403Z</time>
      </trkpt>
      <trkpt lat="43.76207" lon="1.5614">
        <ele>215.478576</ele>
        <time>2022-08-12T08:41:21.390Z</time>
      </trkpt>
      <trkpt lat="43.76198" lon="1.56131">
        <ele>215.528239</ele>
        <time>2022-08-12T08:41:23.387Z</time>
      </trkpt>
      <trkpt lat="43.7619" lon="1.5612">
        <ele>215.577459</ele>
        <time>2022-08-12T08:41:25.392Z</time>
      </trkpt>
      <trkpt lat="43.76183" lon="1.56109">
        <ele>215.626885</ele>
        <time>2022-08-12T08:41:27.396Z</time>
      </trkpt>
      <trkpt lat="43.76175" lon="1.56098">
        <ele>215.677323</ele>
        <time>2022-08-12T08:41:29.379Z</time>
      </trkpt>
      <trkpt lat="43.76167" lon="1.56087">
        <ele>215.727834</ele>
        <time>2022-08-12T08:41:31.416Z</time>
      </trkpt>
      <trkpt lat="43.76159" lon="1.56076">
        <ele>215.777824</ele>
        <time>2022-08-12T08:41:33.392Z</time>
      </trkpt>
      <trkpt lat="43.76151" lon="1.56066">
        <ele>215.826929</ele>
        <time>2022-08-12T08:41:35.413Z</time>
      </trkpt>
      <trkpt lat="43.76143" lon="1.56056">
        <ele>215.875701</ele>
        <time>2022-08-12T08:41:37.398Z</time>
      </trkpt>
      <trkpt lat="43.76134" lon="1.56046">
        <ele>215.924297</ele>
        <time>2022-08-12T08:41:39.396Z</time>
      </trkpt>
      <trkpt lat="43.76126" lon="1.56036">
        <ele>215.973504</ele>
        <time>2022-08-12T08:41:41.412Z</time>
      </trkpt>
      <trkpt lat="43.76118" lon="1.56026">
        <ele>216.022825</ele>
        <time>2022-08-12T08:41:43.403Z</time>
      </trkpt>
      <trkpt lat="43.7611" lon="1.56016">
        <ele>216.071381</ele>
        <time>2022-08-12T08:41:45.392Z</time>
      </trkpt>
      <trkpt lat="43.76102" lon="1.56006">
        <ele>216.120059</ele>
        <time>2022-08-12T08:41:47.387Z</time>
      </trkpt>
      <trkpt lat="43.76094" lon="1.55996">
        <ele>216.167426</ele>
        <time>2022-08-12T08:41:49.389Z</time>
      </trkpt>
      <trkpt lat="43.76086" lon="1.55987">
        <ele>216.214372</ele>
        <time>2022-08-12T08:41:51.407Z</time>
      </trkpt>
      <trkpt lat="43.76078" lon="1.55977">
        <ele>216.321319</ele>
        <time>2022-08-12T08:41:53.413Z</time>
      </trkpt>
      <trkpt lat="43.7607" lon="1.55967">
        <ele>216.509522</ele>
        <time>2022-08-12T08:41:55.396Z</time>
      </trkpt>
      <trkpt lat="43.76062" lon="1.55956">
        <ele>216.701198</ele>
        <time>2022-08-12T08:41:57.411Z</time>
      </trkpt>
      <trkpt lat="43.76054" lon="1.55944">
        <ele>216.895848</ele>
        <time>2022-08-12T08:41:59.393Z</time>
      </trkpt>
      <trkpt lat="43.76047" lon="1.55933">
        <ele>217.085891</ele>
        <time>2022-08-12T08:42:01.413Z</time>
      </trkpt>
      <trkpt lat="43.76041" lon="1.5592">
        <ele>217.276112</ele>
        <time>2022-08-12T08:42:03.457Z</time>
      </trkpt>
      <trkpt lat="43.76035" lon="1.55907">
        <ele>217.469146</ele>
        <time>2022-08-12T08:42:05.389Z</time>
      </trkpt>
      <trkpt lat="43.7603" lon="1.55893">
        <ele>217.662059</ele>
        <time>2022-08-12T08:42:07.388Z</time>
      </trkpt>
      <trkpt lat="43.76024" lon="1.5588">
        <ele>217.854452</ele>
        <time>2022-08-12T08:42:09.394Z</time>
      </trkpt>
      <trkpt lat="43.76019" lon="1.55866">
        <ele>218.049011</ele>
        <time>2022-08-12T08:42:11.383Z</time>
      </trkpt>
      <trkpt lat="43.76013" lon="1.55853">
        <ele>218.237965</ele>
        <time>2022-08-12T08:42:13.382Z</time>
      </trkpt>
      <trkpt lat="43.76007" lon="1.5584">
        <ele>218.426337</ele>
        <time>2022-08-12T08:42:15.396Z</time>
      </trkpt>
      <trkpt lat="43.76" lon="1.55828">
        <ele>218.612651</ele>
        <time>2022-08-12T08:42:17.383Z</time>
      </trkpt>
      <trkpt lat="43.75993" lon="1.55818">
        <ele>218.799998</ele>
        <time>2022-08-12T08:42:19.389Z</time>
      </trkpt>
      <trkpt lat="43.75984" lon="1.55808">
        <ele>218.985868</ele>
        <time>2022-08-12T08:42:21.411Z</time>
      </trkpt>
      <trkpt lat="43.75976" lon="1.558">
        <ele>219.170395</ele>
        <time>2022-08-12T08:42:23.389Z</time>
      </trkpt>
      <trkpt lat="43.75967" lon="1.55792">
        <ele>219.34435</ele>
        <time>2022-08-12T08:42:25.379Z</time>
      </trkpt>
      <trkpt lat="43.75957" lon="1.55784">
        <ele>219.449468</ele>
        <time>2022-08-12T08:42:27.397Z</time>
      </trkpt>
      <trkpt lat="43.75948" lon="1.55776">
        <ele>219.555953</ele>
        <time>2022-08-12T08:42:29.399Z</time>
      </trkpt>
      <trkpt lat="43.75939" lon="1.55768">
        <ele>219.663631</ele>
        <time>2022-08-12T08:42:31.388Z</time>
      </trkpt>
      <trkpt lat="43.75929" lon="1.5576">
        <ele>219.771585</ele>
        <time>2022-08-12T08:42:33.389Z</time>
      </trkpt>
      <trkpt lat="43.75919" lon="1.55752">
        <ele>219.882017</ele>
        <time>2022-08-12T08:42:35.394Z</time>
      </trkpt>
      <trkpt lat="43.75909" lon="1.55744">
        <ele>219.994238</ele>
        <time>2022-08-12T08:42:37.385Z</time>
      </trkpt>
      <trkpt lat="43.75899" lon="1.55736">
        <ele>220.109166</ele>
        <time>2022-08-12T08:42:39.389Z</time>
      </trkpt>
      <trkpt lat="43.75888" lon="1.55728">
        <ele>220.225806</ele>
        <time>2022-08-12T08:42:41.384Z</time>
      </trkpt>
      <trkpt lat="43.75878" lon="1.5572">
        <ele>220.34439</ele>
        <time>2022-08-12T08:42:43.403Z</time>
      </trkpt>
      <trkpt lat="43.75867" lon="1.55713">
        <ele>220.461478</ele>
        <time>2022-08-12T08:42:45.394Z</time>
      </trkpt>
      <trkpt lat="43.75856" lon="1.55705">
        <ele>220.578011</ele>
        <time>2022-08-12T08:42:47.388Z</time>
      </trkpt>
      <trkpt lat="43.75845" lon="1.55698">
        <ele>220.692428</ele>
        <time>2022-08-12T08:42:49.401Z</time>
      </trkpt>
      <trkpt lat="43.75835" lon="1.55691">
        <ele>220.805099</ele>
        <time>2022-08-12T08:42:51.398Z</time>
      </trkpt>
      <trkpt lat="43.75825" lon="1.55684">
        <ele>220.915716</ele>
        <time>2022-08-12T08:42:53.387Z</time>
      </trkpt>
      <trkpt lat="43.75815" lon="1.55677">
        <ele>221.023099</ele>
        <time>2022-08-12T08:42:55.386Z</time>
      </trkpt>
      <trkpt lat="43.75805" lon="1.5567">
        <ele>221.40753</ele>
        <time>2022-08-12T08:42:57.398Z</time>
      </trkpt>
      <trkpt lat="43.75795" lon="1.55664">
        <ele>222.081192</ele>
        <time>2022-08-12T08:42:59.387Z</time>
      </trkpt>
      <trkpt lat="43.75786" lon="1.55657">
        <ele>222.744346</ele>
        <time>2022-08-12T08:43:01.420Z</time>
      </trkpt>
      <trkpt lat="43.75776" lon="1.5565">
        <ele>223.423538</ele>
        <time>2022-08-12T08:43:03.395Z</time>
      </trkpt>
      <trkpt lat="43.75766" lon="1.55644">
        <ele>224.095292</ele>
        <time>2022-08-12T08:43:05.397Z</time>
      </trkpt>
      <trkpt lat="43.75756" lon="1.55637">
        <ele>224.767045</ele>
        <time>2022-08-12T08:43:07.393Z</time>
      </trkpt>
      <trkpt lat="43.75746" lon="1.55631">
        <ele>225.412807</ele>
        <time>2022-08-12T08:43:09.395Z</time>
      </trkpt>
      <trkpt lat="43.75737" lon="1.55627">
        <ele>226.022595</ele>
        <time>2022-08-12T08:43:11.386Z</time>
      </trkpt>
      <trkpt lat="43.75728" lon="1.55623">
        <ele>226.588639</ele>
        <time>2022-08-12T08:43:13.394Z</time>
      </trkpt>
      <trkpt lat="43.75719" lon="1.5562">
        <ele>227.142874</ele>
        <time>2022-08-12T08:43:15.405Z</time>
      </trkpt>
      <trkpt lat="43.75706" lon="1.55617">
        <ele>227.962284</ele>
        <time>2022-08-12T08:43:18.404Z</time>
      </trkpt>
      <trkpt lat="43.75697" lon="1.55615">
        <ele>228.535453</ele>
        <time>2022-08-12T08:43:20.395Z</time>
      </trkpt>
      <trkpt lat="43.75688" lon="1.55612">
        <ele>229.099207</ele>
        <time>2022-08-12T08:43:22.408Z</time>
      </trkpt>
      <trkpt lat="43.75679" lon="1.55607">
        <ele>229.675045</ele>
        <time>2022-08-12T08:43:24.380Z</time>
      </trkpt>
      <trkpt lat="43.75672" lon="1.55599">
        <ele>230.237307</ele>
        <time>2022-08-12T08:43:26.402Z</time>
      </trkpt>
      <trkpt lat="43.75665" lon="1.5559">
        <ele>230.817132</ele>
        <time>2022-08-12T08:43:28.362Z</time>
      </trkpt>
      <trkpt lat="43.75659" lon="1.5558">
        <ele>231.404098</ele>
        <time>2022-08-12T08:43:30.386Z</time>
      </trkpt>
      <trkpt lat="43.75653" lon="1.5557">
        <ele>231.982219</ele>
        <time>2022-08-12T08:43:32.395Z</time>
      </trkpt>
      <trkpt lat="43.75648" lon="1.55558">
        <ele>232.05421</ele>
        <time>2022-08-12T08:43:34.378Z</time>
      </trkpt>
      <trkpt lat="43.75642" lon="1.55549">
        <ele>231.992612</ele>
        <time>2022-08-12T08:43:36.384Z</time>
      </trkpt>
      <trkpt lat="43.75632" lon="1.55536">
        <ele>231.903465</ele>
        <time>2022-08-12T08:43:39.393Z</time>
      </trkpt>
      <trkpt lat="43.75631" lon="1.5552">
        <ele>231.824291</ele>
        <time>2022-08-12T08:43:42.388Z</time>
      </trkpt>
      <trkpt lat="43.75636" lon="1.55508">
        <ele>231.757562</ele>
        <time>2022-08-12T08:43:44.390Z</time>
      </trkpt>
      <trkpt lat="43.75643" lon="1.55495">
        <ele>231.680772</ele>
        <time>2022-08-12T08:43:46.389Z</time>
      </trkpt>
      <trkpt lat="43.75652" lon="1.55484">
        <ele>231.596091</ele>
        <time>2022-08-12T08:43:48.395Z</time>
      </trkpt>
      <trkpt lat="43.75664" lon="1.55473">
        <ele>231.502588</ele>
        <time>2022-08-12T08:43:50.390Z</time>
      </trkpt>
      <trkpt lat="43.75678" lon="1.55464">
        <ele>231.401837</ele>
        <time>2022-08-12T08:43:52.403Z</time>
      </trkpt>
      <trkpt lat="43.75689" lon="1.55455">
        <ele>231.314131</ele>
        <time>2022-08-12T08:43:54.396Z</time>
      </trkpt>
      <trkpt lat="43.75688" lon="1.55437">
        <ele>231.228619</ele>
        <time>2022-08-12T08:43:56.405Z</time>
      </trkpt>
      <trkpt lat="43.75683" lon="1.55423">
        <ele>231.152156</ele>
        <time>2022-08-12T08:43:58.386Z</time>
      </trkpt>
      <trkpt lat="43.75676" lon="1.5541">
        <ele>231.071788</ele>
        <time>2022-08-12T08:44:00.410Z</time>
      </trkpt>
      <trkpt lat="43.75668" lon="1.55399">
        <ele>230.994091</ele>
        <time>2022-08-12T08:44:02.388Z</time>
      </trkpt>
      <trkpt lat="43.75659" lon="1.55387">
        <ele>230.913485</ele>
        <time>2022-08-12T08:44:04.396Z</time>
      </trkpt>
      <trkpt lat="43.75651" lon="1.55376">
        <ele>229.863303</ele>
        <time>2022-08-12T08:44:06.423Z</time>
      </trkpt>
      <trkpt lat="43.75643" lon="1.55363">
        <ele>228.524519</ele>
        <time>2022-08-12T08:44:08.401Z</time>
      </trkpt>
      <trkpt lat="43.75634" lon="1.55349">
        <ele>227.047321</ele>
        <time>2022-08-12T08:44:10.407Z</time>
      </trkpt>
      <trkpt lat="43.75624" lon="1.55334">
        <ele>225.361448</ele>
        <time>2022-08-12T08:44:12.400Z</time>
      </trkpt>
      <trkpt lat="43.75615" lon="1.55318">
        <ele>223.668461</ele>
        <time>2022-08-12T08:44:14.407Z</time>
      </trkpt>
      <trkpt lat="43.75609" lon="1.55308">
        <ele>222.661272</ele>
        <time>2022-08-12T08:44:17.396Z</time>
      </trkpt>
      <trkpt lat="43.75603" lon="1.55298">
        <ele>221.585827</ele>
        <time>2022-08-12T08:44:20.383Z</time>
      </trkpt>
      <trkpt lat="43.75596" lon="1.55288">
        <ele>220.489461</ele>
        <time>2022-08-12T08:44:22.408Z</time>
      </trkpt>
      <trkpt lat="43.75588" lon="1.55273">
        <ele>218.919208</ele>
        <time>2022-08-12T08:44:24.405Z</time>
      </trkpt>
      <trkpt lat="43.75578" lon="1.55253">
        <ele>216.992097</ele>
        <time>2022-08-12T08:44:26.409Z</time>
      </trkpt>
      <trkpt lat="43.75573" lon="1.55242">
        <ele>215.925885</ele>
        <time>2022-08-12T08:44:27.422Z</time>
      </trkpt>
      <trkpt lat="43.75568" lon="1.5523">
        <ele>214.780872</ele>
        <time>2022-08-12T08:44:28.403Z</time>
      </trkpt>
      <trkpt lat="43.75563" lon="1.55218">
        <ele>213.673321</ele>
        <time>2022-08-12T08:44:29.412Z</time>
      </trkpt>
      <trkpt lat="43.75558" lon="1.55207">
        <ele>212.64446</ele>
        <time>2022-08-12T08:44:30.408Z</time>
      </trkpt>
      <trkpt lat="43.75556" lon="1.55194">
        <ele>211.553597</ele>
        <time>2022-08-12T08:44:31.385Z</time>
      </trkpt>
      <trkpt lat="43.75556" lon="1.5518">
        <ele>210.644127</ele>
        <time>2022-08-12T08:44:32.400Z</time>
      </trkpt>
      <trkpt lat="43.75557" lon="1.55166">
        <ele>210.367894</ele>
        <time>2022-08-12T08:44:33.401Z</time>
      </trkpt>
      <trkpt lat="43.75554" lon="1.55152">
        <ele>210.073002</ele>
        <time>2022-08-12T08:44:34.395Z</time>
      </trkpt>
      <trkpt lat="43.75552" lon="1.55137">
        <ele>209.78199</ele>
        <time>2022-08-12T08:44:35.417Z</time>
      </trkpt>
      <trkpt lat="43.75546" lon="1.55125">
        <ele>209.479143</ele>
        <time>2022-08-12T08:44:36.390Z</time>
      </trkpt>
      <trkpt lat="43.7554" lon="1.55112">
        <ele>209.176183</ele>
        <time>2022-08-12T08:44:37.405Z</time>
      </trkpt>
      <trkpt lat="43.75533" lon="1.551">
        <ele>208.878035</ele>
        <time>2022-08-12T08:44:38.403Z</time>
      </trkpt>
      <trkpt lat="43.75526" lon="1.55089">
        <ele>208.589367</ele>
        <time>2022-08-12T08:44:39.409Z</time>
      </trkpt>
      <trkpt lat="43.7552" lon="1.55078">
        <ele>208.306833</ele>
        <time>2022-08-12T08:44:40.410Z</time>
      </trkpt>
      <trkpt lat="43.75513" lon="1.55067">
        <ele>208.029109</ele>
        <time>2022-08-12T08:44:41.422Z</time>
      </trkpt>
      <trkpt lat="43.75507" lon="1.55058">
        <ele>207.776934</ele>
        <time>2022-08-12T08:44:42.397Z</time>
      </trkpt>
      <trkpt lat="43.75499" lon="1.55042">
        <ele>207.383944</ele>
        <time>2022-08-12T08:44:44.402Z</time>
      </trkpt>
      <trkpt lat="43.75499" lon="1.55026">
        <ele>207.062097</ele>
        <time>2022-08-12T08:44:47.406Z</time>
      </trkpt>
      <trkpt lat="43.75509" lon="1.55013">
        <ele>206.691577</ele>
        <time>2022-08-12T08:44:50.403Z</time>
      </trkpt>
      <trkpt lat="43.75513" lon="1.55001">
        <ele>206.422923</ele>
        <time>2022-08-12T08:44:52.394Z</time>
      </trkpt>
      <trkpt lat="43.75506" lon="1.54985">
        <ele>206.056919</ele>
        <time>2022-08-12T08:44:55.398Z</time>
      </trkpt>
      <trkpt lat="43.755" lon="1.54974">
        <ele>205.79917</ele>
        <time>2022-08-12T08:44:57.405Z</time>
      </trkpt>
      <trkpt lat="43.75495" lon="1.54963">
        <ele>206.41442</ele>
        <time>2022-08-12T08:44:59.409Z</time>
      </trkpt>
      <trkpt lat="43.75489" lon="1.54947">
        <ele>207.38833</ele>
        <time>2022-08-12T08:45:02.395Z</time>
      </trkpt>
      <trkpt lat="43.75484" lon="1.5493">
        <ele>208.395604</ele>
        <time>2022-08-12T08:45:05.409Z</time>
      </trkpt>
      <trkpt lat="43.7548" lon="1.54913">
        <ele>209.384081</ele>
        <time>2022-08-12T08:45:08.411Z</time>
      </trkpt>
      <trkpt lat="43.75477" lon="1.54895">
        <ele>210.355263</ele>
        <time>2022-08-12T08:45:11.412Z</time>
      </trkpt>
      <trkpt lat="43.75472" lon="1.54878">
        <ele>211.323132</ele>
        <time>2022-08-12T08:45:14.405Z</time>
      </trkpt>
      <trkpt lat="43.75466" lon="1.54863">
        <ele>212.292414</ele>
        <time>2022-08-12T08:45:17.401Z</time>
      </trkpt>
      <trkpt lat="43.75459" lon="1.54849">
        <ele>213.247518</ele>
        <time>2022-08-12T08:45:20.393Z</time>
      </trkpt>
      <trkpt lat="43.75451" lon="1.54835">
        <ele>214.198527</ele>
        <time>2022-08-12T08:45:23.403Z</time>
      </trkpt>
      <trkpt lat="43.75444" lon="1.54821">
        <ele>215.140463</ele>
        <time>2022-08-12T08:45:26.412Z</time>
      </trkpt>
      <trkpt lat="43.75436" lon="1.54807">
        <ele>216.051472</ele>
        <time>2022-08-12T08:45:29.399Z</time>
      </trkpt>
      <trkpt lat="43.7543" lon="1.54794">
        <ele>216.940479</ele>
        <time>2022-08-12T08:45:32.401Z</time>
      </trkpt>
      <trkpt lat="43.75422" lon="1.54781">
        <ele>217.799537</ele>
        <time>2022-08-12T08:45:35.406Z</time>
      </trkpt>
      <trkpt lat="43.75415" lon="1.54771">
        <ele>218.609721</ele>
        <time>2022-08-12T08:45:38.413Z</time>
      </trkpt>
      <trkpt lat="43.75406" lon="1.54763">
        <ele>219.389317</ele>
        <time>2022-08-12T08:45:41.387Z</time>
      </trkpt>
      <trkpt lat="43.75396" lon="1.54757">
        <ele>220.044552</ele>
        <time>2022-08-12T08:45:44.406Z</time>
      </trkpt>
      <trkpt lat="43.75386" lon="1.54751">
        <ele>220.711045</ele>
        <time>2022-08-12T08:45:47.421Z</time>
      </trkpt>
      <trkpt lat="43.75378" lon="1.54744">
        <ele>221.345193</ele>
        <time>2022-08-12T08:45:50.421Z</time>
      </trkpt>
      <trkpt lat="43.75368" lon="1.54735">
        <ele>222.076266</ele>
        <time>2022-08-12T08:45:54.417Z</time>
      </trkpt>
      <trkpt lat="43.75362" lon="1.54725">
        <ele>222.654159</ele>
        <time>2022-08-12T08:45:57.407Z</time>
      </trkpt>
      <trkpt lat="43.75357" lon="1.54714">
        <ele>223.220858</ele>
        <time>2022-08-12T08:46:00.408Z</time>
      </trkpt>
      <trkpt lat="43.75351" lon="1.547">
        <ele>223.960292</ele>
        <time>2022-08-12T08:46:04.423Z</time>
      </trkpt>
      <trkpt lat="43.75344" lon="1.54686">
        <ele>224.709543</ele>
        <time>2022-08-12T08:46:08.409Z</time>
      </trkpt>
      <trkpt lat="43.75339" lon="1.54676">
        <ele>225.286927</ele>
        <time>2022-08-12T08:46:11.393Z</time>
      </trkpt>
      <trkpt lat="43.75334" lon="1.54665">
        <ele>225.8751</ele>
        <time>2022-08-12T08:46:14.424Z</time>
      </trkpt>
      <trkpt lat="43.75328" lon="1.54654">
        <ele>226.507117</ele>
        <time>2022-08-12T08:46:17.403Z</time>
      </trkpt>
      <trkpt lat="43.75321" lon="1.5464">
        <ele>227.241673</ele>
        <time>2022-08-12T08:46:20.406Z</time>
      </trkpt>
      <trkpt lat="43.75315" lon="1.54624">
        <ele>228.057096</ele>
        <time>2022-08-12T08:46:23.407Z</time>
      </trkpt>
      <trkpt lat="43.75311" lon="1.54613">
        <ele>228.643383</ele>
        <time>2022-08-12T08:46:25.405Z</time>
      </trkpt>
      <trkpt lat="43.75308" lon="1.54599">
        <ele>229.272804</ele>
        <time>2022-08-12T08:46:27.401Z</time>
      </trkpt>
      <trkpt lat="43.75305" lon="1.54585">
        <ele>229.943803</ele>
        <time>2022-08-12T08:46:29.380Z</time>
      </trkpt>
      <trkpt lat="43.75302" lon="1.5457">
        <ele>230.40406</ele>
        <time>2022-08-12T08:46:31.399Z</time>
      </trkpt>
      <trkpt lat="43.753" lon="1.54553">
        <ele>229.892689</ele>
        <time>2022-08-12T08:46:33.398Z</time>
      </trkpt>
      <trkpt lat="43.75298" lon="1.54536">
        <ele>229.357448</ele>
        <time>2022-08-12T08:46:35.391Z</time>
      </trkpt>
      <trkpt lat="43.75296" lon="1.54518">
        <ele>228.792001</ele>
        <time>2022-08-12T08:46:37.384Z</time>
      </trkpt>
      <trkpt lat="43.75293" lon="1.545">
        <ele>228.209049</ele>
        <time>2022-08-12T08:46:39.402Z</time>
      </trkpt>
      <trkpt lat="43.75291" lon="1.54481">
        <ele>227.609981</ele>
        <time>2022-08-12T08:46:41.396Z</time>
      </trkpt>
      <trkpt lat="43.75291" lon="1.54461">
        <ele>226.999561</ele>
        <time>2022-08-12T08:46:43.391Z</time>
      </trkpt>
      <trkpt lat="43.75294" lon="1.54442">
        <ele>226.38726</ele>
        <time>2022-08-12T08:46:45.389Z</time>
      </trkpt>
      <trkpt lat="43.75301" lon="1.54424">
        <ele>225.772246</ele>
        <time>2022-08-12T08:46:47.395Z</time>
      </trkpt>
      <trkpt lat="43.75308" lon="1.54407">
        <ele>225.15326</ele>
        <time>2022-08-12T08:46:49.394Z</time>
      </trkpt>
      <trkpt lat="43.75316" lon="1.54389">
        <ele>224.526497</ele>
        <time>2022-08-12T08:46:51.395Z</time>
      </trkpt>
      <trkpt lat="43.75323" lon="1.54372">
        <ele>223.901085</ele>
        <time>2022-08-12T08:46:53.381Z</time>
      </trkpt>
      <trkpt lat="43.7533" lon="1.54356">
        <ele>223.315235</ele>
        <time>2022-08-12T08:46:55.378Z</time>
      </trkpt>
      <trkpt lat="43.75337" lon="1.54339">
        <ele>222.721158</ele>
        <time>2022-08-12T08:46:57.396Z</time>
      </trkpt>
      <trkpt lat="43.75344" lon="1.54322">
        <ele>222.204471</ele>
        <time>2022-08-12T08:46:59.407Z</time>
      </trkpt>
      <trkpt lat="43.7535" lon="1.54303">
        <ele>221.666503</ele>
        <time>2022-08-12T08:47:01.399Z</time>
      </trkpt>
      <trkpt lat="43.75354" lon="1.54282">
        <ele>221.10216</ele>
        <time>2022-08-12T08:47:03.399Z</time>
      </trkpt>
      <trkpt lat="43.75357" lon="1.54262">
        <ele>220.556839</ele>
        <time>2022-08-12T08:47:05.397Z</time>
      </trkpt>
      <trkpt lat="43.75347" lon="1.54247">
        <ele>220.022763</ele>
        <time>2022-08-12T08:47:07.390Z</time>
      </trkpt>
      <trkpt lat="43.75334" lon="1.54232">
        <ele>219.416148</ele>
        <time>2022-08-12T08:47:09.387Z</time>
      </trkpt>
      <trkpt lat="43.75322" lon="1.54216">
        <ele>218.811953</ele>
        <time>2022-08-12T08:47:11.395Z</time>
      </trkpt>
      <trkpt lat="43.75313" lon="1.54197">
        <ele>218.222104</ele>
        <time>2022-08-12T08:47:13.385Z</time>
      </trkpt>
      <trkpt lat="43.75305" lon="1.54179">
        <ele>217.650174</ele>
        <time>2022-08-12T08:47:15.401Z</time>
      </trkpt>
      <trkpt lat="43.75298" lon="1.5416">
        <ele>217.083713</ele>
        <time>2022-08-12T08:47:17.394Z</time>
      </trkpt>
      <trkpt lat="43.75291" lon="1.5414">
        <ele>216.52032</ele>
        <time>2022-08-12T08:47:19.396Z</time>
      </trkpt>
      <trkpt lat="43.75286" lon="1.54121">
        <ele>216.775297</ele>
        <time>2022-08-12T08:47:21.392Z</time>
      </trkpt>
      <trkpt lat="43.75283" lon="1.54103">
        <ele>217.682231</ele>
        <time>2022-08-12T08:47:23.400Z</time>
      </trkpt>
      <trkpt lat="43.75286" lon="1.54087">
        <ele>218.461573</ele>
        <time>2022-08-12T08:47:25.394Z</time>
      </trkpt>
      <trkpt lat="43.75288" lon="1.54073">
        <ele>219.160559</ele>
        <time>2022-08-12T08:47:27.374Z</time>
      </trkpt>
      <trkpt lat="43.75289" lon="1.54058">
        <ele>219.872257</ele>
        <time>2022-08-12T08:47:29.403Z</time>
      </trkpt>
      <trkpt lat="43.75289" lon="1.54044">
        <ele>220.56557</ele>
        <time>2022-08-12T08:47:31.388Z</time>
      </trkpt>
      <trkpt lat="43.75288" lon="1.54031">
        <ele>221.191582</ele>
        <time>2022-08-12T08:47:33.390Z</time>
      </trkpt>
      <trkpt lat="43.75287" lon="1.54015">
        <ele>221.994856</ele>
        <time>2022-08-12T08:47:36.396Z</time>
      </trkpt>
      <trkpt lat="43.75284" lon="1.54001">
        <ele>222.676783</ele>
        <time>2022-08-12T08:47:39.382Z</time>
      </trkpt>
      <trkpt lat="43.75281" lon="1.53988">
        <ele>223.319762</ele>
        <time>2022-08-12T08:47:42.378Z</time>
      </trkpt>
      <trkpt lat="43.75277" lon="1.53976">
        <ele>223.957742</ele>
        <time>2022-08-12T08:47:45.407Z</time>
      </trkpt>
      <trkpt lat="43.75272" lon="1.53965">
        <ele>224.616137</ele>
        <time>2022-08-12T08:47:48.402Z</time>
      </trkpt>
      <trkpt lat="43.75267" lon="1.53954">
        <ele>225.261651</ele>
        <time>2022-08-12T08:47:51.395Z</time>
      </trkpt>
      <trkpt lat="43.75262" lon="1.53942">
        <ele>225.910819</ele>
        <time>2022-08-12T08:47:54.406Z</time>
      </trkpt>
      <trkpt lat="43.75255" lon="1.53929">
        <ele>226.693725</ele>
        <time>2022-08-12T08:47:58.401Z</time>
      </trkpt>
      <trkpt lat="43.7525" lon="1.53918">
        <ele>227.327962</ele>
        <time>2022-08-12T08:48:01.398Z</time>
      </trkpt>
      <trkpt lat="43.75246" lon="1.53907">
        <ele>227.93099</ele>
        <time>2022-08-12T08:48:04.409Z</time>
      </trkpt>
      <trkpt lat="43.75239" lon="1.53893">
        <ele>229.077237</ele>
        <time>2022-08-12T08:48:08.391Z</time>
      </trkpt>
      <trkpt lat="43.75233" lon="1.53883">
        <ele>230.211206</ele>
        <time>2022-08-12T08:48:11.411Z</time>
      </trkpt>
      <trkpt lat="43.75227" lon="1.53874">
        <ele>231.326763</ele>
        <time>2022-08-12T08:48:14.404Z</time>
      </trkpt>
      <trkpt lat="43.75219" lon="1.53867">
        <ele>232.45414</ele>
        <time>2022-08-12T08:48:17.430Z</time>
      </trkpt>
      <trkpt lat="43.75209" lon="1.53859">
        <ele>233.910521</ele>
        <time>2022-08-12T08:48:21.395Z</time>
      </trkpt>
      <trkpt lat="43.75198" lon="1.53852">
        <ele>235.374031</ele>
        <time>2022-08-12T08:48:25.407Z</time>
      </trkpt>
      <trkpt lat="43.7519" lon="1.53846">
        <ele>236.478389</ele>
        <time>2022-08-12T08:48:28.411Z</time>
      </trkpt>
      <trkpt lat="43.75182" lon="1.5384">
        <ele>237.579374</ele>
        <time>2022-08-12T08:48:31.396Z</time>
      </trkpt>
      <trkpt lat="43.75173" lon="1.53832">
        <ele>238.95448</ele>
        <time>2022-08-12T08:48:35.419Z</time>
      </trkpt>
      <trkpt lat="43.75163" lon="1.53823">
        <ele>240.371236</ele>
        <time>2022-08-12T08:48:39.410Z</time>
      </trkpt>
      <trkpt lat="43.75155" lon="1.53816">
        <ele>241.503544</ele>
        <time>2022-08-12T08:48:42.418Z</time>
      </trkpt>
      <trkpt lat="43.75148" lon="1.53809">
        <ele>242.630926</ele>
        <time>2022-08-12T08:48:45.423Z</time>
      </trkpt>
      <trkpt lat="43.75138" lon="1.53799">
        <ele>244.080574</ele>
        <time>2022-08-12T08:48:49.422Z</time>
      </trkpt>
      <trkpt lat="43.75129" lon="1.53789">
        <ele>245.502669</ele>
        <time>2022-08-12T08:48:53.402Z</time>
      </trkpt>
      <trkpt lat="43.75121" lon="1.53778">
        <ele>246.939004</ele>
        <time>2022-08-12T08:48:57.394Z</time>
      </trkpt>
      <trkpt lat="43.75112" lon="1.53767">
        <ele>248.38444</ele>
        <time>2022-08-12T08:49:01.409Z</time>
      </trkpt>
      <trkpt lat="43.75103" lon="1.53756">
        <ele>249.854049</ele>
        <time>2022-08-12T08:49:05.402Z</time>
      </trkpt>
      <trkpt lat="43.75094" lon="1.53745">
        <ele>250.959909</ele>
        <time>2022-08-12T08:49:09.411Z</time>
      </trkpt>
      <trkpt lat="43.75085" lon="1.53735">
        <ele>251.871499</ele>
        <time>2022-08-12T08:49:13.414Z</time>
      </trkpt>
      <trkpt lat="43.75076" lon="1.53725">
        <ele>252.746895</ele>
        <time>2022-08-12T08:49:17.397Z</time>
      </trkpt>
      <trkpt lat="43.75069" lon="1.53717">
        <ele>253.457554</ele>
        <time>2022-08-12T08:49:20.401Z</time>
      </trkpt>
      <trkpt lat="43.75061" lon="1.53706">
        <ele>254.367733</ele>
        <time>2022-08-12T08:49:24.430Z</time>
      </trkpt>
      <trkpt lat="43.75052" lon="1.53695">
        <ele>255.277183</ele>
        <time>2022-08-12T08:49:28.407Z</time>
      </trkpt>
      <trkpt lat="43.75043" lon="1.53685">
        <ele>256.196976</ele>
        <time>2022-08-12T08:49:32.413Z</time>
      </trkpt>
      <trkpt lat="43.75036" lon="1.53676">
        <ele>256.901441</ele>
        <time>2022-08-12T08:49:35.411Z</time>
      </trkpt>
      <trkpt lat="43.75029" lon="1.53667">
        <ele>257.703735</ele>
        <time>2022-08-12T08:49:38.398Z</time>
      </trkpt>
      <trkpt lat="43.7502" lon="1.53657">
        <ele>258.55189</ele>
        <time>2022-08-12T08:49:41.451Z</time>
      </trkpt>
      <trkpt lat="43.75012" lon="1.53645">
        <ele>259.480289</ele>
        <time>2022-08-12T08:49:44.412Z</time>
      </trkpt>
      <trkpt lat="43.75004" lon="1.53631">
        <ele>260.510279</ele>
        <time>2022-08-12T08:49:47.404Z</time>
      </trkpt>
      <trkpt lat="43.74998" lon="1.53619">
        <ele>261.306682</ele>
        <time>2022-08-12T08:49:49.393Z</time>
      </trkpt>
      <trkpt lat="43.74993" lon="1.53606">
        <ele>262.165378</ele>
        <time>2022-08-12T08:49:51.410Z</time>
      </trkpt>
      <trkpt lat="43.74989" lon="1.53592">
        <ele>263.021553</ele>
        <time>2022-08-12T08:49:53.409Z</time>
      </trkpt>
      <trkpt lat="43.74984" lon="1.53578">
        <ele>263.89818</ele>
        <time>2022-08-12T08:49:55.419Z</time>
      </trkpt>
      <trkpt lat="43.74979" lon="1.53564">
        <ele>264.476402</ele>
        <time>2022-08-12T08:49:57.415Z</time>
      </trkpt>
      <trkpt lat="43.74974" lon="1.53551">
        <ele>264.653534</ele>
        <time>2022-08-12T08:49:59.414Z</time>
      </trkpt>
      <trkpt lat="43.74969" lon="1.53538">
        <ele>264.828064</ele>
        <time>2022-08-12T08:50:01.403Z</time>
      </trkpt>
      <trkpt lat="43.74965" lon="1.53524">
        <ele>265.005675</ele>
        <time>2022-08-12T08:50:03.413Z</time>
      </trkpt>
      <trkpt lat="43.74961" lon="1.53511">
        <ele>265.182269</ele>
        <time>2022-08-12T08:50:05.401Z</time>
      </trkpt>
      <trkpt lat="43.74956" lon="1.53498">
        <ele>265.355306</ele>
        <time>2022-08-12T08:50:07.399Z</time>
      </trkpt>
      <trkpt lat="43.74951" lon="1.53485">
        <ele>265.526188</ele>
        <time>2022-08-12T08:50:09.406Z</time>
      </trkpt>
      <trkpt lat="43.74947" lon="1.53472">
        <ele>265.691053</ele>
        <time>2022-08-12T08:50:11.417Z</time>
      </trkpt>
      <trkpt lat="43.7494" lon="1.53461">
        <ele>265.863098</ele>
        <time>2022-08-12T08:50:14.409Z</time>
      </trkpt>
      <trkpt lat="43.74931" lon="1.53463">
        <ele>266.01674</ele>
        <time>2022-08-12T08:50:21.408Z</time>
      </trkpt>
      <trkpt lat="43.74925" lon="1.53476">
        <ele>266.197183</ele>
        <time>2022-08-12T08:50:24.417Z</time>
      </trkpt>
      <trkpt lat="43.74917" lon="1.53491">
        <ele>266.417429</ele>
        <time>2022-08-12T08:50:27.401Z</time>
      </trkpt>
      <trkpt lat="43.74912" lon="1.53503">
        <ele>266.592377</ele>
        <time>2022-08-12T08:50:29.419Z</time>
      </trkpt>
      <trkpt lat="43.74906" lon="1.53516">
        <ele>266.767991</ele>
        <time>2022-08-12T08:50:31.399Z</time>
      </trkpt>
      <trkpt lat="43.74902" lon="1.5353">
        <ele>266.951751</ele>
        <time>2022-08-12T08:50:33.418Z</time>
      </trkpt>
      <trkpt lat="43.74897" lon="1.53545">
        <ele>267.137097</ele>
        <time>2022-08-12T08:50:35.401Z</time>
      </trkpt>
      <trkpt lat="43.74894" lon="1.5356">
        <ele>267.323595</ele>
        <time>2022-08-12T08:50:37.408Z</time>
      </trkpt>
      <trkpt lat="43.74891" lon="1.53575">
        <ele>267.093445</ele>
        <time>2022-08-12T08:50:39.404Z</time>
      </trkpt>
      <trkpt lat="43.74888" lon="1.5359">
        <ele>266.737792</ele>
        <time>2022-08-12T08:50:41.417Z</time>
      </trkpt>
      <trkpt lat="43.74884" lon="1.53606">
        <ele>266.38212</ele>
        <time>2022-08-12T08:50:43.407Z</time>
      </trkpt>
      <trkpt lat="43.74881" lon="1.53621">
        <ele>266.029373</ele>
        <time>2022-08-12T08:50:45.406Z</time>
      </trkpt>
      <trkpt lat="43.74878" lon="1.53637">
        <ele>265.674221</ele>
        <time>2022-08-12T08:50:47.412Z</time>
      </trkpt>
      <trkpt lat="43.74875" lon="1.53652">
        <ele>265.314343</ele>
        <time>2022-08-12T08:50:49.415Z</time>
      </trkpt>
      <trkpt lat="43.74871" lon="1.53668">
        <ele>264.953548</ele>
        <time>2022-08-12T08:50:51.406Z</time>
      </trkpt>
      <trkpt lat="43.74868" lon="1.53684">
        <ele>264.595773</ele>
        <time>2022-08-12T08:50:53.424Z</time>
      </trkpt>
      <trkpt lat="43.74864" lon="1.53699">
        <ele>264.232139</ele>
        <time>2022-08-12T08:50:55.403Z</time>
      </trkpt>
      <trkpt lat="43.74861" lon="1.53715">
        <ele>263.863835</ele>
        <time>2022-08-12T08:50:57.396Z</time>
      </trkpt>
      <trkpt lat="43.74857" lon="1.53731">
        <ele>263.499746</ele>
        <time>2022-08-12T08:50:59.408Z</time>
      </trkpt>
      <trkpt lat="43.74848" lon="1.53737">
        <ele>263.193239</ele>
        <time>2022-08-12T08:51:02.400Z</time>
      </trkpt>
      <trkpt lat="43.74839" lon="1.5373">
        <ele>262.874663</ele>
        <time>2022-08-12T08:51:04.402Z</time>
      </trkpt>
      <trkpt lat="43.74828" lon="1.53717">
        <ele>262.436259</ele>
        <time>2022-08-12T08:51:06.391Z</time>
      </trkpt>
      <trkpt lat="43.74815" lon="1.53704">
        <ele>261.940104</ele>
        <time>2022-08-12T08:51:08.368Z</time>
      </trkpt>
      <trkpt lat="43.748" lon="1.53688">
        <ele>261.208888</ele>
        <time>2022-08-12T08:51:10.387Z</time>
      </trkpt>
      <trkpt lat="43.74792" lon="1.53679">
        <ele>260.795873</ele>
        <time>2022-08-12T08:51:11.389Z</time>
      </trkpt>
      <trkpt lat="43.74784" lon="1.53669">
        <ele>260.352467</ele>
        <time>2022-08-12T08:51:12.388Z</time>
      </trkpt>
      <trkpt lat="43.74775" lon="1.53659">
        <ele>259.890048</ele>
        <time>2022-08-12T08:51:13.357Z</time>
      </trkpt>
      <trkpt lat="43.74768" lon="1.53646">
        <ele>259.41745</ele>
        <time>2022-08-12T08:51:14.387Z</time>
      </trkpt>
      <trkpt lat="43.74761" lon="1.53634">
        <ele>258.94855</ele>
        <time>2022-08-12T08:51:15.394Z</time>
      </trkpt>
      <trkpt lat="43.74753" lon="1.53622">
        <ele>258.485228</ele>
        <time>2022-08-12T08:51:16.385Z</time>
      </trkpt>
      <trkpt lat="43.74746" lon="1.5361">
        <ele>258.031605</ele>
        <time>2022-08-12T08:51:17.379Z</time>
      </trkpt>
      <trkpt lat="43.74737" lon="1.53602">
        <ele>257.602835</ele>
        <time>2022-08-12T08:51:18.397Z</time>
      </trkpt>
      <trkpt lat="43.74728" lon="1.53597">
        <ele>257.194071</ele>
        <time>2022-08-12T08:51:19.389Z</time>
      </trkpt>
      <trkpt lat="43.74718" lon="1.53595">
        <ele>256.812721</ele>
        <time>2022-08-12T08:51:20.392Z</time>
      </trkpt>
      <trkpt lat="43.74701" lon="1.53594">
        <ele>256.124839</ele>
        <time>2022-08-12T08:51:22.378Z</time>
      </trkpt>
      <trkpt lat="43.74686" lon="1.53593">
        <ele>255.518202</ele>
        <time>2022-08-12T08:51:24.400Z</time>
      </trkpt>
      <trkpt lat="43.74674" lon="1.5359">
        <ele>255.022813</ele>
        <time>2022-08-12T08:51:26.391Z</time>
      </trkpt>
      <trkpt lat="43.74665" lon="1.53585">
        <ele>254.623765</ele>
        <time>2022-08-12T08:51:28.405Z</time>
      </trkpt>
      <trkpt lat="43.74657" lon="1.53578">
        <ele>254.379739</ele>
        <time>2022-08-12T08:51:30.404Z</time>
      </trkpt>
      <trkpt lat="43.74646" lon="1.53568">
        <ele>254.01877</ele>
        <time>2022-08-12T08:51:33.402Z</time>
      </trkpt>
      <trkpt lat="43.74635" lon="1.53561">
        <ele>253.709085</ele>
        <time>2022-08-12T08:51:35.404Z</time>
      </trkpt>
      <trkpt lat="43.74623" lon="1.53555">
        <ele>253.364416</ele>
        <time>2022-08-12T08:51:37.396Z</time>
      </trkpt>
      <trkpt lat="43.7461" lon="1.53547">
        <ele>252.992196</ele>
        <time>2022-08-12T08:51:39.404Z</time>
      </trkpt>
      <trkpt lat="43.74596" lon="1.5354">
        <ele>252.600375</ele>
        <time>2022-08-12T08:51:41.390Z</time>
      </trkpt>
      <trkpt lat="43.74582" lon="1.53532">
        <ele>252.188132</ele>
        <time>2022-08-12T08:51:43.401Z</time>
      </trkpt>
      <trkpt lat="43.74567" lon="1.53524">
        <ele>251.761504</ele>
        <time>2022-08-12T08:51:45.389Z</time>
      </trkpt>
      <trkpt lat="43.74551" lon="1.53513">
        <ele>251.299403</ele>
        <time>2022-08-12T08:51:47.382Z</time>
      </trkpt>
      <trkpt lat="43.74544" lon="1.53506">
        <ele>251.061401</ele>
        <time>2022-08-12T08:51:48.401Z</time>
      </trkpt>
      <trkpt lat="43.74529" lon="1.53491">
        <ele>250.587523</ele>
        <time>2022-08-12T08:51:50.406Z</time>
      </trkpt>
      <trkpt lat="43.74515" lon="1.53477">
        <ele>250.126554</ele>
        <time>2022-08-12T08:51:52.399Z</time>
      </trkpt>
      <trkpt lat="43.74502" lon="1.53463">
        <ele>249.797717</ele>
        <time>2022-08-12T08:51:54.397Z</time>
      </trkpt>
      <trkpt lat="43.74489" lon="1.5345">
        <ele>249.653662</ele>
        <time>2022-08-12T08:51:56.391Z</time>
      </trkpt>
      <trkpt lat="43.74477" lon="1.53437">
        <ele>249.51785</ele>
        <time>2022-08-12T08:51:58.408Z</time>
      </trkpt>
      <trkpt lat="43.74465" lon="1.53425">
        <ele>249.38869</ele>
        <time>2022-08-12T08:52:00.401Z</time>
      </trkpt>
      <trkpt lat="43.74454" lon="1.53415">
        <ele>249.266158</ele>
        <time>2022-08-12T08:52:02.389Z</time>
      </trkpt>
      <trkpt lat="43.74442" lon="1.53405">
        <ele>249.147992</ele>
        <time>2022-08-12T08:52:04.417Z</time>
      </trkpt>
      <trkpt lat="43.74432" lon="1.53395">
        <ele>249.033539</ele>
        <time>2022-08-12T08:52:06.420Z</time>
      </trkpt>
      <trkpt lat="43.74421" lon="1.53385">
        <ele>248.918269</ele>
        <time>2022-08-12T08:52:08.398Z</time>
      </trkpt>
      <trkpt lat="43.7441" lon="1.53376">
        <ele>248.802721</ele>
        <time>2022-08-12T08:52:10.396Z</time>
      </trkpt>
      <trkpt lat="43.74399" lon="1.53368">
        <ele>248.69143</ele>
        <time>2022-08-12T08:52:12.409Z</time>
      </trkpt>
      <trkpt lat="43.74388" lon="1.53362">
        <ele>248.58746</ele>
        <time>2022-08-12T08:52:14.395Z</time>
      </trkpt>
      <trkpt lat="43.74378" lon="1.53355">
        <ele>248.488617</ele>
        <time>2022-08-12T08:52:16.399Z</time>
      </trkpt>
      <trkpt lat="43.74368" lon="1.53349">
        <ele>248.389721</ele>
        <time>2022-08-12T08:52:18.404Z</time>
      </trkpt>
      <trkpt lat="43.74358" lon="1.53341">
        <ele>248.290239</ele>
        <time>2022-08-12T08:52:20.405Z</time>
      </trkpt>
      <trkpt lat="43.74348" lon="1.53335">
        <ele>248.039752</ele>
        <time>2022-08-12T08:52:22.407Z</time>
      </trkpt>
      <trkpt lat="43.74337" lon="1.53329">
        <ele>247.681557</ele>
        <time>2022-08-12T08:52:24.396Z</time>
      </trkpt>
      <trkpt lat="43.74325" lon="1.53322">
        <ele>247.306021</ele>
        <time>2022-08-12T08:52:26.393Z</time>
      </trkpt>
      <trkpt lat="43.74312" lon="1.53315">
        <ele>246.894031</ele>
        <time>2022-08-12T08:52:28.402Z</time>
      </trkpt>
      <trkpt lat="43.74298" lon="1.53308">
        <ele>246.448561</ele>
        <time>2022-08-12T08:52:30.411Z</time>
      </trkpt>
      <trkpt lat="43.74284" lon="1.53301">
        <ele>246.00171</ele>
        <time>2022-08-12T08:52:32.408Z</time>
      </trkpt>
      <trkpt lat="43.7427" lon="1.53295">
        <ele>245.561615</ele>
        <time>2022-08-12T08:52:34.400Z</time>
      </trkpt>
      <trkpt lat="43.74257" lon="1.53288">
        <ele>245.139991</ele>
        <time>2022-08-12T08:52:36.407Z</time>
      </trkpt>
      <trkpt lat="43.74245" lon="1.53278">
        <ele>244.744638</ele>
        <time>2022-08-12T08:52:38.411Z</time>
      </trkpt>
      <trkpt lat="43.74235" lon="1.5327">
        <ele>244.385542</ele>
        <time>2022-08-12T08:52:40.416Z</time>
      </trkpt>
      <trkpt lat="43.74226" lon="1.53261">
        <ele>244.048506</ele>
        <time>2022-08-12T08:52:42.412Z</time>
      </trkpt>
      <trkpt lat="43.74217" lon="1.53253">
        <ele>243.725446</ele>
        <time>2022-08-12T08:52:44.406Z</time>
      </trkpt>
      <trkpt lat="43.74208" lon="1.53245">
        <ele>243.413241</ele>
        <time>2022-08-12T08:52:46.410Z</time>
      </trkpt>
      <trkpt lat="43.74199" lon="1.53238">
        <ele>243.094241</ele>
        <time>2022-08-12T08:52:48.417Z</time>
      </trkpt>
      <trkpt lat="43.74187" lon="1.53232">
        <ele>242.27063</ele>
        <time>2022-08-12T08:52:50.428Z</time>
      </trkpt>
      <trkpt lat="43.74172" lon="1.5323">
        <ele>240.488949</ele>
        <time>2022-08-12T08:52:52.431Z</time>
      </trkpt>
      <trkpt lat="43.74155" lon="1.53228">
        <ele>238.347896</ele>
        <time>2022-08-12T08:52:54.412Z</time>
      </trkpt>
      <trkpt lat="43.74145" lon="1.53227">
        <ele>237.149761</ele>
        <time>2022-08-12T08:52:55.454Z</time>
      </trkpt>
      <trkpt lat="43.74135" lon="1.53225">
        <ele>235.919682</ele>
        <time>2022-08-12T08:52:56.412Z</time>
      </trkpt>
      <trkpt lat="43.74125" lon="1.53221">
        <ele>234.671727</ele>
        <time>2022-08-12T08:52:57.408Z</time>
      </trkpt>
      <trkpt lat="43.74115" lon="1.53215">
        <ele>233.372647</ele>
        <time>2022-08-12T08:52:58.415Z</time>
      </trkpt>
      <trkpt lat="43.74105" lon="1.53209">
        <ele>232.044381</ele>
        <time>2022-08-12T08:52:59.417Z</time>
      </trkpt>
      <trkpt lat="43.74095" lon="1.532">
        <ele>230.685901</ele>
        <time>2022-08-12T08:53:00.415Z</time>
      </trkpt>
      <trkpt lat="43.74086" lon="1.53192">
        <ele>229.377202</ele>
        <time>2022-08-12T08:53:01.422Z</time>
      </trkpt>
      <trkpt lat="43.74077" lon="1.53184">
        <ele>228.047801</ele>
        <time>2022-08-12T08:53:02.418Z</time>
      </trkpt>
      <trkpt lat="43.74067" lon="1.53178">
        <ele>226.722974</ele>
        <time>2022-08-12T08:53:03.415Z</time>
      </trkpt>
      <trkpt lat="43.74055" lon="1.53175">
        <ele>225.313246</ele>
        <time>2022-08-12T08:53:04.411Z</time>
      </trkpt>
      <trkpt lat="43.74044" lon="1.53172">
        <ele>223.929232</ele>
        <time>2022-08-12T08:53:05.407Z</time>
      </trkpt>
      <trkpt lat="43.74033" lon="1.53169">
        <ele>222.550465</ele>
        <time>2022-08-12T08:53:06.414Z</time>
      </trkpt>
      <trkpt lat="43.74023" lon="1.53166">
        <ele>221.325333</ele>
        <time>2022-08-12T08:53:07.413Z</time>
      </trkpt>
      <trkpt lat="43.74005" lon="1.53163">
        <ele>218.937419</ele>
        <time>2022-08-12T08:53:09.414Z</time>
      </trkpt>
      <trkpt lat="43.73994" lon="1.53162">
        <ele>217.537117</ele>
        <time>2022-08-12T08:53:10.416Z</time>
      </trkpt>
      <trkpt lat="43.73983" lon="1.53159">
        <ele>215.977817</ele>
        <time>2022-08-12T08:53:11.423Z</time>
      </trkpt>
      <trkpt lat="43.73971" lon="1.53155">
        <ele>214.337189</ele>
        <time>2022-08-12T08:53:12.418Z</time>
      </trkpt>
      <trkpt lat="43.73959" lon="1.53152">
        <ele>212.769895</ele>
        <time>2022-08-12T08:53:13.410Z</time>
      </trkpt>
      <trkpt lat="43.73947" lon="1.53148">
        <ele>211.135897</ele>
        <time>2022-08-12T08:53:14.417Z</time>
      </trkpt>
      <trkpt lat="43.73935" lon="1.53144">
        <ele>209.443636</ele>
        <time>2022-08-12T08:53:15.392Z</time>
      </trkpt>
      <trkpt lat="43.73923" lon="1.53139">
        <ele>207.767456</ele>
        <time>2022-08-12T08:53:16.422Z</time>
      </trkpt>
      <trkpt lat="43.73912" lon="1.53134">
        <ele>206.217073</ele>
        <time>2022-08-12T08:53:17.423Z</time>
      </trkpt>
      <trkpt lat="43.739" lon="1.53129">
        <ele>204.622902</ele>
        <time>2022-08-12T08:53:18.430Z</time>
      </trkpt>
      <trkpt lat="43.73888" lon="1.53124">
        <ele>202.995199</ele>
        <time>2022-08-12T08:53:19.420Z</time>
      </trkpt>
      <trkpt lat="43.73877" lon="1.5312">
        <ele>201.405747</ele>
        <time>2022-08-12T08:53:20.403Z</time>
      </trkpt>
      <trkpt lat="43.73866" lon="1.53116">
        <ele>199.950443</ele>
        <time>2022-08-12T08:53:21.411Z</time>
      </trkpt>
      <trkpt lat="43.73857" lon="1.53112">
        <ele>198.677733</ele>
        <time>2022-08-12T08:53:22.409Z</time>
      </trkpt>
      <trkpt lat="43.73841" lon="1.53107">
        <ele>197.227468</ele>
        <time>2022-08-12T08:53:24.404Z</time>
      </trkpt>
      <trkpt lat="43.73827" lon="1.53101">
        <ele>196.931214</ele>
        <time>2022-08-12T08:53:26.391Z</time>
      </trkpt>
      <trkpt lat="43.73813" lon="1.53091">
        <ele>196.635448</ele>
        <time>2022-08-12T08:53:28.387Z</time>
      </trkpt>
      <trkpt lat="43.73802" lon="1.53081">
        <ele>196.362116</ele>
        <time>2022-08-12T08:53:30.416Z</time>
      </trkpt>
      <trkpt lat="43.73791" lon="1.53069">
        <ele>196.106651</ele>
        <time>2022-08-12T08:53:32.411Z</time>
      </trkpt>
      <trkpt lat="43.73782" lon="1.53058">
        <ele>195.863256</ele>
        <time>2022-08-12T08:53:34.411Z</time>
      </trkpt>
      <trkpt lat="43.73772" lon="1.53048">
        <ele>195.615759</ele>
        <time>2022-08-12T08:53:36.405Z</time>
      </trkpt>
      <trkpt lat="43.73761" lon="1.53039">
        <ele>195.373468</ele>
        <time>2022-08-12T08:53:38.407Z</time>
      </trkpt>
      <trkpt lat="43.73751" lon="1.53029">
        <ele>195.136476</ele>
        <time>2022-08-12T08:53:40.421Z</time>
      </trkpt>
      <trkpt lat="43.7374" lon="1.53024">
        <ele>194.904403</ele>
        <time>2022-08-12T08:53:42.411Z</time>
      </trkpt>
      <trkpt lat="43.73729" lon="1.53019">
        <ele>194.675148</ele>
        <time>2022-08-12T08:53:44.404Z</time>
      </trkpt>
      <trkpt lat="43.73718" lon="1.53014">
        <ele>194.443031</ele>
        <time>2022-08-12T08:53:46.391Z</time>
      </trkpt>
      <trkpt lat="43.73706" lon="1.5301">
        <ele>194.208352</ele>
        <time>2022-08-12T08:53:48.392Z</time>
      </trkpt>
      <trkpt lat="43.73695" lon="1.53006">
        <ele>193.980738</ele>
        <time>2022-08-12T08:53:50.388Z</time>
      </trkpt>
      <trkpt lat="43.73684" lon="1.53004">
        <ele>193.811626</ele>
        <time>2022-08-12T08:53:52.404Z</time>
      </trkpt>
      <trkpt lat="43.73673" lon="1.53001">
        <ele>193.766649</ele>
        <time>2022-08-12T08:53:54.401Z</time>
      </trkpt>
      <trkpt lat="43.73661" lon="1.52996">
        <ele>193.718279</ele>
        <time>2022-08-12T08:53:56.405Z</time>
      </trkpt>
      <trkpt lat="43.73649" lon="1.52993">
        <ele>193.669711</ele>
        <time>2022-08-12T08:53:58.400Z</time>
      </trkpt>
      <trkpt lat="43.73638" lon="1.52988">
        <ele>193.622323</ele>
        <time>2022-08-12T08:54:00.402Z</time>
      </trkpt>
      <trkpt lat="43.73626" lon="1.52984">
        <ele>193.573881</ele>
        <time>2022-08-12T08:54:02.388Z</time>
      </trkpt>
      <trkpt lat="43.73614" lon="1.52982">
        <ele>193.527673</ele>
        <time>2022-08-12T08:54:04.417Z</time>
      </trkpt>
      <trkpt lat="43.73603" lon="1.5298">
        <ele>193.482554</ele>
        <time>2022-08-12T08:54:06.404Z</time>
      </trkpt>
      <trkpt lat="43.73592" lon="1.52979">
        <ele>193.437461</ele>
        <time>2022-08-12T08:54:08.416Z</time>
      </trkpt>
      <trkpt lat="43.7358" lon="1.52977">
        <ele>193.390148</ele>
        <time>2022-08-12T08:54:10.402Z</time>
      </trkpt>
      <trkpt lat="43.73568" lon="1.52975">
        <ele>193.341809</ele>
        <time>2022-08-12T08:54:12.426Z</time>
      </trkpt>
      <trkpt lat="43.73556" lon="1.52975">
        <ele>193.294874</ele>
        <time>2022-08-12T08:54:14.412Z</time>
      </trkpt>
      <trkpt lat="43.73544" lon="1.52975">
        <ele>193.24713</ele>
        <time>2022-08-12T08:54:16.412Z</time>
      </trkpt>
      <trkpt lat="43.73532" lon="1.52974">
        <ele>193.199792</ele>
        <time>2022-08-12T08:54:18.424Z</time>
      </trkpt>
      <trkpt lat="43.73521" lon="1.52973">
        <ele>193.154193</ele>
        <time>2022-08-12T08:54:20.416Z</time>
      </trkpt>
      <trkpt lat="43.7351" lon="1.5297">
        <ele>193.109908</ele>
        <time>2022-08-12T08:54:22.430Z</time>
      </trkpt>
      <trkpt lat="43.73499" lon="1.52968">
        <ele>193.123014</ele>
        <time>2022-08-12T08:54:24.431Z</time>
      </trkpt>
      <trkpt lat="43.73488" lon="1.52966">
        <ele>193.137604</ele>
        <time>2022-08-12T08:54:26.425Z</time>
      </trkpt>
      <trkpt lat="43.73476" lon="1.52962">
        <ele>193.153371</ele>
        <time>2022-08-12T08:54:28.416Z</time>
      </trkpt>
      <trkpt lat="43.73464" lon="1.52959">
        <ele>193.169848</ele>
        <time>2022-08-12T08:54:30.427Z</time>
      </trkpt>
      <trkpt lat="43.73453" lon="1.52957">
        <ele>193.184063</ele>
        <time>2022-08-12T08:54:32.426Z</time>
      </trkpt>
      <trkpt lat="43.73441" lon="1.52952">
        <ele>193.200431</ele>
        <time>2022-08-12T08:54:34.439Z</time>
      </trkpt>
      <trkpt lat="43.73432" lon="1.52944">
        <ele>193.214616</ele>
        <time>2022-08-12T08:54:36.408Z</time>
      </trkpt>
      <trkpt lat="43.73423" lon="1.52933">
        <ele>193.230242</ele>
        <time>2022-08-12T08:54:38.406Z</time>
      </trkpt>
      <trkpt lat="43.73416" lon="1.5292">
        <ele>193.246449</ele>
        <time>2022-08-12T08:54:40.405Z</time>
      </trkpt>
      <trkpt lat="43.73409" lon="1.52906">
        <ele>193.262227</ele>
        <time>2022-08-12T08:54:42.423Z</time>
      </trkpt>
      <trkpt lat="43.73403" lon="1.52891">
        <ele>193.27865</ele>
        <time>2022-08-12T08:54:44.410Z</time>
      </trkpt>
      <trkpt lat="43.73396" lon="1.52878">
        <ele>193.294056</ele>
        <time>2022-08-12T08:54:46.405Z</time>
      </trkpt>
      <trkpt lat="43.73388" lon="1.52866">
        <ele>193.309746</ele>
        <time>2022-08-12T08:54:48.409Z</time>
      </trkpt>
      <trkpt lat="43.73378" lon="1.52856">
        <ele>193.325763</ele>
        <time>2022-08-12T08:54:50.408Z</time>
      </trkpt>
      <trkpt lat="43.73368" lon="1.52848">
        <ele>193.341585</ele>
        <time>2022-08-12T08:54:52.403Z</time>
      </trkpt>
      <trkpt lat="43.73358" lon="1.52839">
        <ele>193.318425</ele>
        <time>2022-08-12T08:54:54.407Z</time>
      </trkpt>
      <trkpt lat="43.7335" lon="1.52828">
        <ele>193.279922</ele>
        <time>2022-08-12T08:54:56.440Z</time>
      </trkpt>
      <trkpt lat="43.73346" lon="1.52814">
        <ele>193.241235</ele>
        <time>2022-08-12T08:54:58.404Z</time>
      </trkpt>
      <trkpt lat="43.73343" lon="1.52799">
        <ele>193.201204</ele>
        <time>2022-08-12T08:55:00.408Z</time>
      </trkpt>
      <trkpt lat="43.73341" lon="1.52784">
        <ele>193.163291</ele>
        <time>2022-08-12T08:55:02.416Z</time>
      </trkpt>
      <trkpt lat="43.73335" lon="1.52769">
        <ele>193.121199</ele>
        <time>2022-08-12T08:55:04.394Z</time>
      </trkpt>
      <trkpt lat="43.73329" lon="1.52755">
        <ele>193.079912</ele>
        <time>2022-08-12T08:55:06.403Z</time>
      </trkpt>
      <trkpt lat="43.73323" lon="1.52742">
        <ele>193.041829</ele>
        <time>2022-08-12T08:55:08.436Z</time>
      </trkpt>
      <trkpt lat="43.73317" lon="1.52729">
        <ele>193.00176</ele>
        <time>2022-08-12T08:55:10.410Z</time>
      </trkpt>
      <trkpt lat="43.73311" lon="1.52714">
        <ele>192.959294</ele>
        <time>2022-08-12T08:55:12.407Z</time>
      </trkpt>
      <trkpt lat="43.73305" lon="1.52699">
        <ele>192.917309</ele>
        <time>2022-08-12T08:55:14.407Z</time>
      </trkpt>
      <trkpt lat="43.73299" lon="1.52685">
        <ele>192.874664</ele>
        <time>2022-08-12T08:55:16.414Z</time>
      </trkpt>
      <trkpt lat="43.73292" lon="1.52671">
        <ele>192.832413</ele>
        <time>2022-08-12T08:55:18.413Z</time>
      </trkpt>
      <trkpt lat="43.73287" lon="1.52656">
        <ele>192.79026</ele>
        <time>2022-08-12T08:55:20.405Z</time>
      </trkpt>
      <trkpt lat="43.73281" lon="1.5264">
        <ele>192.747674</ele>
        <time>2022-08-12T08:55:22.406Z</time>
      </trkpt>
      <trkpt lat="43.73276" lon="1.52625">
        <ele>192.694923</ele>
        <time>2022-08-12T08:55:24.417Z</time>
      </trkpt>
      <trkpt lat="43.7327" lon="1.5261">
        <ele>192.625614</ele>
        <time>2022-08-12T08:55:26.418Z</time>
      </trkpt>
      <trkpt lat="43.73265" lon="1.52595">
        <ele>192.556464</ele>
        <time>2022-08-12T08:55:28.407Z</time>
      </trkpt>
      <trkpt lat="43.73259" lon="1.52581">
        <ele>192.487415</ele>
        <time>2022-08-12T08:55:30.386Z</time>
      </trkpt>
      <trkpt lat="43.73252" lon="1.52566">
        <ele>192.418856</ele>
        <time>2022-08-12T08:55:32.396Z</time>
      </trkpt>
      <trkpt lat="43.73246" lon="1.52553">
        <ele>192.350823</ele>
        <time>2022-08-12T08:55:34.385Z</time>
      </trkpt>
      <trkpt lat="43.73238" lon="1.52541">
        <ele>192.28411</ele>
        <time>2022-08-12T08:55:36.403Z</time>
      </trkpt>
      <trkpt lat="43.73231" lon="1.52528">
        <ele>192.218422</ele>
        <time>2022-08-12T08:55:38.392Z</time>
      </trkpt>
      <trkpt lat="43.73225" lon="1.52515">
        <ele>192.153905</ele>
        <time>2022-08-12T08:55:40.409Z</time>
      </trkpt>
      <trkpt lat="43.73219" lon="1.52501">
        <ele>192.088273</ele>
        <time>2022-08-12T08:55:42.399Z</time>
      </trkpt>
      <trkpt lat="43.73212" lon="1.52488">
        <ele>192.021952</ele>
        <time>2022-08-12T08:55:44.394Z</time>
      </trkpt>
      <trkpt lat="43.73206" lon="1.52474">
        <ele>191.953284</ele>
        <time>2022-08-12T08:55:46.418Z</time>
      </trkpt>
      <trkpt lat="43.73198" lon="1.5246">
        <ele>191.882974</ele>
        <time>2022-08-12T08:55:48.421Z</time>
      </trkpt>
      <trkpt lat="43.73191" lon="1.52447">
        <ele>191.813663</ele>
        <time>2022-08-12T08:55:50.405Z</time>
      </trkpt>
      <trkpt lat="43.73183" lon="1.52434">
        <ele>191.745392</ele>
        <time>2022-08-12T08:55:52.413Z</time>
      </trkpt>
      <trkpt lat="43.73175" lon="1.52422">
        <ele>191.685229</ele>
        <time>2022-08-12T08:55:54.386Z</time>
      </trkpt>
      <trkpt lat="43.73166" lon="1.52412">
        <ele>191.644717</ele>
        <time>2022-08-12T08:55:56.406Z</time>
      </trkpt>
      <trkpt lat="43.73156" lon="1.52402">
        <ele>191.604116</ele>
        <time>2022-08-12T08:55:58.402Z</time>
      </trkpt>
      <trkpt lat="43.73147" lon="1.52392">
        <ele>191.563213</ele>
        <time>2022-08-12T08:56:00.389Z</time>
      </trkpt>
      <trkpt lat="43.73138" lon="1.52382">
        <ele>191.5227</ele>
        <time>2022-08-12T08:56:02.396Z</time>
      </trkpt>
      <trkpt lat="43.73129" lon="1.52372">
        <ele>191.481917</ele>
        <time>2022-08-12T08:56:04.425Z</time>
      </trkpt>
      <trkpt lat="43.73119" lon="1.52362">
        <ele>191.440464</ele>
        <time>2022-08-12T08:56:06.401Z</time>
      </trkpt>
      <trkpt lat="43.7311" lon="1.52351">
        <ele>191.399978</ele>
        <time>2022-08-12T08:56:08.392Z</time>
      </trkpt>
      <trkpt lat="43.73101" lon="1.5234">
        <ele>191.359306</ele>
        <time>2022-08-12T08:56:10.388Z</time>
      </trkpt>
      <trkpt lat="43.73092" lon="1.5233">
        <ele>191.318634</ele>
        <time>2022-08-12T08:56:12.372Z</time>
      </trkpt>
      <trkpt lat="43.73084" lon="1.52318">
        <ele>191.277471</ele>
        <time>2022-08-12T08:56:14.409Z</time>
      </trkpt>
      <trkpt lat="43.73075" lon="1.52307">
        <ele>191.236533</ele>
        <time>2022-08-12T08:56:16.401Z</time>
      </trkpt>
      <trkpt lat="43.73068" lon="1.52295">
        <ele>191.197128</ele>
        <time>2022-08-12T08:56:18.398Z</time>
      </trkpt>
      <trkpt lat="43.7306" lon="1.52284">
        <ele>191.158466</ele>
        <time>2022-08-12T08:56:20.401Z</time>
      </trkpt>
      <trkpt lat="43.73052" lon="1.52273">
        <ele>191.120752</ele>
        <time>2022-08-12T08:56:22.413Z</time>
      </trkpt>
      <trkpt lat="43.73044" lon="1.52263">
        <ele>191.082803</ele>
        <time>2022-08-12T08:56:24.431Z</time>
      </trkpt>
      <trkpt lat="43.73036" lon="1.52252">
        <ele>191.044499</ele>
        <time>2022-08-12T08:56:26.412Z</time>
      </trkpt>
      <trkpt lat="43.73028" lon="1.52241">
        <ele>191.006785</ele>
        <time>2022-08-12T08:56:28.401Z</time>
      </trkpt>
      <trkpt lat="43.73019" lon="1.52233">
        <ele>190.96968</ele>
        <time>2022-08-12T08:56:30.397Z</time>
      </trkpt>
      <trkpt lat="43.73008" lon="1.52228">
        <ele>190.932684</ele>
        <time>2022-08-12T08:56:32.414Z</time>
      </trkpt>
      <trkpt lat="43.72998" lon="1.52226">
        <ele>190.897624</ele>
        <time>2022-08-12T08:56:34.424Z</time>
      </trkpt>
      <trkpt lat="43.72987" lon="1.52231">
        <ele>190.859915</ele>
        <time>2022-08-12T08:56:36.416Z</time>
      </trkpt>
      <trkpt lat="43.72976" lon="1.52237">
        <ele>190.821177</ele>
        <time>2022-08-12T08:56:38.412Z</time>
      </trkpt>
      <trkpt lat="43.72965" lon="1.52241">
        <ele>190.781613</ele>
        <time>2022-08-12T08:56:40.410Z</time>
      </trkpt>
      <trkpt lat="43.72954" lon="1.52244">
        <ele>190.742704</ele>
        <time>2022-08-12T08:56:42.414Z</time>
      </trkpt>
      <trkpt lat="43.72942" lon="1.52247">
        <ele>190.704872</ele>
        <time>2022-08-12T08:56:44.410Z</time>
      </trkpt>
      <trkpt lat="43.72931" lon="1.52249">
        <ele>190.667239</ele>
        <time>2022-08-12T08:56:46.412Z</time>
      </trkpt>
      <trkpt lat="43.7292" lon="1.52251">
        <ele>190.629737</ele>
        <time>2022-08-12T08:56:48.405Z</time>
      </trkpt>
      <trkpt lat="43.72909" lon="1.52254">
        <ele>190.591659</ele>
        <time>2022-08-12T08:56:50.431Z</time>
      </trkpt>
      <trkpt lat="43.72898" lon="1.52256">
        <ele>190.553396</ele>
        <time>2022-08-12T08:56:52.399Z</time>
      </trkpt>
      <trkpt lat="43.72887" lon="1.52257">
        <ele>190.516733</ele>
        <time>2022-08-12T08:56:54.418Z</time>
      </trkpt>
      <trkpt lat="43.72876" lon="1.52257">
        <ele>190.479514</ele>
        <time>2022-08-12T08:56:56.390Z</time>
      </trkpt>
      <trkpt lat="43.72864" lon="1.52255">
        <ele>190.702528</ele>
        <time>2022-08-12T08:56:58.445Z</time>
      </trkpt>
      <trkpt lat="43.72853" lon="1.52251">
        <ele>190.968559</ele>
        <time>2022-08-12T08:57:00.424Z</time>
      </trkpt>
      <trkpt lat="43.72843" lon="1.52244">
        <ele>191.233703</ele>
        <time>2022-08-12T08:57:02.422Z</time>
      </trkpt>
      <trkpt lat="43.72833" lon="1.52237">
        <ele>191.496024</ele>
        <time>2022-08-12T08:57:04.417Z</time>
      </trkpt>
      <trkpt lat="43.72822" lon="1.52231">
        <ele>191.756162</ele>
        <time>2022-08-12T08:57:06.432Z</time>
      </trkpt>
      <trkpt lat="43.72812" lon="1.52225">
        <ele>192.010065</ele>
        <time>2022-08-12T08:57:08.400Z</time>
      </trkpt>
      <trkpt lat="43.72802" lon="1.52218">
        <ele>192.268523</ele>
        <time>2022-08-12T08:57:10.412Z</time>
      </trkpt>
      <trkpt lat="43.72794" lon="1.52207">
        <ele>192.525381</ele>
        <time>2022-08-12T08:57:12.414Z</time>
      </trkpt>
      <trkpt lat="43.72788" lon="1.52194">
        <ele>192.787184</ele>
        <time>2022-08-12T08:57:14.412Z</time>
      </trkpt>
      <trkpt lat="43.72782" lon="1.52181">
        <ele>193.045821</ele>
        <time>2022-08-12T08:57:16.438Z</time>
      </trkpt>
      <trkpt lat="43.72776" lon="1.52168">
        <ele>193.298779</ele>
        <time>2022-08-12T08:57:18.418Z</time>
      </trkpt>
      <trkpt lat="43.72769" lon="1.52157">
        <ele>193.540326</ele>
        <time>2022-08-12T08:57:20.412Z</time>
      </trkpt>
      <trkpt lat="43.72761" lon="1.52148">
        <ele>193.770795</ele>
        <time>2022-08-12T08:57:22.431Z</time>
      </trkpt>
      <trkpt lat="43.72754" lon="1.5214">
        <ele>193.989933</ele>
        <time>2022-08-12T08:57:24.429Z</time>
      </trkpt>
      <trkpt lat="43.72747" lon="1.52131">
        <ele>194.21329</ele>
        <time>2022-08-12T08:57:26.415Z</time>
      </trkpt>
      <trkpt lat="43.7274" lon="1.52123">
        <ele>194.421765</ele>
        <time>2022-08-12T08:57:28.402Z</time>
      </trkpt>
      <trkpt lat="43.72733" lon="1.52114">
        <ele>194.597564</ele>
        <time>2022-08-12T08:57:30.412Z</time>
      </trkpt>
      <trkpt lat="43.72725" lon="1.52106">
        <ele>194.324942</ele>
        <time>2022-08-12T08:57:32.415Z</time>
      </trkpt>
      <trkpt lat="43.72716" lon="1.52097">
        <ele>194.017809</ele>
        <time>2022-08-12T08:57:34.412Z</time>
      </trkpt>
      <trkpt lat="43.72707" lon="1.52087">
        <ele>193.682605</ele>
        <time>2022-08-12T08:57:36.421Z</time>
      </trkpt>
      <trkpt lat="43.72697" lon="1.52077">
        <ele>193.334507</ele>
        <time>2022-08-12T08:57:38.420Z</time>
      </trkpt>
      <trkpt lat="43.72687" lon="1.52066">
        <ele>192.976964</ele>
        <time>2022-08-12T08:57:40.448Z</time>
      </trkpt>
      <trkpt lat="43.72677" lon="1.52055">
        <ele>192.602045</ele>
        <time>2022-08-12T08:57:42.416Z</time>
      </trkpt>
      <trkpt lat="43.72666" lon="1.52043">
        <ele>192.217662</ele>
        <time>2022-08-12T08:57:44.410Z</time>
      </trkpt>
      <trkpt lat="43.72655" lon="1.5203">
        <ele>191.821128</ele>
        <time>2022-08-12T08:57:46.421Z</time>
      </trkpt>
      <trkpt lat="43.72644" lon="1.52017">
        <ele>191.412865</ele>
        <time>2022-08-12T08:57:48.429Z</time>
      </trkpt>
      <trkpt lat="43.72634" lon="1.52002">
        <ele>190.984448</ele>
        <time>2022-08-12T08:57:50.388Z</time>
      </trkpt>
      <trkpt lat="43.72623" lon="1.51987">
        <ele>190.551707</ele>
        <time>2022-08-12T08:57:52.434Z</time>
      </trkpt>
      <trkpt lat="43.72613" lon="1.51971">
        <ele>190.114487</ele>
        <time>2022-08-12T08:57:54.429Z</time>
      </trkpt>
      <trkpt lat="43.72602" lon="1.51955">
        <ele>189.6799</ele>
        <time>2022-08-12T08:57:56.444Z</time>
      </trkpt>
      <trkpt lat="43.72592" lon="1.51939">
        <ele>189.238691</ele>
        <time>2022-08-12T08:57:58.433Z</time>
      </trkpt>
      <trkpt lat="43.72582" lon="1.51923">
        <ele>188.804147</ele>
        <time>2022-08-12T08:58:00.457Z</time>
      </trkpt>
      <trkpt lat="43.72571" lon="1.51907">
        <ele>188.368446</ele>
        <time>2022-08-12T08:58:02.433Z</time>
      </trkpt>
      <trkpt lat="43.7256" lon="1.51893">
        <ele>187.932454</ele>
        <time>2022-08-12T08:58:04.427Z</time>
      </trkpt>
      <trkpt lat="43.72548" lon="1.51879">
        <ele>187.495</ele>
        <time>2022-08-12T08:58:06.453Z</time>
      </trkpt>
      <trkpt lat="43.72535" lon="1.51866">
        <ele>187.059931</ele>
        <time>2022-08-12T08:58:08.402Z</time>
      </trkpt>
      <trkpt lat="43.72522" lon="1.51855">
        <ele>186.623487</ele>
        <time>2022-08-12T08:58:10.429Z</time>
      </trkpt>
      <trkpt lat="43.72509" lon="1.51844">
        <ele>186.193478</ele>
        <time>2022-08-12T08:58:12.428Z</time>
      </trkpt>
      <trkpt lat="43.72496" lon="1.51833">
        <ele>185.769008</ele>
        <time>2022-08-12T08:58:14.439Z</time>
      </trkpt>
      <trkpt lat="43.72483" lon="1.51823">
        <ele>185.353846</ele>
        <time>2022-08-12T08:58:16.425Z</time>
      </trkpt>
      <trkpt lat="43.72471" lon="1.51813">
        <ele>184.952479</ele>
        <time>2022-08-12T08:58:18.425Z</time>
      </trkpt>
      <trkpt lat="43.72459" lon="1.51803">
        <ele>184.561455</ele>
        <time>2022-08-12T08:58:20.428Z</time>
      </trkpt>
      <trkpt lat="43.72448" lon="1.51793">
        <ele>184.416824</ele>
        <time>2022-08-12T08:58:22.435Z</time>
      </trkpt>
      <trkpt lat="43.72441" lon="1.51779">
        <ele>184.321233</ele>
        <time>2022-08-12T08:58:24.421Z</time>
      </trkpt>
      <trkpt lat="43.72441" lon="1.51762">
        <ele>184.227415</ele>
        <time>2022-08-12T08:58:26.439Z</time>
      </trkpt>
      <trkpt lat="43.72441" lon="1.51745">
        <ele>184.130246</ele>
        <time>2022-08-12T08:58:28.430Z</time>
      </trkpt>
      <trkpt lat="43.72441" lon="1.51727">
        <ele>184.033053</ele>
        <time>2022-08-12T08:58:30.427Z</time>
      </trkpt>
      <trkpt lat="43.7244" lon="1.5171">
        <ele>183.936418</ele>
        <time>2022-08-12T08:58:32.431Z</time>
      </trkpt>
      <trkpt lat="43.7244" lon="1.51693">
        <ele>183.840341</ele>
        <time>2022-08-12T08:58:34.427Z</time>
      </trkpt>
      <trkpt lat="43.7244" lon="1.51676">
        <ele>183.744801</ele>
        <time>2022-08-12T08:58:36.417Z</time>
      </trkpt>
      <trkpt lat="43.72439" lon="1.51659">
        <ele>183.649282</ele>
        <time>2022-08-12T08:58:38.434Z</time>
      </trkpt>
      <trkpt lat="43.7244" lon="1.51641">
        <ele>183.553742</ele>
        <time>2022-08-12T08:58:40.415Z</time>
      </trkpt>
      <trkpt lat="43.7244" lon="1.51625">
        <ele>183.460328</ele>
        <time>2022-08-12T08:58:42.423Z</time>
      </trkpt>
      <trkpt lat="43.72443" lon="1.51609">
        <ele>183.36766</ele>
        <time>2022-08-12T08:58:44.413Z</time>
      </trkpt>
      <trkpt lat="43.72447" lon="1.51593">
        <ele>183.275705</ele>
        <time>2022-08-12T08:58:46.409Z</time>
      </trkpt>
      <trkpt lat="43.72454" lon="1.51579">
        <ele>183.184014</ele>
        <time>2022-08-12T08:58:48.424Z</time>
      </trkpt>
      <trkpt lat="43.7246" lon="1.51566">
        <ele>183.113138</ele>
        <time>2022-08-12T08:58:50.417Z</time>
      </trkpt>
      <trkpt lat="43.72466" lon="1.51552">
        <ele>183.121136</ele>
        <time>2022-08-12T08:58:52.409Z</time>
      </trkpt>
      <trkpt lat="43.72472" lon="1.51538">
        <ele>183.129193</ele>
        <time>2022-08-12T08:58:54.405Z</time>
      </trkpt>
      <trkpt lat="43.72476" lon="1.51523">
        <ele>183.137318</ele>
        <time>2022-08-12T08:58:56.435Z</time>
      </trkpt>
      <trkpt lat="43.7248" lon="1.51507">
        <ele>183.145484</ele>
        <time>2022-08-12T08:58:58.480Z</time>
      </trkpt>
      <trkpt lat="43.72484" lon="1.51492">
        <ele>183.153673</ele>
        <time>2022-08-12T08:59:00.429Z</time>
      </trkpt>
      <trkpt lat="43.72487" lon="1.51476">
        <ele>183.161892</ele>
        <time>2022-08-12T08:59:02.419Z</time>
      </trkpt>
      <trkpt lat="43.72491" lon="1.5146">
        <ele>183.17015</ele>
        <time>2022-08-12T08:59:04.418Z</time>
      </trkpt>
      <trkpt lat="43.72496" lon="1.51445">
        <ele>183.178459</ele>
        <time>2022-08-12T08:59:06.404Z</time>
      </trkpt>
      <trkpt lat="43.72501" lon="1.5143">
        <ele>183.18668</ele>
        <time>2022-08-12T08:59:08.407Z</time>
      </trkpt>
      <trkpt lat="43.72508" lon="1.51417">
        <ele>183.194783</ele>
        <time>2022-08-12T08:59:10.420Z</time>
      </trkpt>
      <trkpt lat="43.72517" lon="1.51407">
        <ele>183.202728</ele>
        <time>2022-08-12T08:59:12.426Z</time>
      </trkpt>
      <trkpt lat="43.72525" lon="1.51397">
        <ele>183.21</ele>
        <time>2022-08-12T08:59:14.413Z</time>
      </trkpt>
      <trkpt lat="43.72528" lon="1.51383">
        <ele>183.21702</ele>
        <time>2022-08-12T08:59:16.424Z</time>
      </trkpt>
      <trkpt lat="43.72522" lon="1.5137">
        <ele>183.22484</ele>
        <time>2022-08-12T08:59:18.419Z</time>
      </trkpt>
      <trkpt lat="43.72515" lon="1.51357">
        <ele>183.232993</ele>
        <time>2022-08-12T08:59:20.417Z</time>
      </trkpt>
      <trkpt lat="43.72508" lon="1.51344">
        <ele>183.280822</ele>
        <time>2022-08-12T08:59:22.432Z</time>
      </trkpt>
      <trkpt lat="43.72501" lon="1.51332">
        <ele>183.344839</ele>
        <time>2022-08-12T08:59:24.402Z</time>
      </trkpt>
      <trkpt lat="43.72493" lon="1.5132">
        <ele>183.407721</ele>
        <time>2022-08-12T08:59:26.398Z</time>
      </trkpt>
      <trkpt lat="43.72486" lon="1.51308">
        <ele>183.471133</ele>
        <time>2022-08-12T08:59:28.421Z</time>
      </trkpt>
      <trkpt lat="43.72479" lon="1.51295">
        <ele>183.535177</ele>
        <time>2022-08-12T08:59:30.422Z</time>
      </trkpt>
      <trkpt lat="43.72472" lon="1.51283">
        <ele>183.600948</ele>
        <time>2022-08-12T08:59:32.409Z</time>
      </trkpt>
      <trkpt lat="43.72464" lon="1.5127">
        <ele>183.668477</ele>
        <time>2022-08-12T08:59:34.414Z</time>
      </trkpt>
      <trkpt lat="43.72455" lon="1.51258">
        <ele>183.737004</ele>
        <time>2022-08-12T08:59:36.421Z</time>
      </trkpt>
      <trkpt lat="43.72446" lon="1.51246">
        <ele>183.807259</ele>
        <time>2022-08-12T08:59:38.403Z</time>
      </trkpt>
      <trkpt lat="43.7244" lon="1.5123">
        <ele>183.879687</ele>
        <time>2022-08-12T08:59:40.406Z</time>
      </trkpt>
      <trkpt lat="43.72433" lon="1.51216">
        <ele>183.952204</ele>
        <time>2022-08-12T08:59:42.423Z</time>
      </trkpt>
      <trkpt lat="43.72425" lon="1.51201">
        <ele>184.024722</ele>
        <time>2022-08-12T08:59:44.404Z</time>
      </trkpt>
      <trkpt lat="43.72418" lon="1.51187">
        <ele>184.095268</ele>
        <time>2022-08-12T08:59:46.408Z</time>
      </trkpt>
      <trkpt lat="43.7241" lon="1.51174">
        <ele>184.161253</ele>
        <time>2022-08-12T08:59:48.404Z</time>
      </trkpt>
      <trkpt lat="43.72404" lon="1.51161">
        <ele>184.226007</ele>
        <time>2022-08-12T08:59:50.407Z</time>
      </trkpt>
      <trkpt lat="43.72399" lon="1.51147">
        <ele>184.23521</ele>
        <time>2022-08-12T08:59:52.402Z</time>
      </trkpt>
      <trkpt lat="43.72393" lon="1.51132">
        <ele>184.22422</ele>
        <time>2022-08-12T08:59:54.440Z</time>
      </trkpt>
      <trkpt lat="43.72386" lon="1.51117">
        <ele>184.2127</ele>
        <time>2022-08-12T08:59:56.444Z</time>
      </trkpt>
      <trkpt lat="43.72378" lon="1.51102">
        <ele>184.200814</ele>
        <time>2022-08-12T08:59:58.414Z</time>
      </trkpt>
      <trkpt lat="43.72371" lon="1.51086">
        <ele>184.188983</ele>
        <time>2022-08-12T09:00:00.402Z</time>
      </trkpt>
      <trkpt lat="43.72364" lon="1.51072">
        <ele>184.177216</ele>
        <time>2022-08-12T09:00:02.411Z</time>
      </trkpt>
      <trkpt lat="43.72356" lon="1.51057">
        <ele>184.165661</ele>
        <time>2022-08-12T09:00:04.388Z</time>
      </trkpt>
      <trkpt lat="43.72349" lon="1.51043">
        <ele>184.15442</ele>
        <time>2022-08-12T09:00:06.418Z</time>
      </trkpt>
      <trkpt lat="43.72342" lon="1.5103">
        <ele>184.143651</ele>
        <time>2022-08-12T09:00:08.400Z</time>
      </trkpt>
      <trkpt lat="43.72335" lon="1.51016">
        <ele>184.132887</ele>
        <time>2022-08-12T09:00:10.408Z</time>
      </trkpt>
      <trkpt lat="43.72328" lon="1.51003">
        <ele>184.122066</ele>
        <time>2022-08-12T09:00:12.388Z</time>
      </trkpt>
      <trkpt lat="43.72322" lon="1.50989">
        <ele>184.111392</ele>
        <time>2022-08-12T09:00:14.395Z</time>
      </trkpt>
      <trkpt lat="43.72315" lon="1.50975">
        <ele>184.100758</ele>
        <time>2022-08-12T09:00:16.394Z</time>
      </trkpt>
      <trkpt lat="43.72309" lon="1.50961">
        <ele>184.090283</ele>
        <time>2022-08-12T09:00:18.406Z</time>
      </trkpt>
      <trkpt lat="43.72303" lon="1.50948">
        <ele>184.083369</ele>
        <time>2022-08-12T09:00:20.397Z</time>
      </trkpt>
      <trkpt lat="43.72296" lon="1.50935">
        <ele>184.107226</ele>
        <time>2022-08-12T09:00:22.405Z</time>
      </trkpt>
      <trkpt lat="43.72289" lon="1.50922">
        <ele>184.131117</ele>
        <time>2022-08-12T09:00:24.400Z</time>
      </trkpt>
      <trkpt lat="43.7228" lon="1.50911">
        <ele>184.154998</ele>
        <time>2022-08-12T09:00:26.388Z</time>
      </trkpt>
      <trkpt lat="43.72271" lon="1.50901">
        <ele>184.178886</ele>
        <time>2022-08-12T09:00:28.393Z</time>
      </trkpt>
      <trkpt lat="43.72262" lon="1.50891">
        <ele>184.202724</ele>
        <time>2022-08-12T09:00:30.390Z</time>
      </trkpt>
      <trkpt lat="43.72252" lon="1.50882">
        <ele>184.227221</ele>
        <time>2022-08-12T09:00:32.411Z</time>
      </trkpt>
      <trkpt lat="43.72242" lon="1.50873">
        <ele>184.250552</ele>
        <time>2022-08-12T09:00:34.398Z</time>
      </trkpt>
      <trkpt lat="43.72232" lon="1.50863">
        <ele>184.274717</ele>
        <time>2022-08-12T09:00:36.411Z</time>
      </trkpt>
      <trkpt lat="43.72222" lon="1.50854">
        <ele>184.29888</ele>
        <time>2022-08-12T09:00:38.420Z</time>
      </trkpt>
      <trkpt lat="43.72213" lon="1.50845">
        <ele>184.32296</ele>
        <time>2022-08-12T09:00:40.397Z</time>
      </trkpt>
      <trkpt lat="43.72203" lon="1.50835">
        <ele>184.346874</ele>
        <time>2022-08-12T09:00:42.402Z</time>
      </trkpt>
      <trkpt lat="43.72194" lon="1.50826">
        <ele>184.370812</ele>
        <time>2022-08-12T09:00:44.421Z</time>
      </trkpt>
      <trkpt lat="43.72184" lon="1.50815">
        <ele>184.394792</ele>
        <time>2022-08-12T09:00:46.398Z</time>
      </trkpt>
      <trkpt lat="43.72176" lon="1.50804">
        <ele>184.418477</ele>
        <time>2022-08-12T09:00:48.408Z</time>
      </trkpt>
      <trkpt lat="43.72167" lon="1.50793">
        <ele>184.441766</ele>
        <time>2022-08-12T09:00:50.399Z</time>
      </trkpt>
      <trkpt lat="43.72159" lon="1.50783">
        <ele>184.535737</ele>
        <time>2022-08-12T09:00:52.400Z</time>
      </trkpt>
      <trkpt lat="43.72151" lon="1.50771">
        <ele>184.642056</ele>
        <time>2022-08-12T09:00:54.383Z</time>
      </trkpt>
      <trkpt lat="43.72143" lon="1.5076">
        <ele>184.750313</ele>
        <time>2022-08-12T09:00:56.429Z</time>
      </trkpt>
      <trkpt lat="43.72135" lon="1.50749">
        <ele>184.85748</ele>
        <time>2022-08-12T09:00:58.407Z</time>
      </trkpt>
      <trkpt lat="43.72126" lon="1.50738">
        <ele>184.964384</ele>
        <time>2022-08-12T09:01:00.436Z</time>
      </trkpt>
      <trkpt lat="43.72118" lon="1.50727">
        <ele>185.071284</ele>
        <time>2022-08-12T09:01:02.382Z</time>
      </trkpt>
      <trkpt lat="43.72109" lon="1.50717">
        <ele>185.178432</ele>
        <time>2022-08-12T09:01:04.400Z</time>
      </trkpt>
      <trkpt lat="43.721" lon="1.50707">
        <ele>185.285843</ele>
        <time>2022-08-12T09:01:06.420Z</time>
      </trkpt>
      <trkpt lat="43.72091" lon="1.50698">
        <ele>185.392646</ele>
        <time>2022-08-12T09:01:08.397Z</time>
      </trkpt>
      <trkpt lat="43.72081" lon="1.5069">
        <ele>185.499988</ele>
        <time>2022-08-12T09:01:10.391Z</time>
      </trkpt>
      <trkpt lat="43.72071" lon="1.50682">
        <ele>185.60778</ele>
        <time>2022-08-12T09:01:12.428Z</time>
      </trkpt>
      <trkpt lat="43.72061" lon="1.50674">
        <ele>185.71258</ele>
        <time>2022-08-12T09:01:14.413Z</time>
      </trkpt>
      <trkpt lat="43.72051" lon="1.50667">
        <ele>185.818678</ele>
        <time>2022-08-12T09:01:16.422Z</time>
      </trkpt>
      <trkpt lat="43.72041" lon="1.50659">
        <ele>185.924941</ele>
        <time>2022-08-12T09:01:18.400Z</time>
      </trkpt>
      <trkpt lat="43.72031" lon="1.50651">
        <ele>186.031371</ele>
        <time>2022-08-12T09:01:20.440Z</time>
      </trkpt>
      <trkpt lat="43.72022" lon="1.50643">
        <ele>186.15283</ele>
        <time>2022-08-12T09:01:22.445Z</time>
      </trkpt>
      <trkpt lat="43.72012" lon="1.50634">
        <ele>186.39297</ele>
        <time>2022-08-12T09:01:24.421Z</time>
      </trkpt>
      <trkpt lat="43.72003" lon="1.50625">
        <ele>186.634055</ele>
        <time>2022-08-12T09:01:26.420Z</time>
      </trkpt>
      <trkpt lat="43.71994" lon="1.50615">
        <ele>186.876405</ele>
        <time>2022-08-12T09:01:28.418Z</time>
      </trkpt>
      <trkpt lat="43.71986" lon="1.50606">
        <ele>187.117361</ele>
        <time>2022-08-12T09:01:30.442Z</time>
      </trkpt>
      <trkpt lat="43.71978" lon="1.50595">
        <ele>187.354268</ele>
        <time>2022-08-12T09:01:32.432Z</time>
      </trkpt>
      <trkpt lat="43.71969" lon="1.50584">
        <ele>187.597048</ele>
        <time>2022-08-12T09:01:34.412Z</time>
      </trkpt>
      <trkpt lat="43.71962" lon="1.50573">
        <ele>187.837962</ele>
        <time>2022-08-12T09:01:36.433Z</time>
      </trkpt>
      <trkpt lat="43.71955" lon="1.50561">
        <ele>188.073434</ele>
        <time>2022-08-12T09:01:38.404Z</time>
      </trkpt>
      <trkpt lat="43.71947" lon="1.5055">
        <ele>188.312183</ele>
        <time>2022-08-12T09:01:40.419Z</time>
      </trkpt>
      <trkpt lat="43.7194" lon="1.50537">
        <ele>188.550468</ele>
        <time>2022-08-12T09:01:42.404Z</time>
      </trkpt>
      <trkpt lat="43.71934" lon="1.50526">
        <ele>188.785001</ele>
        <time>2022-08-12T09:01:44.407Z</time>
      </trkpt>
      <trkpt lat="43.71927" lon="1.50515">
        <ele>189.006986</ele>
        <time>2022-08-12T09:01:46.420Z</time>
      </trkpt>
      <trkpt lat="43.71922" lon="1.50504">
        <ele>189.202127</ele>
        <time>2022-08-12T09:01:48.414Z</time>
      </trkpt>
      <trkpt lat="43.71922" lon="1.50491">
        <ele>189.408025</ele>
        <time>2022-08-12T09:01:50.417Z</time>
      </trkpt>
      <trkpt lat="43.71924" lon="1.50476">
        <ele>189.648562</ele>
        <time>2022-08-12T09:01:52.401Z</time>
      </trkpt>
      <trkpt lat="43.71927" lon="1.5046">
        <ele>189.891553</ele>
        <time>2022-08-12T09:01:54.411Z</time>
      </trkpt>
      <trkpt lat="43.71929" lon="1.50445">
        <ele>190.092814</ele>
        <time>2022-08-12T09:01:56.450Z</time>
      </trkpt>
      <trkpt lat="43.71932" lon="1.50429">
        <ele>190.272026</ele>
        <time>2022-08-12T09:01:58.421Z</time>
      </trkpt>
      <trkpt lat="43.71935" lon="1.50414">
        <ele>190.448688</ele>
        <time>2022-08-12T09:02:00.431Z</time>
      </trkpt>
      <trkpt lat="43.71937" lon="1.50398">
        <ele>190.627173</ele>
        <time>2022-08-12T09:02:02.424Z</time>
      </trkpt>
      <trkpt lat="43.7194" lon="1.50383">
        <ele>190.807474</ele>
        <time>2022-08-12T09:02:04.428Z</time>
      </trkpt>
      <trkpt lat="43.71943" lon="1.50368">
        <ele>190.984136</ele>
        <time>2022-08-12T09:02:06.432Z</time>
      </trkpt>
      <trkpt lat="43.71945" lon="1.50352">
        <ele>191.159751</ele>
        <time>2022-08-12T09:02:08.426Z</time>
      </trkpt>
      <trkpt lat="43.71948" lon="1.50337">
        <ele>191.333922</ele>
        <time>2022-08-12T09:02:10.423Z</time>
      </trkpt>
      <trkpt lat="43.71951" lon="1.50322">
        <ele>191.507698</ele>
        <time>2022-08-12T09:02:12.412Z</time>
      </trkpt>
      <trkpt lat="43.71954" lon="1.50307">
        <ele>191.681092</ele>
        <time>2022-08-12T09:02:14.413Z</time>
      </trkpt>
      <trkpt lat="43.71955" lon="1.50292">
        <ele>191.852757</ele>
        <time>2022-08-12T09:02:16.412Z</time>
      </trkpt>
      <trkpt lat="43.71956" lon="1.50277">
        <ele>192.023318</ele>
        <time>2022-08-12T09:02:18.429Z</time>
      </trkpt>
      <trkpt lat="43.71951" lon="1.50262">
        <ele>192.21041</ele>
        <time>2022-08-12T09:02:21.411Z</time>
      </trkpt>
      <trkpt lat="43.71938" lon="1.50264">
        <ele>192.416895</ele>
        <time>2022-08-12T09:02:24.400Z</time>
      </trkpt>
      <trkpt lat="43.71926" lon="1.50266">
        <ele>192.6072</ele>
        <time>2022-08-12T09:02:27.418Z</time>
      </trkpt>
      <trkpt lat="43.71916" lon="1.50265">
        <ele>192.757763</ele>
        <time>2022-08-12T09:02:29.410Z</time>
      </trkpt>
      <trkpt lat="43.71905" lon="1.50263">
        <ele>192.961649</ele>
        <time>2022-08-12T09:02:31.405Z</time>
      </trkpt>
      <trkpt lat="43.71894" lon="1.5026">
        <ele>193.158744</ele>
        <time>2022-08-12T09:02:33.407Z</time>
      </trkpt>
      <trkpt lat="43.71885" lon="1.50252">
        <ele>193.357674</ele>
        <time>2022-08-12T09:02:35.416Z</time>
      </trkpt>
      <trkpt lat="43.71876" lon="1.50243">
        <ele>193.555527</ele>
        <time>2022-08-12T09:02:37.416Z</time>
      </trkpt>
      <trkpt lat="43.71869" lon="1.50232">
        <ele>193.752431</ele>
        <time>2022-08-12T09:02:39.423Z</time>
      </trkpt>
      <trkpt lat="43.71861" lon="1.50221">
        <ele>193.955989</ele>
        <time>2022-08-12T09:02:41.421Z</time>
      </trkpt>
      <trkpt lat="43.71854" lon="1.5021">
        <ele>194.150772</ele>
        <time>2022-08-12T09:02:43.434Z</time>
      </trkpt>
      <trkpt lat="43.71846" lon="1.50198">
        <ele>194.356811</ele>
        <time>2022-08-12T09:02:45.427Z</time>
      </trkpt>
      <trkpt lat="43.71838" lon="1.50187">
        <ele>194.560009</ele>
        <time>2022-08-12T09:02:47.413Z</time>
      </trkpt>
      <trkpt lat="43.71831" lon="1.50176">
        <ele>194.762605</ele>
        <time>2022-08-12T09:02:49.412Z</time>
      </trkpt>
      <trkpt lat="43.71823" lon="1.50164">
        <ele>194.966165</ele>
        <time>2022-08-12T09:02:51.446Z</time>
      </trkpt>
      <trkpt lat="43.71815" lon="1.50153">
        <ele>195.171921</ele>
        <time>2022-08-12T09:02:53.407Z</time>
      </trkpt>
      <trkpt lat="43.71808" lon="1.50141">
        <ele>195.376202</ele>
        <time>2022-08-12T09:02:55.404Z</time>
      </trkpt>
      <trkpt lat="43.718" lon="1.5013">
        <ele>195.583197</ele>
        <time>2022-08-12T09:02:57.385Z</time>
      </trkpt>
      <trkpt lat="43.71792" lon="1.50118">
        <ele>195.790192</ele>
        <time>2022-08-12T09:02:59.434Z</time>
      </trkpt>
      <trkpt lat="43.71784" lon="1.50107">
        <ele>195.996914</ele>
        <time>2022-08-12T09:03:01.409Z</time>
      </trkpt>
      <trkpt lat="43.71777" lon="1.50095">
        <ele>196.204611</ele>
        <time>2022-08-12T09:03:03.411Z</time>
      </trkpt>
      <trkpt lat="43.71769" lon="1.50084">
        <ele>196.41364</ele>
        <time>2022-08-12T09:03:05.430Z</time>
      </trkpt>
      <trkpt lat="43.7176" lon="1.50074">
        <ele>196.621685</ele>
        <time>2022-08-12T09:03:07.411Z</time>
      </trkpt>
      <trkpt lat="43.71751" lon="1.50065">
        <ele>196.829814</ele>
        <time>2022-08-12T09:03:09.412Z</time>
      </trkpt>
      <trkpt lat="43.71741" lon="1.50057">
        <ele>197.038744</ele>
        <time>2022-08-12T09:03:11.459Z</time>
      </trkpt>
      <trkpt lat="43.7173" lon="1.50051">
        <ele>197.247035</ele>
        <time>2022-08-12T09:03:13.415Z</time>
      </trkpt>
      <trkpt lat="43.71719" lon="1.50046">
        <ele>197.457172</ele>
        <time>2022-08-12T09:03:15.413Z</time>
      </trkpt>
      <trkpt lat="43.71708" lon="1.50042">
        <ele>197.66787</ele>
        <time>2022-08-12T09:03:17.417Z</time>
      </trkpt>
      <trkpt lat="43.71698" lon="1.50038">
        <ele>197.873925</ele>
        <time>2022-08-12T09:03:19.422Z</time>
      </trkpt>
      <trkpt lat="43.71687" lon="1.50033">
        <ele>198.08035</ele>
        <time>2022-08-12T09:03:21.404Z</time>
      </trkpt>
      <trkpt lat="43.71676" lon="1.50029">
        <ele>198.285017</ele>
        <time>2022-08-12T09:03:23.429Z</time>
      </trkpt>
      <trkpt lat="43.71666" lon="1.50022">
        <ele>198.4915</ele>
        <time>2022-08-12T09:03:25.413Z</time>
      </trkpt>
      <trkpt lat="43.71656" lon="1.50014">
        <ele>198.698552</ele>
        <time>2022-08-12T09:03:27.403Z</time>
      </trkpt>
      <trkpt lat="43.71648" lon="1.50004">
        <ele>198.9079</ele>
        <time>2022-08-12T09:03:29.426Z</time>
      </trkpt>
      <trkpt lat="43.71641" lon="1.49991">
        <ele>199.114302</ele>
        <time>2022-08-12T09:03:31.434Z</time>
      </trkpt>
      <trkpt lat="43.71638" lon="1.49976">
        <ele>199.321192</ele>
        <time>2022-08-12T09:03:33.395Z</time>
      </trkpt>
      <trkpt lat="43.71636" lon="1.49961">
        <ele>199.699539</ele>
        <time>2022-08-12T09:03:35.410Z</time>
      </trkpt>
      <trkpt lat="43.71634" lon="1.49945">
        <ele>200.085228</ele>
        <time>2022-08-12T09:03:37.407Z</time>
      </trkpt>
      <trkpt lat="43.71632" lon="1.4993">
        <ele>200.482681</ele>
        <time>2022-08-12T09:03:39.395Z</time>
      </trkpt>
      <trkpt lat="43.71631" lon="1.49914">
        <ele>200.870292</ele>
        <time>2022-08-12T09:03:41.424Z</time>
      </trkpt>
      <trkpt lat="43.71629" lon="1.49899">
        <ele>201.259003</ele>
        <time>2022-08-12T09:03:43.413Z</time>
      </trkpt>
      <trkpt lat="43.71627" lon="1.49884">
        <ele>201.643411</ele>
        <time>2022-08-12T09:03:45.423Z</time>
      </trkpt>
      <trkpt lat="43.71625" lon="1.49868">
        <ele>202.029669</ele>
        <time>2022-08-12T09:03:47.405Z</time>
      </trkpt>
      <trkpt lat="43.71623" lon="1.49853">
        <ele>202.416061</ele>
        <time>2022-08-12T09:03:49.404Z</time>
      </trkpt>
      <trkpt lat="43.7162" lon="1.49838">
        <ele>202.804202</ele>
        <time>2022-08-12T09:03:51.407Z</time>
      </trkpt>
      <trkpt lat="43.71618" lon="1.49823">
        <ele>203.193745</ele>
        <time>2022-08-12T09:03:53.409Z</time>
      </trkpt>
      <trkpt lat="43.71616" lon="1.49807">
        <ele>203.578785</ele>
        <time>2022-08-12T09:03:55.426Z</time>
      </trkpt>
      <trkpt lat="43.71614" lon="1.49792">
        <ele>203.95717</ele>
        <time>2022-08-12T09:03:57.402Z</time>
      </trkpt>
      <trkpt lat="43.71613" lon="1.49778">
        <ele>204.329493</ele>
        <time>2022-08-12T09:03:59.436Z</time>
      </trkpt>
      <trkpt lat="43.7161" lon="1.49761">
        <ele>204.747245</ele>
        <time>2022-08-12T09:04:02.401Z</time>
      </trkpt>
      <trkpt lat="43.71607" lon="1.49746">
        <ele>205.151673</ele>
        <time>2022-08-12T09:04:05.403Z</time>
      </trkpt>
      <trkpt lat="43.71603" lon="1.49729">
        <ele>205.677539</ele>
        <time>2022-08-12T09:04:08.407Z</time>
      </trkpt>
      <trkpt lat="43.71599" lon="1.49712">
        <ele>206.858947</ele>
        <time>2022-08-12T09:04:11.402Z</time>
      </trkpt>
      <trkpt lat="43.71595" lon="1.49693">
        <ele>208.148085</ele>
        <time>2022-08-12T09:04:14.392Z</time>
      </trkpt>
      <trkpt lat="43.71594" lon="1.4968">
        <ele>209.045928</ele>
        <time>2022-08-12T09:04:16.413Z</time>
      </trkpt>
      <trkpt lat="43.71593" lon="1.49667">
        <ele>209.915682</ele>
        <time>2022-08-12T09:04:18.394Z</time>
      </trkpt>
      <trkpt lat="43.71593" lon="1.49654">
        <ele>210.745224</ele>
        <time>2022-08-12T09:04:20.396Z</time>
      </trkpt>
      <trkpt lat="43.71593" lon="1.49641">
        <ele>211.60226</ele>
        <time>2022-08-12T09:04:22.400Z</time>
      </trkpt>
      <trkpt lat="43.71593" lon="1.49628">
        <ele>212.452282</ele>
        <time>2022-08-12T09:04:24.409Z</time>
      </trkpt>
      <trkpt lat="43.71593" lon="1.49615">
        <ele>213.322466</ele>
        <time>2022-08-12T09:04:26.393Z</time>
      </trkpt>
      <trkpt lat="43.71594" lon="1.49598">
        <ele>214.44177</ele>
        <time>2022-08-12T09:04:29.395Z</time>
      </trkpt>
      <trkpt lat="43.71595" lon="1.49581">
        <ele>215.551503</ele>
        <time>2022-08-12T09:04:32.416Z</time>
      </trkpt>
      <trkpt lat="43.71595" lon="1.49565">
        <ele>216.587641</ele>
        <time>2022-08-12T09:04:35.391Z</time>
      </trkpt>
      <trkpt lat="43.71596" lon="1.49549">
        <ele>217.695466</ele>
        <time>2022-08-12T09:04:38.391Z</time>
      </trkpt>
      <trkpt lat="43.71595" lon="1.49532">
        <ele>218.764441</ele>
        <time>2022-08-12T09:04:41.406Z</time>
      </trkpt>
      <trkpt lat="43.71596" lon="1.49516">
        <ele>219.85129</ele>
        <time>2022-08-12T09:04:44.419Z</time>
      </trkpt>
      <trkpt lat="43.71596" lon="1.495">
        <ele>220.931291</ele>
        <time>2022-08-12T09:04:47.396Z</time>
      </trkpt>
      <trkpt lat="43.71596" lon="1.49483">
        <ele>221.935478</ele>
        <time>2022-08-12T09:04:50.400Z</time>
      </trkpt>
      <trkpt lat="43.71596" lon="1.49468">
        <ele>222.280201</ele>
        <time>2022-08-12T09:04:53.405Z</time>
      </trkpt>
      <trkpt lat="43.71596" lon="1.49455">
        <ele>222.564382</ele>
        <time>2022-08-12T09:04:55.412Z</time>
      </trkpt>
      <trkpt lat="43.71595" lon="1.49438">
        <ele>222.940626</ele>
        <time>2022-08-12T09:04:58.405Z</time>
      </trkpt>
      <trkpt lat="43.71594" lon="1.49421">
        <ele>223.33616</ele>
        <time>2022-08-12T09:05:01.406Z</time>
      </trkpt>
      <trkpt lat="43.7159" lon="1.49404">
        <ele>223.739531</ele>
        <time>2022-08-12T09:05:04.420Z</time>
      </trkpt>
      <trkpt lat="43.71586" lon="1.49392">
        <ele>224.039299</ele>
        <time>2022-08-12T09:05:06.417Z</time>
      </trkpt>
      <trkpt lat="43.71581" lon="1.49379">
        <ele>224.360493</ele>
        <time>2022-08-12T09:05:08.389Z</time>
      </trkpt>
      <trkpt lat="43.71575" lon="1.49367">
        <ele>224.687673</ele>
        <time>2022-08-12T09:05:10.401Z</time>
      </trkpt>
      <trkpt lat="43.71569" lon="1.49354">
        <ele>225.033059</ele>
        <time>2022-08-12T09:05:12.425Z</time>
      </trkpt>
      <trkpt lat="43.71563" lon="1.49341">
        <ele>225.371112</ele>
        <time>2022-08-12T09:05:14.403Z</time>
      </trkpt>
      <trkpt lat="43.71557" lon="1.49328">
        <ele>225.714601</ele>
        <time>2022-08-12T09:05:16.404Z</time>
      </trkpt>
      <trkpt lat="43.71551" lon="1.49315">
        <ele>226.061125</ele>
        <time>2022-08-12T09:05:18.391Z</time>
      </trkpt>
      <trkpt lat="43.71545" lon="1.49301">
        <ele>226.414474</ele>
        <time>2022-08-12T09:05:20.412Z</time>
      </trkpt>
      <trkpt lat="43.7154" lon="1.49288">
        <ele>226.761244</ele>
        <time>2022-08-12T09:05:22.406Z</time>
      </trkpt>
      <trkpt lat="43.71534" lon="1.49275">
        <ele>227.107239</ele>
        <time>2022-08-12T09:05:24.412Z</time>
      </trkpt>
      <trkpt lat="43.71529" lon="1.49261">
        <ele>227.45596</ele>
        <time>2022-08-12T09:05:26.414Z</time>
      </trkpt>
      <trkpt lat="43.71523" lon="1.49247">
        <ele>227.905077</ele>
        <time>2022-08-12T09:05:28.410Z</time>
      </trkpt>
      <trkpt lat="43.71518" lon="1.49234">
        <ele>228.35638</ele>
        <time>2022-08-12T09:05:30.412Z</time>
      </trkpt>
      <trkpt lat="43.71512" lon="1.4922">
        <ele>228.808595</ele>
        <time>2022-08-12T09:05:32.431Z</time>
      </trkpt>
      <trkpt lat="43.71507" lon="1.49208">
        <ele>229.238798</ele>
        <time>2022-08-12T09:05:34.404Z</time>
      </trkpt>
      <trkpt lat="43.715" lon="1.49195">
        <ele>229.689028</ele>
        <time>2022-08-12T09:05:36.413Z</time>
      </trkpt>
      <trkpt lat="43.71493" lon="1.49183">
        <ele>230.139416</ele>
        <time>2022-08-12T09:05:38.383Z</time>
      </trkpt>
      <trkpt lat="43.71486" lon="1.49171">
        <ele>230.590455</ele>
        <time>2022-08-12T09:05:40.390Z</time>
      </trkpt>
      <trkpt lat="43.71478" lon="1.49159">
        <ele>231.054991</ele>
        <time>2022-08-12T09:05:42.416Z</time>
      </trkpt>
      <trkpt lat="43.71471" lon="1.49147">
        <ele>231.512009</ele>
        <time>2022-08-12T09:05:44.401Z</time>
      </trkpt>
      <trkpt lat="43.71463" lon="1.49136">
        <ele>231.963694</ele>
        <time>2022-08-12T09:05:46.414Z</time>
      </trkpt>
      <trkpt lat="43.71455" lon="1.49124">
        <ele>232.422372</ele>
        <time>2022-08-12T09:05:48.404Z</time>
      </trkpt>
      <trkpt lat="43.71448" lon="1.49114">
        <ele>232.851339</ele>
        <time>2022-08-12T09:05:50.407Z</time>
      </trkpt>
      <trkpt lat="43.71441" lon="1.49104">
        <ele>233.260426</ele>
        <time>2022-08-12T09:05:52.428Z</time>
      </trkpt>
      <trkpt lat="43.71434" lon="1.49094">
        <ele>233.647887</ele>
        <time>2022-08-12T09:05:54.420Z</time>
      </trkpt>
      <trkpt lat="43.71427" lon="1.49085">
        <ele>234.029042</ele>
        <time>2022-08-12T09:05:56.402Z</time>
      </trkpt>
      <trkpt lat="43.71421" lon="1.49076">
        <ele>234.414646</ele>
        <time>2022-08-12T09:05:58.411Z</time>
      </trkpt>
      <trkpt lat="43.71413" lon="1.49067">
        <ele>234.743381</ele>
        <time>2022-08-12T09:06:00.432Z</time>
      </trkpt>
      <trkpt lat="43.71407" lon="1.49057">
        <ele>234.883181</ele>
        <time>2022-08-12T09:06:02.413Z</time>
      </trkpt>
      <trkpt lat="43.714" lon="1.49048">
        <ele>235.021434</ele>
        <time>2022-08-12T09:06:04.401Z</time>
      </trkpt>
      <trkpt lat="43.71393" lon="1.49038">
        <ele>235.159937</ele>
        <time>2022-08-12T09:06:06.424Z</time>
      </trkpt>
      <trkpt lat="43.71387" lon="1.49028">
        <ele>235.301244</ele>
        <time>2022-08-12T09:06:08.405Z</time>
      </trkpt>
      <trkpt lat="43.71381" lon="1.49017">
        <ele>235.439137</ele>
        <time>2022-08-12T09:06:10.396Z</time>
      </trkpt>
      <trkpt lat="43.71377" lon="1.49005">
        <ele>235.57928</ele>
        <time>2022-08-12T09:06:12.403Z</time>
      </trkpt>
      <trkpt lat="43.71372" lon="1.48993">
        <ele>235.721854</ele>
        <time>2022-08-12T09:06:14.403Z</time>
      </trkpt>
      <trkpt lat="43.71369" lon="1.4898">
        <ele>235.870659</ele>
        <time>2022-08-12T09:06:16.413Z</time>
      </trkpt>
      <trkpt lat="43.71364" lon="1.48965">
        <ele>236.033797</ele>
        <time>2022-08-12T09:06:18.431Z</time>
      </trkpt>
      <trkpt lat="43.7136" lon="1.48951">
        <ele>236.200949</ele>
        <time>2022-08-12T09:06:20.402Z</time>
      </trkpt>
      <trkpt lat="43.71354" lon="1.48936">
        <ele>236.372666</ele>
        <time>2022-08-12T09:06:22.413Z</time>
      </trkpt>
      <trkpt lat="43.71348" lon="1.48921">
        <ele>236.554999</ele>
        <time>2022-08-12T09:06:24.435Z</time>
      </trkpt>
      <trkpt lat="43.71341" lon="1.48905">
        <ele>236.753846</ele>
        <time>2022-08-12T09:06:26.405Z</time>
      </trkpt>
      <trkpt lat="43.71333" lon="1.48889">
        <ele>236.949247</ele>
        <time>2022-08-12T09:06:28.403Z</time>
      </trkpt>
      <trkpt lat="43.71325" lon="1.48874">
        <ele>237.141293</ele>
        <time>2022-08-12T09:06:30.401Z</time>
      </trkpt>
      <trkpt lat="43.71318" lon="1.48859">
        <ele>237.309072</ele>
        <time>2022-08-12T09:06:32.411Z</time>
      </trkpt>
      <trkpt lat="43.7131" lon="1.48845">
        <ele>237.331551</ele>
        <time>2022-08-12T09:06:34.407Z</time>
      </trkpt>
      <trkpt lat="43.71302" lon="1.48831">
        <ele>237.353147</ele>
        <time>2022-08-12T09:06:36.415Z</time>
      </trkpt>
      <trkpt lat="43.71295" lon="1.48817">
        <ele>237.374034</ele>
        <time>2022-08-12T09:06:38.439Z</time>
      </trkpt>
      <trkpt lat="43.71288" lon="1.48805">
        <ele>237.392756</ele>
        <time>2022-08-12T09:06:40.398Z</time>
      </trkpt>
      <trkpt lat="43.71281" lon="1.48792">
        <ele>237.411659</ele>
        <time>2022-08-12T09:06:42.409Z</time>
      </trkpt>
      <trkpt lat="43.71274" lon="1.4878">
        <ele>237.431764</ele>
        <time>2022-08-12T09:06:44.406Z</time>
      </trkpt>
      <trkpt lat="43.71267" lon="1.48766">
        <ele>237.452156</ele>
        <time>2022-08-12T09:06:46.399Z</time>
      </trkpt>
      <trkpt lat="43.71259" lon="1.48753">
        <ele>237.472665</ele>
        <time>2022-08-12T09:06:48.397Z</time>
      </trkpt>
      <trkpt lat="43.71252" lon="1.4874">
        <ele>237.492759</ele>
        <time>2022-08-12T09:06:50.388Z</time>
      </trkpt>
      <trkpt lat="43.71245" lon="1.48728">
        <ele>237.512601</ele>
        <time>2022-08-12T09:06:52.431Z</time>
      </trkpt>
      <trkpt lat="43.71238" lon="1.48715">
        <ele>237.532397</ele>
        <time>2022-08-12T09:06:54.410Z</time>
      </trkpt>
      <trkpt lat="43.7123" lon="1.48702">
        <ele>237.552416</ele>
        <time>2022-08-12T09:06:56.381Z</time>
      </trkpt>
      <trkpt lat="43.71223" lon="1.48689">
        <ele>237.572732</ele>
        <time>2022-08-12T09:06:58.411Z</time>
      </trkpt>
      <trkpt lat="43.71215" lon="1.48676">
        <ele>237.592858</ele>
        <time>2022-08-12T09:07:00.401Z</time>
      </trkpt>
      <trkpt lat="43.71208" lon="1.48664">
        <ele>237.60171</ele>
        <time>2022-08-12T09:07:02.404Z</time>
      </trkpt>
      <trkpt lat="43.712" lon="1.4865">
        <ele>237.48624</ele>
        <time>2022-08-12T09:07:04.406Z</time>
      </trkpt>
      <trkpt lat="43.71193" lon="1.48638">
        <ele>237.373985</ele>
        <time>2022-08-12T09:07:06.399Z</time>
      </trkpt>
      <trkpt lat="43.71185" lon="1.48626">
        <ele>237.26197</ele>
        <time>2022-08-12T09:07:08.411Z</time>
      </trkpt>
      <trkpt lat="43.71177" lon="1.48613">
        <ele>237.149107</ele>
        <time>2022-08-12T09:07:10.402Z</time>
      </trkpt>
      <trkpt lat="43.7117" lon="1.48601">
        <ele>237.036157</ele>
        <time>2022-08-12T09:07:12.412Z</time>
      </trkpt>
      <trkpt lat="43.71162" lon="1.48589">
        <ele>236.927196</ele>
        <time>2022-08-12T09:07:14.405Z</time>
      </trkpt>
      <trkpt lat="43.71154" lon="1.48578">
        <ele>236.821545</ele>
        <time>2022-08-12T09:07:16.391Z</time>
      </trkpt>
      <trkpt lat="43.71146" lon="1.48568">
        <ele>236.714291</ele>
        <time>2022-08-12T09:07:18.398Z</time>
      </trkpt>
      <trkpt lat="43.71136" lon="1.48557">
        <ele>236.601251</ele>
        <time>2022-08-12T09:07:20.410Z</time>
      </trkpt>
      <trkpt lat="43.71127" lon="1.48546">
        <ele>236.482351</ele>
        <time>2022-08-12T09:07:22.429Z</time>
      </trkpt>
      <trkpt lat="43.71117" lon="1.48535">
        <ele>236.360235</ele>
        <time>2022-08-12T09:07:24.417Z</time>
      </trkpt>
      <trkpt lat="43.71107" lon="1.48524">
        <ele>236.236212</ele>
        <time>2022-08-12T09:07:26.415Z</time>
      </trkpt>
      <trkpt lat="43.71097" lon="1.48513">
        <ele>236.116729</ele>
        <time>2022-08-12T09:07:28.417Z</time>
      </trkpt>
      <trkpt lat="43.71087" lon="1.48501">
        <ele>235.98905</ele>
        <time>2022-08-12T09:07:30.416Z</time>
      </trkpt>
      <trkpt lat="43.71077" lon="1.48488">
        <ele>235.87391</ele>
        <time>2022-08-12T09:07:32.399Z</time>
      </trkpt>
      <trkpt lat="43.71068" lon="1.48477">
        <ele>235.787362</ele>
        <time>2022-08-12T09:07:34.396Z</time>
      </trkpt>
      <trkpt lat="43.71059" lon="1.48466">
        <ele>235.702002</ele>
        <time>2022-08-12T09:07:36.397Z</time>
      </trkpt>
      <trkpt lat="43.7105" lon="1.48456">
        <ele>235.621822</ele>
        <time>2022-08-12T09:07:38.435Z</time>
      </trkpt>
      <trkpt lat="43.7104" lon="1.48448">
        <ele>235.539902</ele>
        <time>2022-08-12T09:07:40.429Z</time>
      </trkpt>
      <trkpt lat="43.71031" lon="1.48437">
        <ele>235.458958</ele>
        <time>2022-08-12T09:07:42.410Z</time>
      </trkpt>
      <trkpt lat="43.71023" lon="1.48428">
        <ele>235.386909</ele>
        <time>2022-08-12T09:07:44.399Z</time>
      </trkpt>
      <trkpt lat="43.71014" lon="1.48421">
        <ele>235.315772</ele>
        <time>2022-08-12T09:07:49.418Z</time>
      </trkpt>
      <trkpt lat="43.71007" lon="1.48412">
        <ele>235.252274</ele>
        <time>2022-08-12T09:07:53.387Z</time>
      </trkpt>
      <trkpt lat="43.70999" lon="1.48403">
        <ele>235.175303</ele>
        <time>2022-08-12T09:07:56.418Z</time>
      </trkpt>
      <trkpt lat="43.70988" lon="1.48391">
        <ele>235.081844</ele>
        <time>2022-08-12T09:07:59.418Z</time>
      </trkpt>
      <trkpt lat="43.7098" lon="1.48381">
        <ele>235.008112</ele>
        <time>2022-08-12T09:08:01.394Z</time>
      </trkpt>
      <trkpt lat="43.70972" lon="1.48372">
        <ele>234.934108</ele>
        <time>2022-08-12T09:08:03.408Z</time>
      </trkpt>
      <trkpt lat="43.70963" lon="1.48363">
        <ele>234.858138</ele>
        <time>2022-08-12T09:08:05.399Z</time>
      </trkpt>
      <trkpt lat="43.70954" lon="1.48354">
        <ele>234.780449</ele>
        <time>2022-08-12T09:08:07.414Z</time>
      </trkpt>
      <trkpt lat="43.70945" lon="1.48345">
        <ele>234.703392</ele>
        <time>2022-08-12T09:08:09.396Z</time>
      </trkpt>
      <trkpt lat="43.70936" lon="1.48337">
        <ele>234.643186</ele>
        <time>2022-08-12T09:08:11.404Z</time>
      </trkpt>
      <trkpt lat="43.70925" lon="1.48329">
        <ele>234.627255</ele>
        <time>2022-08-12T09:08:13.414Z</time>
      </trkpt>
      <trkpt lat="43.70915" lon="1.48322">
        <ele>234.611603</ele>
        <time>2022-08-12T09:08:15.393Z</time>
      </trkpt>
      <trkpt lat="43.70904" lon="1.48314">
        <ele>234.595985</ele>
        <time>2022-08-12T09:08:17.411Z</time>
      </trkpt>
      <trkpt lat="43.70893" lon="1.48307">
        <ele>234.580054</ele>
        <time>2022-08-12T09:08:19.408Z</time>
      </trkpt>
      <trkpt lat="43.70883" lon="1.483">
        <ele>234.56408</ele>
        <time>2022-08-12T09:08:21.413Z</time>
      </trkpt>
      <trkpt lat="43.70872" lon="1.48293">
        <ele>234.548828</ele>
        <time>2022-08-12T09:08:23.438Z</time>
      </trkpt>
      <trkpt lat="43.70862" lon="1.48286">
        <ele>234.533566</ele>
        <time>2022-08-12T09:08:25.387Z</time>
      </trkpt>
      <trkpt lat="43.70852" lon="1.48278">
        <ele>234.518421</ele>
        <time>2022-08-12T09:08:27.395Z</time>
      </trkpt>
      <trkpt lat="43.70842" lon="1.48271">
        <ele>234.503246</ele>
        <time>2022-08-12T09:08:29.388Z</time>
      </trkpt>
      <trkpt lat="43.70832" lon="1.48265">
        <ele>234.48816</ele>
        <time>2022-08-12T09:08:31.411Z</time>
      </trkpt>
      <trkpt lat="43.70821" lon="1.48258">
        <ele>234.472951</ele>
        <time>2022-08-12T09:08:33.405Z</time>
      </trkpt>
      <trkpt lat="43.70811" lon="1.4825">
        <ele>234.457644</ele>
        <time>2022-08-12T09:08:35.414Z</time>
      </trkpt>
      <trkpt lat="43.70801" lon="1.48243">
        <ele>234.442101</ele>
        <time>2022-08-12T09:08:37.424Z</time>
      </trkpt>
      <trkpt lat="43.7079" lon="1.48236">
        <ele>234.426645</ele>
        <time>2022-08-12T09:08:39.406Z</time>
      </trkpt>
      <trkpt lat="43.7078" lon="1.48229">
        <ele>234.411513</ele>
        <time>2022-08-12T09:08:41.406Z</time>
      </trkpt>
      <trkpt lat="43.7077" lon="1.48222">
        <ele>234.436527</ele>
        <time>2022-08-12T09:08:43.415Z</time>
      </trkpt>
      <trkpt lat="43.70759" lon="1.48216">
        <ele>234.473023</ele>
        <time>2022-08-12T09:08:45.404Z</time>
      </trkpt>
      <trkpt lat="43.70749" lon="1.48209">
        <ele>234.51078</ele>
        <time>2022-08-12T09:08:47.405Z</time>
      </trkpt>
      <trkpt lat="43.70738" lon="1.48203">
        <ele>234.54779</ele>
        <time>2022-08-12T09:08:49.423Z</time>
      </trkpt>
      <trkpt lat="43.70728" lon="1.48197">
        <ele>234.584006</ele>
        <time>2022-08-12T09:08:51.406Z</time>
      </trkpt>
      <trkpt lat="43.70717" lon="1.4819">
        <ele>234.620699</ele>
        <time>2022-08-12T09:08:53.408Z</time>
      </trkpt>
      <trkpt lat="43.70707" lon="1.48184">
        <ele>234.657291</ele>
        <time>2022-08-12T09:08:55.431Z</time>
      </trkpt>
      <trkpt lat="43.70697" lon="1.48176">
        <ele>234.692941</ele>
        <time>2022-08-12T09:08:57.418Z</time>
      </trkpt>
      <trkpt lat="43.70687" lon="1.48168">
        <ele>234.729022</ele>
        <time>2022-08-12T09:08:59.432Z</time>
      </trkpt>
      <trkpt lat="43.70678" lon="1.48159">
        <ele>234.764266</ele>
        <time>2022-08-12T09:09:01.412Z</time>
      </trkpt>
      <trkpt lat="43.70669" lon="1.4815">
        <ele>234.799964</ele>
        <time>2022-08-12T09:09:03.414Z</time>
      </trkpt>
      <trkpt lat="43.70661" lon="1.48139">
        <ele>234.835711</ele>
        <time>2022-08-12T09:09:05.461Z</time>
      </trkpt>
      <trkpt lat="43.70654" lon="1.48127">
        <ele>234.872734</ele>
        <time>2022-08-12T09:09:07.429Z</time>
      </trkpt>
      <trkpt lat="43.70647" lon="1.48114">
        <ele>234.910585</ele>
        <time>2022-08-12T09:09:09.417Z</time>
      </trkpt>
      <trkpt lat="43.7064" lon="1.481">
        <ele>234.949554</ele>
        <time>2022-08-12T09:09:11.427Z</time>
      </trkpt>
      <trkpt lat="43.70632" lon="1.48086">
        <ele>234.985584</ele>
        <time>2022-08-12T09:09:13.422Z</time>
      </trkpt>
      <trkpt lat="43.70625" lon="1.48073">
        <ele>235.000029</ele>
        <time>2022-08-12T09:09:15.442Z</time>
      </trkpt>
      <trkpt lat="43.70618" lon="1.4806">
        <ele>235.014691</ele>
        <time>2022-08-12T09:09:17.411Z</time>
      </trkpt>
      <trkpt lat="43.7061" lon="1.48047">
        <ele>235.029283</ele>
        <time>2022-08-12T09:09:19.422Z</time>
      </trkpt>
      <trkpt lat="43.70603" lon="1.48033">
        <ele>235.043871</ele>
        <time>2022-08-12T09:09:21.401Z</time>
      </trkpt>
      <trkpt lat="43.70596" lon="1.4802">
        <ele>235.058177</ele>
        <time>2022-08-12T09:09:23.407Z</time>
      </trkpt>
      <trkpt lat="43.70589" lon="1.48007">
        <ele>235.072266</ele>
        <time>2022-08-12T09:09:25.432Z</time>
      </trkpt>
      <trkpt lat="43.70582" lon="1.47994">
        <ele>235.086214</ele>
        <time>2022-08-12T09:09:27.413Z</time>
      </trkpt>
      <trkpt lat="43.70576" lon="1.47981">
        <ele>235.100094</ele>
        <time>2022-08-12T09:09:29.412Z</time>
      </trkpt>
      <trkpt lat="43.70569" lon="1.47968">
        <ele>235.113912</ele>
        <time>2022-08-12T09:09:31.402Z</time>
      </trkpt>
      <trkpt lat="43.70563" lon="1.47955">
        <ele>235.127607</ele>
        <time>2022-08-12T09:09:33.424Z</time>
      </trkpt>
      <trkpt lat="43.70557" lon="1.47942">
        <ele>235.14122</ele>
        <time>2022-08-12T09:09:35.428Z</time>
      </trkpt>
      <trkpt lat="43.70551" lon="1.47928">
        <ele>235.154915</ele>
        <time>2022-08-12T09:09:37.421Z</time>
      </trkpt>
      <trkpt lat="43.70545" lon="1.47915">
        <ele>235.168696</ele>
        <time>2022-08-12T09:09:39.424Z</time>
      </trkpt>
      <trkpt lat="43.70539" lon="1.47901">
        <ele>235.18254</ele>
        <time>2022-08-12T09:09:41.422Z</time>
      </trkpt>
      <trkpt lat="43.70533" lon="1.47888">
        <ele>235.196247</ele>
        <time>2022-08-12T09:09:43.409Z</time>
      </trkpt>
      <trkpt lat="43.70527" lon="1.47875">
        <ele>235.308053</ele>
        <time>2022-08-12T09:09:45.432Z</time>
      </trkpt>
      <trkpt lat="43.70521" lon="1.47862">
        <ele>235.465772</ele>
        <time>2022-08-12T09:09:47.400Z</time>
      </trkpt>
      <trkpt lat="43.70515" lon="1.47848">
        <ele>235.625207</ele>
        <time>2022-08-12T09:09:49.397Z</time>
      </trkpt>
      <trkpt lat="43.70509" lon="1.47835">
        <ele>235.784775</ele>
        <time>2022-08-12T09:09:51.417Z</time>
      </trkpt>
      <trkpt lat="43.70504" lon="1.47821">
        <ele>235.942187</ele>
        <time>2022-08-12T09:09:53.408Z</time>
      </trkpt>
      <trkpt lat="43.70499" lon="1.47807">
        <ele>236.094985</ele>
        <time>2022-08-12T09:09:55.432Z</time>
      </trkpt>
      <trkpt lat="43.70494" lon="1.47794">
        <ele>236.250607</ele>
        <time>2022-08-12T09:09:57.415Z</time>
      </trkpt>
      <trkpt lat="43.70488" lon="1.47781">
        <ele>236.406456</ele>
        <time>2022-08-12T09:09:59.404Z</time>
      </trkpt>
      <trkpt lat="43.70481" lon="1.47769">
        <ele>236.558523</ele>
        <time>2022-08-12T09:10:01.405Z</time>
      </trkpt>
      <trkpt lat="43.70472" lon="1.4776">
        <ele>236.708916</ele>
        <time>2022-08-12T09:10:03.407Z</time>
      </trkpt>
      <trkpt lat="43.70462" lon="1.47755">
        <ele>236.862973</ele>
        <time>2022-08-12T09:10:05.397Z</time>
      </trkpt>
      <trkpt lat="43.70451" lon="1.4775">
        <ele>237.02034</ele>
        <time>2022-08-12T09:10:07.395Z</time>
      </trkpt>
      <trkpt lat="43.70441" lon="1.47745">
        <ele>237.178695</ele>
        <time>2022-08-12T09:10:09.426Z</time>
      </trkpt>
      <trkpt lat="43.7043" lon="1.4774">
        <ele>237.33705</ele>
        <time>2022-08-12T09:10:11.412Z</time>
      </trkpt>
      <trkpt lat="43.70419" lon="1.47735">
        <ele>237.496086</ele>
        <time>2022-08-12T09:10:13.435Z</time>
      </trkpt>
      <trkpt lat="43.70409" lon="1.4773">
        <ele>237.652789</ele>
        <time>2022-08-12T09:10:15.413Z</time>
      </trkpt>
      <trkpt lat="43.70398" lon="1.47725">
        <ele>237.867702</ele>
        <time>2022-08-12T09:10:17.418Z</time>
      </trkpt>
      <trkpt lat="43.70388" lon="1.4772">
        <ele>238.124716</ele>
        <time>2022-08-12T09:10:19.400Z</time>
      </trkpt>
      <trkpt lat="43.70377" lon="1.47715">
        <ele>238.377924</ele>
        <time>2022-08-12T09:10:21.396Z</time>
      </trkpt>
      <trkpt lat="43.70367" lon="1.4771">
        <ele>238.631664</ele>
        <time>2022-08-12T09:10:23.401Z</time>
      </trkpt>
      <trkpt lat="43.70357" lon="1.47704">
        <ele>238.885732</ele>
        <time>2022-08-12T09:10:25.408Z</time>
      </trkpt>
      <trkpt lat="43.70346" lon="1.477">
        <ele>239.137902</ele>
        <time>2022-08-12T09:10:27.415Z</time>
      </trkpt>
      <trkpt lat="43.70337" lon="1.47696">
        <ele>239.368754</ele>
        <time>2022-08-12T09:10:29.398Z</time>
      </trkpt>
      <trkpt lat="43.70328" lon="1.47691">
        <ele>239.589372</ele>
        <time>2022-08-12T09:10:31.411Z</time>
      </trkpt>
      <trkpt lat="43.70319" lon="1.47686">
        <ele>239.813367</ele>
        <time>2022-08-12T09:10:33.402Z</time>
      </trkpt>
      <trkpt lat="43.7031" lon="1.4768">
        <ele>240.040605</ele>
        <time>2022-08-12T09:10:35.403Z</time>
      </trkpt>
      <trkpt lat="43.70301" lon="1.47675">
        <ele>240.267998</ele>
        <time>2022-08-12T09:10:37.430Z</time>
      </trkpt>
      <trkpt lat="43.70291" lon="1.4767">
        <ele>240.500298</ele>
        <time>2022-08-12T09:10:39.411Z</time>
      </trkpt>
      <trkpt lat="43.70282" lon="1.47664">
        <ele>240.740096</ele>
        <time>2022-08-12T09:10:41.415Z</time>
      </trkpt>
      <trkpt lat="43.70272" lon="1.47657">
        <ele>240.991829</ele>
        <time>2022-08-12T09:10:43.417Z</time>
      </trkpt>
      <trkpt lat="43.70262" lon="1.4765">
        <ele>241.247665</ele>
        <time>2022-08-12T09:10:45.402Z</time>
      </trkpt>
      <trkpt lat="43.70253" lon="1.47642">
        <ele>241.50148</ele>
        <time>2022-08-12T09:10:47.417Z</time>
      </trkpt>
      <trkpt lat="43.70243" lon="1.47634">
        <ele>241.764611</ele>
        <time>2022-08-12T09:10:49.411Z</time>
      </trkpt>
      <trkpt lat="43.70232" lon="1.47626">
        <ele>241.891414</ele>
        <time>2022-08-12T09:10:51.397Z</time>
      </trkpt>
      <trkpt lat="43.70221" lon="1.47617">
        <ele>241.926216</ele>
        <time>2022-08-12T09:10:53.411Z</time>
      </trkpt>
      <trkpt lat="43.70208" lon="1.47608">
        <ele>241.963494</ele>
        <time>2022-08-12T09:10:55.421Z</time>
      </trkpt>
      <trkpt lat="43.70194" lon="1.47603">
        <ele>242.002948</ele>
        <time>2022-08-12T09:10:57.405Z</time>
      </trkpt>
      <trkpt lat="43.70179" lon="1.47606">
        <ele>242.042923</ele>
        <time>2022-08-12T09:10:59.401Z</time>
      </trkpt>
      <trkpt lat="43.70165" lon="1.47612">
        <ele>242.082697</ele>
        <time>2022-08-12T09:11:01.399Z</time>
      </trkpt>
      <trkpt lat="43.70151" lon="1.47619">
        <ele>242.120774</ele>
        <time>2022-08-12T09:11:03.422Z</time>
      </trkpt>
      <trkpt lat="43.70138" lon="1.47624">
        <ele>242.157491</ele>
        <time>2022-08-12T09:11:05.402Z</time>
      </trkpt>
      <trkpt lat="43.70125" lon="1.47627">
        <ele>242.19051</ele>
        <time>2022-08-12T09:11:07.397Z</time>
      </trkpt>
      <trkpt lat="43.70114" lon="1.47627">
        <ele>242.220112</ele>
        <time>2022-08-12T09:11:09.415Z</time>
      </trkpt>
      <trkpt lat="43.70103" lon="1.47626">
        <ele>242.248712</ele>
        <time>2022-08-12T09:11:11.402Z</time>
      </trkpt>
      <trkpt lat="43.70093" lon="1.47624">
        <ele>242.276834</ele>
        <time>2022-08-12T09:11:13.396Z</time>
      </trkpt>
      <trkpt lat="43.70082" lon="1.47622">
        <ele>242.306449</ele>
        <time>2022-08-12T09:11:15.419Z</time>
      </trkpt>
      <trkpt lat="43.70071" lon="1.4762">
        <ele>242.336121</ele>
        <time>2022-08-12T09:11:17.405Z</time>
      </trkpt>
      <trkpt lat="43.7006" lon="1.47618">
        <ele>242.630404</ele>
        <time>2022-08-12T09:11:19.409Z</time>
      </trkpt>
      <trkpt lat="43.70048" lon="1.47617">
        <ele>243.066077</ele>
        <time>2022-08-12T09:11:21.387Z</time>
      </trkpt>
      <trkpt lat="43.70037" lon="1.47617">
        <ele>243.497056</ele>
        <time>2022-08-12T09:11:23.407Z</time>
      </trkpt>
      <trkpt lat="43.70027" lon="1.47619">
        <ele>243.92716</ele>
        <time>2022-08-12T09:11:25.404Z</time>
      </trkpt>
      <trkpt lat="43.70016" lon="1.47623">
        <ele>244.358951</ele>
        <time>2022-08-12T09:11:27.408Z</time>
      </trkpt>
      <trkpt lat="43.70006" lon="1.47628">
        <ele>244.787249</ele>
        <time>2022-08-12T09:11:29.413Z</time>
      </trkpt>
      <trkpt lat="43.69996" lon="1.47635">
        <ele>245.215221</ele>
        <time>2022-08-12T09:11:31.413Z</time>
      </trkpt>
      <trkpt lat="43.69987" lon="1.47644">
        <ele>245.650511</ele>
        <time>2022-08-12T09:11:33.414Z</time>
      </trkpt>
      <trkpt lat="43.69979" lon="1.47654">
        <ele>246.083301</ele>
        <time>2022-08-12T09:11:35.402Z</time>
      </trkpt>
      <trkpt lat="43.6997" lon="1.47665">
        <ele>246.523652</ele>
        <time>2022-08-12T09:11:37.418Z</time>
      </trkpt>
      <trkpt lat="43.69962" lon="1.47674">
        <ele>246.955697</ele>
        <time>2022-08-12T09:11:39.413Z</time>
      </trkpt>
      <trkpt lat="43.69954" lon="1.47685">
        <ele>247.394143</ele>
        <time>2022-08-12T09:11:41.414Z</time>
      </trkpt>
      <trkpt lat="43.69946" lon="1.47695">
        <ele>247.805922</ele>
        <time>2022-08-12T09:11:43.409Z</time>
      </trkpt>
      <trkpt lat="43.69939" lon="1.47705">
        <ele>248.217701</ele>
        <time>2022-08-12T09:11:45.409Z</time>
      </trkpt>
      <trkpt lat="43.69931" lon="1.47715">
        <ele>248.636946</ele>
        <time>2022-08-12T09:11:47.397Z</time>
      </trkpt>
      <trkpt lat="43.69923" lon="1.47726">
        <ele>249.064906</ele>
        <time>2022-08-12T09:11:49.398Z</time>
      </trkpt>
      <trkpt lat="43.69915" lon="1.47737">
        <ele>249.500839</ele>
        <time>2022-08-12T09:11:51.429Z</time>
      </trkpt>
      <trkpt lat="43.69908" lon="1.47748">
        <ele>249.970359</ele>
        <time>2022-08-12T09:11:53.409Z</time>
      </trkpt>
      <trkpt lat="43.699" lon="1.47758">
        <ele>250.442227</ele>
        <time>2022-08-12T09:11:55.424Z</time>
      </trkpt>
      <trkpt lat="43.6989" lon="1.47765">
        <ele>250.915065</ele>
        <time>2022-08-12T09:11:57.393Z</time>
      </trkpt>
      <trkpt lat="43.69882" lon="1.47775">
        <ele>251.376033</ele>
        <time>2022-08-12T09:11:59.396Z</time>
      </trkpt>
      <trkpt lat="43.69875" lon="1.47786">
        <ele>251.843686</ele>
        <time>2022-08-12T09:12:01.401Z</time>
      </trkpt>
      <trkpt lat="43.69865" lon="1.47794">
        <ele>252.321934</ele>
        <time>2022-08-12T09:12:03.393Z</time>
      </trkpt>
      <trkpt lat="43.69855" lon="1.47798">
        <ele>252.78657</ele>
        <time>2022-08-12T09:12:05.408Z</time>
      </trkpt>
      <trkpt lat="43.69845" lon="1.47802">
        <ele>253.235456</ele>
        <time>2022-08-12T09:12:07.405Z</time>
      </trkpt>
      <trkpt lat="43.69835" lon="1.47805">
        <ele>253.672787</ele>
        <time>2022-08-12T09:12:09.422Z</time>
      </trkpt>
      <trkpt lat="43.69825" lon="1.4781">
        <ele>254.104596</ele>
        <time>2022-08-12T09:12:11.416Z</time>
      </trkpt>
      <trkpt lat="43.69816" lon="1.47814">
        <ele>254.538316</ele>
        <time>2022-08-12T09:12:13.392Z</time>
      </trkpt>
      <trkpt lat="43.69806" lon="1.47818">
        <ele>254.969838</ele>
        <time>2022-08-12T09:12:15.413Z</time>
      </trkpt>
      <trkpt lat="43.69796" lon="1.47822">
        <ele>255.408037</ele>
        <time>2022-08-12T09:12:17.421Z</time>
      </trkpt>
      <trkpt lat="43.69786" lon="1.47825">
        <ele>255.843695</ele>
        <time>2022-08-12T09:12:19.392Z</time>
      </trkpt>
      <trkpt lat="43.69776" lon="1.47829">
        <ele>256.290994</ele>
        <time>2022-08-12T09:12:21.411Z</time>
      </trkpt>
      <trkpt lat="43.69766" lon="1.47832">
        <ele>256.748593</ele>
        <time>2022-08-12T09:12:23.384Z</time>
      </trkpt>
      <trkpt lat="43.69755" lon="1.47835">
        <ele>257.098646</ele>
        <time>2022-08-12T09:12:25.413Z</time>
      </trkpt>
      <trkpt lat="43.69744" lon="1.47836">
        <ele>257.084769</ele>
        <time>2022-08-12T09:12:27.413Z</time>
      </trkpt>
      <trkpt lat="43.69733" lon="1.47836">
        <ele>257.0707</ele>
        <time>2022-08-12T09:12:29.412Z</time>
      </trkpt>
      <trkpt lat="43.69722" lon="1.47834">
        <ele>257.056572</ele>
        <time>2022-08-12T09:12:31.413Z</time>
      </trkpt>
      <trkpt lat="43.69711" lon="1.47828">
        <ele>257.042286</ele>
        <time>2022-08-12T09:12:33.417Z</time>
      </trkpt>
      <trkpt lat="43.69701" lon="1.4782">
        <ele>257.027996</ele>
        <time>2022-08-12T09:12:35.393Z</time>
      </trkpt>
      <trkpt lat="43.69692" lon="1.47811">
        <ele>257.013607</ele>
        <time>2022-08-12T09:12:37.401Z</time>
      </trkpt>
      <trkpt lat="43.69684" lon="1.478">
        <ele>256.999136</ele>
        <time>2022-08-12T09:12:39.410Z</time>
      </trkpt>
      <trkpt lat="43.69675" lon="1.4779">
        <ele>256.985177</ele>
        <time>2022-08-12T09:12:41.433Z</time>
      </trkpt>
      <trkpt lat="43.69667" lon="1.47781">
        <ele>256.971603</ele>
        <time>2022-08-12T09:12:43.406Z</time>
      </trkpt>
      <trkpt lat="43.69658" lon="1.47773">
        <ele>256.95874</ele>
        <time>2022-08-12T09:12:45.403Z</time>
      </trkpt>
      <trkpt lat="43.69651" lon="1.47764">
        <ele>256.94648</ele>
        <time>2022-08-12T09:12:47.400Z</time>
      </trkpt>
      <trkpt lat="43.69647" lon="1.47751">
        <ele>256.933853</ele>
        <time>2022-08-12T09:12:52.407Z</time>
      </trkpt>
      <trkpt lat="43.69642" lon="1.47738">
        <ele>256.920952</ele>
        <time>2022-08-12T09:12:55.411Z</time>
      </trkpt>
      <trkpt lat="43.69637" lon="1.47727">
        <ele>256.90875</ele>
        <time>2022-08-12T09:12:57.399Z</time>
      </trkpt>
      <trkpt lat="43.69633" lon="1.47713">
        <ele>256.895195</ele>
        <time>2022-08-12T09:12:59.393Z</time>
      </trkpt>
      <trkpt lat="43.69627" lon="1.477">
        <ele>256.880963</ele>
        <time>2022-08-12T09:13:01.411Z</time>
      </trkpt>
      <trkpt lat="43.69621" lon="1.47685">
        <ele>256.714692</ele>
        <time>2022-08-12T09:13:03.424Z</time>
      </trkpt>
      <trkpt lat="43.69615" lon="1.4767">
        <ele>256.467988</ele>
        <time>2022-08-12T09:13:05.432Z</time>
      </trkpt>
      <trkpt lat="43.69609" lon="1.47656">
        <ele>256.224577</ele>
        <time>2022-08-12T09:13:07.413Z</time>
      </trkpt>
      <trkpt lat="43.69603" lon="1.47641">
        <ele>255.980375</ele>
        <time>2022-08-12T09:13:09.385Z</time>
      </trkpt>
      <trkpt lat="43.69597" lon="1.47626">
        <ele>255.731297</ele>
        <time>2022-08-12T09:13:11.400Z</time>
      </trkpt>
      <trkpt lat="43.69592" lon="1.4761">
        <ele>255.479633</ele>
        <time>2022-08-12T09:13:13.408Z</time>
      </trkpt>
      <trkpt lat="43.69587" lon="1.47594">
        <ele>255.229599</ele>
        <time>2022-08-12T09:13:15.423Z</time>
      </trkpt>
      <trkpt lat="43.69585" lon="1.47577">
        <ele>254.979514</ele>
        <time>2022-08-12T09:13:17.411Z</time>
      </trkpt>
      <trkpt lat="43.69583" lon="1.4756">
        <ele>254.736011</ele>
        <time>2022-08-12T09:13:19.405Z</time>
      </trkpt>
      <trkpt lat="43.69578" lon="1.47545">
        <ele>254.498682</ele>
        <time>2022-08-12T09:13:21.391Z</time>
      </trkpt>
      <trkpt lat="43.6957" lon="1.47532">
        <ele>254.246491</ele>
        <time>2022-08-12T09:13:23.416Z</time>
      </trkpt>
      <trkpt lat="43.69559" lon="1.47522">
        <ele>253.993242</ele>
        <time>2022-08-12T09:13:25.392Z</time>
      </trkpt>
      <trkpt lat="43.69549" lon="1.47512">
        <ele>253.740914</ele>
        <time>2022-08-12T09:13:27.396Z</time>
      </trkpt>
      <trkpt lat="43.69539" lon="1.47509">
        <ele>253.526483</ele>
        <time>2022-08-12T09:13:29.414Z</time>
      </trkpt>
      <trkpt lat="43.6953" lon="1.47523">
        <ele>253.240705</ele>
        <time>2022-08-12T09:13:31.400Z</time>
      </trkpt>
      <trkpt lat="43.6952" lon="1.47538">
        <ele>252.466816</ele>
        <time>2022-08-12T09:13:33.412Z</time>
      </trkpt>
      <trkpt lat="43.6951" lon="1.47554">
        <ele>251.630359</ele>
        <time>2022-08-12T09:13:35.391Z</time>
      </trkpt>
      <trkpt lat="43.69501" lon="1.4757">
        <ele>250.849484</ele>
        <time>2022-08-12T09:13:37.396Z</time>
      </trkpt>
      <trkpt lat="43.69493" lon="1.4759">
        <ele>249.995773</ele>
        <time>2022-08-12T09:13:39.382Z</time>
      </trkpt>
      <trkpt lat="43.6949" lon="1.47611">
        <ele>249.167441</ele>
        <time>2022-08-12T09:13:41.385Z</time>
      </trkpt>
      <trkpt lat="43.69487" lon="1.47633">
        <ele>248.287112</ele>
        <time>2022-08-12T09:13:43.391Z</time>
      </trkpt>
      <trkpt lat="43.69484" lon="1.47657">
        <ele>247.354074</ele>
        <time>2022-08-12T09:13:45.385Z</time>
      </trkpt>
      <trkpt lat="43.69482" lon="1.4767">
        <ele>246.868039</ele>
        <time>2022-08-12T09:13:46.378Z</time>
      </trkpt>
      <trkpt lat="43.69475" lon="1.47692">
        <ele>245.946822</ele>
        <time>2022-08-12T09:13:48.378Z</time>
      </trkpt>
      <trkpt lat="43.69465" lon="1.47713">
        <ele>244.997369</ele>
        <time>2022-08-12T09:13:50.394Z</time>
      </trkpt>
      <trkpt lat="43.6946" lon="1.47723">
        <ele>244.500156</ele>
        <time>2022-08-12T09:13:51.375Z</time>
      </trkpt>
      <trkpt lat="43.69455" lon="1.47734">
        <ele>244.016366</ele>
        <time>2022-08-12T09:13:52.383Z</time>
      </trkpt>
      <trkpt lat="43.69448" lon="1.47755">
        <ele>243.606671</ele>
        <time>2022-08-12T09:13:54.389Z</time>
      </trkpt>
      <trkpt lat="43.69438" lon="1.4777">
        <ele>243.433082</ele>
        <time>2022-08-12T09:13:56.407Z</time>
      </trkpt>
      <trkpt lat="43.69425" lon="1.47773">
        <ele>243.272038</ele>
        <time>2022-08-12T09:13:58.399Z</time>
      </trkpt>
      <trkpt lat="43.69412" lon="1.47773">
        <ele>243.118212</ele>
        <time>2022-08-12T09:14:00.397Z</time>
      </trkpt>
      <trkpt lat="43.69398" lon="1.47774">
        <ele>242.960697</ele>
        <time>2022-08-12T09:14:02.401Z</time>
      </trkpt>
      <trkpt lat="43.69385" lon="1.47775">
        <ele>242.802089</ele>
        <time>2022-08-12T09:14:04.417Z</time>
      </trkpt>
      <trkpt lat="43.69372" lon="1.47776">
        <ele>242.645623</ele>
        <time>2022-08-12T09:14:06.405Z</time>
      </trkpt>
      <trkpt lat="43.69359" lon="1.47777">
        <ele>242.493931</ele>
        <time>2022-08-12T09:14:08.429Z</time>
      </trkpt>
      <trkpt lat="43.69346" lon="1.47777">
        <ele>242.340076</ele>
        <time>2022-08-12T09:14:10.400Z</time>
      </trkpt>
      <trkpt lat="43.69333" lon="1.47777">
        <ele>242.187442</ele>
        <time>2022-08-12T09:14:12.388Z</time>
      </trkpt>
      <trkpt lat="43.6932" lon="1.47776">
        <ele>242.033473</ele>
        <time>2022-08-12T09:14:14.409Z</time>
      </trkpt>
      <trkpt lat="43.69308" lon="1.47771">
        <ele>241.883296</ele>
        <time>2022-08-12T09:14:16.389Z</time>
      </trkpt>
      <trkpt lat="43.69297" lon="1.4776">
        <ele>241.721256</ele>
        <time>2022-08-12T09:14:18.388Z</time>
      </trkpt>
      <trkpt lat="43.69286" lon="1.47747">
        <ele>241.350843</ele>
        <time>2022-08-12T09:14:20.432Z</time>
      </trkpt>
      <trkpt lat="43.69275" lon="1.47734">
        <ele>240.614835</ele>
        <time>2022-08-12T09:14:22.410Z</time>
      </trkpt>
      <trkpt lat="43.69265" lon="1.47723">
        <ele>239.922768</ele>
        <time>2022-08-12T09:14:24.387Z</time>
      </trkpt>
      <trkpt lat="43.69255" lon="1.47714">
        <ele>239.330717</ele>
        <time>2022-08-12T09:14:26.405Z</time>
      </trkpt>
      <trkpt lat="43.69246" lon="1.47705">
        <ele>238.753547</ele>
        <time>2022-08-12T09:14:28.408Z</time>
      </trkpt>
      <trkpt lat="43.69237" lon="1.47698">
        <ele>238.218266</ele>
        <time>2022-08-12T09:14:30.387Z</time>
      </trkpt>
      <trkpt lat="43.69228" lon="1.47691">
        <ele>237.712199</ele>
        <time>2022-08-12T09:14:32.412Z</time>
      </trkpt>
      <trkpt lat="43.6922" lon="1.47686">
        <ele>237.248472</ele>
        <time>2022-08-12T09:14:34.382Z</time>
      </trkpt>
      <trkpt lat="43.69212" lon="1.47679">
        <ele>236.740457</ele>
        <time>2022-08-12T09:14:36.385Z</time>
      </trkpt>
      <trkpt lat="43.69201" lon="1.4767">
        <ele>236.120485</ele>
        <time>2022-08-12T09:14:38.389Z</time>
      </trkpt>
      <trkpt lat="43.69189" lon="1.4766">
        <ele>235.403392</ele>
        <time>2022-08-12T09:14:40.394Z</time>
      </trkpt>
      <trkpt lat="43.69177" lon="1.47649">
        <ele>234.661069</ele>
        <time>2022-08-12T09:14:42.399Z</time>
      </trkpt>
      <trkpt lat="43.69165" lon="1.47636">
        <ele>233.848508</ele>
        <time>2022-08-12T09:14:44.388Z</time>
      </trkpt>
      <trkpt lat="43.69152" lon="1.47617">
        <ele>232.914614</ele>
        <time>2022-08-12T09:14:46.409Z</time>
      </trkpt>
      <trkpt lat="43.69146" lon="1.47607">
        <ele>232.408516</ele>
        <time>2022-08-12T09:14:47.387Z</time>
      </trkpt>
      <trkpt lat="43.69141" lon="1.47594">
        <ele>231.585294</ele>
        <time>2022-08-12T09:14:48.414Z</time>
      </trkpt>
      <trkpt lat="43.69136" lon="1.47581">
        <ele>230.71611</ele>
        <time>2022-08-12T09:14:49.397Z</time>
      </trkpt>
      <trkpt lat="43.69132" lon="1.47568">
        <ele>229.823476</ele>
        <time>2022-08-12T09:14:50.404Z</time>
      </trkpt>
      <trkpt lat="43.69128" lon="1.47553">
        <ele>228.91341</ele>
        <time>2022-08-12T09:14:51.391Z</time>
      </trkpt>
      <trkpt lat="43.69124" lon="1.47538">
        <ele>227.966648</ele>
        <time>2022-08-12T09:14:52.397Z</time>
      </trkpt>
      <trkpt lat="43.69121" lon="1.47523">
        <ele>227.005406</ele>
        <time>2022-08-12T09:14:53.394Z</time>
      </trkpt>
      <trkpt lat="43.69117" lon="1.47507">
        <ele>226.008575</ele>
        <time>2022-08-12T09:14:54.409Z</time>
      </trkpt>
      <trkpt lat="43.69113" lon="1.47492">
        <ele>225.0509</ele>
        <time>2022-08-12T09:14:55.413Z</time>
      </trkpt>
      <trkpt lat="43.69109" lon="1.47475">
        <ele>224.022882</ele>
        <time>2022-08-12T09:14:56.386Z</time>
      </trkpt>
      <trkpt lat="43.69105" lon="1.4746">
        <ele>223.048499</ele>
        <time>2022-08-12T09:14:57.403Z</time>
      </trkpt>
      <trkpt lat="43.691" lon="1.47445">
        <ele>222.048711</ele>
        <time>2022-08-12T09:14:58.401Z</time>
      </trkpt>
      <trkpt lat="43.69094" lon="1.47431">
        <ele>221.072473</ele>
        <time>2022-08-12T09:14:59.381Z</time>
      </trkpt>
      <trkpt lat="43.69087" lon="1.47417">
        <ele>220.078422</ele>
        <time>2022-08-12T09:15:00.387Z</time>
      </trkpt>
      <trkpt lat="43.6908" lon="1.47405">
        <ele>219.164952</ele>
        <time>2022-08-12T09:15:01.381Z</time>
      </trkpt>
      <trkpt lat="43.69073" lon="1.47395">
        <ele>218.328854</ele>
        <time>2022-08-12T09:15:02.393Z</time>
      </trkpt>
      <trkpt lat="43.69068" lon="1.47385">
        <ele>217.588483</ele>
        <time>2022-08-12T09:15:03.410Z</time>
      </trkpt>
      <trkpt lat="43.69059" lon="1.47372">
        <ele>218.352358</ele>
        <time>2022-08-12T09:15:05.396Z</time>
      </trkpt>
      <trkpt lat="43.6905" lon="1.47367">
        <ele>218.9624</ele>
        <time>2022-08-12T09:15:08.398Z</time>
      </trkpt>
      <trkpt lat="43.6904" lon="1.47375">
        <ele>219.673102</ele>
        <time>2022-08-12T09:15:11.424Z</time>
      </trkpt>
      <trkpt lat="43.69031" lon="1.47382">
        <ele>220.350637</ele>
        <time>2022-08-12T09:15:14.395Z</time>
      </trkpt>
      <trkpt lat="43.69022" lon="1.4739">
        <ele>221.035194</ele>
        <time>2022-08-12T09:15:17.421Z</time>
      </trkpt>
      <trkpt lat="43.69013" lon="1.47395">
        <ele>221.608596</ele>
        <time>2022-08-12T09:15:20.411Z</time>
      </trkpt>
      <trkpt lat="43.69004" lon="1.47401">
        <ele>222.216173</ele>
        <time>2022-08-12T09:15:24.398Z</time>
      </trkpt>
      <trkpt lat="43.68996" lon="1.47406">
        <ele>222.797172</ele>
        <time>2022-08-12T09:15:28.406Z</time>
      </trkpt>
      <trkpt lat="43.68987" lon="1.4741">
        <ele>223.394715</ele>
        <time>2022-08-12T09:15:32.397Z</time>
      </trkpt>
      <trkpt lat="43.68977" lon="1.47416">
        <ele>224.078139</ele>
        <time>2022-08-12T09:15:36.416Z</time>
      </trkpt>
      <trkpt lat="43.68966" lon="1.47423">
        <ele>224.809652</ele>
        <time>2022-08-12T09:15:40.407Z</time>
      </trkpt>
      <trkpt lat="43.68958" lon="1.47429">
        <ele>225.407804</ele>
        <time>2022-08-12T09:15:43.402Z</time>
      </trkpt>
      <trkpt lat="43.68948" lon="1.47434">
        <ele>226.035298</ele>
        <time>2022-08-12T09:15:46.406Z</time>
      </trkpt>
      <trkpt lat="43.68939" lon="1.47432">
        <ele>226.65042</ele>
        <time>2022-08-12T09:15:49.418Z</time>
      </trkpt>
      <trkpt lat="43.68933" lon="1.47421">
        <ele>227.268386</ele>
        <time>2022-08-12T09:15:52.403Z</time>
      </trkpt>
      <trkpt lat="43.68925" lon="1.47409">
        <ele>227.965173</ele>
        <time>2022-08-12T09:15:55.379Z</time>
      </trkpt>
      <trkpt lat="43.68916" lon="1.474">
        <ele>228.71838</ele>
        <time>2022-08-12T09:15:58.390Z</time>
      </trkpt>
      <trkpt lat="43.68906" lon="1.47388">
        <ele>228.65244</ele>
        <time>2022-08-12T09:16:01.408Z</time>
      </trkpt>
      <trkpt lat="43.68902" lon="1.47376">
        <ele>228.500673</ele>
        <time>2022-08-12T09:16:03.400Z</time>
      </trkpt>
      <trkpt lat="43.68903" lon="1.47362">
        <ele>228.338</ele>
        <time>2022-08-12T09:16:05.397Z</time>
      </trkpt>
      <trkpt lat="43.68908" lon="1.47347">
        <ele>228.155073</ele>
        <time>2022-08-12T09:16:07.392Z</time>
      </trkpt>
      <trkpt lat="43.68914" lon="1.47334">
        <ele>227.963277</ele>
        <time>2022-08-12T09:16:09.410Z</time>
      </trkpt>
      <trkpt lat="43.68921" lon="1.47319">
        <ele>227.766576</ele>
        <time>2022-08-12T09:16:11.427Z</time>
      </trkpt>
      <trkpt lat="43.68927" lon="1.47304">
        <ele>227.564922</ele>
        <time>2022-08-12T09:16:13.394Z</time>
      </trkpt>
      <trkpt lat="43.68934" lon="1.47289">
        <ele>227.356258</ele>
        <time>2022-08-12T09:16:15.392Z</time>
      </trkpt>
      <trkpt lat="43.68939" lon="1.47273">
        <ele>227.147463</ele>
        <time>2022-08-12T09:16:17.400Z</time>
      </trkpt>
      <trkpt lat="43.68939" lon="1.47255">
        <ele>226.937819</ele>
        <time>2022-08-12T09:16:19.386Z</time>
      </trkpt>
      <trkpt lat="43.68933" lon="1.47238">
        <ele>226.721273</ele>
        <time>2022-08-12T09:16:21.418Z</time>
      </trkpt>
      <trkpt lat="43.68923" lon="1.47225">
        <ele>226.504541</ele>
        <time>2022-08-12T09:16:23.396Z</time>
      </trkpt>
      <trkpt lat="43.68913" lon="1.47213">
        <ele>226.278672</ele>
        <time>2022-08-12T09:16:25.367Z</time>
      </trkpt>
      <trkpt lat="43.68901" lon="1.47199">
        <ele>226.032031</ele>
        <time>2022-08-12T09:16:27.385Z</time>
      </trkpt>
      <trkpt lat="43.68888" lon="1.47184">
        <ele>226.30229</ele>
        <time>2022-08-12T09:16:29.405Z</time>
      </trkpt>
      <trkpt lat="43.68881" lon="1.47175">
        <ele>226.596263</ele>
        <time>2022-08-12T09:16:30.389Z</time>
      </trkpt>
      <trkpt lat="43.68873" lon="1.47166">
        <ele>226.902411</ele>
        <time>2022-08-12T09:16:31.400Z</time>
      </trkpt>
      <trkpt lat="43.68866" lon="1.47157">
        <ele>227.222441</ele>
        <time>2022-08-12T09:16:32.398Z</time>
      </trkpt>
      <trkpt lat="43.68858" lon="1.47148">
        <ele>227.534779</ele>
        <time>2022-08-12T09:16:33.410Z</time>
      </trkpt>
      <trkpt lat="43.68851" lon="1.4714">
        <ele>227.834073</ele>
        <time>2022-08-12T09:16:34.408Z</time>
      </trkpt>
      <trkpt lat="43.68837" lon="1.47126">
        <ele>228.357088</ele>
        <time>2022-08-12T09:16:36.410Z</time>
      </trkpt>
      <trkpt lat="43.68827" lon="1.47114">
        <ele>228.773041</ele>
        <time>2022-08-12T09:16:38.413Z</time>
      </trkpt>
      <trkpt lat="43.68821" lon="1.47104">
        <ele>229.081637</ele>
        <time>2022-08-12T09:16:40.413Z</time>
      </trkpt>
      <trkpt lat="43.68814" lon="1.47089">
        <ele>229.479915</ele>
        <time>2022-08-12T09:16:43.387Z</time>
      </trkpt>
      <trkpt lat="43.68806" lon="1.47076">
        <ele>229.863492</ele>
        <time>2022-08-12T09:16:46.403Z</time>
      </trkpt>
      <trkpt lat="43.68799" lon="1.47067">
        <ele>230.155245</ele>
        <time>2022-08-12T09:16:48.415Z</time>
      </trkpt>
      <trkpt lat="43.68792" lon="1.47058">
        <ele>230.465541</ele>
        <time>2022-08-12T09:16:50.388Z</time>
      </trkpt>
      <trkpt lat="43.68783" lon="1.4705">
        <ele>230.789998</ele>
        <time>2022-08-12T09:16:52.416Z</time>
      </trkpt>
      <trkpt lat="43.68775" lon="1.47042">
        <ele>231.108001</ele>
        <time>2022-08-12T09:16:54.404Z</time>
      </trkpt>
      <trkpt lat="43.68766" lon="1.47035">
        <ele>231.429241</ele>
        <time>2022-08-12T09:16:56.402Z</time>
      </trkpt>
      <trkpt lat="43.68757" lon="1.47032">
        <ele>231.808655</ele>
        <time>2022-08-12T09:16:58.405Z</time>
      </trkpt>
      <trkpt lat="43.68748" lon="1.47039">
        <ele>232.280513</ele>
        <time>2022-08-12T09:17:00.401Z</time>
      </trkpt>
      <trkpt lat="43.68741" lon="1.47049">
        <ele>232.763562</ele>
        <time>2022-08-12T09:17:02.427Z</time>
      </trkpt>
      <trkpt lat="43.68734" lon="1.47061">
        <ele>233.270246</ele>
        <time>2022-08-12T09:17:04.411Z</time>
      </trkpt>
      <trkpt lat="43.68728" lon="1.47072">
        <ele>233.780535</ele>
        <time>2022-08-12T09:17:06.415Z</time>
      </trkpt>
      <trkpt lat="43.68721" lon="1.47084">
        <ele>234.292711</ele>
        <time>2022-08-12T09:17:08.404Z</time>
      </trkpt>
      <trkpt lat="43.68714" lon="1.47095">
        <ele>234.813851</ele>
        <time>2022-08-12T09:17:10.393Z</time>
      </trkpt>
      <trkpt lat="43.68704" lon="1.47101">
        <ele>235.324369</ele>
        <time>2022-08-12T09:17:12.418Z</time>
      </trkpt>
      <trkpt lat="43.68693" lon="1.47099">
        <ele>235.834066</ele>
        <time>2022-08-12T09:17:14.388Z</time>
      </trkpt>
      <trkpt lat="43.68685" lon="1.4709">
        <ele>236.35433</ele>
        <time>2022-08-12T09:17:16.389Z</time>
      </trkpt>
      <trkpt lat="43.68677" lon="1.47079">
        <ele>236.884083</ele>
        <time>2022-08-12T09:17:18.394Z</time>
      </trkpt>
      <trkpt lat="43.68668" lon="1.47069">
        <ele>237.426598</ele>
        <time>2022-08-12T09:17:20.398Z</time>
      </trkpt>
      <trkpt lat="43.6866" lon="1.47058">
        <ele>237.971445</ele>
        <time>2022-08-12T09:17:22.403Z</time>
      </trkpt>
      <trkpt lat="43.68652" lon="1.47047">
        <ele>238.517555</ele>
        <time>2022-08-12T09:17:24.406Z</time>
      </trkpt>
      <trkpt lat="43.68643" lon="1.47036">
        <ele>239.051925</ele>
        <time>2022-08-12T09:17:26.440Z</time>
      </trkpt>
      <trkpt lat="43.68636" lon="1.47025">
        <ele>239.587085</ele>
        <time>2022-08-12T09:17:28.410Z</time>
      </trkpt>
      <trkpt lat="43.68627" lon="1.47014">
        <ele>240.115384</ele>
        <time>2022-08-12T09:17:30.399Z</time>
      </trkpt>
      <trkpt lat="43.6862" lon="1.47004">
        <ele>240.090989</ele>
        <time>2022-08-12T09:17:32.407Z</time>
      </trkpt>
      <trkpt lat="43.68612" lon="1.46993">
        <ele>240.067512</ele>
        <time>2022-08-12T09:17:34.395Z</time>
      </trkpt>
      <trkpt lat="43.68605" lon="1.46982">
        <ele>240.044654</ele>
        <time>2022-08-12T09:17:36.419Z</time>
      </trkpt>
      <trkpt lat="43.68598" lon="1.46972">
        <ele>240.021562</ele>
        <time>2022-08-12T09:17:38.401Z</time>
      </trkpt>
      <trkpt lat="43.6859" lon="1.46962">
        <ele>239.997835</ele>
        <time>2022-08-12T09:17:40.395Z</time>
      </trkpt>
      <trkpt lat="43.68582" lon="1.46951">
        <ele>239.973188</ele>
        <time>2022-08-12T09:17:42.391Z</time>
      </trkpt>
      <trkpt lat="43.68573" lon="1.46941">
        <ele>239.947979</ele>
        <time>2022-08-12T09:17:44.403Z</time>
      </trkpt>
      <trkpt lat="43.68565" lon="1.46931">
        <ele>239.922667</ele>
        <time>2022-08-12T09:17:46.406Z</time>
      </trkpt>
      <trkpt lat="43.68557" lon="1.46919">
        <ele>239.89678</ele>
        <time>2022-08-12T09:17:48.403Z</time>
      </trkpt>
      <trkpt lat="43.68554" lon="1.46902">
        <ele>239.86933</ele>
        <time>2022-08-12T09:17:50.416Z</time>
      </trkpt>
      <trkpt lat="43.68556" lon="1.46884">
        <ele>239.839014</ele>
        <time>2022-08-12T09:17:52.416Z</time>
      </trkpt>
      <trkpt lat="43.68553" lon="1.46864">
        <ele>239.805971</ele>
        <time>2022-08-12T09:17:54.398Z</time>
      </trkpt>
      <trkpt lat="43.68544" lon="1.46846">
        <ele>239.771867</ele>
        <time>2022-08-12T09:17:56.409Z</time>
      </trkpt>
      <trkpt lat="43.68536" lon="1.46829">
        <ele>239.7391</ele>
        <time>2022-08-12T09:17:58.386Z</time>
      </trkpt>
      <trkpt lat="43.68527" lon="1.46815">
        <ele>239.663319</ele>
        <time>2022-08-12T09:18:00.378Z</time>
      </trkpt>
      <trkpt lat="43.68517" lon="1.46803">
        <ele>239.479213</ele>
        <time>2022-08-12T09:18:02.380Z</time>
      </trkpt>
      <trkpt lat="43.68504" lon="1.46798">
        <ele>239.292256</ele>
        <time>2022-08-12T09:18:04.401Z</time>
      </trkpt>
      <trkpt lat="43.6849" lon="1.46798">
        <ele>239.095997</ele>
        <time>2022-08-12T09:18:06.392Z</time>
      </trkpt>
      <trkpt lat="43.68476" lon="1.46802">
        <ele>238.898193</ele>
        <time>2022-08-12T09:18:08.381Z</time>
      </trkpt>
      <trkpt lat="43.68464" lon="1.46811">
        <ele>238.705633</ele>
        <time>2022-08-12T09:18:10.409Z</time>
      </trkpt>
      <trkpt lat="43.68455" lon="1.46823">
        <ele>238.526352</ele>
        <time>2022-08-12T09:18:12.391Z</time>
      </trkpt>
      <trkpt lat="43.68446" lon="1.46835">
        <ele>238.357827</ele>
        <time>2022-08-12T09:18:14.396Z</time>
      </trkpt>
      <trkpt lat="43.68439" lon="1.46847">
        <ele>238.200001</ele>
        <time>2022-08-12T09:18:16.394Z</time>
      </trkpt>
      <trkpt lat="43.68433" lon="1.46859">
        <ele>238.050541</ele>
        <time>2022-08-12T09:18:18.396Z</time>
      </trkpt>
      <trkpt lat="43.68425" lon="1.46864">
        <ele>237.923061</ele>
        <time>2022-08-12T09:18:20.399Z</time>
      </trkpt>
      <trkpt lat="43.68416" lon="1.46855">
        <ele>237.773193</ele>
        <time>2022-08-12T09:18:22.401Z</time>
      </trkpt>
      <trkpt lat="43.68407" lon="1.46842">
        <ele>237.596518</ele>
        <time>2022-08-12T09:18:24.399Z</time>
      </trkpt>
      <trkpt lat="43.68398" lon="1.46829">
        <ele>237.41064</ele>
        <time>2022-08-12T09:18:26.389Z</time>
      </trkpt>
      <trkpt lat="43.68388" lon="1.46815">
        <ele>237.211661</ele>
        <time>2022-08-12T09:18:28.404Z</time>
      </trkpt>
      <trkpt lat="43.68378" lon="1.46801">
        <ele>236.404088</ele>
        <time>2022-08-12T09:18:30.404Z</time>
      </trkpt>
      <trkpt lat="43.68366" lon="1.46785">
        <ele>235.479915</ele>
        <time>2022-08-12T09:18:32.372Z</time>
      </trkpt>
      <trkpt lat="43.68355" lon="1.46768">
        <ele>234.48729</ele>
        <time>2022-08-12T09:18:34.398Z</time>
      </trkpt>
      <trkpt lat="43.68342" lon="1.4675">
        <ele>233.457415</ele>
        <time>2022-08-12T09:18:36.416Z</time>
      </trkpt>
      <trkpt lat="43.6833" lon="1.46733">
        <ele>232.439574</ele>
        <time>2022-08-12T09:18:38.408Z</time>
      </trkpt>
      <trkpt lat="43.68318" lon="1.46716">
        <ele>231.414671</ele>
        <time>2022-08-12T09:18:40.409Z</time>
      </trkpt>
      <trkpt lat="43.68305" lon="1.467">
        <ele>230.440704</ele>
        <time>2022-08-12T09:18:42.398Z</time>
      </trkpt>
      <trkpt lat="43.68294" lon="1.46686">
        <ele>229.560087</ele>
        <time>2022-08-12T09:18:44.406Z</time>
      </trkpt>
      <trkpt lat="43.68288" lon="1.46672">
        <ele>228.878706</ele>
        <time>2022-08-12T09:18:46.399Z</time>
      </trkpt>
      <trkpt lat="43.68291" lon="1.46655">
        <ele>228.142745</ele>
        <time>2022-08-12T09:18:48.387Z</time>
      </trkpt>
      <trkpt lat="43.68296" lon="1.46637">
        <ele>227.362982</ele>
        <time>2022-08-12T09:18:50.394Z</time>
      </trkpt>
      <trkpt lat="43.683" lon="1.46619">
        <ele>226.372393</ele>
        <time>2022-08-12T09:18:52.390Z</time>
      </trkpt>
      <trkpt lat="43.68306" lon="1.46599">
        <ele>224.908822</ele>
        <time>2022-08-12T09:18:54.387Z</time>
      </trkpt>
      <trkpt lat="43.68312" lon="1.46579">
        <ele>223.388337</ele>
        <time>2022-08-12T09:18:56.387Z</time>
      </trkpt>
      <trkpt lat="43.6832" lon="1.46559">
        <ele>221.805591</ele>
        <time>2022-08-12T09:18:58.394Z</time>
      </trkpt>
      <trkpt lat="43.6833" lon="1.46539">
        <ele>220.132405</ele>
        <time>2022-08-12T09:19:00.409Z</time>
      </trkpt>
      <trkpt lat="43.68335" lon="1.46529">
        <ele>219.254114</ele>
        <time>2022-08-12T09:19:01.410Z</time>
      </trkpt>
      <trkpt lat="43.68341" lon="1.46519">
        <ele>218.357758</ele>
        <time>2022-08-12T09:19:02.389Z</time>
      </trkpt>
      <trkpt lat="43.68351" lon="1.46501">
        <ele>216.725194</ele>
        <time>2022-08-12T09:19:04.412Z</time>
      </trkpt>
      <trkpt lat="43.68355" lon="1.46485">
        <ele>215.557256</ele>
        <time>2022-08-12T09:19:06.414Z</time>
      </trkpt>
      <trkpt lat="43.68347" lon="1.46475">
        <ele>214.554705</ele>
        <time>2022-08-12T09:19:08.388Z</time>
      </trkpt>
      <trkpt lat="43.68336" lon="1.46468">
        <ele>213.345756</ele>
        <time>2022-08-12T09:19:10.425Z</time>
      </trkpt>
      <trkpt lat="43.68322" lon="1.46458">
        <ele>211.884886</ele>
        <time>2022-08-12T09:19:12.412Z</time>
      </trkpt>
      <trkpt lat="43.68314" lon="1.46453">
        <ele>210.97146</ele>
        <time>2022-08-12T09:19:13.398Z</time>
      </trkpt>
      <trkpt lat="43.68304" lon="1.46447">
        <ele>209.98454</ele>
        <time>2022-08-12T09:19:14.392Z</time>
      </trkpt>
      <trkpt lat="43.68295" lon="1.46442">
        <ele>209.251709</ele>
        <time>2022-08-12T09:19:15.391Z</time>
      </trkpt>
      <trkpt lat="43.68284" lon="1.46436">
        <ele>208.937676</ele>
        <time>2022-08-12T09:19:16.431Z</time>
      </trkpt>
      <trkpt lat="43.68273" lon="1.4643">
        <ele>208.61452</ele>
        <time>2022-08-12T09:19:17.387Z</time>
      </trkpt>
      <trkpt lat="43.68262" lon="1.46426">
        <ele>208.291244</ele>
        <time>2022-08-12T09:19:18.374Z</time>
      </trkpt>
      <trkpt lat="43.68251" lon="1.4642">
        <ele>207.960767</ele>
        <time>2022-08-12T09:19:19.416Z</time>
      </trkpt>
      <trkpt lat="43.6824" lon="1.46415">
        <ele>207.636784</ele>
        <time>2022-08-12T09:19:20.398Z</time>
      </trkpt>
      <trkpt lat="43.6823" lon="1.46408">
        <ele>207.317749</ele>
        <time>2022-08-12T09:19:21.398Z</time>
      </trkpt>
      <trkpt lat="43.68221" lon="1.46403">
        <ele>207.034373</ele>
        <time>2022-08-12T09:19:22.384Z</time>
      </trkpt>
      <trkpt lat="43.68212" lon="1.46398">
        <ele>206.770323</ele>
        <time>2022-08-12T09:19:23.423Z</time>
      </trkpt>
      <trkpt lat="43.68198" lon="1.46388">
        <ele>206.319809</ele>
        <time>2022-08-12T09:19:25.405Z</time>
      </trkpt>
      <trkpt lat="43.68189" lon="1.46378">
        <ele>206.001441</ele>
        <time>2022-08-12T09:19:27.423Z</time>
      </trkpt>
      <trkpt lat="43.68193" lon="1.46361">
        <ele>205.642068</ele>
        <time>2022-08-12T09:19:30.400Z</time>
      </trkpt>
      <trkpt lat="43.682" lon="1.4635">
        <ele>205.337975</ele>
        <time>2022-08-12T09:19:32.392Z</time>
      </trkpt>
      <trkpt lat="43.68209" lon="1.4634">
        <ele>205.014334</ele>
        <time>2022-08-12T09:19:34.398Z</time>
      </trkpt>
      <trkpt lat="43.68217" lon="1.46328">
        <ele>204.682151</ele>
        <time>2022-08-12T09:19:36.406Z</time>
      </trkpt>
      <trkpt lat="43.68225" lon="1.46316">
        <ele>204.347965</ele>
        <time>2022-08-12T09:19:38.402Z</time>
      </trkpt>
      <trkpt lat="43.68233" lon="1.46303">
        <ele>204.125265</ele>
        <time>2022-08-12T09:19:40.387Z</time>
      </trkpt>
      <trkpt lat="43.6824" lon="1.46289">
        <ele>203.914655</ele>
        <time>2022-08-12T09:19:42.392Z</time>
      </trkpt>
      <trkpt lat="43.68246" lon="1.46276">
        <ele>203.705562</ele>
        <time>2022-08-12T09:19:44.379Z</time>
      </trkpt>
      <trkpt lat="43.68251" lon="1.46261">
        <ele>203.498692</ele>
        <time>2022-08-12T09:19:46.407Z</time>
      </trkpt>
      <trkpt lat="43.68256" lon="1.46247">
        <ele>203.293355</ele>
        <time>2022-08-12T09:19:48.390Z</time>
      </trkpt>
      <trkpt lat="43.68261" lon="1.46232">
        <ele>203.089147</ele>
        <time>2022-08-12T09:19:50.418Z</time>
      </trkpt>
      <trkpt lat="43.68265" lon="1.46217">
        <ele>202.88782</ele>
        <time>2022-08-12T09:19:52.402Z</time>
      </trkpt>
      <trkpt lat="43.68269" lon="1.46203">
        <ele>202.688152</ele>
        <time>2022-08-12T09:19:54.405Z</time>
      </trkpt>
      <trkpt lat="43.68274" lon="1.46189">
        <ele>202.48821</ele>
        <time>2022-08-12T09:19:56.412Z</time>
      </trkpt>
      <trkpt lat="43.68279" lon="1.46174">
        <ele>202.283837</ele>
        <time>2022-08-12T09:19:58.417Z</time>
      </trkpt>
      <trkpt lat="43.68282" lon="1.46159">
        <ele>202.083259</ele>
        <time>2022-08-12T09:20:00.415Z</time>
      </trkpt>
      <trkpt lat="43.68283" lon="1.46143">
        <ele>201.881308</ele>
        <time>2022-08-12T09:20:02.398Z</time>
      </trkpt>
      <trkpt lat="43.68283" lon="1.46127">
        <ele>201.67389</ele>
        <time>2022-08-12T09:20:04.420Z</time>
      </trkpt>
      <trkpt lat="43.68283" lon="1.4611">
        <ele>201.451003</ele>
        <time>2022-08-12T09:20:06.410Z</time>
      </trkpt>
      <trkpt lat="43.68282" lon="1.46091">
        <ele>201.208861</ele>
        <time>2022-08-12T09:20:08.377Z</time>
      </trkpt>
      <trkpt lat="43.6828" lon="1.46071">
        <ele>200.596685</ele>
        <time>2022-08-12T09:20:10.398Z</time>
      </trkpt>
      <trkpt lat="43.68278" lon="1.4605">
        <ele>199.829239</ele>
        <time>2022-08-12T09:20:12.412Z</time>
      </trkpt>
      <trkpt lat="43.68273" lon="1.46028">
        <ele>198.994725</ele>
        <time>2022-08-12T09:20:14.392Z</time>
      </trkpt>
      <trkpt lat="43.6827" lon="1.46016">
        <ele>198.546556</ele>
        <time>2022-08-12T09:20:15.403Z</time>
      </trkpt>
      <trkpt lat="43.68267" lon="1.46004">
        <ele>198.076447</ele>
        <time>2022-08-12T09:20:16.387Z</time>
      </trkpt>
      <trkpt lat="43.68265" lon="1.45991">
        <ele>197.601041</ele>
        <time>2022-08-12T09:20:17.405Z</time>
      </trkpt>
      <trkpt lat="43.68264" lon="1.45977">
        <ele>197.120771</ele>
        <time>2022-08-12T09:20:18.415Z</time>
      </trkpt>
      <trkpt lat="43.68264" lon="1.45964">
        <ele>196.642565</ele>
        <time>2022-08-12T09:20:19.401Z</time>
      </trkpt>
      <trkpt lat="43.68265" lon="1.45951">
        <ele>196.182692</ele>
        <time>2022-08-12T09:20:20.419Z</time>
      </trkpt>
      <trkpt lat="43.68266" lon="1.45939">
        <ele>195.734106</ele>
        <time>2022-08-12T09:20:21.390Z</time>
      </trkpt>
      <trkpt lat="43.68269" lon="1.45919">
        <ele>195.00425</ele>
        <time>2022-08-12T09:20:23.407Z</time>
      </trkpt>
      <trkpt lat="43.6827" lon="1.45906">
        <ele>194.533064</ele>
        <time>2022-08-12T09:20:25.404Z</time>
      </trkpt>
      <trkpt lat="43.68268" lon="1.45891">
        <ele>193.968681</ele>
        <time>2022-08-12T09:20:30.399Z</time>
      </trkpt>
      <trkpt lat="43.68269" lon="1.45872">
        <ele>193.299911</ele>
        <time>2022-08-12T09:20:33.404Z</time>
      </trkpt>
      <trkpt lat="43.6827" lon="1.45857">
        <ele>192.760403</ele>
        <time>2022-08-12T09:20:35.391Z</time>
      </trkpt>
      <trkpt lat="43.68271" lon="1.45841">
        <ele>192.192853</ele>
        <time>2022-08-12T09:20:37.417Z</time>
      </trkpt>
      <trkpt lat="43.68272" lon="1.45825">
        <ele>191.972997</ele>
        <time>2022-08-12T09:20:39.395Z</time>
      </trkpt>
      <trkpt lat="43.68273" lon="1.45808">
        <ele>191.746905</ele>
        <time>2022-08-12T09:20:41.408Z</time>
      </trkpt>
      <trkpt lat="43.68273" lon="1.45791">
        <ele>191.520813</ele>
        <time>2022-08-12T09:20:43.410Z</time>
      </trkpt>
      <trkpt lat="43.68274" lon="1.45774">
        <ele>191.299475</ele>
        <time>2022-08-12T09:20:45.406Z</time>
      </trkpt>
      <trkpt lat="43.68275" lon="1.45758">
        <ele>191.082662</ele>
        <time>2022-08-12T09:20:47.394Z</time>
      </trkpt>
      <trkpt lat="43.68276" lon="1.4574">
        <ele>190.854014</ele>
        <time>2022-08-12T09:20:49.395Z</time>
      </trkpt>
      <trkpt lat="43.68277" lon="1.45722">
        <ele>190.610334</ele>
        <time>2022-08-12T09:20:51.409Z</time>
      </trkpt>
      <trkpt lat="43.68278" lon="1.45704">
        <ele>190.368109</ele>
        <time>2022-08-12T09:20:53.412Z</time>
      </trkpt>
      <trkpt lat="43.68278" lon="1.45686">
        <ele>190.124948</ele>
        <time>2022-08-12T09:20:55.412Z</time>
      </trkpt>
      <trkpt lat="43.68278" lon="1.45668">
        <ele>189.885768</ele>
        <time>2022-08-12T09:20:57.408Z</time>
      </trkpt>
      <trkpt lat="43.68276" lon="1.4565">
        <ele>189.64782</ele>
        <time>2022-08-12T09:20:59.396Z</time>
      </trkpt>
      <trkpt lat="43.68274" lon="1.45632">
        <ele>189.412277</ele>
        <time>2022-08-12T09:21:01.404Z</time>
      </trkpt>
      <trkpt lat="43.68271" lon="1.45615">
        <ele>189.178181</ele>
        <time>2022-08-12T09:21:03.417Z</time>
      </trkpt>
      <trkpt lat="43.68268" lon="1.45598">
        <ele>188.946038</ele>
        <time>2022-08-12T09:21:05.418Z</time>
      </trkpt>
      <trkpt lat="43.68264" lon="1.45582">
        <ele>188.821143</ele>
        <time>2022-08-12T09:21:07.398Z</time>
      </trkpt>
      <trkpt lat="43.68261" lon="1.45566">
        <ele>188.722915</ele>
        <time>2022-08-12T09:21:09.409Z</time>
      </trkpt>
      <trkpt lat="43.68257" lon="1.4555">
        <ele>188.623396</ele>
        <time>2022-08-12T09:21:11.414Z</time>
      </trkpt>
      <trkpt lat="43.68253" lon="1.45534">
        <ele>188.524735</ele>
        <time>2022-08-12T09:21:13.383Z</time>
      </trkpt>
      <trkpt lat="43.68249" lon="1.45518">
        <ele>188.42554</ele>
        <time>2022-08-12T09:21:15.416Z</time>
      </trkpt>
      <trkpt lat="43.68244" lon="1.45503">
        <ele>188.326846</ele>
        <time>2022-08-12T09:21:17.397Z</time>
      </trkpt>
      <trkpt lat="43.6824" lon="1.45487">
        <ele>188.228152</ele>
        <time>2022-08-12T09:21:19.403Z</time>
      </trkpt>
      <trkpt lat="43.68235" lon="1.45471">
        <ele>188.128747</ele>
        <time>2022-08-12T09:21:21.392Z</time>
      </trkpt>
      <trkpt lat="43.68231" lon="1.45456">
        <ele>188.032836</ele>
        <time>2022-08-12T09:21:23.402Z</time>
      </trkpt>
      <trkpt lat="43.68225" lon="1.45441">
        <ele>187.935617</ele>
        <time>2022-08-12T09:21:25.390Z</time>
      </trkpt>
      <trkpt lat="43.68221" lon="1.45426">
        <ele>187.841041</ele>
        <time>2022-08-12T09:21:27.401Z</time>
      </trkpt>
      <trkpt lat="43.68218" lon="1.45411">
        <ele>187.745406</ele>
        <time>2022-08-12T09:21:29.398Z</time>
      </trkpt>
      <trkpt lat="43.68214" lon="1.45395">
        <ele>187.650859</ele>
        <time>2022-08-12T09:21:31.395Z</time>
      </trkpt>
      <trkpt lat="43.68211" lon="1.4538">
        <ele>187.554384</ele>
        <time>2022-08-12T09:21:33.418Z</time>
      </trkpt>
      <trkpt lat="43.68206" lon="1.45365">
        <ele>187.458217</ele>
        <time>2022-08-12T09:21:35.425Z</time>
      </trkpt>
      <trkpt lat="43.68202" lon="1.45348">
        <ele>187.423475</ele>
        <time>2022-08-12T09:21:37.396Z</time>
      </trkpt>
      <trkpt lat="43.68198" lon="1.45331">
        <ele>187.403651</ele>
        <time>2022-08-12T09:21:39.403Z</time>
      </trkpt>
      <trkpt lat="43.68194" lon="1.45315">
        <ele>187.384615</ele>
        <time>2022-08-12T09:21:41.400Z</time>
      </trkpt>
      <trkpt lat="43.68189" lon="1.45299">
        <ele>187.364791</ele>
        <time>2022-08-12T09:21:43.396Z</time>
      </trkpt>
      <trkpt lat="43.68186" lon="1.45283">
        <ele>187.346127</ele>
        <time>2022-08-12T09:21:45.400Z</time>
      </trkpt>
      <trkpt lat="43.68181" lon="1.45267">
        <ele>187.327023</ele>
        <time>2022-08-12T09:21:47.395Z</time>
      </trkpt>
      <trkpt lat="43.68177" lon="1.45251">
        <ele>187.307251</ele>
        <time>2022-08-12T09:21:49.407Z</time>
      </trkpt>
      <trkpt lat="43.68173" lon="1.45236">
        <ele>187.289433</ele>
        <time>2022-08-12T09:21:51.387Z</time>
      </trkpt>
      <trkpt lat="43.68169" lon="1.45222">
        <ele>187.272357</ele>
        <time>2022-08-12T09:21:53.421Z</time>
      </trkpt>
      <trkpt lat="43.68166" lon="1.45208">
        <ele>187.256229</ele>
        <time>2022-08-12T09:21:55.375Z</time>
      </trkpt>
      <trkpt lat="43.68154" lon="1.45209">
        <ele>187.237369</ele>
        <time>2022-08-12T09:21:58.396Z</time>
      </trkpt>
      <trkpt lat="43.68145" lon="1.45217">
        <ele>187.220937</ele>
        <time>2022-08-12T09:22:00.400Z</time>
      </trkpt>
      <trkpt lat="43.68136" lon="1.45227">
        <ele>187.203729</ele>
        <time>2022-08-12T09:22:02.403Z</time>
      </trkpt>
      <trkpt lat="43.68127" lon="1.45235">
        <ele>187.186657</ele>
        <time>2022-08-12T09:22:04.421Z</time>
      </trkpt>
      <trkpt lat="43.68118" lon="1.45244">
        <ele>187.169187</ele>
        <time>2022-08-12T09:22:06.397Z</time>
      </trkpt>
      <trkpt lat="43.68108" lon="1.45252">
        <ele>187.174477</ele>
        <time>2022-08-12T09:22:08.418Z</time>
      </trkpt>
      <trkpt lat="43.68099" lon="1.45261">
        <ele>187.204604</ele>
        <time>2022-08-12T09:22:10.411Z</time>
      </trkpt>
      <trkpt lat="43.68088" lon="1.4527">
        <ele>187.23617</ele>
        <time>2022-08-12T09:22:12.381Z</time>
      </trkpt>
      <trkpt lat="43.68079" lon="1.45279">
        <ele>187.266717</ele>
        <time>2022-08-12T09:22:14.398Z</time>
      </trkpt>
      <trkpt lat="43.68068" lon="1.45288">
        <ele>187.297839</ele>
        <time>2022-08-12T09:22:16.385Z</time>
      </trkpt>
      <trkpt lat="43.68058" lon="1.45296">
        <ele>187.328928</ele>
        <time>2022-08-12T09:22:18.382Z</time>
      </trkpt>
      <trkpt lat="43.68048" lon="1.45305">
        <ele>187.360249</ele>
        <time>2022-08-12T09:22:20.386Z</time>
      </trkpt>
      <trkpt lat="43.68038" lon="1.45314">
        <ele>187.391176</ele>
        <time>2022-08-12T09:22:22.420Z</time>
      </trkpt>
      <trkpt lat="43.68027" lon="1.45322">
        <ele>187.422548</ele>
        <time>2022-08-12T09:22:24.423Z</time>
      </trkpt>
      <trkpt lat="43.68017" lon="1.4533">
        <ele>187.453183</ele>
        <time>2022-08-12T09:22:26.413Z</time>
      </trkpt>
      <trkpt lat="43.68007" lon="1.45338">
        <ele>187.483917</ele>
        <time>2022-08-12T09:22:28.387Z</time>
      </trkpt>
      <trkpt lat="43.67996" lon="1.45346">
        <ele>187.515368</ele>
        <time>2022-08-12T09:22:30.406Z</time>
      </trkpt>
      <trkpt lat="43.67985" lon="1.45353">
        <ele>187.545643</ele>
        <time>2022-08-12T09:22:32.392Z</time>
      </trkpt>
      <trkpt lat="43.67976" lon="1.45362">
        <ele>187.576519</ele>
        <time>2022-08-12T09:22:34.392Z</time>
      </trkpt>
      <trkpt lat="43.67965" lon="1.45369">
        <ele>187.606639</ele>
        <time>2022-08-12T09:22:36.409Z</time>
      </trkpt>
      <trkpt lat="43.67955" lon="1.45375">
        <ele>187.59734</ele>
        <time>2022-08-12T09:22:38.419Z</time>
      </trkpt>
      <trkpt lat="43.67944" lon="1.4538">
        <ele>187.500621</ele>
        <time>2022-08-12T09:22:40.381Z</time>
      </trkpt>
      <trkpt lat="43.67933" lon="1.45385">
        <ele>187.407638</ele>
        <time>2022-08-12T09:22:42.405Z</time>
      </trkpt>
      <trkpt lat="43.67922" lon="1.45388">
        <ele>187.309363</ele>
        <time>2022-08-12T09:22:44.388Z</time>
      </trkpt>
      <trkpt lat="43.67911" lon="1.45394">
        <ele>187.208581</ele>
        <time>2022-08-12T09:22:46.381Z</time>
      </trkpt>
      <trkpt lat="43.679" lon="1.45402">
        <ele>187.106635</ele>
        <time>2022-08-12T09:22:48.402Z</time>
      </trkpt>
      <trkpt lat="43.6789" lon="1.45411">
        <ele>187.004663</ele>
        <time>2022-08-12T09:22:50.415Z</time>
      </trkpt>
      <trkpt lat="43.67879" lon="1.45419">
        <ele>186.900195</ele>
        <time>2022-08-12T09:22:52.408Z</time>
      </trkpt>
      <trkpt lat="43.67869" lon="1.45428">
        <ele>186.798121</ele>
        <time>2022-08-12T09:22:54.406Z</time>
      </trkpt>
      <trkpt lat="43.67858" lon="1.45435">
        <ele>186.697487</ele>
        <time>2022-08-12T09:22:56.404Z</time>
      </trkpt>
      <trkpt lat="43.67847" lon="1.45437">
        <ele>186.598258</ele>
        <time>2022-08-12T09:22:58.400Z</time>
      </trkpt>
      <trkpt lat="43.67836" lon="1.4543">
        <ele>186.498704</ele>
        <time>2022-08-12T09:23:00.412Z</time>
      </trkpt>
      <trkpt lat="43.67826" lon="1.45422">
        <ele>186.39736</ele>
        <time>2022-08-12T09:23:02.408Z</time>
      </trkpt>
      <trkpt lat="43.67815" lon="1.45414">
        <ele>186.293813</ele>
        <time>2022-08-12T09:23:04.395Z</time>
      </trkpt>
      <trkpt lat="43.67805" lon="1.45406">
        <ele>186.191005</ele>
        <time>2022-08-12T09:23:06.393Z</time>
      </trkpt>
      <trkpt lat="43.67794" lon="1.45397">
        <ele>186.099662</ele>
        <time>2022-08-12T09:23:08.399Z</time>
      </trkpt>
      <trkpt lat="43.67783" lon="1.45389">
        <ele>186.077763</ele>
        <time>2022-08-12T09:23:10.412Z</time>
      </trkpt>
      <trkpt lat="43.67773" lon="1.45381">
        <ele>186.05686</ele>
        <time>2022-08-12T09:23:12.400Z</time>
      </trkpt>
      <trkpt lat="43.67763" lon="1.45373">
        <ele>186.036601</ele>
        <time>2022-08-12T09:23:14.390Z</time>
      </trkpt>
      <trkpt lat="43.67753" lon="1.45365">
        <ele>186.015854</ele>
        <time>2022-08-12T09:23:16.399Z</time>
      </trkpt>
      <trkpt lat="43.67742" lon="1.45357">
        <ele>185.994545</ele>
        <time>2022-08-12T09:23:18.378Z</time>
      </trkpt>
      <trkpt lat="43.67732" lon="1.45348">
        <ele>185.973154</ele>
        <time>2022-08-12T09:23:20.422Z</time>
      </trkpt>
      <trkpt lat="43.67721" lon="1.45339">
        <ele>185.951633</ele>
        <time>2022-08-12T09:23:22.409Z</time>
      </trkpt>
      <trkpt lat="43.67711" lon="1.45332">
        <ele>185.930281</ele>
        <time>2022-08-12T09:23:24.417Z</time>
      </trkpt>
      <trkpt lat="43.67699" lon="1.45327">
        <ele>185.909281</ele>
        <time>2022-08-12T09:23:26.395Z</time>
      </trkpt>
      <trkpt lat="43.67688" lon="1.45324">
        <ele>185.888407</ele>
        <time>2022-08-12T09:23:28.430Z</time>
      </trkpt>
      <trkpt lat="43.67676" lon="1.45321">
        <ele>185.867952</ele>
        <time>2022-08-12T09:23:30.384Z</time>
      </trkpt>
      <trkpt lat="43.67665" lon="1.45319">
        <ele>185.847505</ele>
        <time>2022-08-12T09:23:32.389Z</time>
      </trkpt>
      <trkpt lat="43.67653" lon="1.45317">
        <ele>185.826819</ele>
        <time>2022-08-12T09:23:34.396Z</time>
      </trkpt>
      <trkpt lat="43.67642" lon="1.45316">
        <ele>185.806293</ele>
        <time>2022-08-12T09:23:36.397Z</time>
      </trkpt>
      <trkpt lat="43.6763" lon="1.45316">
        <ele>185.785799</ele>
        <time>2022-08-12T09:23:38.392Z</time>
      </trkpt>
      <trkpt lat="43.67619" lon="1.45317">
        <ele>185.745088</ele>
        <time>2022-08-12T09:23:40.405Z</time>
      </trkpt>
      <trkpt lat="43.67607" lon="1.45318">
        <ele>185.704236</ele>
        <time>2022-08-12T09:23:42.415Z</time>
      </trkpt>
      <trkpt lat="43.67596" lon="1.45321">
        <ele>185.661742</ele>
        <time>2022-08-12T09:23:44.407Z</time>
      </trkpt>
      <trkpt lat="43.67585" lon="1.45326">
        <ele>185.619541</ele>
        <time>2022-08-12T09:23:46.415Z</time>
      </trkpt>
      <trkpt lat="43.67574" lon="1.45333">
        <ele>185.577022</ele>
        <time>2022-08-12T09:23:48.424Z</time>
      </trkpt>
      <trkpt lat="43.67563" lon="1.4534">
        <ele>185.534906</ele>
        <time>2022-08-12T09:23:50.409Z</time>
      </trkpt>
      <trkpt lat="43.67553" lon="1.45348">
        <ele>185.492988</ele>
        <time>2022-08-12T09:23:52.407Z</time>
      </trkpt>
      <trkpt lat="43.67543" lon="1.45356">
        <ele>185.45089</ele>
        <time>2022-08-12T09:23:54.384Z</time>
      </trkpt>
      <trkpt lat="43.67533" lon="1.45364">
        <ele>185.409105</ele>
        <time>2022-08-12T09:23:56.400Z</time>
      </trkpt>
      <trkpt lat="43.67522" lon="1.45369">
        <ele>185.367143</ele>
        <time>2022-08-12T09:23:58.382Z</time>
      </trkpt>
      <trkpt lat="43.67511" lon="1.45374">
        <ele>185.326473</ele>
        <time>2022-08-12T09:24:00.383Z</time>
      </trkpt>
      <trkpt lat="43.67501" lon="1.45382">
        <ele>185.283357</ele>
        <time>2022-08-12T09:24:02.428Z</time>
      </trkpt>
      <trkpt lat="43.6749" lon="1.45386">
        <ele>185.245799</ele>
        <time>2022-08-12T09:24:04.418Z</time>
      </trkpt>
      <trkpt lat="43.67481" lon="1.45379">
        <ele>185.208831</ele>
        <time>2022-08-12T09:24:06.403Z</time>
      </trkpt>
      <trkpt lat="43.67472" lon="1.4537">
        <ele>185.167328</ele>
        <time>2022-08-12T09:24:08.405Z</time>
      </trkpt>
      <trkpt lat="43.67465" lon="1.45357">
        <ele>185.135032</ele>
        <time>2022-08-12T09:24:10.405Z</time>
      </trkpt>
      <trkpt lat="43.6746" lon="1.45343">
        <ele>185.126228</ele>
        <time>2022-08-12T09:24:12.379Z</time>
      </trkpt>
      <trkpt lat="43.67455" lon="1.45328">
        <ele>185.117569</ele>
        <time>2022-08-12T09:24:14.375Z</time>
      </trkpt>
      <trkpt lat="43.6745" lon="1.45314">
        <ele>185.10883</ele>
        <time>2022-08-12T09:24:16.389Z</time>
      </trkpt>
      <trkpt lat="43.67445" lon="1.45299">
        <ele>185.100061</ele>
        <time>2022-08-12T09:24:18.413Z</time>
      </trkpt>
      <trkpt lat="43.6744" lon="1.45284">
        <ele>185.091485</ele>
        <time>2022-08-12T09:24:20.378Z</time>
      </trkpt>
      <trkpt lat="43.67435" lon="1.4527">
        <ele>185.082952</ele>
        <time>2022-08-12T09:24:22.410Z</time>
      </trkpt>
      <trkpt lat="43.67424" lon="1.45272">
        <ele>185.075003</ele>
        <time>2022-08-12T09:24:24.400Z</time>
      </trkpt>
      <trkpt lat="43.67414" lon="1.45279">
        <ele>185.066428</ele>
        <time>2022-08-12T09:24:26.411Z</time>
      </trkpt>
      <trkpt lat="43.67403" lon="1.45286">
        <ele>185.057433</ele>
        <time>2022-08-12T09:24:28.394Z</time>
      </trkpt>
      <trkpt lat="43.67392" lon="1.45293">
        <ele>185.048322</ele>
        <time>2022-08-12T09:24:30.399Z</time>
      </trkpt>
      <trkpt lat="43.67381" lon="1.45299">
        <ele>185.039237</ele>
        <time>2022-08-12T09:24:32.395Z</time>
      </trkpt>
      <trkpt lat="43.67369" lon="1.45304">
        <ele>185.030298</ele>
        <time>2022-08-12T09:24:34.402Z</time>
      </trkpt>
      <trkpt lat="43.67357" lon="1.45302">
        <ele>185.021281</ele>
        <time>2022-08-12T09:24:36.389Z</time>
      </trkpt>
      <trkpt lat="43.67345" lon="1.45299">
        <ele>185.012186</ele>
        <time>2022-08-12T09:24:38.392Z</time>
      </trkpt>
      <trkpt lat="43.67333" lon="1.45296">
        <ele>185.003117</ele>
        <time>2022-08-12T09:24:40.400Z</time>
      </trkpt>
      <trkpt lat="43.67321" lon="1.45295">
        <ele>184.987358</ele>
        <time>2022-08-12T09:24:42.399Z</time>
      </trkpt>
      <trkpt lat="43.6731" lon="1.45298">
        <ele>184.971861</ele>
        <time>2022-08-12T09:24:44.399Z</time>
      </trkpt>
      <trkpt lat="43.67299" lon="1.45303">
        <ele>184.956496</ele>
        <time>2022-08-12T09:24:46.400Z</time>
      </trkpt>
      <trkpt lat="43.67288" lon="1.45309">
        <ele>184.940999</ele>
        <time>2022-08-12T09:24:48.396Z</time>
      </trkpt>
      <trkpt lat="43.67277" lon="1.45313">
        <ele>184.925655</ele>
        <time>2022-08-12T09:24:50.391Z</time>
      </trkpt>
      <trkpt lat="43.67267" lon="1.45308">
        <ele>184.912081</ele>
        <time>2022-08-12T09:24:52.400Z</time>
      </trkpt>
      <trkpt lat="43.6726" lon="1.45296">
        <ele>184.897139</ele>
        <time>2022-08-12T09:24:54.390Z</time>
      </trkpt>
      <trkpt lat="43.67256" lon="1.45281">
        <ele>184.880821</ele>
        <time>2022-08-12T09:24:56.378Z</time>
      </trkpt>
      <trkpt lat="43.67252" lon="1.45265">
        <ele>184.865051</ele>
        <time>2022-08-12T09:24:58.399Z</time>
      </trkpt>
      <trkpt lat="43.67247" lon="1.45251">
        <ele>184.849481</ele>
        <time>2022-08-12T09:25:00.372Z</time>
      </trkpt>
      <trkpt lat="43.67243" lon="1.45235">
        <ele>184.833433</ele>
        <time>2022-08-12T09:25:02.406Z</time>
      </trkpt>
      <trkpt lat="43.67239" lon="1.45219">
        <ele>184.817385</ele>
        <time>2022-08-12T09:25:04.384Z</time>
      </trkpt>
      <trkpt lat="43.67235" lon="1.45203">
        <ele>184.801195</ele>
        <time>2022-08-12T09:25:06.407Z</time>
      </trkpt>
      <trkpt lat="43.67231" lon="1.45187">
        <ele>184.784873</ele>
        <time>2022-08-12T09:25:08.404Z</time>
      </trkpt>
      <trkpt lat="43.67228" lon="1.45172">
        <ele>184.769131</ele>
        <time>2022-08-12T09:25:10.411Z</time>
      </trkpt>
      <trkpt lat="43.67221" lon="1.45159">
        <ele>184.685246</ele>
        <time>2022-08-12T09:25:12.399Z</time>
      </trkpt>
      <trkpt lat="43.67216" lon="1.45146">
        <ele>184.559781</ele>
        <time>2022-08-12T09:25:14.390Z</time>
      </trkpt>
      <trkpt lat="43.67213" lon="1.45131">
        <ele>184.437056</ele>
        <time>2022-08-12T09:25:16.400Z</time>
      </trkpt>
      <trkpt lat="43.67206" lon="1.45119">
        <ele>184.305842</ele>
        <time>2022-08-12T09:25:19.386Z</time>
      </trkpt>
      <trkpt lat="43.67194" lon="1.45123">
        <ele>184.162329</ele>
        <time>2022-08-12T09:25:22.375Z</time>
      </trkpt>
      <trkpt lat="43.67184" lon="1.45129">
        <ele>184.04233</ele>
        <time>2022-08-12T09:25:24.397Z</time>
      </trkpt>
      <trkpt lat="43.67174" lon="1.45135">
        <ele>183.917517</ele>
        <time>2022-08-12T09:25:26.397Z</time>
      </trkpt>
      <trkpt lat="43.67164" lon="1.45142">
        <ele>183.787162</ele>
        <time>2022-08-12T09:25:28.407Z</time>
      </trkpt>
      <trkpt lat="43.67153" lon="1.45141">
        <ele>183.658062</ele>
        <time>2022-08-12T09:25:30.402Z</time>
      </trkpt>
      <trkpt lat="43.67143" lon="1.45131">
        <ele>183.526152</ele>
        <time>2022-08-12T09:25:32.401Z</time>
      </trkpt>
      <trkpt lat="43.67132" lon="1.45134">
        <ele>183.392409</ele>
        <time>2022-08-12T09:25:34.392Z</time>
      </trkpt>
      <trkpt lat="43.67121" lon="1.45141">
        <ele>183.251423</ele>
        <time>2022-08-12T09:25:36.396Z</time>
      </trkpt>
      <trkpt lat="43.67109" lon="1.45148">
        <ele>183.105631</ele>
        <time>2022-08-12T09:25:38.399Z</time>
      </trkpt>
      <trkpt lat="43.67097" lon="1.45155">
        <ele>182.957703</ele>
        <time>2022-08-12T09:25:40.385Z</time>
      </trkpt>
      <trkpt lat="43.67084" lon="1.4516">
        <ele>182.810135</ele>
        <time>2022-08-12T09:25:42.395Z</time>
      </trkpt>
      <trkpt lat="43.67074" lon="1.45153">
        <ele>182.719939</ele>
        <time>2022-08-12T09:25:44.400Z</time>
      </trkpt>
      <trkpt lat="43.67067" lon="1.45141">
        <ele>182.71752</ele>
        <time>2022-08-12T09:25:46.398Z</time>
      </trkpt>
      <trkpt lat="43.67056" lon="1.4514">
        <ele>182.715282</ele>
        <time>2022-08-12T09:25:48.415Z</time>
      </trkpt>
      <trkpt lat="43.67046" lon="1.45148">
        <ele>182.712924</ele>
        <time>2022-08-12T09:25:50.399Z</time>
      </trkpt>
      <trkpt lat="43.67035" lon="1.45155">
        <ele>182.710412</ele>
        <time>2022-08-12T09:25:52.403Z</time>
      </trkpt>
      <trkpt lat="43.67024" lon="1.45161">
        <ele>182.707952</ele>
        <time>2022-08-12T09:25:54.394Z</time>
      </trkpt>
      <trkpt lat="43.67013" lon="1.45159">
        <ele>182.70558</ele>
        <time>2022-08-12T09:25:56.425Z</time>
      </trkpt>
      <trkpt lat="43.67007" lon="1.45144">
        <ele>182.70309</ele>
        <time>2022-08-12T09:25:58.403Z</time>
      </trkpt>
      <trkpt lat="43.67003" lon="1.45129">
        <ele>182.70066</ele>
        <time>2022-08-12T09:26:00.405Z</time>
      </trkpt>
      <trkpt lat="43.66997" lon="1.45115">
        <ele>182.698173</ele>
        <time>2022-08-12T09:26:02.387Z</time>
      </trkpt>
      <trkpt lat="43.66991" lon="1.45101">
        <ele>182.695718</ele>
        <time>2022-08-12T09:26:04.401Z</time>
      </trkpt>
      <trkpt lat="43.66984" lon="1.45086">
        <ele>182.69318</ele>
        <time>2022-08-12T09:26:06.412Z</time>
      </trkpt>
      <trkpt lat="43.66976" lon="1.45072">
        <ele>182.690534</ele>
        <time>2022-08-12T09:26:08.398Z</time>
      </trkpt>
      <trkpt lat="43.66969" lon="1.45058">
        <ele>182.687842</ele>
        <time>2022-08-12T09:26:10.398Z</time>
      </trkpt>
      <trkpt lat="43.66962" lon="1.45043">
        <ele>182.68524</ele>
        <time>2022-08-12T09:26:12.397Z</time>
      </trkpt>
      <trkpt lat="43.66956" lon="1.45028">
        <ele>182.678934</ele>
        <time>2022-08-12T09:26:14.367Z</time>
      </trkpt>
      <trkpt lat="43.66951" lon="1.45013">
        <ele>182.662766</ele>
        <time>2022-08-12T09:26:16.425Z</time>
      </trkpt>
      <trkpt lat="43.66945" lon="1.44997">
        <ele>182.645316</ele>
        <time>2022-08-12T09:26:18.420Z</time>
      </trkpt>
      <trkpt lat="43.66939" lon="1.44981">
        <ele>182.628326</ele>
        <time>2022-08-12T09:26:20.415Z</time>
      </trkpt>
      <trkpt lat="43.66932" lon="1.44966">
        <ele>182.611753</ele>
        <time>2022-08-12T09:26:22.402Z</time>
      </trkpt>
      <trkpt lat="43.66924" lon="1.44952">
        <ele>182.595004</ele>
        <time>2022-08-12T09:26:24.404Z</time>
      </trkpt>
      <trkpt lat="43.66913" lon="1.44942">
        <ele>182.577455</ele>
        <time>2022-08-12T09:26:26.402Z</time>
      </trkpt>
      <trkpt lat="43.66901" lon="1.44937">
        <ele>182.559757</ele>
        <time>2022-08-12T09:26:28.390Z</time>
      </trkpt>
      <trkpt lat="43.66887" lon="1.44933">
        <ele>182.542076</ele>
        <time>2022-08-12T09:26:30.409Z</time>
      </trkpt>
      <trkpt lat="43.66874" lon="1.4493">
        <ele>182.524174</ele>
        <time>2022-08-12T09:26:32.413Z</time>
      </trkpt>
      <trkpt lat="43.66861" lon="1.44928">
        <ele>182.506562</ele>
        <time>2022-08-12T09:26:34.391Z</time>
      </trkpt>
      <trkpt lat="43.66848" lon="1.44924">
        <ele>182.489215</ele>
        <time>2022-08-12T09:26:36.418Z</time>
      </trkpt>
      <trkpt lat="43.66835" lon="1.44921">
        <ele>182.47209</ele>
        <time>2022-08-12T09:26:38.411Z</time>
      </trkpt>
      <trkpt lat="43.66823" lon="1.44917">
        <ele>182.454945</ele>
        <time>2022-08-12T09:26:40.400Z</time>
      </trkpt>
      <trkpt lat="43.6681" lon="1.44912">
        <ele>182.461511</ele>
        <time>2022-08-12T09:26:42.418Z</time>
      </trkpt>
      <trkpt lat="43.66798" lon="1.44906">
        <ele>182.496465</ele>
        <time>2022-08-12T09:26:44.407Z</time>
      </trkpt>
      <trkpt lat="43.66787" lon="1.44897">
        <ele>182.531518</ele>
        <time>2022-08-12T09:26:46.413Z</time>
      </trkpt>
      <trkpt lat="43.66777" lon="1.44888">
        <ele>182.565313</ele>
        <time>2022-08-12T09:26:48.409Z</time>
      </trkpt>
      <trkpt lat="43.66767" lon="1.44878">
        <ele>182.598315</ele>
        <time>2022-08-12T09:26:50.398Z</time>
      </trkpt>
      <trkpt lat="43.66755" lon="1.44875">
        <ele>182.629787</ele>
        <time>2022-08-12T09:26:52.392Z</time>
      </trkpt>
      <trkpt lat="43.66744" lon="1.44872">
        <ele>182.662723</ele>
        <time>2022-08-12T09:26:54.393Z</time>
      </trkpt>
      <trkpt lat="43.66732" lon="1.44869">
        <ele>182.694923</ele>
        <time>2022-08-12T09:26:56.398Z</time>
      </trkpt>
      <trkpt lat="43.6672" lon="1.44866">
        <ele>182.727695</ele>
        <time>2022-08-12T09:26:58.410Z</time>
      </trkpt>
      <trkpt lat="43.66708" lon="1.44864">
        <ele>182.760362</ele>
        <time>2022-08-12T09:27:00.395Z</time>
      </trkpt>
      <trkpt lat="43.66697" lon="1.44861">
        <ele>182.792965</ele>
        <time>2022-08-12T09:27:02.401Z</time>
      </trkpt>
      <trkpt lat="43.66685" lon="1.44859">
        <ele>182.824837</ele>
        <time>2022-08-12T09:27:04.373Z</time>
      </trkpt>
      <trkpt lat="43.66673" lon="1.44859">
        <ele>182.857048</ele>
        <time>2022-08-12T09:27:06.399Z</time>
      </trkpt>
      <trkpt lat="43.66661" lon="1.44859">
        <ele>182.890092</ele>
        <time>2022-08-12T09:27:08.416Z</time>
      </trkpt>
      <trkpt lat="43.66649" lon="1.44858">
        <ele>182.922349</ele>
        <time>2022-08-12T09:27:10.385Z</time>
      </trkpt>
      <trkpt lat="43.66638" lon="1.44853">
        <ele>183.016722</ele>
        <time>2022-08-12T09:27:12.411Z</time>
      </trkpt>
      <trkpt lat="43.66628" lon="1.44844">
        <ele>183.156211</ele>
        <time>2022-08-12T09:27:14.381Z</time>
      </trkpt>
      <trkpt lat="43.6662" lon="1.44832">
        <ele>183.293794</ele>
        <time>2022-08-12T09:27:16.418Z</time>
      </trkpt>
      <trkpt lat="43.66612" lon="1.4482">
        <ele>183.426038</ele>
        <time>2022-08-12T09:27:18.397Z</time>
      </trkpt>
      <trkpt lat="43.66605" lon="1.44807">
        <ele>183.562867</ele>
        <time>2022-08-12T09:27:20.380Z</time>
      </trkpt>
      <trkpt lat="43.66597" lon="1.44795">
        <ele>183.700875</ele>
        <time>2022-08-12T09:27:22.386Z</time>
      </trkpt>
      <trkpt lat="43.66589" lon="1.44783">
        <ele>183.840912</ele>
        <time>2022-08-12T09:27:24.377Z</time>
      </trkpt>
      <trkpt lat="43.66581" lon="1.44771">
        <ele>183.975486</ele>
        <time>2022-08-12T09:27:26.399Z</time>
      </trkpt>
      <trkpt lat="43.66573" lon="1.4476">
        <ele>184.109005</ele>
        <time>2022-08-12T09:27:28.404Z</time>
      </trkpt>
      <trkpt lat="43.66565" lon="1.44749">
        <ele>184.23998</ele>
        <time>2022-08-12T09:27:30.407Z</time>
      </trkpt>
      <trkpt lat="43.66557" lon="1.44738">
        <ele>184.369215</ele>
        <time>2022-08-12T09:27:32.404Z</time>
      </trkpt>
      <trkpt lat="43.66548" lon="1.44729">
        <ele>184.497727</ele>
        <time>2022-08-12T09:27:34.411Z</time>
      </trkpt>
      <trkpt lat="43.66538" lon="1.44723">
        <ele>184.629211</ele>
        <time>2022-08-12T09:27:36.401Z</time>
      </trkpt>
      <trkpt lat="43.66527" lon="1.44717">
        <ele>184.759624</ele>
        <time>2022-08-12T09:27:38.415Z</time>
      </trkpt>
      <trkpt lat="43.66518" lon="1.44711">
        <ele>184.877329</ele>
        <time>2022-08-12T09:27:40.400Z</time>
      </trkpt>
      <trkpt lat="43.66509" lon="1.44716">
        <ele>184.999032</ele>
        <time>2022-08-12T09:27:44.412Z</time>
      </trkpt>
      <trkpt lat="43.66504" lon="1.44731">
        <ele>185.013934</ele>
        <time>2022-08-12T09:27:46.401Z</time>
      </trkpt>
      <trkpt lat="43.66499" lon="1.44746">
        <ele>184.99183</ele>
        <time>2022-08-12T09:27:48.390Z</time>
      </trkpt>
      <trkpt lat="43.66493" lon="1.44762">
        <ele>184.969334</ele>
        <time>2022-08-12T09:27:50.382Z</time>
      </trkpt>
      <trkpt lat="43.66486" lon="1.44776">
        <ele>184.947124</ele>
        <time>2022-08-12T09:27:52.401Z</time>
      </trkpt>
      <trkpt lat="43.6648" lon="1.44791">
        <ele>184.925652</ele>
        <time>2022-08-12T09:27:54.410Z</time>
      </trkpt>
      <trkpt lat="43.66474" lon="1.44805">
        <ele>184.90405</ele>
        <time>2022-08-12T09:27:56.406Z</time>
      </trkpt>
      <trkpt lat="43.66468" lon="1.44819">
        <ele>184.8824</ele>
        <time>2022-08-12T09:27:58.394Z</time>
      </trkpt>
      <trkpt lat="43.66462" lon="1.44834">
        <ele>184.86064</ele>
        <time>2022-08-12T09:28:00.422Z</time>
      </trkpt>
      <trkpt lat="43.66457" lon="1.4485">
        <ele>184.838888</ele>
        <time>2022-08-12T09:28:02.413Z</time>
      </trkpt>
      <trkpt lat="43.66452" lon="1.44865">
        <ele>184.817543</ele>
        <time>2022-08-12T09:28:04.410Z</time>
      </trkpt>
      <trkpt lat="43.66449" lon="1.44882">
        <ele>184.795486</ele>
        <time>2022-08-12T09:28:06.411Z</time>
      </trkpt>
      <trkpt lat="43.66444" lon="1.44898">
        <ele>184.77285</ele>
        <time>2022-08-12T09:28:08.408Z</time>
      </trkpt>
      <trkpt lat="43.66437" lon="1.44912">
        <ele>184.750393</ele>
        <time>2022-08-12T09:28:10.397Z</time>
      </trkpt>
      <trkpt lat="43.66431" lon="1.44927">
        <ele>184.728664</ele>
        <time>2022-08-12T09:28:12.392Z</time>
      </trkpt>
      <trkpt lat="43.66428" lon="1.44942">
        <ele>184.714954</ele>
        <time>2022-08-12T09:28:14.399Z</time>
      </trkpt>
      <trkpt lat="43.66423" lon="1.44957">
        <ele>184.779095</ele>
        <time>2022-08-12T09:28:16.420Z</time>
      </trkpt>
      <trkpt lat="43.66418" lon="1.44972">
        <ele>184.843648</ele>
        <time>2022-08-12T09:28:18.385Z</time>
      </trkpt>
      <trkpt lat="43.66414" lon="1.44988">
        <ele>184.906314</ele>
        <time>2022-08-12T09:28:20.393Z</time>
      </trkpt>
      <trkpt lat="43.66413" lon="1.45004">
        <ele>184.969252</ele>
        <time>2022-08-12T09:28:22.413Z</time>
      </trkpt>
      <trkpt lat="43.66411" lon="1.45019">
        <ele>185.02863</ele>
        <time>2022-08-12T09:28:24.417Z</time>
      </trkpt>
      <trkpt lat="43.66407" lon="1.45033">
        <ele>185.089043</ele>
        <time>2022-08-12T09:28:26.396Z</time>
      </trkpt>
      <trkpt lat="43.66402" lon="1.45047">
        <ele>185.149316</ele>
        <time>2022-08-12T09:28:28.412Z</time>
      </trkpt>
      <trkpt lat="43.66397" lon="1.45061">
        <ele>185.209938</ele>
        <time>2022-08-12T09:28:30.396Z</time>
      </trkpt>
      <trkpt lat="43.66393" lon="1.45075">
        <ele>185.270209</ele>
        <time>2022-08-12T09:28:32.431Z</time>
      </trkpt>
      <trkpt lat="43.66391" lon="1.4509">
        <ele>185.32918</ele>
        <time>2022-08-12T09:28:34.413Z</time>
      </trkpt>
      <trkpt lat="43.66385" lon="1.45103">
        <ele>185.388479</ele>
        <time>2022-08-12T09:28:36.397Z</time>
      </trkpt>
      <trkpt lat="43.66379" lon="1.45116">
        <ele>185.447362</ele>
        <time>2022-08-12T09:28:38.414Z</time>
      </trkpt>
      <trkpt lat="43.66374" lon="1.45129">
        <ele>185.505716</ele>
        <time>2022-08-12T09:28:40.404Z</time>
      </trkpt>
      <trkpt lat="43.66369" lon="1.45142">
        <ele>185.565443</ele>
        <time>2022-08-12T09:28:42.395Z</time>
      </trkpt>
      <trkpt lat="43.66363" lon="1.45154">
        <ele>185.622082</ele>
        <time>2022-08-12T09:28:44.391Z</time>
      </trkpt>
      <trkpt lat="43.66358" lon="1.45165">
        <ele>185.672155</ele>
        <time>2022-08-12T09:28:46.399Z</time>
      </trkpt>
      <trkpt lat="43.66361" lon="1.45178">
        <ele>185.633017</ele>
        <time>2022-08-12T09:28:48.382Z</time>
      </trkpt>
      <trkpt lat="43.66359" lon="1.45192">
        <ele>185.577818</ele>
        <time>2022-08-12T09:28:50.380Z</time>
      </trkpt>
      <trkpt lat="43.66352" lon="1.45207">
        <ele>185.510676</ele>
        <time>2022-08-12T09:28:52.375Z</time>
      </trkpt>
      <trkpt lat="43.66349" lon="1.45223">
        <ele>185.444658</ele>
        <time>2022-08-12T09:28:54.412Z</time>
      </trkpt>
      <trkpt lat="43.66343" lon="1.4524">
        <ele>185.370524</ele>
        <time>2022-08-12T09:28:56.406Z</time>
      </trkpt>
      <trkpt lat="43.66337" lon="1.45253">
        <ele>185.308744</ele>
        <time>2022-08-12T09:28:58.402Z</time>
      </trkpt>
      <trkpt lat="43.66331" lon="1.45264">
        <ele>185.25466</ele>
        <time>2022-08-12T09:29:00.414Z</time>
      </trkpt>
      <trkpt lat="43.66326" lon="1.45276">
        <ele>185.196538</ele>
        <time>2022-08-12T09:29:02.398Z</time>
      </trkpt>
      <trkpt lat="43.66319" lon="1.45289">
        <ele>185.135409</ele>
        <time>2022-08-12T09:29:04.379Z</time>
      </trkpt>
      <trkpt lat="43.66313" lon="1.45302">
        <ele>185.073937</ele>
        <time>2022-08-12T09:29:06.404Z</time>
      </trkpt>
      <trkpt lat="43.66307" lon="1.45315">
        <ele>185.011479</ele>
        <time>2022-08-12T09:29:08.402Z</time>
      </trkpt>
      <trkpt lat="43.66301" lon="1.45329">
        <ele>184.947828</ele>
        <time>2022-08-12T09:29:10.405Z</time>
      </trkpt>
      <trkpt lat="43.66295" lon="1.45343">
        <ele>184.885005</ele>
        <time>2022-08-12T09:29:12.406Z</time>
      </trkpt>
      <trkpt lat="43.66288" lon="1.45357">
        <ele>184.820173</ele>
        <time>2022-08-12T09:29:14.399Z</time>
      </trkpt>
      <trkpt lat="43.66283" lon="1.4537">
        <ele>184.759796</ele>
        <time>2022-08-12T09:29:16.404Z</time>
      </trkpt>
      <trkpt lat="43.66277" lon="1.45384">
        <ele>184.701928</ele>
        <time>2022-08-12T09:29:18.403Z</time>
      </trkpt>
      <trkpt lat="43.66273" lon="1.454">
        <ele>184.757129</ele>
        <time>2022-08-12T09:29:20.400Z</time>
      </trkpt>
      <trkpt lat="43.66268" lon="1.45416">
        <ele>184.813584</ele>
        <time>2022-08-12T09:29:22.400Z</time>
      </trkpt>
      <trkpt lat="43.66264" lon="1.45431">
        <ele>184.867371</ele>
        <time>2022-08-12T09:29:24.420Z</time>
      </trkpt>
      <trkpt lat="43.6626" lon="1.45446">
        <ele>184.919004</ele>
        <time>2022-08-12T09:29:26.382Z</time>
      </trkpt>
      <trkpt lat="43.66257" lon="1.45461">
        <ele>184.970221</ele>
        <time>2022-08-12T09:29:28.395Z</time>
      </trkpt>
      <trkpt lat="43.66253" lon="1.45475">
        <ele>185.021425</ele>
        <time>2022-08-12T09:29:30.416Z</time>
      </trkpt>
      <trkpt lat="43.66248" lon="1.45489">
        <ele>185.07205</ele>
        <time>2022-08-12T09:29:32.407Z</time>
      </trkpt>
      <trkpt lat="43.66243" lon="1.45504">
        <ele>185.125779</ele>
        <time>2022-08-12T09:29:34.384Z</time>
      </trkpt>
      <trkpt lat="43.66239" lon="1.45519">
        <ele>185.178952</ele>
        <time>2022-08-12T09:29:36.412Z</time>
      </trkpt>
      <trkpt lat="43.66234" lon="1.45534">
        <ele>185.232326</ele>
        <time>2022-08-12T09:29:38.406Z</time>
      </trkpt>
      <trkpt lat="43.6623" lon="1.45549">
        <ele>185.28503</ele>
        <time>2022-08-12T09:29:40.403Z</time>
      </trkpt>
      <trkpt lat="43.66226" lon="1.45565">
        <ele>185.339287</ele>
        <time>2022-08-12T09:29:42.398Z</time>
      </trkpt>
      <trkpt lat="43.66222" lon="1.4558">
        <ele>185.394158</ele>
        <time>2022-08-12T09:29:44.414Z</time>
      </trkpt>
      <trkpt lat="43.66217" lon="1.45596">
        <ele>185.450057</ele>
        <time>2022-08-12T09:29:46.405Z</time>
      </trkpt>
      <trkpt lat="43.66213" lon="1.45612">
        <ele>185.503742</ele>
        <time>2022-08-12T09:29:48.409Z</time>
      </trkpt>
      <trkpt lat="43.66208" lon="1.45626">
        <ele>185.524542</ele>
        <time>2022-08-12T09:29:50.397Z</time>
      </trkpt>
      <trkpt lat="43.66198" lon="1.45632">
        <ele>185.53543</ele>
        <time>2022-08-12T09:29:52.404Z</time>
      </trkpt>
      <trkpt lat="43.66189" lon="1.45624">
        <ele>185.546827</ele>
        <time>2022-08-12T09:29:54.401Z</time>
      </trkpt>
      <trkpt lat="43.66179" lon="1.45613">
        <ele>185.559213</ele>
        <time>2022-08-12T09:29:56.389Z</time>
      </trkpt>
      <trkpt lat="43.66171" lon="1.45601">
        <ele>185.571592</ele>
        <time>2022-08-12T09:29:58.406Z</time>
      </trkpt>
      <trkpt lat="43.66163" lon="1.4559">
        <ele>185.582805</ele>
        <time>2022-08-12T09:30:00.389Z</time>
      </trkpt>
      <trkpt lat="43.66153" lon="1.45581">
        <ele>185.594746</ele>
        <time>2022-08-12T09:30:02.407Z</time>
      </trkpt>
      <trkpt lat="43.66142" lon="1.45571">
        <ele>185.607452</ele>
        <time>2022-08-12T09:30:04.412Z</time>
      </trkpt>
      <trkpt lat="43.66132" lon="1.45562">
        <ele>185.620015</ele>
        <time>2022-08-12T09:30:06.411Z</time>
      </trkpt>
      <trkpt lat="43.66121" lon="1.45552">
        <ele>185.632836</ele>
        <time>2022-08-12T09:30:08.414Z</time>
      </trkpt>
      <trkpt lat="43.6611" lon="1.45544">
        <ele>185.645568</ele>
        <time>2022-08-12T09:30:10.390Z</time>
      </trkpt>
      <trkpt lat="43.66099" lon="1.45537">
        <ele>185.65807</ele>
        <time>2022-08-12T09:30:12.389Z</time>
      </trkpt>
      <trkpt lat="43.66088" lon="1.45531">
        <ele>185.670085</ele>
        <time>2022-08-12T09:30:14.406Z</time>
      </trkpt>
      <trkpt lat="43.66076" lon="1.45533">
        <ele>185.681603</ele>
        <time>2022-08-12T09:30:16.406Z</time>
      </trkpt>
      <trkpt lat="43.66064" lon="1.45532">
        <ele>185.693963</ele>
        <time>2022-08-12T09:30:18.427Z</time>
      </trkpt>
      <trkpt lat="43.66052" lon="1.45525">
        <ele>185.850615</ele>
        <time>2022-08-12T09:30:20.386Z</time>
      </trkpt>
      <trkpt lat="43.66041" lon="1.45518">
        <ele>186.047634</ele>
        <time>2022-08-12T09:30:22.399Z</time>
      </trkpt>
      <trkpt lat="43.6603" lon="1.4551">
        <ele>186.22982</ele>
        <time>2022-08-12T09:30:24.381Z</time>
      </trkpt>
      <trkpt lat="43.66023" lon="1.45503">
        <ele>186.370182</ele>
        <time>2022-08-12T09:30:27.428Z</time>
      </trkpt>
      <trkpt lat="43.66015" lon="1.45495">
        <ele>186.522485</ele>
        <time>2022-08-12T09:30:30.422Z</time>
      </trkpt>
      <trkpt lat="43.66003" lon="1.45485">
        <ele>186.731285</ele>
        <time>2022-08-12T09:30:33.408Z</time>
      </trkpt>
      <trkpt lat="43.65992" lon="1.45479">
        <ele>186.909615</ele>
        <time>2022-08-12T09:30:35.418Z</time>
      </trkpt>
      <trkpt lat="43.65981" lon="1.45474">
        <ele>187.07953</ele>
        <time>2022-08-12T09:30:37.403Z</time>
      </trkpt>
      <trkpt lat="43.65973" lon="1.45464">
        <ele>187.247585</ele>
        <time>2022-08-12T09:30:39.384Z</time>
      </trkpt>
      <trkpt lat="43.65963" lon="1.45454">
        <ele>187.440594</ele>
        <time>2022-08-12T09:30:41.377Z</time>
      </trkpt>
      <trkpt lat="43.65951" lon="1.45451">
        <ele>187.616097</ele>
        <time>2022-08-12T09:30:43.404Z</time>
      </trkpt>
      <trkpt lat="43.65939" lon="1.45456">
        <ele>187.812877</ele>
        <time>2022-08-12T09:30:45.367Z</time>
      </trkpt>
      <trkpt lat="43.65928" lon="1.45464">
        <ele>187.994506</ele>
        <time>2022-08-12T09:30:47.397Z</time>
      </trkpt>
      <trkpt lat="43.65917" lon="1.45469">
        <ele>188.18133</ele>
        <time>2022-08-12T09:30:49.395Z</time>
      </trkpt>
      <trkpt lat="43.65905" lon="1.45471">
        <ele>188.365335</ele>
        <time>2022-08-12T09:30:51.395Z</time>
      </trkpt>
      <trkpt lat="43.65893" lon="1.45473">
        <ele>188.414508</ele>
        <time>2022-08-12T09:30:53.397Z</time>
      </trkpt>
      <trkpt lat="43.6588" lon="1.45475">
        <ele>188.378715</ele>
        <time>2022-08-12T09:30:55.401Z</time>
      </trkpt>
      <trkpt lat="43.65868" lon="1.45477">
        <ele>188.343184</ele>
        <time>2022-08-12T09:30:57.398Z</time>
      </trkpt>
      <trkpt lat="43.65855" lon="1.45481">
        <ele>188.306964</ele>
        <time>2022-08-12T09:30:59.405Z</time>
      </trkpt>
      <trkpt lat="43.65843" lon="1.45484">
        <ele>188.271459</ele>
        <time>2022-08-12T09:31:01.419Z</time>
      </trkpt>
      <trkpt lat="43.65831" lon="1.45488">
        <ele>188.23753</ele>
        <time>2022-08-12T09:31:03.400Z</time>
      </trkpt>
      <trkpt lat="43.6582" lon="1.45492">
        <ele>188.203046</ele>
        <time>2022-08-12T09:31:05.406Z</time>
      </trkpt>
      <trkpt lat="43.65808" lon="1.45496">
        <ele>188.169209</ele>
        <time>2022-08-12T09:31:07.386Z</time>
      </trkpt>
      <trkpt lat="43.65796" lon="1.45495">
        <ele>188.135625</ele>
        <time>2022-08-12T09:31:09.393Z</time>
      </trkpt>
      <trkpt lat="43.65785" lon="1.45491">
        <ele>188.101918</ele>
        <time>2022-08-12T09:31:11.407Z</time>
      </trkpt>
      <trkpt lat="43.65773" lon="1.45487">
        <ele>188.068571</ele>
        <time>2022-08-12T09:31:13.399Z</time>
      </trkpt>
      <trkpt lat="43.65763" lon="1.45485">
        <ele>188.037158</ele>
        <time>2022-08-12T09:31:15.425Z</time>
      </trkpt>
      <trkpt lat="43.65751" lon="1.45482">
        <ele>188.003992</ele>
        <time>2022-08-12T09:31:17.411Z</time>
      </trkpt>
      <trkpt lat="43.6574" lon="1.4548">
        <ele>187.971141</ele>
        <time>2022-08-12T09:31:19.398Z</time>
      </trkpt>
      <trkpt lat="43.65727" lon="1.45477">
        <ele>187.935481</ele>
        <time>2022-08-12T09:31:21.388Z</time>
      </trkpt>
      <trkpt lat="43.65715" lon="1.45472">
        <ele>187.867194</ele>
        <time>2022-08-12T09:31:23.375Z</time>
      </trkpt>
      <trkpt lat="43.65702" lon="1.45466">
        <ele>187.783979</ele>
        <time>2022-08-12T09:31:25.413Z</time>
      </trkpt>
      <trkpt lat="43.6569" lon="1.45461">
        <ele>187.701452</ele>
        <time>2022-08-12T09:31:27.395Z</time>
      </trkpt>
      <trkpt lat="43.65678" lon="1.45455">
        <ele>187.61953</ele>
        <time>2022-08-12T09:31:29.402Z</time>
      </trkpt>
      <trkpt lat="43.65665" lon="1.45451">
        <ele>187.539818</ele>
        <time>2022-08-12T09:31:31.414Z</time>
      </trkpt>
      <trkpt lat="43.65654" lon="1.45445">
        <ele>187.462259</ele>
        <time>2022-08-12T09:31:33.398Z</time>
      </trkpt>
      <trkpt lat="43.65642" lon="1.4544">
        <ele>187.385441</ele>
        <time>2022-08-12T09:31:35.407Z</time>
      </trkpt>
      <trkpt lat="43.65631" lon="1.45436">
        <ele>187.308757</ele>
        <time>2022-08-12T09:31:37.409Z</time>
      </trkpt>
      <trkpt lat="43.65619" lon="1.4543">
        <ele>187.231365</ele>
        <time>2022-08-12T09:31:39.400Z</time>
      </trkpt>
      <trkpt lat="43.65608" lon="1.45425">
        <ele>187.157367</ele>
        <time>2022-08-12T09:31:41.388Z</time>
      </trkpt>
      <trkpt lat="43.65597" lon="1.45421">
        <ele>187.08339</ele>
        <time>2022-08-12T09:31:43.406Z</time>
      </trkpt>
      <trkpt lat="43.65585" lon="1.45417">
        <ele>187.00842</ele>
        <time>2022-08-12T09:31:45.414Z</time>
      </trkpt>
      <trkpt lat="43.65574" lon="1.45413">
        <ele>186.935401</ele>
        <time>2022-08-12T09:31:47.407Z</time>
      </trkpt>
      <trkpt lat="43.65563" lon="1.45409">
        <ele>186.862034</ele>
        <time>2022-08-12T09:31:49.392Z</time>
      </trkpt>
      <trkpt lat="43.65551" lon="1.45405">
        <ele>186.787396</ele>
        <time>2022-08-12T09:31:51.418Z</time>
      </trkpt>
      <trkpt lat="43.6554" lon="1.45401">
        <ele>186.796306</ele>
        <time>2022-08-12T09:31:53.411Z</time>
      </trkpt>
      <trkpt lat="43.65529" lon="1.45397">
        <ele>186.805024</ele>
        <time>2022-08-12T09:31:55.390Z</time>
      </trkpt>
      <trkpt lat="43.65517" lon="1.45393">
        <ele>186.813801</ele>
        <time>2022-08-12T09:31:57.395Z</time>
      </trkpt>
      <trkpt lat="43.65506" lon="1.45389">
        <ele>186.822565</ele>
        <time>2022-08-12T09:31:59.405Z</time>
      </trkpt>
      <trkpt lat="43.65495" lon="1.45385">
        <ele>186.831356</ele>
        <time>2022-08-12T09:32:01.393Z</time>
      </trkpt>
      <trkpt lat="43.65484" lon="1.45381">
        <ele>186.840263</ele>
        <time>2022-08-12T09:32:03.413Z</time>
      </trkpt>
      <trkpt lat="43.65473" lon="1.45375">
        <ele>186.848984</ele>
        <time>2022-08-12T09:32:05.402Z</time>
      </trkpt>
      <trkpt lat="43.65462" lon="1.45371">
        <ele>186.857622</ele>
        <time>2022-08-12T09:32:07.379Z</time>
      </trkpt>
      <trkpt lat="43.65451" lon="1.45367">
        <ele>186.866151</ele>
        <time>2022-08-12T09:32:09.391Z</time>
      </trkpt>
      <trkpt lat="43.65441" lon="1.45364">
        <ele>186.87415</ele>
        <time>2022-08-12T09:32:11.404Z</time>
      </trkpt>
      <trkpt lat="43.65438" lon="1.45352">
        <ele>186.881258</ele>
        <time>2022-08-12T09:32:13.403Z</time>
      </trkpt>
      <trkpt lat="43.65444" lon="1.45339">
        <ele>186.889798</ele>
        <time>2022-08-12T09:32:15.414Z</time>
      </trkpt>
      <trkpt lat="43.65454" lon="1.45329">
        <ele>186.898828</ele>
        <time>2022-08-12T09:32:17.397Z</time>
      </trkpt>
      <trkpt lat="43.65458" lon="1.45314">
        <ele>186.907221</ele>
        <time>2022-08-12T09:32:19.398Z</time>
      </trkpt>
      <trkpt lat="43.65463" lon="1.45301">
        <ele>186.915652</ele>
        <time>2022-08-12T09:32:21.405Z</time>
      </trkpt>
      <trkpt lat="43.65472" lon="1.45292">
        <ele>186.92215</ele>
        <time>2022-08-12T09:32:23.378Z</time>
      </trkpt>
      <trkpt lat="43.65482" lon="1.45283">
        <ele>186.887772</ele>
        <time>2022-08-12T09:32:25.392Z</time>
      </trkpt>
      <trkpt lat="43.65491" lon="1.45273">
        <ele>186.853618</ele>
        <time>2022-08-12T09:32:27.404Z</time>
      </trkpt>
      <trkpt lat="43.65501" lon="1.45262">
        <ele>186.817651</ele>
        <time>2022-08-12T09:32:29.398Z</time>
      </trkpt>
      <trkpt lat="43.6551" lon="1.45252">
        <ele>186.782255</ele>
        <time>2022-08-12T09:32:31.390Z</time>
      </trkpt>
      <trkpt lat="43.6552" lon="1.45242">
        <ele>186.747738</ele>
        <time>2022-08-12T09:32:33.406Z</time>
      </trkpt>
      <trkpt lat="43.65529" lon="1.45232">
        <ele>186.713626</ele>
        <time>2022-08-12T09:32:35.396Z</time>
      </trkpt>
      <trkpt lat="43.65538" lon="1.45222">
        <ele>186.679515</ele>
        <time>2022-08-12T09:32:37.405Z</time>
      </trkpt>
      <trkpt lat="43.65547" lon="1.45212">
        <ele>186.644997</ele>
        <time>2022-08-12T09:32:39.391Z</time>
      </trkpt>
      <trkpt lat="43.65556" lon="1.45202">
        <ele>186.610427</ele>
        <time>2022-08-12T09:32:41.410Z</time>
      </trkpt>
      <trkpt lat="43.65565" lon="1.45191">
        <ele>186.575857</ele>
        <time>2022-08-12T09:32:43.405Z</time>
      </trkpt>
      <trkpt lat="43.65574" lon="1.45182">
        <ele>186.541912</ele>
        <time>2022-08-12T09:32:45.408Z</time>
      </trkpt>
      <trkpt lat="43.65582" lon="1.4517">
        <ele>186.50795</ele>
        <time>2022-08-12T09:32:47.398Z</time>
      </trkpt>
      <trkpt lat="43.65591" lon="1.4516">
        <ele>186.474831</ele>
        <time>2022-08-12T09:32:49.387Z</time>
      </trkpt>
      <trkpt lat="43.65599" lon="1.45149">
        <ele>186.442094</ele>
        <time>2022-08-12T09:32:51.389Z</time>
      </trkpt>
      <trkpt lat="43.656" lon="1.45133">
        <ele>186.407667</ele>
        <time>2022-08-12T09:32:53.419Z</time>
      </trkpt>
      <trkpt lat="43.65597" lon="1.45118">
        <ele>186.442112</ele>
        <time>2022-08-12T09:32:55.408Z</time>
      </trkpt>
      <trkpt lat="43.6559" lon="1.45106">
        <ele>186.51752</ele>
        <time>2022-08-12T09:32:57.391Z</time>
      </trkpt>
      <trkpt lat="43.65582" lon="1.45095">
        <ele>186.593235</ele>
        <time>2022-08-12T09:32:59.401Z</time>
      </trkpt>
      <trkpt lat="43.65574" lon="1.45084">
        <ele>186.671505</ele>
        <time>2022-08-12T09:33:01.410Z</time>
      </trkpt>
      <trkpt lat="43.65567" lon="1.45073">
        <ele>186.744057</ele>
        <time>2022-08-12T09:33:03.407Z</time>
      </trkpt>
      <trkpt lat="43.6556" lon="1.45063">
        <ele>186.811641</ele>
        <time>2022-08-12T09:33:05.383Z</time>
      </trkpt>
      <trkpt lat="43.65553" lon="1.45053">
        <ele>186.881038</ele>
        <time>2022-08-12T09:33:07.402Z</time>
      </trkpt>
      <trkpt lat="43.65545" lon="1.45042">
        <ele>186.955663</ele>
        <time>2022-08-12T09:33:09.405Z</time>
      </trkpt>
      <trkpt lat="43.65538" lon="1.45031">
        <ele>187.029705</ele>
        <time>2022-08-12T09:33:11.406Z</time>
      </trkpt>
      <trkpt lat="43.65531" lon="1.45021">
        <ele>187.096011</ele>
        <time>2022-08-12T09:33:13.402Z</time>
      </trkpt>
      <trkpt lat="43.65524" lon="1.45012">
        <ele>187.160535</ele>
        <time>2022-08-12T09:33:15.397Z</time>
      </trkpt>
      <trkpt lat="43.65517" lon="1.45">
        <ele>187.233164</ele>
        <time>2022-08-12T09:33:17.393Z</time>
      </trkpt>
      <trkpt lat="43.6551" lon="1.44989">
        <ele>187.311005</ele>
        <time>2022-08-12T09:33:19.403Z</time>
      </trkpt>
      <trkpt lat="43.65502" lon="1.44977">
        <ele>187.3901</ele>
        <time>2022-08-12T09:33:21.392Z</time>
      </trkpt>
      <trkpt lat="43.65493" lon="1.44966">
        <ele>187.469194</ele>
        <time>2022-08-12T09:33:23.390Z</time>
      </trkpt>
      <trkpt lat="43.65485" lon="1.44953">
        <ele>187.549034</ele>
        <time>2022-08-12T09:33:25.409Z</time>
      </trkpt>
      <trkpt lat="43.65478" lon="1.44941">
        <ele>187.605274</ele>
        <time>2022-08-12T09:33:27.411Z</time>
      </trkpt>
      <trkpt lat="43.65476" lon="1.44925">
        <ele>187.566516</ele>
        <time>2022-08-12T09:33:29.440Z</time>
      </trkpt>
      <trkpt lat="43.6548" lon="1.4491">
        <ele>187.529351</ele>
        <time>2022-08-12T09:33:31.407Z</time>
      </trkpt>
      <trkpt lat="43.65487" lon="1.44896">
        <ele>187.490799</ele>
        <time>2022-08-12T09:33:33.397Z</time>
      </trkpt>
      <trkpt lat="43.65494" lon="1.44882">
        <ele>187.451073</ele>
        <time>2022-08-12T09:33:35.381Z</time>
      </trkpt>
      <trkpt lat="43.655" lon="1.44868">
        <ele>187.413406</ele>
        <time>2022-08-12T09:33:37.412Z</time>
      </trkpt>
      <trkpt lat="43.65506" lon="1.44854">
        <ele>187.375338</ele>
        <time>2022-08-12T09:33:39.404Z</time>
      </trkpt>
      <trkpt lat="43.65511" lon="1.44839">
        <ele>187.337876</ele>
        <time>2022-08-12T09:33:41.384Z</time>
      </trkpt>
      <trkpt lat="43.65516" lon="1.44825">
        <ele>187.300515</ele>
        <time>2022-08-12T09:33:43.389Z</time>
      </trkpt>
      <trkpt lat="43.65524" lon="1.44813">
        <ele>187.262564</ele>
        <time>2022-08-12T09:33:45.408Z</time>
      </trkpt>
      <trkpt lat="43.65533" lon="1.44802">
        <ele>187.224164</ele>
        <time>2022-08-12T09:33:47.395Z</time>
      </trkpt>
      <trkpt lat="43.65541" lon="1.44789">
        <ele>187.185313</ele>
        <time>2022-08-12T09:33:49.401Z</time>
      </trkpt>
      <trkpt lat="43.65548" lon="1.44775">
        <ele>187.146702</ele>
        <time>2022-08-12T09:33:51.392Z</time>
      </trkpt>
      <trkpt lat="43.65554" lon="1.44761">
        <ele>187.10901</ele>
        <time>2022-08-12T09:33:53.411Z</time>
      </trkpt>
      <trkpt lat="43.65561" lon="1.44748">
        <ele>187.070977</ele>
        <time>2022-08-12T09:33:55.404Z</time>
      </trkpt>
      <trkpt lat="43.65568" lon="1.44735">
        <ele>187.037465</ele>
        <time>2022-08-12T09:33:57.402Z</time>
      </trkpt>
      <trkpt lat="43.65575" lon="1.44721">
        <ele>187.037465</ele>
        <time>2022-08-12T09:33:59.401Z</time>
      </trkpt>
      <trkpt lat="43.65581" lon="1.44708">
        <ele>187.037465</ele>
        <time>2022-08-12T09:34:01.396Z</time>
      </trkpt>
      <trkpt lat="43.65588" lon="1.44695">
        <ele>187.037465</ele>
        <time>2022-08-12T09:34:03.406Z</time>
      </trkpt>
      <trkpt lat="43.65594" lon="1.44682">
        <ele>187.037465</ele>
        <time>2022-08-12T09:34:05.390Z</time>
      </trkpt>
      <trkpt lat="43.656" lon="1.4467">
        <ele>187.037465</ele>
        <time>2022-08-12T09:34:07.384Z</time>
      </trkpt>
      <trkpt lat="43.65605" lon="1.44658">
        <ele>187.037465</ele>
        <time>2022-08-12T09:34:09.410Z</time>
      </trkpt>
      <trkpt lat="43.65602" lon="1.44643">
        <ele>187.037465</ele>
        <time>2022-08-12T09:34:12.391Z</time>
      </trkpt>
      <trkpt lat="43.65593" lon="1.44637">
        <ele>187.037465</ele>
        <time>2022-08-12T09:34:15.395Z</time>
      </trkpt>
      <trkpt lat="43.65584" lon="1.44633">
        <ele>187.037465</ele>
        <time>2022-08-12T09:34:18.411Z</time>
      </trkpt>
      <trkpt lat="43.65576" lon="1.44624">
        <ele>187.037465</ele>
        <time>2022-08-12T09:34:22.418Z</time>
      </trkpt>
      <trkpt lat="43.6558" lon="1.44613">
        <ele>187.037465</ele>
        <time>2022-08-12T09:34:26.407Z</time>
      </trkpt>
      <trkpt lat="43.65581" lon="1.4461">
        <ele>187.037465</ele>
        <time>2022-08-12T09:34:38.890Z</time>
      </trkpt>
    </trkseg>
  </trk>
</gpx>